<?xml version='1.0' encoding='UTF-8'?><gpx version="1.1" creator="JPX - https://github.com/jenetics/jpx" xmlns="http://www.topografix.com/GPX/1/1"><trk><trkseg><trkpt lat="43.71284062514634" lon="7.074920872269662"><ele>317.0</ele><time>2026-04-25T13:24:31.001Z</time></trkpt><trkpt lat="43.7129089928096" lon="7.074860394536203"><ele>317.0</ele><time>2026-04-25T13:24:33Z</time></trkpt><trkpt lat="43.71297004249726" lon="7.074836884093739"><ele>317.0</ele><time>2026-04-25T13:24:35Z</time></trkpt><trkpt lat="43.713041388937086" lon="7.074826875435915"><ele>317.0</ele><time>2026-04-25T13:24:37Z</time></trkpt><trkpt lat="43.71308446254835" lon="7.0747266619113205"><ele>317.0</ele><time>2026-04-25T13:24:41Z</time></trkpt><trkpt lat="43.71306590998927" lon="7.074625075353425"><ele>317.0</ele><time>2026-04-25T13:24:43Z</time></trkpt><trkpt lat="43.713035885792074" lon="7.074521951283553"><ele>317.0</ele><time>2026-04-25T13:24:46Z</time></trkpt><trkpt lat="43.71301040171218" lon="7.074424374090175"><ele>317.0</ele><time>2026-04-25T13:24:58.999Z</time></trkpt><trkpt lat="43.71302194922519" lon="7.074335454635459"><ele>317.0</ele><time>2026-04-25T13:25:00.999Z</time></trkpt><trkpt lat="43.71306671562893" lon="7.074209751838257"><ele>317.0</ele><time>2026-04-25T13:25:02.999Z</time></trkpt><trkpt lat="43.71310251426626" lon="7.074114635358605"><ele>317.0</ele><time>2026-04-25T13:25:03.999Z</time></trkpt><trkpt lat="43.71316310782231" lon="7.074020091354624"><ele>317.0</ele><time>2026-04-25T13:25:04.999Z</time></trkpt><trkpt lat="43.71323503041335" lon="7.073930433057328"><ele>316.8</ele><time>2026-04-25T13:25:05.999Z</time></trkpt><trkpt lat="43.71330257562738" lon="7.0738407295449255"><ele>316.6</ele><time>2026-04-25T13:25:06.999Z</time></trkpt><trkpt lat="43.71336941151351" lon="7.073768975039859"><ele>316.40000000000003</ele><time>2026-04-25T13:25:07.999Z</time></trkpt><trkpt lat="43.713448074757785" lon="7.073694582387708"><ele>316.2</ele><time>2026-04-25T13:25:08.999Z</time></trkpt><trkpt lat="43.71353117529465" lon="7.073607897764129"><ele>316.0</ele><time>2026-04-25T13:25:09.999Z</time></trkpt><trkpt lat="43.713617381766376" lon="7.0735295232886095"><ele>318.6</ele><time>2026-04-25T13:25:10.999Z</time></trkpt><trkpt lat="43.71370560827867" lon="7.073445398598532"><ele>321.20000000000005</ele><time>2026-04-25T13:25:11.999Z</time></trkpt><trkpt lat="43.71378488088182" lon="7.073365442248144"><ele>323.79999999999995</ele><time>2026-04-25T13:25:12.999Z</time></trkpt><trkpt lat="43.71386368414116" lon="7.073309348913492"><ele>326.4</ele><time>2026-04-25T13:25:13.999Z</time></trkpt><trkpt lat="43.71394723206441" lon="7.073245111744096"><ele>329.0</ele><time>2026-04-25T13:25:14.999Z</time></trkpt><trkpt lat="43.714015652529504" lon="7.073152251695827"><ele>329.5</ele><time>2026-04-25T13:25:15.999Z</time></trkpt><trkpt lat="43.714080933983595" lon="7.073060543341693"><ele>330.0</ele><time>2026-04-25T13:25:16.999Z</time></trkpt><trkpt lat="43.714138135326344" lon="7.072972661570421"><ele>330.5</ele><time>2026-04-25T13:25:17.999Z</time></trkpt><trkpt lat="43.71419481949032" lon="7.072908199187216"><ele>331.0</ele><time>2026-04-25T13:25:18.999Z</time></trkpt><trkpt lat="43.714200705545466" lon="7.0727665376557"><ele>331.5</ele><time>2026-04-25T13:25:20.999Z</time></trkpt><trkpt lat="43.71415242583133" lon="7.072704863448541"><ele>332.0</ele><time>2026-04-25T13:25:21.999Z</time></trkpt><trkpt lat="43.714202491139645" lon="7.0727646619890265"><ele>332.0</ele><time>2026-04-25T13:25:26.999Z</time></trkpt><trkpt lat="43.71426429725465" lon="7.072868223600634"><ele>332.0</ele><time>2026-04-25T13:25:27.999Z</time></trkpt><trkpt lat="43.71432473007878" lon="7.072984585740423"><ele>332.0</ele><time>2026-04-25T13:25:28.999Z</time></trkpt><trkpt lat="43.71438736418979" lon="7.073092297002922"><ele>332.0</ele><time>2026-04-25T13:25:29.999Z</time></trkpt><trkpt lat="43.71445497192533" lon="7.073200494745806"><ele>332.0</ele><time>2026-04-25T13:25:30.999Z</time></trkpt><trkpt lat="43.71453643625038" lon="7.073299729198525"><ele>333.20000000000005</ele><time>2026-04-25T13:25:31.999Z</time></trkpt><trkpt lat="43.71462630983334" lon="7.073378394415706"><ele>334.4</ele><time>2026-04-25T13:25:32.999Z</time></trkpt><trkpt lat="43.71472724113812" lon="7.073432497029215"><ele>335.6</ele><time>2026-04-25T13:25:33.999Z</time></trkpt><trkpt lat="43.71482315341498" lon="7.07348924611975"><ele>336.79999999999995</ele><time>2026-04-25T13:25:34.999Z</time></trkpt><trkpt lat="43.71491232160452" lon="7.073534920622136"><ele>338.0</ele><time>2026-04-25T13:25:35.999Z</time></trkpt><trkpt lat="43.71499444726491" lon="7.073576185880754"><ele>338.0</ele><time>2026-04-25T13:25:36.999Z</time></trkpt><trkpt lat="43.71507396435371" lon="7.073600650239581"><ele>338.0</ele><time>2026-04-25T13:25:37.999Z</time></trkpt><trkpt lat="43.71514480034135" lon="7.073617369942158"><ele>338.0</ele><time>2026-04-25T13:25:38.998Z</time></trkpt><trkpt lat="43.715211217735146" lon="7.073632225096447"><ele>338.0</ele><time>2026-04-25T13:25:39.998Z</time></trkpt><trkpt lat="43.715272646417816" lon="7.073655302344753"><ele>338.0</ele><time>2026-04-25T13:25:40.998Z</time></trkpt><trkpt lat="43.71533463897234" lon="7.073672377979444"><ele>338.0</ele><time>2026-04-25T13:25:41.998Z</time></trkpt><trkpt lat="43.715399798143984" lon="7.073675132763183"><ele>338.0</ele><time>2026-04-25T13:25:42.998Z</time></trkpt><trkpt lat="43.715463161300015" lon="7.073684815826097"><ele>339.1666666666667</ele><time>2026-04-25T13:25:43.998Z</time></trkpt><trkpt lat="43.71552788799056" lon="7.0737202048309"><ele>340.33333333333337</ele><time>2026-04-25T13:25:45.998Z</time></trkpt><trkpt lat="43.715614526213095" lon="7.073734259060282"><ele>341.5</ele><time>2026-04-25T13:26:01.998Z</time></trkpt><trkpt lat="43.71569641761207" lon="7.0737527159266245"><ele>342.6666666666667</ele><time>2026-04-25T13:26:02.998Z</time></trkpt><trkpt lat="43.71578823197773" lon="7.0737894291532495"><ele>343.8333333333333</ele><time>2026-04-25T13:26:03.998Z</time></trkpt><trkpt lat="43.71587617459931" lon="7.073828247390448"><ele>345.0</ele><time>2026-04-25T13:26:04.998Z</time></trkpt><trkpt lat="43.71595394804063" lon="7.073870738306569"><ele>345.0</ele><time>2026-04-25T13:26:05.998Z</time></trkpt><trkpt lat="43.7160326203579" lon="7.073915004052962"><ele>345.0</ele><time>2026-04-25T13:26:06.998Z</time></trkpt><trkpt lat="43.7161166736552" lon="7.073968362268503"><ele>345.0</ele><time>2026-04-25T13:26:07.998Z</time></trkpt><trkpt lat="43.71620120646785" lon="7.074030037415579"><ele>345.0</ele><time>2026-04-25T13:26:08.998Z</time></trkpt><trkpt lat="43.71628371549016" lon="7.074108461647126"><ele>345.0</ele><time>2026-04-25T13:26:09.998Z</time></trkpt><trkpt lat="43.71636704710129" lon="7.074197731612704"><ele>345.4</ele><time>2026-04-25T13:26:10.998Z</time></trkpt><trkpt lat="43.716449277420836" lon="7.074294687912509"><ele>345.8</ele><time>2026-04-25T13:26:11.998Z</time></trkpt><trkpt lat="43.716526064722714" lon="7.074396473497902"><ele>346.20000000000005</ele><time>2026-04-25T13:26:12.998Z</time></trkpt><trkpt lat="43.71659720938562" lon="7.074505649583021"><ele>346.6</ele><time>2026-04-25T13:26:13.998Z</time></trkpt><trkpt lat="43.71666773645519" lon="7.074628974679919"><ele>347.0</ele><time>2026-04-25T13:26:14.998Z</time></trkpt><trkpt lat="43.716732082399126" lon="7.074746828884491"><ele>347.0</ele><time>2026-04-25T13:26:15.998Z</time></trkpt><trkpt lat="43.716803369258365" lon="7.074874654648687"><ele>347.0</ele><time>2026-04-25T13:26:16.999Z</time></trkpt><trkpt lat="43.716866401598075" lon="7.0750202208014485"><ele>347.0</ele><time>2026-04-25T13:26:17.999Z</time></trkpt><trkpt lat="43.71691632480778" lon="7.075167615056933"><ele>347.0</ele><time>2026-04-25T13:26:18.999Z</time></trkpt><trkpt lat="43.71696442558778" lon="7.075313467383698"><ele>347.0</ele><time>2026-04-25T13:26:19.999Z</time></trkpt><trkpt lat="43.71701793195561" lon="7.0754480106484765"><ele>347.0</ele><time>2026-04-25T13:26:20.999Z</time></trkpt><trkpt lat="43.71706483733784" lon="7.0755900118908555"><ele>347.0</ele><time>2026-04-25T13:26:21.999Z</time></trkpt><trkpt lat="43.71710562295469" lon="7.075728706565108"><ele>347.0</ele><time>2026-04-25T13:26:22.999Z</time></trkpt><trkpt lat="43.717149192459" lon="7.075862300902445"><ele>347.0</ele><time>2026-04-25T13:26:24Z</time></trkpt><trkpt lat="43.71718663840854" lon="7.075988286734338"><ele>347.0</ele><time>2026-04-25T13:26:25Z</time></trkpt><trkpt lat="43.71722443504211" lon="7.0761263949440245"><ele>347.0</ele><time>2026-04-25T13:26:26Z</time></trkpt><trkpt lat="43.717262225741585" lon="7.076249716288094"><ele>347.0</ele><time>2026-04-25T13:26:27Z</time></trkpt><trkpt lat="43.71729978532022" lon="7.076373263328599"><ele>347.0</ele><time>2026-04-25T13:26:27.999Z</time></trkpt><trkpt lat="43.71735002466183" lon="7.07650085438564"><ele>347.0</ele><time>2026-04-25T13:26:28.999Z</time></trkpt><trkpt lat="43.71740568531832" lon="7.076626027448496"><ele>345.0</ele><time>2026-04-25T13:26:30Z</time></trkpt><trkpt lat="43.717477292343716" lon="7.076741424417079"><ele>343.0</ele><time>2026-04-25T13:26:31Z</time></trkpt><trkpt lat="43.71755518939604" lon="7.076860650181315"><ele>341.0</ele><time>2026-04-25T13:26:31.999Z</time></trkpt><trkpt lat="43.71763558783038" lon="7.076960978031241"><ele>339.0</ele><time>2026-04-25T13:26:32.999Z</time></trkpt><trkpt lat="43.71772972039625" lon="7.077072993280275"><ele>343.25</ele><time>2026-04-25T13:26:33.999Z</time></trkpt><trkpt lat="43.71782434582074" lon="7.077174939206674"><ele>347.5</ele><time>2026-04-25T13:26:34.999Z</time></trkpt><trkpt lat="43.7179314073911" lon="7.07725414961327"><ele>351.75</ele><time>2026-04-25T13:26:35.999Z</time></trkpt><trkpt lat="43.71805465076303" lon="7.077332901801295"><ele>356.0</ele><time>2026-04-25T13:26:36.999Z</time></trkpt><trkpt lat="43.718170260360424" lon="7.077374971449002"><ele>356.0</ele><time>2026-04-25T13:26:37.999Z</time></trkpt><trkpt lat="43.71828893102307" lon="7.077408942164302"><ele>356.0</ele><time>2026-04-25T13:26:38.999Z</time></trkpt><trkpt lat="43.71840958178152" lon="7.07742989973744"><ele>356.0</ele><time>2026-04-25T13:26:39.999Z</time></trkpt><trkpt lat="43.71852675054683" lon="7.077444196576321"><ele>356.0</ele><time>2026-04-25T13:26:40.999Z</time></trkpt><trkpt lat="43.71864146845996" lon="7.07745000086915"><ele>352.20000000000005</ele><time>2026-04-25T13:26:41.999Z</time></trkpt><trkpt lat="43.71875361635925" lon="7.077453024398198"><ele>348.40000000000003</ele><time>2026-04-25T13:26:42.999Z</time></trkpt><trkpt lat="43.71885492462393" lon="7.077459947014175"><ele>344.6</ele><time>2026-04-25T13:26:43.999Z</time></trkpt><trkpt lat="43.71895411110252" lon="7.077463698898725"><ele>340.8</ele><time>2026-04-25T13:26:44.999Z</time></trkpt><trkpt lat="43.71904671845296" lon="7.0774580570735"><ele>337.0</ele><time>2026-04-25T13:26:45.999Z</time></trkpt><trkpt lat="43.71913564468918" lon="7.077455293684974"><ele>337.0</ele><time>2026-04-25T13:26:46.999Z</time></trkpt><trkpt lat="43.71921740898979" lon="7.0774588596758345"><ele>337.0</ele><time>2026-04-25T13:26:47.999Z</time></trkpt><trkpt lat="43.71929497617283" lon="7.07746640807791"><ele>337.0</ele><time>2026-04-25T13:26:48.999Z</time></trkpt><trkpt lat="43.71936979126195" lon="7.077471354076707"><ele>337.0</ele><time>2026-04-25T13:26:49.999Z</time></trkpt><trkpt lat="43.71943642247122" lon="7.0774744189861085"><ele>337.0</ele><time>2026-04-25T13:26:50.999Z</time></trkpt><trkpt lat="43.71951281426227" lon="7.0774813953135025"><ele>337.0</ele><time>2026-04-25T13:26:51.999Z</time></trkpt><trkpt lat="43.71959909018159" lon="7.077495307748406"><ele>338.20000000000005</ele><time>2026-04-25T13:26:52.999Z</time></trkpt><trkpt lat="43.719688618775756" lon="7.077503763150048"><ele>339.4</ele><time>2026-04-25T13:26:53.999Z</time></trkpt><trkpt lat="43.719787113440375" lon="7.077512270590351"><ele>340.6</ele><time>2026-04-25T13:26:54.999Z</time></trkpt><trkpt lat="43.71989399837233" lon="7.077524805140252"><ele>341.79999999999995</ele><time>2026-04-25T13:26:55.999Z</time></trkpt><trkpt lat="43.72000004376189" lon="7.07754034821473"><ele>343.0</ele><time>2026-04-25T13:26:56.999Z</time></trkpt><trkpt lat="43.720108198344086" lon="7.077554949080171"><ele>343.0</ele><time>2026-04-25T13:26:57.999Z</time></trkpt><trkpt lat="43.720215949031655" lon="7.077579594937485"><ele>343.0</ele><time>2026-04-25T13:26:58.999Z</time></trkpt><trkpt lat="43.72031496449676" lon="7.077616250305792"><ele>343.0</ele><time>2026-04-25T13:26:59.999Z</time></trkpt><trkpt lat="43.720423178224976" lon="7.077658092085091"><ele>343.0</ele><time>2026-04-25T13:27:00.999Z</time></trkpt><trkpt lat="43.7205287964954" lon="7.077711144185828"><ele>343.0</ele><time>2026-04-25T13:27:01.999Z</time></trkpt><trkpt lat="43.72062912219546" lon="7.0777803923413956"><ele>345.79999999999995</ele><time>2026-04-25T13:27:02.999Z</time></trkpt><trkpt lat="43.720734478686104" lon="7.077855159790524"><ele>348.6</ele><time>2026-04-25T13:27:03.999Z</time></trkpt><trkpt lat="43.720827368888465" lon="7.07792300611768"><ele>351.4</ele><time>2026-04-25T13:27:04.999Z</time></trkpt><trkpt lat="43.720910051476785" lon="7.077999005382665"><ele>354.20000000000005</ele><time>2026-04-25T13:27:05.999Z</time></trkpt><trkpt lat="43.72098632458931" lon="7.078087345120071"><ele>357.0</ele><time>2026-04-25T13:27:06.999Z</time></trkpt><trkpt lat="43.72105631989139" lon="7.078168267757619"><ele>354.6</ele><time>2026-04-25T13:27:07.999Z</time></trkpt><trkpt lat="43.72111741385939" lon="7.078252680230528"><ele>352.20000000000005</ele><time>2026-04-25T13:27:08.999Z</time></trkpt><trkpt lat="43.721173095076516" lon="7.078340617813217"><ele>349.8</ele><time>2026-04-25T13:27:09.999Z</time></trkpt><trkpt lat="43.721224158635536" lon="7.078452148801941"><ele>347.4</ele><time>2026-04-25T13:27:10.999Z</time></trkpt><trkpt lat="43.72127759762012" lon="7.078563866001472"><ele>345.0</ele><time>2026-04-25T13:27:11.999Z</time></trkpt><trkpt lat="43.7213275721384" lon="7.078672085464954"><ele>343.6666666666667</ele><time>2026-04-25T13:27:12.999Z</time></trkpt><trkpt lat="43.721369846508175" lon="7.078771453491063"><ele>342.3333333333333</ele><time>2026-04-25T13:27:13.999Z</time></trkpt><trkpt lat="43.72141158755574" lon="7.078870283404726"><ele>341.0</ele><time>2026-04-25T13:27:14.999Z</time></trkpt><trkpt lat="43.72144226622588" lon="7.078980245681946"><ele>339.66666666666663</ele><time>2026-04-25T13:27:15.999Z</time></trkpt><trkpt lat="43.721480165509846" lon="7.079091821411536"><ele>338.3333333333333</ele><time>2026-04-25T13:27:16.999Z</time></trkpt><trkpt lat="43.72151018722165" lon="7.079212625742759"><ele>337.0</ele><time>2026-04-25T13:27:17.999Z</time></trkpt><trkpt lat="43.72154312481626" lon="7.079333905378639"><ele>337.0</ele><time>2026-04-25T13:27:18.999Z</time></trkpt><trkpt lat="43.7215769991457" lon="7.079459738373351"><ele>337.0</ele><time>2026-04-25T13:27:19.999Z</time></trkpt><trkpt lat="43.7215926090105" lon="7.079592439231073"><ele>337.0</ele><time>2026-04-25T13:27:20.999Z</time></trkpt><trkpt lat="43.721602646160626" lon="7.079726823272304"><ele>337.0</ele><time>2026-04-25T13:27:21.999Z</time></trkpt><trkpt lat="43.72160981472383" lon="7.079861734141648"><ele>337.0</ele><time>2026-04-25T13:27:22.999Z</time></trkpt><trkpt lat="43.72161147447913" lon="7.079995387836073"><ele>338.40000000000003</ele><time>2026-04-25T13:27:23.999Z</time></trkpt><trkpt lat="43.7216043228077" lon="7.08014216874825"><ele>339.8</ele><time>2026-04-25T13:27:24.999Z</time></trkpt><trkpt lat="43.72159594461664" lon="7.080284812146685"><ele>341.2</ele><time>2026-04-25T13:27:25.999Z</time></trkpt><trkpt lat="43.721587093067534" lon="7.080425721781247"><ele>342.6</ele><time>2026-04-25T13:27:26.999Z</time></trkpt><trkpt lat="43.72156321013128" lon="7.080583555576658"><ele>344.0</ele><time>2026-04-25T13:27:27.999Z</time></trkpt><trkpt lat="43.72152999695484" lon="7.080724888337256"><ele>344.4</ele><time>2026-04-25T13:27:28.999Z</time></trkpt><trkpt lat="43.721493478283925" lon="7.080860835837026"><ele>344.79999999999995</ele><time>2026-04-25T13:27:29.999Z</time></trkpt><trkpt lat="43.721450856576446" lon="7.081002500747085"><ele>345.20000000000005</ele><time>2026-04-25T13:27:30.999Z</time></trkpt><trkpt lat="43.72138989067648" lon="7.081134745323718"><ele>345.6</ele><time>2026-04-25T13:27:31.999Z</time></trkpt><trkpt lat="43.72133463002658" lon="7.081281920865085"><ele>346.0</ele><time>2026-04-25T13:27:32.999Z</time></trkpt><trkpt lat="43.72127893681227" lon="7.081424754415016"><ele>346.0</ele><time>2026-04-25T13:27:33.999Z</time></trkpt><trkpt lat="43.721205506704884" lon="7.081537202876424"><ele>346.0</ele><time>2026-04-25T13:27:34.999Z</time></trkpt><trkpt lat="43.72115027645125" lon="7.081678043425583"><ele>346.0</ele><time>2026-04-25T13:27:35.999Z</time></trkpt><trkpt lat="43.7210797171113" lon="7.081800843222611"><ele>346.0</ele><time>2026-04-25T13:27:36.999Z</time></trkpt><trkpt lat="43.7210044164185" lon="7.0819220780359124"><ele>345.0</ele><time>2026-04-25T13:27:37.999Z</time></trkpt><trkpt lat="43.72093143283811" lon="7.082053047435536"><ele>344.0</ele><time>2026-04-25T13:27:38.999Z</time></trkpt><trkpt lat="43.720863457614584" lon="7.082191280442739"><ele>343.0</ele><time>2026-04-25T13:27:39.999Z</time></trkpt><trkpt lat="43.72078896060274" lon="7.082328024639549"><ele>342.0</ele><time>2026-04-25T13:27:40.999Z</time></trkpt><trkpt lat="43.72074618389575" lon="7.0824818922625665"><ele>341.5</ele><time>2026-04-25T13:27:41.999Z</time></trkpt><trkpt lat="43.72068699648088" lon="7.082622127880179"><ele>341.0</ele><time>2026-04-25T13:27:42.999Z</time></trkpt><trkpt lat="43.72066388106719" lon="7.082777402615746"><ele>340.5</ele><time>2026-04-25T13:27:43.999Z</time></trkpt><trkpt lat="43.72063654421708" lon="7.082925393190862"><ele>340.0</ele><time>2026-04-25T13:27:44.999Z</time></trkpt><trkpt lat="43.720616508622236" lon="7.083072949345317"><ele>340.0</ele><time>2026-04-25T13:27:45.999Z</time></trkpt><trkpt lat="43.7206092945705" lon="7.083213366430521"><ele>340.0</ele><time>2026-04-25T13:27:46.999Z</time></trkpt><trkpt lat="43.72060674571082" lon="7.0833434606034595"><ele>340.0</ele><time>2026-04-25T13:27:47.999Z</time></trkpt><trkpt lat="43.72061355188115" lon="7.083467214571261"><ele>340.0</ele><time>2026-04-25T13:27:48.999Z</time></trkpt><trkpt lat="43.720615304586" lon="7.0835805191617744"><ele>340.0</ele><time>2026-04-25T13:27:49.999Z</time></trkpt><trkpt lat="43.72061482450228" lon="7.0836915543281505"><ele>340.0</ele><time>2026-04-25T13:27:50.999Z</time></trkpt><trkpt lat="43.720605718345965" lon="7.0837943916926935"><ele>340.0</ele><time>2026-04-25T13:27:51.999Z</time></trkpt><trkpt lat="43.72058535451226" lon="7.083888189401513"><ele>340.0</ele><time>2026-04-25T13:27:52.999Z</time></trkpt><trkpt lat="43.720561317359746" lon="7.083974348032055"><ele>340.0</ele><time>2026-04-25T13:27:53.999Z</time></trkpt><trkpt lat="43.72052464367952" lon="7.084057793901123"><ele>340.0</ele><time>2026-04-25T13:27:54.998Z</time></trkpt><trkpt lat="43.72046356645964" lon="7.0841178192481635"><ele>340.0</ele><time>2026-04-25T13:27:55.998Z</time></trkpt><trkpt lat="43.720386665451244" lon="7.0841772080919245"><ele>340.0</ele><time>2026-04-25T13:27:56.998Z</time></trkpt><trkpt lat="43.720303824929985" lon="7.084246819581949"><ele>338.2</ele><time>2026-04-25T13:27:57.998Z</time></trkpt><trkpt lat="43.72022052792016" lon="7.08432226411663"><ele>336.4</ele><time>2026-04-25T13:27:58.998Z</time></trkpt><trkpt lat="43.72014341907959" lon="7.084406684841672"><ele>334.6</ele><time>2026-04-25T13:27:59.998Z</time></trkpt><trkpt lat="43.72007285035999" lon="7.0845059417004865"><ele>332.8</ele><time>2026-04-25T13:28:00.998Z</time></trkpt><trkpt lat="43.72000779422082" lon="7.084616096309694"><ele>331.0</ele><time>2026-04-25T13:28:01.998Z</time></trkpt><trkpt lat="43.71993578323401" lon="7.084713737567848"><ele>331.0</ele><time>2026-04-25T13:28:02.998Z</time></trkpt><trkpt lat="43.71984641469656" lon="7.084778008308122"><ele>331.0</ele><time>2026-04-25T13:28:03.998Z</time></trkpt><trkpt lat="43.71974924784135" lon="7.0847963083867045"><ele>331.0</ele><time>2026-04-25T13:28:04.998Z</time></trkpt><trkpt lat="43.719663463307555" lon="7.08474425380369"><ele>331.0</ele><time>2026-04-25T13:28:05.998Z</time></trkpt><trkpt lat="43.719582445075645" lon="7.084700489086266"><ele>331.0</ele><time>2026-04-25T13:28:06.998Z</time></trkpt><trkpt lat="43.71949282047637" lon="7.084656389233226"><ele>330.4</ele><time>2026-04-25T13:28:07.998Z</time></trkpt><trkpt lat="43.719399411380486" lon="7.084610391340607"><ele>329.8</ele><time>2026-04-25T13:28:08.998Z</time></trkpt><trkpt lat="43.719301718580525" lon="7.084562258185861"><ele>329.2</ele><time>2026-04-25T13:28:09.998Z</time></trkpt><trkpt lat="43.71920308006977" lon="7.084513659285594"><ele>328.59999999999997</ele><time>2026-04-25T13:28:10.998Z</time></trkpt><trkpt lat="43.719098001234414" lon="7.0844870610727195"><ele>328.0</ele><time>2026-04-25T13:28:11.998Z</time></trkpt><trkpt lat="43.719001906088636" lon="7.0844381245375745"><ele>328.0</ele><time>2026-04-25T13:28:12.998Z</time></trkpt><trkpt lat="43.718902858770825" lon="7.084386610611817"><ele>328.0</ele><time>2026-04-25T13:28:13.998Z</time></trkpt><trkpt lat="43.71880462568697" lon="7.084327504726432"><ele>328.0</ele><time>2026-04-25T13:28:14.998Z</time></trkpt><trkpt lat="43.718691695677904" lon="7.084287855363815"><ele>328.0</ele><time>2026-04-25T13:28:15.998Z</time></trkpt><trkpt lat="43.71857971597435" lon="7.084259431897353"><ele>328.0</ele><time>2026-04-25T13:28:16.998Z</time></trkpt><trkpt lat="43.71847243239981" lon="7.084277409349375"><ele>327.4</ele><time>2026-04-25T13:28:17.998Z</time></trkpt><trkpt lat="43.71836507519116" lon="7.084258081066278"><ele>326.79999999999995</ele><time>2026-04-25T13:28:18.998Z</time></trkpt><trkpt lat="43.718259421724895" lon="7.084302641660939"><ele>326.2</ele><time>2026-04-25T13:28:19.998Z</time></trkpt><trkpt lat="43.71815947134053" lon="7.08434827644538"><ele>325.6</ele><time>2026-04-25T13:28:20.998Z</time></trkpt><trkpt lat="43.71805567217317" lon="7.084400855370581"><ele>325.0</ele><time>2026-04-25T13:28:21.998Z</time></trkpt><trkpt lat="43.71795188330135" lon="7.084450021575686"><ele>325.0</ele><time>2026-04-25T13:28:23Z</time></trkpt><trkpt lat="43.71785411127094" lon="7.08449640280248"><ele>325.0</ele><time>2026-04-25T13:28:24Z</time></trkpt><trkpt lat="43.71775857035338" lon="7.084545598230134"><ele>325.0</ele><time>2026-04-25T13:28:25Z</time></trkpt><trkpt lat="43.71766413465875" lon="7.084589961124102"><ele>325.0</ele><time>2026-04-25T13:28:26Z</time></trkpt><trkpt lat="43.717569541497234" lon="7.084626081878274"><ele>325.0</ele><time>2026-04-25T13:28:27Z</time></trkpt><trkpt lat="43.71748175265675" lon="7.084658674202983"><ele>324.3333333333333</ele><time>2026-04-25T13:28:28Z</time></trkpt><trkpt lat="43.71739943802086" lon="7.084690519995546"><ele>323.66666666666663</ele><time>2026-04-25T13:28:29Z</time></trkpt><trkpt lat="43.717319689417174" lon="7.08472488165657"><ele>323.0</ele><time>2026-04-25T13:28:30Z</time></trkpt><trkpt lat="43.71723640548928" lon="7.084750409657548"><ele>322.3333333333333</ele><time>2026-04-25T13:28:31Z</time></trkpt><trkpt lat="43.71714937325011" lon="7.084772357725603"><ele>321.6666666666667</ele><time>2026-04-25T13:28:32Z</time></trkpt><trkpt lat="43.717061652726" lon="7.084790905427889"><ele>321.0</ele><time>2026-04-25T13:28:33Z</time></trkpt><trkpt lat="43.71697870097304" lon="7.084815509103017"><ele>320.8333333333333</ele><time>2026-04-25T13:28:34Z</time></trkpt><trkpt lat="43.71689745415184" lon="7.084839897908989"><ele>320.6666666666667</ele><time>2026-04-25T13:28:35Z</time></trkpt><trkpt lat="43.7168178735867" lon="7.084862194488261"><ele>320.5</ele><time>2026-04-25T13:28:36Z</time></trkpt><trkpt lat="43.716739076628286" lon="7.0848893776734245"><ele>320.33333333333337</ele><time>2026-04-25T13:28:37Z</time></trkpt><trkpt lat="43.71666575483831" lon="7.08492759127439"><ele>320.1666666666667</ele><time>2026-04-25T13:28:38Z</time></trkpt><trkpt lat="43.71659444746655" lon="7.084979128069472"><ele>320.0</ele><time>2026-04-25T13:28:39Z</time></trkpt><trkpt lat="43.716525653549326" lon="7.085037331073526"><ele>320.0</ele><time>2026-04-25T13:28:40Z</time></trkpt><trkpt lat="43.71645550450602" lon="7.085098775244014"><ele>320.0</ele><time>2026-04-25T13:28:41Z</time></trkpt><trkpt lat="43.71638200315672" lon="7.085165216620442"><ele>320.0</ele><time>2026-04-25T13:28:42Z</time></trkpt><trkpt lat="43.716305828866425" lon="7.085235781802724"><ele>320.0</ele><time>2026-04-25T13:28:43Z</time></trkpt><trkpt lat="43.71622789838879" lon="7.085308507622994"><ele>320.0</ele><time>2026-04-25T13:28:44Z</time></trkpt><trkpt lat="43.71615156378642" lon="7.085387675096254"><ele>320.0</ele><time>2026-04-25T13:28:45Z</time></trkpt><trkpt lat="43.716074216578036" lon="7.085466275668862"><ele>320.0</ele><time>2026-04-25T13:28:46Z</time></trkpt><trkpt lat="43.71599859356653" lon="7.085538208296936"><ele>320.0</ele><time>2026-04-25T13:28:47Z</time></trkpt><trkpt lat="43.71593100152503" lon="7.085600488559475"><ele>320.0</ele><time>2026-04-25T13:28:47.999Z</time></trkpt><trkpt lat="43.71586617950931" lon="7.085659356007991"><ele>320.0</ele><time>2026-04-25T13:28:48.999Z</time></trkpt><trkpt lat="43.715801275084054" lon="7.085715470457444"><ele>320.0</ele><time>2026-04-25T13:28:49.999Z</time></trkpt><trkpt lat="43.715732149914224" lon="7.085777506534973"><ele>320.0</ele><time>2026-04-25T13:28:50.999Z</time></trkpt><trkpt lat="43.71566304422432" lon="7.085837571705078"><ele>320.0</ele><time>2026-04-25T13:28:51.999Z</time></trkpt><trkpt lat="43.715590429051915" lon="7.0859035849232"><ele>320.0</ele><time>2026-04-25T13:28:52.999Z</time></trkpt><trkpt lat="43.715519002995315" lon="7.085968529218376"><ele>320.0</ele><time>2026-04-25T13:28:53.999Z</time></trkpt><trkpt lat="43.715448547604886" lon="7.086031954874979"><ele>320.0</ele><time>2026-04-25T13:28:54.999Z</time></trkpt><trkpt lat="43.71537625544846" lon="7.08608966503514"><ele>320.0</ele><time>2026-04-25T13:28:55.999Z</time></trkpt><trkpt lat="43.71530328587454" lon="7.086133040407508"><ele>320.0</ele><time>2026-04-25T13:28:56.999Z</time></trkpt><trkpt lat="43.71524202882155" lon="7.086163460626167"><ele>320.0</ele><time>2026-04-25T13:28:57.999Z</time></trkpt><trkpt lat="43.71518205301537" lon="7.086197069182298"><ele>320.0</ele><time>2026-04-25T13:28:59.999Z</time></trkpt><trkpt lat="43.7151181448387" lon="7.086249346380706"><ele>320.0</ele><time>2026-04-25T13:29:02.999Z</time></trkpt><trkpt lat="43.715027768475" lon="7.086312610372931"><ele>320.0</ele><time>2026-04-25T13:29:04.999Z</time></trkpt><trkpt lat="43.71497423074365" lon="7.086372591692428"><ele>320.0</ele><time>2026-04-25T13:29:05.999Z</time></trkpt><trkpt lat="43.71491722571068" lon="7.086444656556346"><ele>320.0</ele><time>2026-04-25T13:29:06.999Z</time></trkpt><trkpt lat="43.71485707381667" lon="7.086527143197349"><ele>320.0</ele><time>2026-04-25T13:29:07.999Z</time></trkpt><trkpt lat="43.71479402204004" lon="7.086606156241987"><ele>320.0</ele><time>2026-04-25T13:29:08.999Z</time></trkpt><trkpt lat="43.714738372362284" lon="7.086673000022768"><ele>320.0</ele><time>2026-04-25T13:29:09.999Z</time></trkpt><trkpt lat="43.714684092041374" lon="7.086732855297702"><ele>320.0</ele><time>2026-04-25T13:29:10.999Z</time></trkpt><trkpt lat="43.714633758256795" lon="7.086800773311643"><ele>320.0</ele><time>2026-04-25T13:29:11.999Z</time></trkpt><trkpt lat="43.7145851955419" lon="7.086882822358668"><ele>320.5</ele><time>2026-04-25T13:29:12.999Z</time></trkpt><trkpt lat="43.71453119119973" lon="7.086964096153209"><ele>321.0</ele><time>2026-04-25T13:29:13.999Z</time></trkpt><trkpt lat="43.714465317445814" lon="7.0870407549364565"><ele>321.5</ele><time>2026-04-25T13:29:14.999Z</time></trkpt><trkpt lat="43.71440055690103" lon="7.087125796226625"><ele>322.0</ele><time>2026-04-25T13:29:15.999Z</time></trkpt><trkpt lat="43.714334204079584" lon="7.087211937574125"><ele>322.5</ele><time>2026-04-25T13:29:16.999Z</time></trkpt><trkpt lat="43.714267447780145" lon="7.087297267118158"><ele>323.0</ele><time>2026-04-25T13:29:17.999Z</time></trkpt><trkpt lat="43.71420118036701" lon="7.087390220172756"><ele>323.6666666666667</ele><time>2026-04-25T13:29:18.999Z</time></trkpt><trkpt lat="43.714136279301556" lon="7.087475823918853"><ele>324.33333333333337</ele><time>2026-04-25T13:29:19.999Z</time></trkpt><trkpt lat="43.714070422233156" lon="7.0875559520435445"><ele>325.0</ele><time>2026-04-25T13:29:20.999Z</time></trkpt><trkpt lat="43.71400538818333" lon="7.087634762237345"><ele>325.6666666666667</ele><time>2026-04-25T13:29:21.999Z</time></trkpt><trkpt lat="43.71394638870425" lon="7.087714895407591"><ele>326.3333333333333</ele><time>2026-04-25T13:29:22.999Z</time></trkpt><trkpt lat="43.71388191435567" lon="7.08777344761055"><ele>327.0</ele><time>2026-04-25T13:29:23.999Z</time></trkpt><trkpt lat="43.7138096521055" lon="7.087802575559074"><ele>327.0</ele><time>2026-04-25T13:29:24.999Z</time></trkpt><trkpt lat="43.71373683025062" lon="7.087820911255145"><ele>327.0</ele><time>2026-04-25T13:29:25.999Z</time></trkpt><trkpt lat="43.71365636927989" lon="7.087813134009661"><ele>327.0</ele><time>2026-04-25T13:29:26.999Z</time></trkpt><trkpt lat="43.713577757039765" lon="7.087830603396547"><ele>327.0</ele><time>2026-04-25T13:29:27.999Z</time></trkpt><trkpt lat="43.713498996529474" lon="7.087871188239154"><ele>327.0</ele><time>2026-04-25T13:29:28.999Z</time></trkpt><trkpt lat="43.713413734929624" lon="7.08787767575926"><ele>327.0</ele><time>2026-04-25T13:29:29.999Z</time></trkpt><trkpt lat="43.71333008663254" lon="7.087890847045032"><ele>327.1666666666667</ele><time>2026-04-25T13:29:30.999Z</time></trkpt><trkpt lat="43.71324868485202" lon="7.087904375685527"><ele>327.3333333333333</ele><time>2026-04-25T13:29:31.999Z</time></trkpt><trkpt lat="43.713165474832174" lon="7.0879287348892115"><ele>327.5</ele><time>2026-04-25T13:29:32.999Z</time></trkpt><trkpt lat="43.71308864218911" lon="7.087970268164241"><ele>327.66666666666663</ele><time>2026-04-25T13:29:33.999Z</time></trkpt><trkpt lat="43.713012191111275" lon="7.08801941291898"><ele>327.8333333333333</ele><time>2026-04-25T13:29:34.999Z</time></trkpt><trkpt lat="43.71293954804766" lon="7.088070221979175"><ele>328.0</ele><time>2026-04-25T13:29:35.999Z</time></trkpt><trkpt lat="43.7128651106143" lon="7.088120710855266"><ele>328.0</ele><time>2026-04-25T13:29:36.999Z</time></trkpt><trkpt lat="43.712789816856414" lon="7.088175716465445"><ele>328.0</ele><time>2026-04-25T13:29:37.999Z</time></trkpt><trkpt lat="43.71271517033676" lon="7.088238663415622"><ele>328.0</ele><time>2026-04-25T13:29:38.999Z</time></trkpt><trkpt lat="43.712630155309874" lon="7.088274684979889"><ele>328.0</ele><time>2026-04-25T13:29:39.999Z</time></trkpt><trkpt lat="43.712552505693196" lon="7.088324798679854"><ele>328.0</ele><time>2026-04-25T13:29:40.999Z</time></trkpt><trkpt lat="43.71247480760447" lon="7.088370924476134"><ele>328.0</ele><time>2026-04-25T13:29:41.999Z</time></trkpt><trkpt lat="43.712398069842735" lon="7.088415510317174"><ele>329.0</ele><time>2026-04-25T13:29:42.999Z</time></trkpt><trkpt lat="43.71232292643649" lon="7.088457859788445"><ele>330.0</ele><time>2026-04-25T13:29:43.999Z</time></trkpt><trkpt lat="43.71225445635685" lon="7.0885168621732015"><ele>331.0</ele><time>2026-04-25T13:29:44.999Z</time></trkpt><trkpt lat="43.712176398222766" lon="7.088530533379105"><ele>332.0</ele><time>2026-04-25T13:29:45.999Z</time></trkpt><trkpt lat="43.712114650165546" lon="7.088557139248492"><ele>333.0</ele><time>2026-04-25T13:29:46.999Z</time></trkpt><trkpt lat="43.71200725065248" lon="7.0886014207162145"><ele>334.0</ele><time>2026-04-25T13:29:48.999Z</time></trkpt><trkpt lat="43.71191145792626" lon="7.088577984041706"><ele>334.0</ele><time>2026-04-25T13:29:50.999Z</time></trkpt><trkpt lat="43.71179002118622" lon="7.088544413377262"><ele>334.0</ele><time>2026-04-25T13:29:52.999Z</time></trkpt><trkpt lat="43.711726092950265" lon="7.088521432836218"><ele>334.0</ele><time>2026-04-25T13:29:53.999Z</time></trkpt><trkpt lat="43.71165789822018" lon="7.088494544471249"><ele>334.0</ele><time>2026-04-25T13:29:54.999Z</time></trkpt><trkpt lat="43.71159311733406" lon="7.08846900213824"><ele>334.0</ele><time>2026-04-25T13:29:55.999Z</time></trkpt><trkpt lat="43.71152739552429" lon="7.088461424458863"><ele>334.0</ele><time>2026-04-25T13:29:56.999Z</time></trkpt><trkpt lat="43.711411138938054" lon="7.088413663765402"><ele>334.0</ele><time>2026-04-25T13:29:58.999Z</time></trkpt><trkpt lat="43.71132103345315" lon="7.088353682716334"><ele>334.0</ele><time>2026-04-25T13:30:00.998Z</time></trkpt><trkpt lat="43.711296991696436" lon="7.088641094017646"><ele>334.0</ele><time>2026-04-25T13:30:03.998Z</time></trkpt><trkpt lat="43.711317016226594" lon="7.088736457893457"><ele>334.0</ele><time>2026-04-25T13:30:05.998Z</time></trkpt></trkseg><trkseg><trkpt lat="43.71136795614482" lon="7.088706397677028"><ele>334.0</ele><time>2026-04-25T13:44:34Z</time></trkpt><trkpt lat="43.71152459704587" lon="7.088493818979309"><ele>334.0</ele><time>2026-04-25T13:44:44Z</time></trkpt><trkpt lat="43.71162493898342" lon="7.0885170355915035"><ele>334.0</ele><time>2026-04-25T13:44:46Z</time></trkpt><trkpt lat="43.71168236774973" lon="7.088565166328188"><ele>334.0</ele><time>2026-04-25T13:44:47Z</time></trkpt><trkpt lat="43.71174483558541" lon="7.088614815315133"><ele>334.0</ele><time>2026-04-25T13:44:48Z</time></trkpt><trkpt lat="43.71180313932554" lon="7.088651994682662"><ele>334.0</ele><time>2026-04-25T13:44:49Z</time></trkpt><trkpt lat="43.71188201605845" lon="7.088621917230474"><ele>334.0</ele><time>2026-04-25T13:44:50Z</time></trkpt><trkpt lat="43.711952198702924" lon="7.088629639793295"><ele>334.0</ele><time>2026-04-25T13:44:51Z</time></trkpt><trkpt lat="43.71206955546989" lon="7.088625052540253"><ele>334.0</ele><time>2026-04-25T13:44:53Z</time></trkpt><trkpt lat="43.71215303417154" lon="7.088589873271889"><ele>334.0</ele><time>2026-04-25T13:44:55Z</time></trkpt><trkpt lat="43.71223429241351" lon="7.088567482123092"><ele>334.0</ele><time>2026-04-25T13:44:57Z</time></trkpt><trkpt lat="43.712311218788514" lon="7.088514904679113"><ele>334.0</ele><time>2026-04-25T13:44:59Z</time></trkpt><trkpt lat="43.712390944950116" lon="7.08848474768656"><ele>334.0</ele><time>2026-04-25T13:45:01Z</time></trkpt><trkpt lat="43.71245171817609" lon="7.08843658240508"><ele>334.0</ele><time>2026-04-25T13:45:03Z</time></trkpt><trkpt lat="43.71252047683902" lon="7.088392927294609"><ele>334.0</ele><time>2026-04-25T13:45:05.999Z</time></trkpt><trkpt lat="43.712591846636634" lon="7.0883311316278075"><ele>334.0</ele><time>2026-04-25T13:45:08.999Z</time></trkpt><trkpt lat="43.71271572676599" lon="7.088267995022934"><ele>332.79999999999995</ele><time>2026-04-25T13:45:10.999Z</time></trkpt><trkpt lat="43.712817108596944" lon="7.088192841210031"><ele>331.59999999999997</ele><time>2026-04-25T13:45:12.999Z</time></trkpt><trkpt lat="43.71291068653506" lon="7.0881215560973665"><ele>330.4</ele><time>2026-04-25T13:45:14.999Z</time></trkpt><trkpt lat="43.712981465662324" lon="7.088030113375205"><ele>329.2</ele><time>2026-04-25T13:45:16.999Z</time></trkpt><trkpt lat="43.71304370065018" lon="7.087984487596116"><ele>328.0</ele><time>2026-04-25T13:45:18.999Z</time></trkpt><trkpt lat="43.71309975546432" lon="7.0879392072335845"><ele>328.0</ele><time>2026-04-25T13:47:06Z</time></trkpt><trkpt lat="43.713177067884594" lon="7.087931209394651"><ele>328.0</ele><time>2026-04-25T13:55:53.999Z</time></trkpt><trkpt lat="43.7132815784994" lon="7.087929328243448"><ele>328.0</ele><time>2026-04-25T13:55:55.999Z</time></trkpt><trkpt lat="43.71339760919847" lon="7.0879144499065445"><ele>328.0</ele><time>2026-04-25T13:55:57.999Z</time></trkpt><trkpt lat="43.71351662928897" lon="7.087902951974959"><ele>328.0</ele><time>2026-04-25T13:55:59.999Z</time></trkpt><trkpt lat="43.713583662843554" lon="7.087880445029456"><ele>327.8333333333333</ele><time>2026-04-25T13:56:00.999Z</time></trkpt><trkpt lat="43.71364782499507" lon="7.08785626579551"><ele>327.66666666666663</ele><time>2026-04-25T13:56:01.999Z</time></trkpt><trkpt lat="43.713710539958576" lon="7.08783719946947"><ele>327.5</ele><time>2026-04-25T13:56:02.999Z</time></trkpt><trkpt lat="43.71382616858272" lon="7.087826249275117"><ele>327.3333333333333</ele><time>2026-04-25T13:56:04.999Z</time></trkpt><trkpt lat="43.713881849655344" lon="7.087884195060068"><ele>327.1666666666667</ele><time>2026-04-25T13:56:09.999Z</time></trkpt><trkpt lat="43.71396718120982" lon="7.087803747308678"><ele>327.0</ele><time>2026-04-25T13:56:11.999Z</time></trkpt><trkpt lat="43.71403857700273" lon="7.087670166317769"><ele>327.0</ele><time>2026-04-25T13:56:13.999Z</time></trkpt><trkpt lat="43.714082027432525" lon="7.087604971828979"><ele>327.0</ele><time>2026-04-25T13:56:14.999Z</time></trkpt><trkpt lat="43.71412945379552" lon="7.087534016394484"><ele>327.0</ele><time>2026-04-25T13:56:15.999Z</time></trkpt><trkpt lat="43.71418555935062" lon="7.08746432450226"><ele>327.0</ele><time>2026-04-25T13:56:16.999Z</time></trkpt><trkpt lat="43.7142451102524" lon="7.087395842472868"><ele>327.0</ele><time>2026-04-25T13:56:17.999Z</time></trkpt><trkpt lat="43.71430525440751" lon="7.087318814654386"><ele>327.0</ele><time>2026-04-25T13:56:18.999Z</time></trkpt><trkpt lat="43.7143621086269" lon="7.087239317188055"><ele>326.3333333333333</ele><time>2026-04-25T13:56:19.999Z</time></trkpt><trkpt lat="43.71442614560777" lon="7.087164451499991"><ele>325.6666666666667</ele><time>2026-04-25T13:56:20.999Z</time></trkpt><trkpt lat="43.71448355583229" lon="7.087086421475511"><ele>325.0</ele><time>2026-04-25T13:56:21.999Z</time></trkpt><trkpt lat="43.714538293710184" lon="7.087012048898166"><ele>324.33333333333337</ele><time>2026-04-25T13:56:22.999Z</time></trkpt><trkpt lat="43.714599202220214" lon="7.086938299267396"><ele>323.6666666666667</ele><time>2026-04-25T13:56:23.999Z</time></trkpt><trkpt lat="43.71465838026848" lon="7.086863281129496"><ele>323.0</ele><time>2026-04-25T13:56:24.999Z</time></trkpt><trkpt lat="43.714711148219855" lon="7.0867853553594005"><ele>323.0</ele><time>2026-04-25T13:56:25.999Z</time></trkpt><trkpt lat="43.714764798789815" lon="7.086707539199648"><ele>323.0</ele><time>2026-04-25T13:56:26.999Z</time></trkpt><trkpt lat="43.71481943313874" lon="7.086630704597072"><ele>323.0</ele><time>2026-04-25T13:56:27.999Z</time></trkpt><trkpt lat="43.714871947443704" lon="7.086553520403548"><ele>323.0</ele><time>2026-04-25T13:56:28.999Z</time></trkpt><trkpt lat="43.714928592989565" lon="7.086487932817596"><ele>323.0</ele><time>2026-04-25T13:56:29.999Z</time></trkpt><trkpt lat="43.71498249785685" lon="7.086427146988545"><ele>323.0</ele><time>2026-04-25T13:56:30.999Z</time></trkpt><trkpt lat="43.71506560271269" lon="7.086333863451588"><ele>322.5</ele><time>2026-04-25T13:56:32.999Z</time></trkpt><trkpt lat="43.71513716252341" lon="7.086327971976039"><ele>322.0</ele><time>2026-04-25T13:56:35.998Z</time></trkpt><trkpt lat="43.7151904595501" lon="7.086456488814307"><ele>321.5</ele><time>2026-04-25T13:56:38Z</time></trkpt><trkpt lat="43.71524454953634" lon="7.086514631720235"><ele>321.0</ele><time>2026-04-25T13:56:39Z</time></trkpt><trkpt lat="43.71528114548446" lon="7.086604447374933"><ele>320.5</ele><time>2026-04-25T13:56:40Z</time></trkpt><trkpt lat="43.71533946969631" lon="7.086685312137366"><ele>320.0</ele><time>2026-04-25T13:56:41Z</time></trkpt><trkpt lat="43.71541589768097" lon="7.086747882491851"><ele>319.6666666666667</ele><time>2026-04-25T13:56:42Z</time></trkpt><trkpt lat="43.71548400080923" lon="7.0868252255034"><ele>319.33333333333337</ele><time>2026-04-25T13:56:43Z</time></trkpt><trkpt lat="43.71555149640057" lon="7.086902632591512"><ele>319.0</ele><time>2026-04-25T13:56:44Z</time></trkpt><trkpt lat="43.71561524952728" lon="7.08697874540071"><ele>318.6666666666667</ele><time>2026-04-25T13:56:45Z</time></trkpt><trkpt lat="43.71568221104623" lon="7.08702771305273"><ele>318.3333333333333</ele><time>2026-04-25T13:56:46Z</time></trkpt><trkpt lat="43.7157631496876" lon="7.087068404225543"><ele>318.0</ele><time>2026-04-25T13:56:47Z</time></trkpt><trkpt lat="43.715837898614595" lon="7.087118968994102"><ele>318.0</ele><time>2026-04-25T13:56:48Z</time></trkpt><trkpt lat="43.71591499197718" lon="7.08717451832572"><ele>318.0</ele><time>2026-04-25T13:56:49Z</time></trkpt><trkpt lat="43.71598687899228" lon="7.087234197522012"><ele>318.0</ele><time>2026-04-25T13:56:50Z</time></trkpt><trkpt lat="43.71605895945777" lon="7.087274337633329"><ele>318.0</ele><time>2026-04-25T13:56:51Z</time></trkpt><trkpt lat="43.71614238979388" lon="7.087314561366329"><ele>318.0</ele><time>2026-04-25T13:56:52Z</time></trkpt><trkpt lat="43.716217790210116" lon="7.087358954882617"><ele>318.0</ele><time>2026-04-25T13:56:53Z</time></trkpt><trkpt lat="43.7162919139172" lon="7.087396724736795"><ele>317.2857142857143</ele><time>2026-04-25T13:56:54Z</time></trkpt><trkpt lat="43.71636074045504" lon="7.087433347886719"><ele>316.5714285714286</ele><time>2026-04-25T13:56:55Z</time></trkpt><trkpt lat="43.71642781999221" lon="7.087472640712325"><ele>315.8571428571429</ele><time>2026-04-25T13:56:56Z</time></trkpt><trkpt lat="43.71649684057861" lon="7.0875130256182315"><ele>315.1428571428571</ele><time>2026-04-25T13:56:57Z</time></trkpt><trkpt lat="43.71656101764375" lon="7.087560368109888"><ele>314.42857142857144</ele><time>2026-04-25T13:56:58Z</time></trkpt><trkpt lat="43.71662156441212" lon="7.0876124889169025"><ele>313.7142857142857</ele><time>2026-04-25T13:56:59Z</time></trkpt><trkpt lat="43.71668018033511" lon="7.087656623405419"><ele>313.0</ele><time>2026-04-25T13:57:00Z</time></trkpt><trkpt lat="43.71678869864619" lon="7.0877210701433135"><ele>313.0</ele><time>2026-04-25T13:57:02Z</time></trkpt><trkpt lat="43.716891036959105" lon="7.087760730561177"><ele>313.0</ele><time>2026-04-25T13:57:04Z</time></trkpt><trkpt lat="43.717003891990664" lon="7.087743704350527"><ele>313.0</ele><time>2026-04-25T13:57:06Z</time></trkpt><trkpt lat="43.71712027523696" lon="7.08772472776164"><ele>313.0</ele><time>2026-04-25T13:57:08Z</time></trkpt><trkpt lat="43.71723771512782" lon="7.087691333199506"><ele>313.0</ele><time>2026-04-25T13:57:10Z</time></trkpt><trkpt lat="43.71734921263629" lon="7.087675958782859"><ele>313.0</ele><time>2026-04-25T13:57:12Z</time></trkpt><trkpt lat="43.7174667655237" lon="7.0876767356339405"><ele>313.0</ele><time>2026-04-25T13:57:14Z</time></trkpt><trkpt lat="43.717556248132595" lon="7.087807620540314"><ele>313.0</ele><time>2026-04-25T13:57:16Z</time></trkpt><trkpt lat="43.7176043615775" lon="7.087909913286343"><ele>313.0</ele><time>2026-04-25T13:57:17Z</time></trkpt><trkpt lat="43.71766251947665" lon="7.08799398877619"><ele>313.0</ele><time>2026-04-25T13:57:18Z</time></trkpt><trkpt lat="43.717716174661675" lon="7.0880766699759965"><ele>313.0</ele><time>2026-04-25T13:57:19Z</time></trkpt><trkpt lat="43.71777191478694" lon="7.088161365661236"><ele>313.0</ele><time>2026-04-25T13:57:20Z</time></trkpt><trkpt lat="43.717815785225625" lon="7.088237642208799"><ele>313.0</ele><time>2026-04-25T13:57:21Z</time></trkpt><trkpt lat="43.717893579670076" lon="7.088353143621493"><ele>313.0</ele><time>2026-04-25T13:57:23Z</time></trkpt><trkpt lat="43.717946875066666" lon="7.0884489580000585"><ele>313.0</ele><time>2026-04-25T13:57:25Z</time></trkpt><trkpt lat="43.71795333575839" lon="7.088618177629634"><ele>312.8333333333333</ele><time>2026-04-25T13:57:27Z</time></trkpt><trkpt lat="43.71793233970584" lon="7.0887168899084365"><ele>312.66666666666663</ele><time>2026-04-25T13:57:28Z</time></trkpt><trkpt lat="43.71792478451293" lon="7.088812176952625"><ele>312.5</ele><time>2026-04-25T13:57:29Z</time></trkpt><trkpt lat="43.71792356928727" lon="7.088904670673947"><ele>312.3333333333333</ele><time>2026-04-25T13:57:30Z</time></trkpt><trkpt lat="43.717925593594074" lon="7.089069602324616"><ele>312.1666666666667</ele><time>2026-04-25T13:57:32Z</time></trkpt><trkpt lat="43.71794857639398" lon="7.0891528816274585"><ele>312.0</ele><time>2026-04-25T13:57:33Z</time></trkpt><trkpt lat="43.7180651619947" lon="7.089140328637545"><ele>312.0</ele><time>2026-04-25T13:57:34Z</time></trkpt><trkpt lat="43.71814871492617" lon="7.089080201035536"><ele>312.0</ele><time>2026-04-25T13:57:35Z</time></trkpt><trkpt lat="43.71822118928154" lon="7.089068391075174"><ele>312.0</ele><time>2026-04-25T13:57:36Z</time></trkpt><trkpt lat="43.71829193222634" lon="7.089030102021125"><ele>312.0</ele><time>2026-04-25T13:57:37Z</time></trkpt><trkpt lat="43.71835390929163" lon="7.08900431544081"><ele>312.0</ele><time>2026-04-25T13:57:37.999Z</time></trkpt><trkpt lat="43.71841244097975" lon="7.088958206659357"><ele>312.0</ele><time>2026-04-25T13:57:38.999Z</time></trkpt><trkpt lat="43.718479413265506" lon="7.088935104983376"><ele>312.0</ele><time>2026-04-25T13:57:39.999Z</time></trkpt><trkpt lat="43.718580544869845" lon="7.088813411657798"><ele>312.0</ele><time>2026-04-25T13:57:41.999Z</time></trkpt><trkpt lat="43.718635234902905" lon="7.0886915456715345"><ele>312.0</ele><time>2026-04-25T13:57:43.999Z</time></trkpt><trkpt lat="43.718754167595534" lon="7.088748669368995"><ele>312.0</ele><time>2026-04-25T13:57:45.999Z</time></trkpt><trkpt lat="43.71878779800802" lon="7.088838803728703"><ele>312.0</ele><time>2026-04-25T13:57:46.999Z</time></trkpt><trkpt lat="43.71882755820201" lon="7.088914382766807"><ele>312.0</ele><time>2026-04-25T13:57:47.999Z</time></trkpt><trkpt lat="43.718868622987195" lon="7.088988039378076"><ele>312.0</ele><time>2026-04-25T13:57:48.999Z</time></trkpt><trkpt lat="43.71891380499913" lon="7.089061805388295"><ele>312.1666666666667</ele><time>2026-04-25T13:57:49.999Z</time></trkpt><trkpt lat="43.718955611599625" lon="7.08913939730842"><ele>312.3333333333333</ele><time>2026-04-25T13:57:50.999Z</time></trkpt><trkpt lat="43.71899888866378" lon="7.089220596199032"><ele>312.5</ele><time>2026-04-25T13:57:51.999Z</time></trkpt><trkpt lat="43.719048864300504" lon="7.089300112431379"><ele>312.66666666666663</ele><time>2026-04-25T13:57:52.999Z</time></trkpt><trkpt lat="43.719096977330054" lon="7.089381419752012"><ele>312.8333333333333</ele><time>2026-04-25T13:57:53.999Z</time></trkpt><trkpt lat="43.71914005914221" lon="7.0894729099696745"><ele>313.0</ele><time>2026-04-25T13:57:54.999Z</time></trkpt><trkpt lat="43.719181118760126" lon="7.089562493327321"><ele>313.0</ele><time>2026-04-25T13:57:55.999Z</time></trkpt><trkpt lat="43.719228434225386" lon="7.0896496979485875"><ele>313.0</ele><time>2026-04-25T13:57:56.999Z</time></trkpt><trkpt lat="43.71927999331826" lon="7.0897261213417595"><ele>313.0</ele><time>2026-04-25T13:57:57.999Z</time></trkpt><trkpt lat="43.71933218472206" lon="7.089806114416549"><ele>313.0</ele><time>2026-04-25T13:57:58.999Z</time></trkpt><trkpt lat="43.71937968527555" lon="7.089891353780694"><ele>313.0</ele><time>2026-04-25T13:57:59.999Z</time></trkpt><trkpt lat="43.71942196336736" lon="7.089988923353301"><ele>313.0</ele><time>2026-04-25T13:58:00.999Z</time></trkpt><trkpt lat="43.719463851122725" lon="7.090068142940366"><ele>314.7142857142857</ele><time>2026-04-25T13:58:01.999Z</time></trkpt><trkpt lat="43.71951760844275" lon="7.09014983597204"><ele>316.42857142857144</ele><time>2026-04-25T13:58:02.999Z</time></trkpt><trkpt lat="43.71957276167354" lon="7.090226496503572"><ele>318.1428571428571</ele><time>2026-04-25T13:58:03.999Z</time></trkpt><trkpt lat="43.71962738074476" lon="7.090300453301827"><ele>319.8571428571429</ele><time>2026-04-25T13:58:04.999Z</time></trkpt><trkpt lat="43.71966244069472" lon="7.090387162052365"><ele>321.5714285714286</ele><time>2026-04-25T13:58:05.999Z</time></trkpt><trkpt lat="43.719696031828484" lon="7.090474791698461"><ele>323.2857142857143</ele><time>2026-04-25T13:58:06.999Z</time></trkpt><trkpt lat="43.71973266118868" lon="7.090551810094387"><ele>325.0</ele><time>2026-04-25T13:58:07.999Z</time></trkpt><trkpt lat="43.71977395931151" lon="7.090625438060833"><ele>325.0</ele><time>2026-04-25T13:58:08.999Z</time></trkpt><trkpt lat="43.7198165612164" lon="7.090704633447156"><ele>325.0</ele><time>2026-04-25T13:58:09.999Z</time></trkpt><trkpt lat="43.719856527883486" lon="7.090793496475813"><ele>325.0</ele><time>2026-04-25T13:58:10.999Z</time></trkpt><trkpt lat="43.71990094207934" lon="7.0908766699631345"><ele>325.0</ele><time>2026-04-25T13:58:11.999Z</time></trkpt><trkpt lat="43.71992615868575" lon="7.090973512231898"><ele>325.0</ele><time>2026-04-25T13:58:12.999Z</time></trkpt><trkpt lat="43.71996041694963" lon="7.091059963655832"><ele>325.0</ele><time>2026-04-25T13:58:13.999Z</time></trkpt><trkpt lat="43.720008796434556" lon="7.0911330863611"><ele>325.0</ele><time>2026-04-25T13:58:14.999Z</time></trkpt><trkpt lat="43.72004213385593" lon="7.091220316432504"><ele>325.0</ele><time>2026-04-25T13:58:15.999Z</time></trkpt><trkpt lat="43.72019736260648" lon="7.091255145745934"><ele>325.0</ele><time>2026-04-25T13:58:17.999Z</time></trkpt><trkpt lat="43.72026596455775" lon="7.091207571920405"><ele>325.0</ele><time>2026-04-25T13:58:18.999Z</time></trkpt><trkpt lat="43.72031560463686" lon="7.091098873505572"><ele>325.0</ele><time>2026-04-25T13:58:19.999Z</time></trkpt><trkpt lat="43.720350596170306" lon="7.091002820877498"><ele>325.0</ele><time>2026-04-25T13:58:20.999Z</time></trkpt><trkpt lat="43.72037463366847" lon="7.090899696138797"><ele>325.0</ele><time>2026-04-25T13:58:21.999Z</time></trkpt><trkpt lat="43.72040366012142" lon="7.090802939437215"><ele>325.0</ele><time>2026-04-25T13:58:22.999Z</time></trkpt><trkpt lat="43.720441495362785" lon="7.090702633964039"><ele>325.0</ele><time>2026-04-25T13:58:23.999Z</time></trkpt><trkpt lat="43.7204742242936" lon="7.090605891643946"><ele>325.0</ele><time>2026-04-25T13:58:24.999Z</time></trkpt><trkpt lat="43.72050107322716" lon="7.090513211294709"><ele>325.0</ele><time>2026-04-25T13:58:25.999Z</time></trkpt><trkpt lat="43.7205324542013" lon="7.090423908477632"><ele>325.0</ele><time>2026-04-25T13:58:26.999Z</time></trkpt><trkpt lat="43.72056228571834" lon="7.0903355889972755"><ele>325.0</ele><time>2026-04-25T13:58:27.999Z</time></trkpt><trkpt lat="43.720599847340175" lon="7.090248671020604"><ele>325.57142857142856</ele><time>2026-04-25T13:58:28.999Z</time></trkpt><trkpt lat="43.72063386264641" lon="7.090161633005627"><ele>326.14285714285717</ele><time>2026-04-25T13:58:29.999Z</time></trkpt><trkpt lat="43.72068487492872" lon="7.090091436404388"><ele>326.7142857142857</ele><time>2026-04-25T13:58:30.999Z</time></trkpt><trkpt lat="43.72071037850352" lon="7.09000880851879"><ele>327.2857142857143</ele><time>2026-04-25T13:58:31.999Z</time></trkpt><trkpt lat="43.720779129794465" lon="7.08995728617557"><ele>327.8571428571429</ele><time>2026-04-25T13:58:32.999Z</time></trkpt><trkpt lat="43.72083901160497" lon="7.089902644724714"><ele>328.42857142857144</ele><time>2026-04-25T13:58:33.999Z</time></trkpt><trkpt lat="43.720901707718625" lon="7.089843477437448"><ele>329.0</ele><time>2026-04-25T13:58:34.999Z</time></trkpt><trkpt lat="43.72096813241895" lon="7.089774609302178"><ele>329.33333333333337</ele><time>2026-04-25T13:58:35.999Z</time></trkpt><trkpt lat="43.721021117996976" lon="7.08968943213793"><ele>329.6666666666667</ele><time>2026-04-25T13:58:36.999Z</time></trkpt><trkpt lat="43.72108395108664" lon="7.089629027926125"><ele>330.0</ele><time>2026-04-25T13:58:37.999Z</time></trkpt><trkpt lat="43.72114445256323" lon="7.0895618489689145"><ele>330.3333333333333</ele><time>2026-04-25T13:58:38.999Z</time></trkpt><trkpt lat="43.721202071045845" lon="7.0894873652896635"><ele>330.66666666666663</ele><time>2026-04-25T13:58:39.999Z</time></trkpt><trkpt lat="43.72125697830923" lon="7.089412116606321"><ele>331.0</ele><time>2026-04-25T13:58:40.999Z</time></trkpt><trkpt lat="43.721308557525795" lon="7.089329956273692"><ele>331.66666666666663</ele><time>2026-04-25T13:58:41.998Z</time></trkpt><trkpt lat="43.721351258457204" lon="7.089234802154256"><ele>332.3333333333333</ele><time>2026-04-25T13:58:43Z</time></trkpt><trkpt lat="43.72138739267699" lon="7.089135429987588"><ele>333.0</ele><time>2026-04-25T13:58:44Z</time></trkpt><trkpt lat="43.72142540605223" lon="7.089041132527151"><ele>333.6666666666667</ele><time>2026-04-25T13:58:45Z</time></trkpt><trkpt lat="43.72146321957727" lon="7.088946966538181"><ele>334.33333333333337</ele><time>2026-04-25T13:58:46Z</time></trkpt><trkpt lat="43.72149900100059" lon="7.08885366343738"><ele>335.0</ele><time>2026-04-25T13:58:47Z</time></trkpt><trkpt lat="43.72153983860299" lon="7.088763277811934"><ele>334.99999999999994</ele><time>2026-04-25T13:58:48Z</time></trkpt><trkpt lat="43.721579039051896" lon="7.088678459298669"><ele>335.0</ele><time>2026-04-25T13:58:49Z</time></trkpt><trkpt lat="43.72161814010962" lon="7.08858990776044"><ele>335.0</ele><time>2026-04-25T13:58:50Z</time></trkpt><trkpt lat="43.72165523667922" lon="7.088500348446837"><ele>335.0</ele><time>2026-04-25T13:58:51Z</time></trkpt><trkpt lat="43.72169347414587" lon="7.088411409372578"><ele>335.0</ele><time>2026-04-25T13:58:52Z</time></trkpt><trkpt lat="43.72173906743713" lon="7.088328925657424"><ele>334.99999999999994</ele><time>2026-04-25T13:58:53Z</time></trkpt><trkpt lat="43.72180199461824" lon="7.088269844393891"><ele>335.0</ele><time>2026-04-25T13:58:54Z</time></trkpt><trkpt lat="43.721855001686606" lon="7.088189443520841"><ele>335.33333333333337</ele><time>2026-04-25T13:58:55Z</time></trkpt><trkpt lat="43.72192693936724" lon="7.088129811275632"><ele>335.6666666666667</ele><time>2026-04-25T13:58:56Z</time></trkpt><trkpt lat="43.72199637953503" lon="7.0880628772218826"><ele>336.0</ele><time>2026-04-25T13:58:57Z</time></trkpt><trkpt lat="43.722073100849734" lon="7.088006707977424"><ele>336.3333333333333</ele><time>2026-04-25T13:58:58Z</time></trkpt><trkpt lat="43.72213673220181" lon="7.087955471080614"><ele>336.66666666666663</ele><time>2026-04-25T13:58:59Z</time></trkpt><trkpt lat="43.72220025058547" lon="7.087895153909591"><ele>337.0</ele><time>2026-04-25T13:59:00Z</time></trkpt><trkpt lat="43.72225831250331" lon="7.087834475253213"><ele>337.00000000000006</ele><time>2026-04-25T13:59:01Z</time></trkpt><trkpt lat="43.72231517037347" lon="7.087767445974854"><ele>337.0</ele><time>2026-04-25T13:59:02Z</time></trkpt><trkpt lat="43.722362108048365" lon="7.087697937610564"><ele>337.0</ele><time>2026-04-25T13:59:03Z</time></trkpt><trkpt lat="43.72240986602213" lon="7.0876272646989245"><ele>337.0</ele><time>2026-04-25T13:59:04Z</time></trkpt><trkpt lat="43.722458528637304" lon="7.087558924468204"><ele>337.0</ele><time>2026-04-25T13:59:05Z</time></trkpt><trkpt lat="43.722508834761854" lon="7.087496413518179"><ele>337.00000000000006</ele><time>2026-04-25T13:59:06Z</time></trkpt><trkpt lat="43.72255349255875" lon="7.087432940445622"><ele>337.0</ele><time>2026-04-25T13:59:07Z</time></trkpt><trkpt lat="43.722599773735226" lon="7.087360667380885"><ele>336.8571428571429</ele><time>2026-04-25T13:59:08Z</time></trkpt><trkpt lat="43.72264490950173" lon="7.087288277461952"><ele>336.7142857142857</ele><time>2026-04-25T13:59:09Z</time></trkpt><trkpt lat="43.722696269870006" lon="7.0872177684176565"><ele>336.57142857142856</ele><time>2026-04-25T13:59:10Z</time></trkpt><trkpt lat="43.72275951932384" lon="7.087171625141344"><ele>336.42857142857144</ele><time>2026-04-25T13:59:11Z</time></trkpt><trkpt lat="43.7228161777101" lon="7.087114085809613"><ele>336.2857142857143</ele><time>2026-04-25T13:59:12Z</time></trkpt><trkpt lat="43.72286360196506" lon="7.087046312207808"><ele>336.14285714285717</ele><time>2026-04-25T13:59:13Z</time></trkpt><trkpt lat="43.722917574369156" lon="7.086988864458007"><ele>336.0</ele><time>2026-04-25T13:59:14Z</time></trkpt><trkpt lat="43.722970457334185" lon="7.086915782734182"><ele>336.5</ele><time>2026-04-25T13:59:15Z</time></trkpt><trkpt lat="43.723025528572805" lon="7.086832446498104"><ele>337.0</ele><time>2026-04-25T13:59:16Z</time></trkpt><trkpt lat="43.72309482272595" lon="7.0867925358569215"><ele>337.5</ele><time>2026-04-25T13:59:17Z</time></trkpt><trkpt lat="43.72315537736624" lon="7.086726122574397"><ele>338.0</ele><time>2026-04-25T13:59:18Z</time></trkpt><trkpt lat="43.72322356401133" lon="7.086677231854369"><ele>338.5</ele><time>2026-04-25T13:59:19Z</time></trkpt><trkpt lat="43.72328427674044" lon="7.08661694034614"><ele>339.0</ele><time>2026-04-25T13:59:20Z</time></trkpt><trkpt lat="43.72334073173988" lon="7.086563681474357"><ele>339.0</ele><time>2026-04-25T13:59:21Z</time></trkpt><trkpt lat="43.723433910240445" lon="7.08648538154865"><ele>339.0</ele><time>2026-04-25T13:59:23Z</time></trkpt><trkpt lat="43.72349441644574" lon="7.086434700448121"><ele>339.0</ele><time>2026-04-25T13:59:35Z</time></trkpt><trkpt lat="43.72356470807272" lon="7.086349293366283"><ele>339.0</ele><time>2026-04-25T13:59:37Z</time></trkpt><trkpt lat="43.72365914355203" lon="7.08624629870764"><ele>339.0</ele><time>2026-04-25T13:59:39Z</time></trkpt><trkpt lat="43.72377001943592" lon="7.086163751220585"><ele>340.5</ele><time>2026-04-25T13:59:41Z</time></trkpt><trkpt lat="43.72382907082581" lon="7.086107338430592"><ele>342.0</ele><time>2026-04-25T13:59:42Z</time></trkpt><trkpt lat="43.72389013069037" lon="7.086052733754725"><ele>343.5</ele><time>2026-04-25T13:59:43Z</time></trkpt><trkpt lat="43.72395207559445" lon="7.085997122493595"><ele>345.0</ele><time>2026-04-25T13:59:43.999Z</time></trkpt><trkpt lat="43.72400797617701" lon="7.085928139896398"><ele>346.5</ele><time>2026-04-25T13:59:44.999Z</time></trkpt><trkpt lat="43.72411084669036" lon="7.085857521990752"><ele>348.0</ele><time>2026-04-25T13:59:46.999Z</time></trkpt><trkpt lat="43.72422272457294" lon="7.0858184450585995"><ele>348.0</ele><time>2026-04-25T13:59:48.999Z</time></trkpt><trkpt lat="43.72431029368723" lon="7.085844439338247"><ele>348.0</ele><time>2026-04-25T13:59:50.999Z</time></trkpt><trkpt lat="43.724397120725" lon="7.085848510894687"><ele>348.0</ele><time>2026-04-25T13:59:54.999Z</time></trkpt><trkpt lat="43.724490380167985" lon="7.085852884059891"><ele>348.0</ele><time>2026-04-25T13:59:56.999Z</time></trkpt><trkpt lat="43.724557914062444" lon="7.0858560509000235"><ele>348.0</ele><time>2026-04-25T13:59:58.999Z</time></trkpt><trkpt lat="43.7246415050463" lon="7.085788258561051"><ele>348.0</ele><time>2026-04-25T14:00:00.999Z</time></trkpt><trkpt lat="43.72474627620904" lon="7.085827462575737"><ele>350.75</ele><time>2026-04-25T14:00:02.999Z</time></trkpt><trkpt lat="43.72485893275747" lon="7.0858083274506605"><ele>353.5</ele><time>2026-04-25T14:00:04.999Z</time></trkpt><trkpt lat="43.724972566970344" lon="7.085775834814345"><ele>356.25</ele><time>2026-04-25T14:00:06.999Z</time></trkpt><trkpt lat="43.72508015568592" lon="7.085705159538952"><ele>359.0</ele><time>2026-04-25T14:00:08.999Z</time></trkpt><trkpt lat="43.72516919853784" lon="7.085595351874111"><ele>359.33333333333337</ele><time>2026-04-25T14:00:10.999Z</time></trkpt><trkpt lat="43.72520029052382" lon="7.085514710242938"><ele>359.6666666666667</ele><time>2026-04-25T14:00:11.999Z</time></trkpt><trkpt lat="43.725224079457305" lon="7.085425404191347"><ele>360.0</ele><time>2026-04-25T14:00:12.999Z</time></trkpt><trkpt lat="43.72524941737161" lon="7.085331442212332"><ele>360.3333333333333</ele><time>2026-04-25T14:00:13.999Z</time></trkpt><trkpt lat="43.725332312494594" lon="7.085207388812117"><ele>360.66666666666663</ele><time>2026-04-25T14:00:15.999Z</time></trkpt><trkpt lat="43.72540347708487" lon="7.085178630848535"><ele>361.0</ele><time>2026-04-25T14:00:16.999Z</time></trkpt><trkpt lat="43.7254741594323" lon="7.085163739599548"><ele>362.5714285714286</ele><time>2026-04-25T14:00:17.999Z</time></trkpt><trkpt lat="43.72554113718844" lon="7.085155186725162"><ele>364.1428571428571</ele><time>2026-04-25T14:00:18.999Z</time></trkpt><trkpt lat="43.7256076863725" lon="7.085174888955132"><ele>365.7142857142857</ele><time>2026-04-25T14:00:19.999Z</time></trkpt><trkpt lat="43.72565803529027" lon="7.085232050986568"><ele>367.28571428571433</ele><time>2026-04-25T14:00:20.999Z</time></trkpt><trkpt lat="43.72572250525121" lon="7.085253028666847"><ele>368.8571428571429</ele><time>2026-04-25T14:00:21.999Z</time></trkpt><trkpt lat="43.725779539724165" lon="7.085294506329987"><ele>370.42857142857144</ele><time>2026-04-25T14:00:22.999Z</time></trkpt><trkpt lat="43.72584524128148" lon="7.0853082438763995"><ele>372.0</ele><time>2026-04-25T14:00:23.999Z</time></trkpt><trkpt lat="43.72591557350898" lon="7.085303676996023"><ele>372.00000000000006</ele><time>2026-04-25T14:00:24.999Z</time></trkpt><trkpt lat="43.72598501615596" lon="7.085275397819945"><ele>372.0</ele><time>2026-04-25T14:00:25.999Z</time></trkpt><trkpt lat="43.72604980638569" lon="7.085221662668637"><ele>372.0</ele><time>2026-04-25T14:00:26.999Z</time></trkpt><trkpt lat="43.726103601406514" lon="7.08514982137926"><ele>372.0</ele><time>2026-04-25T14:00:27.999Z</time></trkpt><trkpt lat="43.72615454704028" lon="7.085075502309533"><ele>372.0</ele><time>2026-04-25T14:00:28.999Z</time></trkpt><trkpt lat="43.72620262326157" lon="7.085001164124863"><ele>372.00000000000006</ele><time>2026-04-25T14:00:29.999Z</time></trkpt><trkpt lat="43.72626173706207" lon="7.084932937535004"><ele>372.0</ele><time>2026-04-25T14:00:30.999Z</time></trkpt><trkpt lat="43.72631685498801" lon="7.084874184400596"><ele>374.6666666666667</ele><time>2026-04-25T14:00:31.999Z</time></trkpt><trkpt lat="43.726374964973985" lon="7.084817191909455"><ele>377.33333333333337</ele><time>2026-04-25T14:00:32.999Z</time></trkpt><trkpt lat="43.7264276475668" lon="7.084757178604963"><ele>380.0</ele><time>2026-04-25T14:00:33.999Z</time></trkpt><trkpt lat="43.726476731169925" lon="7.084697830962707"><ele>382.6666666666667</ele><time>2026-04-25T14:00:34.999Z</time></trkpt><trkpt lat="43.7265670176141" lon="7.084587993442632"><ele>385.33333333333337</ele><time>2026-04-25T14:00:36.999Z</time></trkpt><trkpt lat="43.72666996680118" lon="7.084509289331787"><ele>388.0</ele><time>2026-04-25T14:00:38.999Z</time></trkpt><trkpt lat="43.72673474408996" lon="7.084491503572721"><ele>388.00000000000006</ele><time>2026-04-25T14:00:39.999Z</time></trkpt><trkpt lat="43.72680774911097" lon="7.084496098696049"><ele>388.0</ele><time>2026-04-25T14:00:40.999Z</time></trkpt><trkpt lat="43.7268810823747" lon="7.0845301768254405"><ele>388.0</ele><time>2026-04-25T14:00:41.999Z</time></trkpt><trkpt lat="43.72695240215283" lon="7.084554663428632"><ele>388.0</ele><time>2026-04-25T14:00:42.999Z</time></trkpt><trkpt lat="43.72701802439493" lon="7.084582998653966"><ele>388.00000000000006</ele><time>2026-04-25T14:00:43.999Z</time></trkpt><trkpt lat="43.727116536401965" lon="7.084690930400888"><ele>388.0</ele><time>2026-04-25T14:00:45.999Z</time></trkpt><trkpt lat="43.72717543784141" lon="7.084740355581431"><ele>388.2857142857143</ele><time>2026-04-25T14:00:46.999Z</time></trkpt><trkpt lat="43.727226508866195" lon="7.084819604790199"><ele>388.5714285714286</ele><time>2026-04-25T14:00:47.998Z</time></trkpt><trkpt lat="43.72728091595165" lon="7.084887541696192"><ele>388.8571428571429</ele><time>2026-04-25T14:00:49Z</time></trkpt><trkpt lat="43.72733334603116" lon="7.084954065566734"><ele>389.1428571428571</ele><time>2026-04-25T14:00:50Z</time></trkpt><trkpt lat="43.72739576931936" lon="7.085009673820945"><ele>389.42857142857144</ele><time>2026-04-25T14:00:51Z</time></trkpt><trkpt lat="43.72746541517968" lon="7.0850427502778635"><ele>389.7142857142857</ele><time>2026-04-25T14:00:52Z</time></trkpt><trkpt lat="43.72753589518875" lon="7.0850719806999995"><ele>390.0</ele><time>2026-04-25T14:00:53Z</time></trkpt><trkpt lat="43.72760564900878" lon="7.085106341749733"><ele>390.0</ele><time>2026-04-25T14:00:54Z</time></trkpt><trkpt lat="43.72767601409433" lon="7.0851385064170875"><ele>390.0</ele><time>2026-04-25T14:00:55Z</time></trkpt><trkpt lat="43.72774971656257" lon="7.085160890235078"><ele>390.0</ele><time>2026-04-25T14:00:56Z</time></trkpt><trkpt lat="43.727825654100194" lon="7.085175528667176"><ele>390.0</ele><time>2026-04-25T14:00:57Z</time></trkpt><trkpt lat="43.72790303648586" lon="7.085192666971466"><ele>390.0</ele><time>2026-04-25T14:00:58Z</time></trkpt><trkpt lat="43.727977825109406" lon="7.085205266523542"><ele>390.0</ele><time>2026-04-25T14:00:59Z</time></trkpt><trkpt lat="43.7280571830359" lon="7.085212388690753"><ele>391.8333333333333</ele><time>2026-04-25T14:01:00Z</time></trkpt><trkpt lat="43.72813336640937" lon="7.085215959825423"><ele>393.66666666666663</ele><time>2026-04-25T14:01:01Z</time></trkpt><trkpt lat="43.728202495003785" lon="7.085230237727135"><ele>395.5</ele><time>2026-04-25T14:01:02Z</time></trkpt><trkpt lat="43.728273841180254" lon="7.085246410828364"><ele>397.3333333333333</ele><time>2026-04-25T14:01:03Z</time></trkpt><trkpt lat="43.72834486024789" lon="7.085260345217402"><ele>399.16666666666663</ele><time>2026-04-25T14:01:04Z</time></trkpt><trkpt lat="43.728420687938566" lon="7.085252271443805"><ele>401.0</ele><time>2026-04-25T14:01:05Z</time></trkpt><trkpt lat="43.72850173966088" lon="7.085300772861368"><ele>400.66666666666663</ele><time>2026-04-25T14:01:06Z</time></trkpt><trkpt lat="43.72856933450789" lon="7.0851893627279985"><ele>400.3333333333333</ele><time>2026-04-25T14:01:07Z</time></trkpt><trkpt lat="43.7286500512413" lon="7.0851578484301"><ele>400.0</ele><time>2026-04-25T14:01:08Z</time></trkpt><trkpt lat="43.7287222937805" lon="7.085123711309642"><ele>399.66666666666663</ele><time>2026-04-25T14:01:09Z</time></trkpt><trkpt lat="43.728786180860965" lon="7.0850886687955335"><ele>399.3333333333333</ele><time>2026-04-25T14:01:10Z</time></trkpt><trkpt lat="43.72884970038029" lon="7.085043716278435"><ele>399.0</ele><time>2026-04-25T14:01:11Z</time></trkpt><trkpt lat="43.72891669217104" lon="7.085006223485321"><ele>399.0</ele><time>2026-04-25T14:01:12Z</time></trkpt><trkpt lat="43.72898158817464" lon="7.084975574397186"><ele>399.0</ele><time>2026-04-25T14:01:13Z</time></trkpt><trkpt lat="43.72904284138243" lon="7.0849304637927615"><ele>399.0</ele><time>2026-04-25T14:01:14Z</time></trkpt><trkpt lat="43.72910388804417" lon="7.084899893151484"><ele>399.0</ele><time>2026-04-25T14:01:15Z</time></trkpt><trkpt lat="43.729169423947525" lon="7.084868945415179"><ele>399.0</ele><time>2026-04-25T14:01:16Z</time></trkpt><trkpt lat="43.729247093904014" lon="7.084850112005435"><ele>399.0</ele><time>2026-04-25T14:01:17Z</time></trkpt><trkpt lat="43.72931864965915" lon="7.084842856441842"><ele>399.0</ele><time>2026-04-25T14:01:18Z</time></trkpt><trkpt lat="43.72938794760136" lon="7.084833566494283"><ele>402.0</ele><time>2026-04-25T14:01:19Z</time></trkpt><trkpt lat="43.729458816685586" lon="7.084817948803526"><ele>405.0</ele><time>2026-04-25T14:01:20Z</time></trkpt><trkpt lat="43.729523370682195" lon="7.084788000880366"><ele>408.0</ele><time>2026-04-25T14:01:21Z</time></trkpt><trkpt lat="43.729583243406225" lon="7.084723902394697"><ele>411.0</ele><time>2026-04-25T14:01:22Z</time></trkpt><trkpt lat="43.72963649319701" lon="7.084644500235959"><ele>414.0</ele><time>2026-04-25T14:01:23Z</time></trkpt><trkpt lat="43.7296853673583" lon="7.084569722947075"><ele>417.0</ele><time>2026-04-25T14:01:24Z</time></trkpt><trkpt lat="43.729742883456" lon="7.084508124589394"><ele>420.0</ele><time>2026-04-25T14:01:25Z</time></trkpt><trkpt lat="43.729804523524784" lon="7.0844583541511055"><ele>420.0</ele><time>2026-04-25T14:01:26Z</time></trkpt><trkpt lat="43.72986550502166" lon="7.084414729209141"><ele>420.0</ele><time>2026-04-25T14:01:27Z</time></trkpt><trkpt lat="43.729924393561326" lon="7.084378907295056"><ele>420.0</ele><time>2026-04-25T14:01:28Z</time></trkpt><trkpt lat="43.72998218382164" lon="7.084340015614298"><ele>420.0</ele><time>2026-04-25T14:01:29Z</time></trkpt><trkpt lat="43.73003676056773" lon="7.084285142849083"><ele>420.0</ele><time>2026-04-25T14:01:30Z</time></trkpt><trkpt lat="43.730069959742" lon="7.084192546309143"><ele>420.0</ele><time>2026-04-25T14:01:31Z</time></trkpt><trkpt lat="43.73009309443128" lon="7.084092024569256"><ele>420.0</ele><time>2026-04-25T14:01:32Z</time></trkpt><trkpt lat="43.73012082154175" lon="7.084001987540527"><ele>422.1666666666667</ele><time>2026-04-25T14:01:33Z</time></trkpt><trkpt lat="43.73015413016236" lon="7.083926960402966"><ele>424.33333333333337</ele><time>2026-04-25T14:01:34Z</time></trkpt><trkpt lat="43.73018554197883" lon="7.083784278226318"><ele>426.5</ele><time>2026-04-25T14:01:36Z</time></trkpt><trkpt lat="43.73014940866909" lon="7.083710363191928"><ele>428.6666666666667</ele><time>2026-04-25T14:01:37Z</time></trkpt><trkpt lat="43.73009830390863" lon="7.083645256885794"><ele>430.83333333333337</ele><time>2026-04-25T14:01:38Z</time></trkpt><trkpt lat="43.73003218463327" lon="7.083491170806396"><ele>433.0</ele><time>2026-04-25T14:01:40Z</time></trkpt><trkpt lat="43.729998552021335" lon="7.083407234777648"><ele>432.99999999999994</ele><time>2026-04-25T14:01:41Z</time></trkpt><trkpt lat="43.72995460559523" lon="7.083330720243392"><ele>433.0</ele><time>2026-04-25T14:01:42Z</time></trkpt><trkpt lat="43.729899332313515" lon="7.083257824573742"><ele>433.0</ele><time>2026-04-25T14:01:43Z</time></trkpt><trkpt lat="43.72983586522323" lon="7.083202204546846"><ele>433.0</ele><time>2026-04-25T14:01:44Z</time></trkpt><trkpt lat="43.729768256520096" lon="7.08316229131778"><ele>433.0</ele><time>2026-04-25T14:01:45Z</time></trkpt><trkpt lat="43.72970860856271" lon="7.083123486271274"><ele>432.99999999999994</ele><time>2026-04-25T14:01:46Z</time></trkpt><trkpt lat="43.72964773460342" lon="7.083095132502287"><ele>433.0</ele><time>2026-04-25T14:01:47Z</time></trkpt><trkpt lat="43.729564216430006" lon="7.083104054334505"><ele>434.0</ele><time>2026-04-25T14:01:47.999Z</time></trkpt><trkpt lat="43.72948381789555" lon="7.083141005111557"><ele>434.99999999999994</ele><time>2026-04-25T14:01:48.999Z</time></trkpt><trkpt lat="43.729406715233736" lon="7.083188510657993"><ele>435.99999999999994</ele><time>2026-04-25T14:01:49.999Z</time></trkpt><trkpt lat="43.7292858145947" lon="7.083207741934034"><ele>437.0</ele><time>2026-04-25T14:01:51.999Z</time></trkpt><trkpt lat="43.72918227092661" lon="7.083232147390356"><ele>438.0</ele><time>2026-04-25T14:01:53.999Z</time></trkpt><trkpt lat="43.72906144102081" lon="7.083212712612098"><ele>438.0</ele><time>2026-04-25T14:01:55.999Z</time></trkpt><trkpt lat="43.728998204541185" lon="7.083159973632919"><ele>438.0</ele><time>2026-04-25T14:01:56.999Z</time></trkpt><trkpt lat="43.72893733675139" lon="7.083089583338118"><ele>438.0</ele><time>2026-04-25T14:01:57.999Z</time></trkpt><trkpt lat="43.728875647931126" lon="7.08301993484767"><ele>438.0</ele><time>2026-04-25T14:01:58.999Z</time></trkpt><trkpt lat="43.72881812621891" lon="7.082948890082661"><ele>438.0</ele><time>2026-04-25T14:01:59.999Z</time></trkpt><trkpt lat="43.728767214888606" lon="7.082883483381499"><ele>438.0</ele><time>2026-04-25T14:02:00.999Z</time></trkpt><trkpt lat="43.728712548605024" lon="7.082837701074181"><ele>438.0</ele><time>2026-04-25T14:02:01.999Z</time></trkpt><trkpt lat="43.72861935758152" lon="7.082722924650307"><ele>437.4</ele><time>2026-04-25T14:02:03.999Z</time></trkpt><trkpt lat="43.72853246533745" lon="7.082613010833374"><ele>436.79999999999995</ele><time>2026-04-25T14:02:05.999Z</time></trkpt><trkpt lat="43.728459734933175" lon="7.082526002945001"><ele>436.2</ele><time>2026-04-25T14:02:07.999Z</time></trkpt><trkpt lat="43.728394988994765" lon="7.082415448424929"><ele>435.6</ele><time>2026-04-25T14:02:09.999Z</time></trkpt><trkpt lat="43.7283511661069" lon="7.08229019867189"><ele>435.0</ele><time>2026-04-25T14:02:11.999Z</time></trkpt><trkpt lat="43.72830439054088" lon="7.082178329870588"><ele>436.2</ele><time>2026-04-25T14:02:13.999Z</time></trkpt><trkpt lat="43.7282432703122" lon="7.082057690657934"><ele>437.4</ele><time>2026-04-25T14:02:15.999Z</time></trkpt><trkpt lat="43.72820876922874" lon="7.081937865194359"><ele>438.6</ele><time>2026-04-25T14:02:17.999Z</time></trkpt><trkpt lat="43.7282751028283" lon="7.081843289498582"><ele>439.8</ele><time>2026-04-25T14:02:19.999Z</time></trkpt><trkpt lat="43.728331497624566" lon="7.08174109423316"><ele>441.0</ele><time>2026-04-25T14:02:21.999Z</time></trkpt><trkpt lat="43.72839233648357" lon="7.081615377966374"><ele>442.5</ele><time>2026-04-25T14:02:23.999Z</time></trkpt><trkpt lat="43.72846505170357" lon="7.081476389691512"><ele>444.0</ele><time>2026-04-25T14:02:25.999Z</time></trkpt><trkpt lat="43.728519266103405" lon="7.081414484580333"><ele>445.5</ele><time>2026-04-25T14:02:26.999Z</time></trkpt><trkpt lat="43.728562821625005" lon="7.081340771751921"><ele>447.0</ele><time>2026-04-25T14:02:27.999Z</time></trkpt><trkpt lat="43.728608445536345" lon="7.081260796953132"><ele>448.5</ele><time>2026-04-25T14:02:28.999Z</time></trkpt><trkpt lat="43.728653226863834" lon="7.081181241071239"><ele>450.0</ele><time>2026-04-25T14:02:29.999Z</time></trkpt><trkpt lat="43.72868416099346" lon="7.081091922567394"><ele>453.8</ele><time>2026-04-25T14:02:30.999Z</time></trkpt><trkpt lat="43.72873920245895" lon="7.081035531115642"><ele>457.6</ele><time>2026-04-25T14:02:31.999Z</time></trkpt><trkpt lat="43.7287731156697" lon="7.080960193243121"><ele>461.4</ele><time>2026-04-25T14:02:32.999Z</time></trkpt><trkpt lat="43.72886372691937" lon="7.080852562710571"><ele>465.2</ele><time>2026-04-25T14:02:34.999Z</time></trkpt><trkpt lat="43.728961092213325" lon="7.0807568245653885"><ele>469.0</ele><time>2026-04-25T14:02:36.999Z</time></trkpt><trkpt lat="43.72904837160575" lon="7.080657274971034"><ele>471.50000000000006</ele><time>2026-04-25T14:02:38.999Z</time></trkpt><trkpt lat="43.729126320630705" lon="7.0805790418743255"><ele>474.0</ele><time>2026-04-25T14:02:40.999Z</time></trkpt><trkpt lat="43.729171448972586" lon="7.080484477514928"><ele>476.5</ele><time>2026-04-25T14:02:42.999Z</time></trkpt><trkpt lat="43.729193318291934" lon="7.08039351314294"><ele>479.0</ele><time>2026-04-25T14:02:44.999Z</time></trkpt><trkpt lat="43.72918123308633" lon="7.080302192000725"><ele>481.50000000000006</ele><time>2026-04-25T14:03:16Z</time></trkpt><trkpt lat="43.72913060806996" lon="7.080248097174511"><ele>484.0</ele><time>2026-04-25T14:03:21Z</time></trkpt><trkpt lat="43.72905845073044" lon="7.080193749100891"><ele>484.00000000000006</ele><time>2026-04-25T14:03:25Z</time></trkpt><trkpt lat="43.72898349218115" lon="7.080150786954064"><ele>484.0</ele><time>2026-04-25T14:03:27Z</time></trkpt><trkpt lat="43.72893670619737" lon="7.080080609951991"><ele>484.0</ele><time>2026-04-25T14:03:29Z</time></trkpt><trkpt lat="43.72888710388031" lon="7.080022654586597"><ele>484.0</ele><time>2026-04-25T14:03:30Z</time></trkpt><trkpt lat="43.72881429120516" lon="7.079907285121937"><ele>484.00000000000006</ele><time>2026-04-25T14:03:32Z</time></trkpt><trkpt lat="43.7287507704995" lon="7.079810003816386"><ele>484.0</ele><time>2026-04-25T14:03:34Z</time></trkpt><trkpt lat="43.72864423689919" lon="7.0797289042472125"><ele>482.33333333333337</ele><time>2026-04-25T14:03:36Z</time></trkpt><trkpt lat="43.728588055412914" lon="7.079675006610594"><ele>480.6666666666667</ele><time>2026-04-25T14:03:37Z</time></trkpt><trkpt lat="43.72851612126721" lon="7.079642077606488"><ele>479.0</ele><time>2026-04-25T14:03:38Z</time></trkpt><trkpt lat="43.72844945305709" lon="7.0796305515800615"><ele>477.33333333333337</ele><time>2026-04-25T14:03:39Z</time></trkpt><trkpt lat="43.7283858204749" lon="7.079631648232295"><ele>475.6666666666667</ele><time>2026-04-25T14:03:40Z</time></trkpt><trkpt lat="43.72827417838702" lon="7.07966061167617"><ele>474.0</ele><time>2026-04-25T14:03:42Z</time></trkpt><trkpt lat="43.72818082892529" lon="7.079711818475339"><ele>474.0</ele><time>2026-04-25T14:03:44Z</time></trkpt><trkpt lat="43.72811230701723" lon="7.079760491652904"><ele>474.0</ele><time>2026-04-25T14:03:46Z</time></trkpt><trkpt lat="43.72805400937493" lon="7.0798419044375365"><ele>474.0</ele><time>2026-04-25T14:03:49Z</time></trkpt><trkpt lat="43.72798437855006" lon="7.079913285443795"><ele>474.0</ele><time>2026-04-25T14:03:51Z</time></trkpt><trkpt lat="43.72793242922966" lon="7.0799862561516465"><ele>474.0</ele><time>2026-04-25T14:03:53Z</time></trkpt><trkpt lat="43.727883822172345" lon="7.08007460226225"><ele>474.0</ele><time>2026-04-25T14:03:55.999Z</time></trkpt><trkpt lat="43.72762827122749" lon="7.07978858046281"><ele>474.0</ele><time>2026-04-25T14:03:57.999Z</time></trkpt><trkpt lat="43.72757464550216" lon="7.079741156493977"><ele>474.0</ele><time>2026-04-25T14:04:01.999Z</time></trkpt><trkpt lat="43.72763946666447" lon="7.079792564984466"><ele>474.0</ele><time>2026-04-25T14:04:24.999Z</time></trkpt><trkpt lat="43.72770901026146" lon="7.079816464630846"><ele>474.0</ele><time>2026-04-25T14:04:26.999Z</time></trkpt><trkpt lat="43.72782202385798" lon="7.079789277549775"><ele>474.0</ele><time>2026-04-25T14:04:28.999Z</time></trkpt><trkpt lat="43.727888333575216" lon="7.079790607491361"><ele>474.0</ele><time>2026-04-25T14:04:29.999Z</time></trkpt><trkpt lat="43.728002186199184" lon="7.079791465651576"><ele>474.0</ele><time>2026-04-25T14:04:31.999Z</time></trkpt><trkpt lat="43.72810042627281" lon="7.079774192350458"><ele>474.0</ele><time>2026-04-25T14:04:33.999Z</time></trkpt><trkpt lat="43.72819938103379" lon="7.079724695210843"><ele>474.0</ele><time>2026-04-25T14:04:35.999Z</time></trkpt><trkpt lat="43.728262184218984" lon="7.079702230827587"><ele>474.0</ele><time>2026-04-25T14:04:36.999Z</time></trkpt><trkpt lat="43.728333965492304" lon="7.079697515355889"><ele>474.0</ele><time>2026-04-25T14:04:37.999Z</time></trkpt><trkpt lat="43.72840780848024" lon="7.079687507686815"><ele>474.0</ele><time>2026-04-25T14:04:38.999Z</time></trkpt><trkpt lat="43.728491040549116" lon="7.079687071079259"><ele>475.6666666666667</ele><time>2026-04-25T14:04:39.999Z</time></trkpt><trkpt lat="43.7285691501976" lon="7.079705996624826"><ele>477.33333333333337</ele><time>2026-04-25T14:04:40.999Z</time></trkpt><trkpt lat="43.72864800667049" lon="7.0797402528441316"><ele>479.0</ele><time>2026-04-25T14:04:41.999Z</time></trkpt><trkpt lat="43.72871057400009" lon="7.079789898246274"><ele>480.6666666666667</ele><time>2026-04-25T14:04:42.999Z</time></trkpt><trkpt lat="43.72873944012559" lon="7.079896821423744"><ele>482.33333333333337</ele><time>2026-04-25T14:04:43.999Z</time></trkpt><trkpt lat="43.72879306801387" lon="7.079972285251558"><ele>484.0</ele><time>2026-04-25T14:04:44.999Z</time></trkpt><trkpt lat="43.72884728772871" lon="7.0800256797174805"><ele>484.00000000000006</ele><time>2026-04-25T14:04:45.999Z</time></trkpt><trkpt lat="43.728888880596095" lon="7.080099442066752"><ele>484.0</ele><time>2026-04-25T14:04:46.999Z</time></trkpt><trkpt lat="43.72895086536124" lon="7.080146281644855"><ele>484.0</ele><time>2026-04-25T14:04:47.999Z</time></trkpt><trkpt lat="43.7290412309337" lon="7.080235319025344"><ele>484.0</ele><time>2026-04-25T14:04:49.999Z</time></trkpt><trkpt lat="43.7290961356311" lon="7.080287284667773"><ele>484.00000000000006</ele><time>2026-04-25T14:04:50.999Z</time></trkpt><trkpt lat="43.72914246793641" lon="7.080349211846203"><ele>484.0</ele><time>2026-04-25T14:04:51.999Z</time></trkpt><trkpt lat="43.72922182596287" lon="7.080459118410749"><ele>484.0</ele><time>2026-04-25T14:04:53.999Z</time></trkpt><trkpt lat="43.72930747068247" lon="7.080424981903012"><ele>484.0</ele><time>2026-04-25T14:04:54.999Z</time></trkpt><trkpt lat="43.72942110264956" lon="7.080442661658987"><ele>484.0</ele><time>2026-04-25T14:04:56.999Z</time></trkpt><trkpt lat="43.72948465712327" lon="7.080445204431667"><ele>484.0</ele><time>2026-04-25T14:04:57.998Z</time></trkpt><trkpt lat="43.72958369205771" lon="7.080512101536888"><ele>484.0</ele><time>2026-04-25T14:04:59.998Z</time></trkpt><trkpt lat="43.729646963705726" lon="7.080569263131447"><ele>484.00000000000006</ele><time>2026-04-25T14:05:02Z</time></trkpt><trkpt lat="43.72964097382983" lon="7.080458979262729"><ele>484.0</ele><time>2026-04-25T14:05:05Z</time></trkpt><trkpt lat="43.7295833366553" lon="7.080372433131212"><ele>484.0</ele><time>2026-04-25T14:05:06Z</time></trkpt><trkpt lat="43.72951349595407" lon="7.080289553443703"><ele>484.0</ele><time>2026-04-25T14:05:07Z</time></trkpt><trkpt lat="43.72946618749355" lon="7.0802116831666035"><ele>484.00000000000006</ele><time>2026-04-25T14:05:08Z</time></trkpt><trkpt lat="43.72937307663932" lon="7.080111804964224"><ele>484.0</ele><time>2026-04-25T14:05:10Z</time></trkpt><trkpt lat="43.72931712354523" lon="7.080016466257283"><ele>486.33333333333337</ele><time>2026-04-25T14:05:12Z</time></trkpt><trkpt lat="43.72933330657187" lon="7.079888336494992"><ele>488.6666666666667</ele><time>2026-04-25T14:05:15Z</time></trkpt><trkpt lat="43.72932436688833" lon="7.079727047504328"><ele>491.0</ele><time>2026-04-25T14:05:17Z</time></trkpt><trkpt lat="43.729310619558674" lon="7.079627124612544"><ele>493.33333333333337</ele><time>2026-04-25T14:05:18Z</time></trkpt><trkpt lat="43.72928966461601" lon="7.07954280481386"><ele>495.6666666666667</ele><time>2026-04-25T14:05:19Z</time></trkpt><trkpt lat="43.72928490087212" lon="7.079435610498461"><ele>498.0</ele><time>2026-04-25T14:05:22Z</time></trkpt><trkpt lat="43.729363232429066" lon="7.079385103220504"><ele>503.0</ele><time>2026-04-25T14:05:25Z</time></trkpt><trkpt lat="43.729421550678644" lon="7.079421817606055"><ele>507.99999999999994</ele><time>2026-04-25T14:05:26Z</time></trkpt><trkpt lat="43.72952418060142" lon="7.079524064393515"><ele>513.0</ele><time>2026-04-25T14:05:28Z</time></trkpt><trkpt lat="43.72962721766593" lon="7.079607519600158"><ele>518.0</ele><time>2026-04-25T14:05:30Z</time></trkpt><trkpt lat="43.729702109863794" lon="7.07969159703283"><ele>523.0</ele><time>2026-04-25T14:05:32Z</time></trkpt><trkpt lat="43.729719815027686" lon="7.079583595517549"><ele>523.0</ele><time>2026-04-25T14:05:38Z</time></trkpt><trkpt lat="43.72966927991935" lon="7.079470270612141"><ele>523.0</ele><time>2026-04-25T14:05:40Z</time></trkpt><trkpt lat="43.72962832227373" lon="7.079331175649102"><ele>523.0</ele><time>2026-04-25T14:05:42Z</time></trkpt><trkpt lat="43.7296048385786" lon="7.079224654316074"><ele>523.0</ele><time>2026-04-25T14:05:44Z</time></trkpt><trkpt lat="43.72958167050703" lon="7.079117157015348"><ele>523.0</ele><time>2026-04-25T14:06:06.999Z</time></trkpt><trkpt lat="43.729583258483416" lon="7.0790235642653965"><ele>523.0</ele><time>2026-04-25T14:06:08.999Z</time></trkpt><trkpt lat="43.72956293419383" lon="7.0789081316182125"><ele>525.6666666666667</ele><time>2026-04-25T14:06:10.999Z</time></trkpt><trkpt lat="43.72952219901851" lon="7.078790922571758"><ele>528.3333333333334</ele><time>2026-04-25T14:06:12.999Z</time></trkpt><trkpt lat="43.72947453607781" lon="7.07870032519466"><ele>531.0</ele><time>2026-04-25T14:06:14.999Z</time></trkpt><trkpt lat="43.72947872847791" lon="7.078604678916438"><ele>533.6666666666666</ele><time>2026-04-25T14:06:16.999Z</time></trkpt><trkpt lat="43.72949960186322" lon="7.078507778335292"><ele>536.3333333333333</ele><time>2026-04-25T14:06:19.999Z</time></trkpt><trkpt lat="43.72957337855208" lon="7.078503534477983"><ele>539.0</ele><time>2026-04-25T14:06:22.999Z</time></trkpt><trkpt lat="43.72963233641237" lon="7.078630665311815"><ele>539.0</ele><time>2026-04-25T14:06:24.999Z</time></trkpt><trkpt lat="43.72969168465819" lon="7.078752656836427"><ele>539.0</ele><time>2026-04-25T14:06:26.999Z</time></trkpt><trkpt lat="43.7297472749633" lon="7.078845822286755"><ele>539.0</ele><time>2026-04-25T14:06:28.999Z</time></trkpt><trkpt lat="43.72978730844354" lon="7.078922520106643"><ele>539.0</ele><time>2026-04-25T14:06:30.999Z</time></trkpt><trkpt lat="43.72985450361009" lon="7.078993485349431"><ele>539.0</ele><time>2026-04-25T14:07:34Z</time></trkpt><trkpt lat="43.72994588956121" lon="7.079037091031012"><ele>539.0</ele><time>2026-04-25T14:07:36Z</time></trkpt><trkpt lat="43.73003448684792" lon="7.079063064993056"><ele>539.0</ele><time>2026-04-25T14:07:38Z</time></trkpt><trkpt lat="43.73011988190608" lon="7.079056398350077"><ele>539.0</ele><time>2026-04-25T14:07:40Z</time></trkpt><trkpt lat="43.730181503180184" lon="7.079024853717431"><ele>539.0</ele><time>2026-04-25T14:07:43Z</time></trkpt><trkpt lat="43.7302522935285" lon="7.079081245713085"><ele>539.0</ele><time>2026-04-25T14:08:13.999Z</time></trkpt><trkpt lat="43.730316717096755" lon="7.07912716740446"><ele>539.0</ele><time>2026-04-25T14:08:15.999Z</time></trkpt><trkpt lat="43.730356234366525" lon="7.079204196739223"><ele>539.0</ele><time>2026-04-25T14:08:17.999Z</time></trkpt><trkpt lat="43.730400169012185" lon="7.079272730605668"><ele>539.0</ele><time>2026-04-25T14:08:25.999Z</time></trkpt><trkpt lat="43.730446351753244" lon="7.079335617919152"><ele>539.1666666666666</ele><time>2026-04-25T14:08:32.999Z</time></trkpt><trkpt lat="43.73052890250204" lon="7.079369886302496"><ele>539.3333333333333</ele><time>2026-04-25T14:08:41.999Z</time></trkpt><trkpt lat="43.7305870625423" lon="7.07941203404355"><ele>539.5</ele><time>2026-04-25T14:08:45.999Z</time></trkpt><trkpt lat="43.73066344241582" lon="7.079453900715437"><ele>539.6666666666666</ele><time>2026-04-25T14:08:48.999Z</time></trkpt><trkpt lat="43.730716158005976" lon="7.079534869366258"><ele>539.8333333333334</ele><time>2026-04-25T14:08:51.999Z</time></trkpt><trkpt lat="43.730758865181215" lon="7.079608947197302"><ele>540.0</ele><time>2026-04-25T14:08:55.999Z</time></trkpt><trkpt lat="43.73083351884267" lon="7.079631703935564"><ele>540.0</ele><time>2026-04-25T14:08:57.999Z</time></trkpt><trkpt lat="43.73090029318526" lon="7.079621701334398"><ele>540.0</ele><time>2026-04-25T14:09:00.999Z</time></trkpt><trkpt lat="43.73096515860822" lon="7.0796603732366945"><ele>540.0</ele><time>2026-04-25T14:09:02.999Z</time></trkpt><trkpt lat="43.73104493733063" lon="7.07967320847404"><ele>540.0</ele><time>2026-04-25T14:09:04.999Z</time></trkpt><trkpt lat="43.731176733416106" lon="7.079717000137498"><ele>540.0</ele><time>2026-04-25T14:09:06.999Z</time></trkpt><trkpt lat="43.731249449591736" lon="7.079751062959188"><ele>540.0</ele><time>2026-04-25T14:09:07.999Z</time></trkpt><trkpt lat="43.73133582765565" lon="7.0797815519405205"><ele>544.2</ele><time>2026-04-25T14:10:37.999Z</time></trkpt><trkpt lat="43.73143042587851" lon="7.079803257426092"><ele>548.4</ele><time>2026-04-25T14:10:39.999Z</time></trkpt><trkpt lat="43.73151455223403" lon="7.079781349712515"><ele>552.6</ele><time>2026-04-25T14:10:42.999Z</time></trkpt><trkpt lat="43.7316129198953" lon="7.079765749879313"><ele>556.8</ele><time>2026-04-25T14:10:44.999Z</time></trkpt><trkpt lat="43.73170834245224" lon="7.0797157478841335"><ele>561.0</ele><time>2026-04-25T14:10:46.999Z</time></trkpt><trkpt lat="43.731810891042485" lon="7.079662093712043"><ele>563.8333333333334</ele><time>2026-04-25T14:10:48.999Z</time></trkpt><trkpt lat="43.731906297676055" lon="7.079594806722306"><ele>566.6666666666666</ele><time>2026-04-25T14:10:50.999Z</time></trkpt><trkpt lat="43.731966532601724" lon="7.079548817314529"><ele>569.5</ele><time>2026-04-25T14:10:51.999Z</time></trkpt><trkpt lat="43.73202964070312" lon="7.079513617015646"><ele>572.3333333333333</ele><time>2026-04-25T14:10:52.999Z</time></trkpt><trkpt lat="43.73209459290585" lon="7.079483187591545"><ele>575.1666666666666</ele><time>2026-04-25T14:10:53.999Z</time></trkpt><trkpt lat="43.73216370083837" lon="7.079471058598699"><ele>578.0</ele><time>2026-04-25T14:10:54.999Z</time></trkpt><trkpt lat="43.73228929642889" lon="7.079492520354729"><ele>578.0</ele><time>2026-04-25T14:10:56.999Z</time></trkpt><trkpt lat="43.732385711998035" lon="7.0795310393405995"><ele>578.0</ele><time>2026-04-25T14:10:58.999Z</time></trkpt><trkpt lat="43.73247874284376" lon="7.079499194351414"><ele>578.0</ele><time>2026-04-25T14:11:00.999Z</time></trkpt><trkpt lat="43.732568624591" lon="7.079511733485332"><ele>578.0</ele><time>2026-04-25T14:11:02.999Z</time></trkpt><trkpt lat="43.73263285584271" lon="7.079529266607504"><ele>578.0</ele><time>2026-04-25T14:11:04.999Z</time></trkpt><trkpt lat="43.73268722255989" lon="7.079598630336828"><ele>578.0</ele><time>2026-04-25T14:11:07.999Z</time></trkpt><trkpt lat="43.73276632033662" lon="7.07963185506272"><ele>579.1666666666666</ele><time>2026-04-25T14:11:09.999Z</time></trkpt><trkpt lat="43.732834669345536" lon="7.07969396869732"><ele>580.3333333333333</ele><time>2026-04-25T14:11:11.999Z</time></trkpt><trkpt lat="43.732904557977726" lon="7.079719573195633"><ele>581.5</ele><time>2026-04-25T14:11:14.999Z</time></trkpt><trkpt lat="43.73297119603788" lon="7.079735015329462"><ele>582.6666666666666</ele><time>2026-04-25T14:11:16.998Z</time></trkpt><trkpt lat="43.73305082088108" lon="7.0797541682418155"><ele>583.8333333333334</ele><time>2026-04-25T14:11:19Z</time></trkpt><trkpt lat="43.73311511090574" lon="7.079776948017721"><ele>585.0</ele><time>2026-04-25T14:11:34Z</time></trkpt><trkpt lat="43.73319850974498" lon="7.079810497459988"><ele>585.0</ele><time>2026-04-25T14:11:37Z</time></trkpt><trkpt lat="43.73327265238847" lon="7.079837614433542"><ele>585.0</ele><time>2026-04-25T14:11:39Z</time></trkpt><trkpt lat="43.733351382190584" lon="7.079857294189114"><ele>585.0</ele><time>2026-04-25T14:11:41Z</time></trkpt><trkpt lat="43.73341589866874" lon="7.079881184222913"><ele>585.0</ele><time>2026-04-25T14:17:02Z</time></trkpt><trkpt lat="43.7334923190692" lon="7.079846060809127"><ele>585.0</ele><time>2026-04-25T14:17:05Z</time></trkpt><trkpt lat="43.73353753262888" lon="7.079783140802573"><ele>585.0</ele><time>2026-04-25T14:17:08Z</time></trkpt><trkpt lat="43.73364872666648" lon="7.0796660512339935"><ele>583.6</ele><time>2026-04-25T14:21:38Z</time></trkpt><trkpt lat="43.7337185192707" lon="7.079542197005109"><ele>582.2</ele><time>2026-04-25T14:21:40Z</time></trkpt><trkpt lat="43.733779726748104" lon="7.079426171818119"><ele>580.8</ele><time>2026-04-25T14:21:42Z</time></trkpt><trkpt lat="43.73381033026949" lon="7.079348359137982"><ele>579.4</ele><time>2026-04-25T14:21:43Z</time></trkpt><trkpt lat="43.73385873985615" lon="7.079274174755535"><ele>578.0</ele><time>2026-04-25T14:21:45Z</time></trkpt><trkpt lat="43.7339104895553" lon="7.0791563972094425"><ele>580.3333333333333</ele><time>2026-04-25T14:21:48Z</time></trkpt><trkpt lat="43.73394683399001" lon="7.079061099180884"><ele>582.6666666666666</ele><time>2026-04-25T14:21:50Z</time></trkpt><trkpt lat="43.73397466363101" lon="7.078978524582203"><ele>585.0</ele><time>2026-04-25T14:21:52Z</time></trkpt><trkpt lat="43.73404483184812" lon="7.078896580131603"><ele>587.3333333333334</ele><time>2026-04-25T14:21:55Z</time></trkpt><trkpt lat="43.734092553377536" lon="7.078831573282857"><ele>589.6666666666667</ele><time>2026-04-25T14:21:57Z</time></trkpt><trkpt lat="43.73418085501517" lon="7.078770095085883"><ele>592.0</ele><time>2026-04-25T14:22:00Z</time></trkpt><trkpt lat="43.73425183325161" lon="7.078686648460549"><ele>592.0</ele><time>2026-04-25T14:22:02Z</time></trkpt><trkpt lat="43.734346670370435" lon="7.07862545416517"><ele>592.0</ele><time>2026-04-25T14:22:04Z</time></trkpt><trkpt lat="43.73442597541376" lon="7.0785435939238335"><ele>592.0</ele><time>2026-04-25T14:22:06Z</time></trkpt><trkpt lat="43.734524891042064" lon="7.078484239503446"><ele>592.0</ele><time>2026-04-25T14:22:37.999Z</time></trkpt><trkpt lat="43.73460694508839" lon="7.078471846005189"><ele>592.0</ele><time>2026-04-25T14:22:39.999Z</time></trkpt><trkpt lat="43.73467880041334" lon="7.07844245004566"><ele>592.1428571428571</ele><time>2026-04-25T14:22:41.999Z</time></trkpt><trkpt lat="43.734752972971954" lon="7.078378376592359"><ele>592.2857142857142</ele><time>2026-04-25T14:22:44.999Z</time></trkpt><trkpt lat="43.73481320186317" lon="7.0784177100595365"><ele>592.4285714285713</ele><time>2026-04-25T14:22:47.999Z</time></trkpt><trkpt lat="43.73486375438151" lon="7.078479071288645"><ele>592.5714285714286</ele><time>2026-04-25T14:22:53.999Z</time></trkpt><trkpt lat="43.73491948902702" lon="7.078530267859828"><ele>592.7142857142857</ele><time>2026-04-25T14:22:55.999Z</time></trkpt><trkpt lat="43.73498044599234" lon="7.078598745212362"><ele>592.8571428571428</ele><time>2026-04-25T14:22:58.999Z</time></trkpt><trkpt lat="43.73502964217964" lon="7.0786628016897515"><ele>593.0</ele><time>2026-04-25T14:23:00.999Z</time></trkpt><trkpt lat="43.73511995721709" lon="7.078683379892292"><ele>592.9999999999999</ele><time>2026-04-25T14:23:03Z</time></trkpt><trkpt lat="43.73520276686367" lon="7.078728185762342"><ele>593.0</ele><time>2026-04-25T14:23:06Z</time></trkpt><trkpt lat="43.73525822921336" lon="7.078772005668762"><ele>593.0</ele><time>2026-04-25T14:23:08Z</time></trkpt><trkpt lat="43.73531260216597" lon="7.078831955510105"><ele>593.0</ele><time>2026-04-25T14:23:10Z</time></trkpt><trkpt lat="43.73538186791912" lon="7.078882885505281"><ele>593.0</ele><time>2026-04-25T14:23:12Z</time></trkpt><trkpt lat="43.73545591907261" lon="7.078933193756326"><ele>592.9999999999999</ele><time>2026-04-25T14:23:14Z</time></trkpt><trkpt lat="43.73551382880421" lon="7.078970748502717"><ele>593.0</ele><time>2026-04-25T14:23:16Z</time></trkpt><trkpt lat="43.73556438322843" lon="7.079033208044302"><ele>594.8333333333333</ele><time>2026-04-25T14:23:19Z</time></trkpt><trkpt lat="43.73562864186029" lon="7.079115741329515"><ele>596.6666666666666</ele><time>2026-04-25T14:23:22Z</time></trkpt><trkpt lat="43.73568033003142" lon="7.079182139693675"><ele>598.5</ele><time>2026-04-25T14:23:26Z</time></trkpt><trkpt lat="43.7357422112414" lon="7.07923609446128"><ele>600.3333333333334</ele><time>2026-04-25T14:23:29Z</time></trkpt><trkpt lat="43.735806414677" lon="7.079251560415685"><ele>602.1666666666667</ele><time>2026-04-25T14:23:31Z</time></trkpt><trkpt lat="43.73584888142477" lon="7.079176131412246"><ele>604.0</ele><time>2026-04-25T14:24:19.999Z</time></trkpt><trkpt lat="43.73582531404579" lon="7.079060881681256"><ele>604.0000000000001</ele><time>2026-04-25T14:24:21.999Z</time></trkpt><trkpt lat="43.73581558590538" lon="7.078973486176412"><ele>604.0</ele><time>2026-04-25T14:24:23.999Z</time></trkpt><trkpt lat="43.7358197201631" lon="7.07906209915793"><ele>604.0</ele><time>2026-04-25T14:25:22Z</time></trkpt><trkpt lat="43.735853582813995" lon="7.079150560655287"><ele>604.0</ele><time>2026-04-25T14:25:24Z</time></trkpt><trkpt lat="43.73585359012657" lon="7.079258946030201"><ele>604.0</ele><time>2026-04-25T14:25:56Z</time></trkpt><trkpt lat="43.73588828345328" lon="7.07934156644926"><ele>604.0000000000001</ele><time>2026-04-25T14:25:58Z</time></trkpt><trkpt lat="43.73594543166559" lon="7.079412151223608"><ele>604.0</ele><time>2026-04-25T14:26:00Z</time></trkpt><trkpt lat="43.73600893131935" lon="7.0794140511057915"><ele>604.3333333333334</ele><time>2026-04-25T14:26:04Z</time></trkpt><trkpt lat="43.736092409342575" lon="7.079465464018244"><ele>604.6666666666667</ele><time>2026-04-25T14:26:08Z</time></trkpt><trkpt lat="43.73617192903036" lon="7.079477250406846"><ele>605.0</ele><time>2026-04-25T14:26:10Z</time></trkpt><trkpt lat="43.73618972727939" lon="7.07957437459372"><ele>605.3333333333334</ele><time>2026-04-25T14:26:12Z</time></trkpt><trkpt lat="43.73624381543653" lon="7.0795231263683"><ele>605.6666666666666</ele><time>2026-04-25T14:26:47.999Z</time></trkpt><trkpt lat="43.73628016839236" lon="7.079436118638551"><ele>606.0</ele><time>2026-04-25T14:26:55.999Z</time></trkpt><trkpt lat="43.736316827733496" lon="7.079330103027953"><ele>606.0</ele><time>2026-04-25T14:26:59.999Z</time></trkpt><trkpt lat="43.73633999676866" lon="7.079230736381449"><ele>606.0</ele><time>2026-04-25T14:27:02.999Z</time></trkpt><trkpt lat="43.736416461632665" lon="7.079132772406145"><ele>606.0</ele><time>2026-04-25T14:27:05.999Z</time></trkpt><trkpt lat="43.73648739177774" lon="7.07907188537122"><ele>606.0</ele><time>2026-04-25T14:27:07.999Z</time></trkpt><trkpt lat="43.736549711044574" lon="7.079002735357311"><ele>606.0</ele><time>2026-04-25T14:27:09.999Z</time></trkpt><trkpt lat="43.73662806285895" lon="7.0789656648588615"><ele>606.0</ele><time>2026-04-25T14:27:11.999Z</time></trkpt><trkpt lat="43.73672007760291" lon="7.078960369295655"><ele>610.2</ele><time>2026-04-25T14:27:13.999Z</time></trkpt><trkpt lat="43.73682712114747" lon="7.078917303935613"><ele>614.4000000000001</ele><time>2026-04-25T14:27:16Z</time></trkpt><trkpt lat="43.736928055182126" lon="7.078878048858714"><ele>618.6</ele><time>2026-04-25T14:27:18Z</time></trkpt><trkpt lat="43.73699859992685" lon="7.078847653046402"><ele>622.8000000000001</ele><time>2026-04-25T14:27:21Z</time></trkpt><trkpt lat="43.737076999520866" lon="7.078775611581914"><ele>627.0</ele><time>2026-04-25T14:27:44Z</time></trkpt><trkpt lat="43.737161908415445" lon="7.078699885602395"><ele>627.8333333333334</ele><time>2026-04-25T14:27:46Z</time></trkpt><trkpt lat="43.737204551449224" lon="7.078601566632141"><ele>628.6666666666666</ele><time>2026-04-25T14:27:48Z</time></trkpt><trkpt lat="43.73728126477591" lon="7.07858748058701"><ele>629.5</ele><time>2026-04-25T14:27:50Z</time></trkpt><trkpt lat="43.737380675053345" lon="7.078605105549788"><ele>630.3333333333333</ele><time>2026-04-25T14:27:52Z</time></trkpt><trkpt lat="43.737499086865256" lon="7.078583899815817"><ele>631.1666666666666</ele><time>2026-04-25T14:27:54Z</time></trkpt><trkpt lat="43.737559963718695" lon="7.078616655975239"><ele>632.0</ele><time>2026-04-25T14:27:55Z</time></trkpt><trkpt lat="43.73762814215623" lon="7.078673898686098"><ele>632.0</ele><time>2026-04-25T14:27:56Z</time></trkpt><trkpt lat="43.737701513303726" lon="7.078724475356617"><ele>632.0</ele><time>2026-04-25T14:27:57Z</time></trkpt><trkpt lat="43.7377504221073" lon="7.078790505895901"><ele>632.0</ele><time>2026-04-25T14:27:58Z</time></trkpt><trkpt lat="43.737832020143564" lon="7.078903615052379"><ele>632.0</ele><time>2026-04-25T14:28:00Z</time></trkpt><trkpt lat="43.737901078425864" lon="7.078930777690958"><ele>632.0</ele><time>2026-04-25T14:28:02Z</time></trkpt><trkpt lat="43.73795899416762" lon="7.078972720104107"><ele>632.0</ele><time>2026-04-25T14:28:05Z</time></trkpt><trkpt lat="43.73796981897004" lon="7.078884450241992"><ele>633.1666666666666</ele><time>2026-04-25T14:28:36.999Z</time></trkpt><trkpt lat="43.73795133729756" lon="7.078785868289565"><ele>634.3333333333333</ele><time>2026-04-25T14:28:39.999Z</time></trkpt><trkpt lat="43.737962039783625" lon="7.0786728570596305"><ele>635.5</ele><time>2026-04-25T14:28:41.999Z</time></trkpt><trkpt lat="43.7379845050384" lon="7.078584446013309"><ele>636.6666666666666</ele><time>2026-04-25T14:28:43.999Z</time></trkpt><trkpt lat="43.73803904398516" lon="7.078506370838511"><ele>637.8333333333334</ele><time>2026-04-25T14:28:45.999Z</time></trkpt><trkpt lat="43.73804046979293" lon="7.07839793878002"><ele>639.0</ele><time>2026-04-25T14:28:48.999Z</time></trkpt><trkpt lat="43.73809546010136" lon="7.078330729662943"><ele>641.8333333333334</ele><time>2026-04-25T14:29:31Z</time></trkpt><trkpt lat="43.738067689107346" lon="7.078219102926619"><ele>644.6666666666666</ele><time>2026-04-25T14:29:34Z</time></trkpt><trkpt lat="43.73809580680853" lon="7.078131263927516"><ele>647.5</ele><time>2026-04-25T14:29:37Z</time></trkpt><trkpt lat="43.738119676739764" lon="7.0780285498030295"><ele>650.3333333333333</ele><time>2026-04-25T14:29:40Z</time></trkpt><trkpt lat="43.73814182657943" lon="7.07794593333"><ele>653.1666666666666</ele><time>2026-04-25T14:29:45Z</time></trkpt><trkpt lat="43.73810441710286" lon="7.077833733330825"><ele>656.0</ele><time>2026-04-25T14:29:48Z</time></trkpt><trkpt lat="43.738050935526566" lon="7.077761237890227"><ele>656.0</ele><time>2026-04-25T14:29:57Z</time></trkpt><trkpt lat="43.73803232568259" lon="7.077656042662098"><ele>656.0</ele><time>2026-04-25T14:29:59Z</time></trkpt><trkpt lat="43.73803617041309" lon="7.07754696490416"><ele>656.0</ele><time>2026-04-25T14:30:03Z</time></trkpt><trkpt lat="43.73799671486179" lon="7.077450560079484"><ele>656.0</ele><time>2026-04-25T14:30:06Z</time></trkpt><trkpt lat="43.737980768214726" lon="7.077357636149705"><ele>656.0</ele><time>2026-04-25T14:30:08Z</time></trkpt><trkpt lat="43.73793652788344" lon="7.077241965045219"><ele>656.0</ele><time>2026-04-25T14:30:10Z</time></trkpt><trkpt lat="43.73788607684769" lon="7.0771205783204225"><ele>658.8571428571428</ele><time>2026-04-25T14:30:12Z</time></trkpt><trkpt lat="43.73784882345749" lon="7.077039636895289"><ele>661.7142857142857</ele><time>2026-04-25T14:30:14Z</time></trkpt><trkpt lat="43.73781865639563" lon="7.076949806552116"><ele>664.5714285714286</ele><time>2026-04-25T14:30:17Z</time></trkpt><trkpt lat="43.73780588277223" lon="7.0768607149164975"><ele>667.4285714285713</ele><time>2026-04-25T14:30:19Z</time></trkpt><trkpt lat="43.73783801026173" lon="7.076783376330163"><ele>670.2857142857142</ele><time>2026-04-25T14:30:22Z</time></trkpt><trkpt lat="43.737894735772755" lon="7.076689390972614"><ele>673.1428571428571</ele><time>2026-04-25T14:30:26Z</time></trkpt><trkpt lat="43.737926814015665" lon="7.076610810463937"><ele>676.0</ele><time>2026-04-25T14:30:31Z</time></trkpt><trkpt lat="43.737923826070826" lon="7.076506937470817"><ele>679.6666666666667</ele><time>2026-04-25T14:30:35.999Z</time></trkpt><trkpt lat="43.73793772807719" lon="7.076408783059611"><ele>683.3333333333334</ele><time>2026-04-25T14:30:37.999Z</time></trkpt><trkpt lat="43.737979925278346" lon="7.076329256412659"><ele>687.0</ele><time>2026-04-25T14:30:40.999Z</time></trkpt><trkpt lat="43.73793401132055" lon="7.07622906991648"><ele>690.6666666666666</ele><time>2026-04-25T14:30:43.999Z</time></trkpt><trkpt lat="43.73789965905277" lon="7.076144331478179"><ele>694.3333333333333</ele><time>2026-04-25T14:30:45.999Z</time></trkpt><trkpt lat="43.73784205321712" lon="7.076059363943585"><ele>698.0</ele><time>2026-04-25T14:30:47.999Z</time></trkpt><trkpt lat="43.737781015140875" lon="7.075992383261463"><ele>697.9999999999999</ele><time>2026-04-25T14:30:51.999Z</time></trkpt><trkpt lat="43.737747581340294" lon="7.075885064343021"><ele>698.0</ele><time>2026-04-25T14:30:53.999Z</time></trkpt><trkpt lat="43.737730214278876" lon="7.075793031588849"><ele>698.0</ele><time>2026-04-25T14:30:55.999Z</time></trkpt><trkpt lat="43.73775036519831" lon="7.07569167143827"><ele>698.0</ele><time>2026-04-25T14:30:59.999Z</time></trkpt><trkpt lat="43.737782187273496" lon="7.075607798370666"><ele>698.0</ele><time>2026-04-25T14:31:03.999Z</time></trkpt><trkpt lat="43.737756524187056" lon="7.075521689559894"><ele>697.9999999999999</ele><time>2026-04-25T14:31:18.999Z</time></trkpt><trkpt lat="43.73768302993343" lon="7.075491719156852"><ele>698.0</ele><time>2026-04-25T14:31:21.999Z</time></trkpt><trkpt lat="43.73778337575009" lon="7.075514716010076"><ele>700.1666666666666</ele><time>2026-04-25T14:32:02Z</time></trkpt><trkpt lat="43.73784945334216" lon="7.075519866052801"><ele>702.3333333333333</ele><time>2026-04-25T14:32:07Z</time></trkpt><trkpt lat="43.737920262265014" lon="7.075533444428444"><ele>704.5</ele><time>2026-04-25T14:32:27Z</time></trkpt><trkpt lat="43.73781889625985" lon="7.075512787930478"><ele>706.6666666666666</ele><time>2026-04-25T14:33:23.999Z</time></trkpt><trkpt lat="43.737718107933425" lon="7.075488903161371"><ele>708.8333333333334</ele><time>2026-04-25T14:33:28.999Z</time></trkpt><trkpt lat="43.73766069587637" lon="7.0754406342424145"><ele>711.0</ele><time>2026-04-25T14:33:47Z</time></trkpt><trkpt lat="43.73771391247306" lon="7.0753485635227"><ele>711.0</ele><time>2026-04-25T14:36:45Z</time></trkpt><trkpt lat="43.737748733438856" lon="7.07526377671571"><ele>711.0</ele><time>2026-04-25T14:36:48Z</time></trkpt><trkpt lat="43.73778172861452" lon="7.075188816817946"><ele>711.0</ele><time>2026-04-25T14:36:51Z</time></trkpt><trkpt lat="43.737763707792844" lon="7.075098095004239"><ele>711.0</ele><time>2026-04-25T14:38:15Z</time></trkpt><trkpt lat="43.737608044043995" lon="7.075125938830988"><ele>711.0</ele><time>2026-04-25T14:39:55Z</time></trkpt><trkpt lat="43.73755698291632" lon="7.075067437519812"><ele>711.0</ele><time>2026-04-25T14:39:57Z</time></trkpt><trkpt lat="43.737509984279136" lon="7.07498602194037"><ele>711.0</ele><time>2026-04-25T14:40:00Z</time></trkpt><trkpt lat="43.73743778802752" lon="7.074945603767897"><ele>711.0</ele><time>2026-04-25T14:40:16Z</time></trkpt><trkpt lat="43.7373892578218" lon="7.074885782651336"><ele>711.0</ele><time>2026-04-25T14:41:30.999Z</time></trkpt><trkpt lat="43.73735219553009" lon="7.07480062441309"><ele>711.0</ele><time>2026-04-25T14:41:34.999Z</time></trkpt><trkpt lat="43.7373373410224" lon="7.074703912122142"><ele>711.0</ele><time>2026-04-25T14:41:37.999Z</time></trkpt><trkpt lat="43.73735649759633" lon="7.0748001803878395"><ele>711.0</ele><time>2026-04-25T14:42:19Z</time></trkpt><trkpt lat="43.73738623330477" lon="7.074883747359732"><ele>711.0</ele><time>2026-04-25T14:42:24Z</time></trkpt><trkpt lat="43.73742918698993" lon="7.074951736552354"><ele>711.0</ele><time>2026-04-25T14:42:34Z</time></trkpt><trkpt lat="43.73749144243376" lon="7.074967840733842"><ele>711.0</ele><time>2026-04-25T14:42:45Z</time></trkpt><trkpt lat="43.73753998565782" lon="7.075032639329141"><ele>711.0</ele><time>2026-04-25T14:43:27.999Z</time></trkpt><trkpt lat="43.73759654720919" lon="7.0750997469782675"><ele>711.0</ele><time>2026-04-25T14:43:30.999Z</time></trkpt><trkpt lat="43.73767118584179" lon="7.075102278411129"><ele>711.0</ele><time>2026-04-25T14:43:33.999Z</time></trkpt><trkpt lat="43.737742034586496" lon="7.075117034975916"><ele>711.0</ele><time>2026-04-25T14:43:54.999Z</time></trkpt><trkpt lat="43.73776871257954" lon="7.075204252168674"><ele>711.0</ele><time>2026-04-25T14:44:55Z</time></trkpt><trkpt lat="43.7377331474609" lon="7.075284744123236"><ele>711.0</ele><time>2026-04-25T14:45:06Z</time></trkpt><trkpt lat="43.73777031189131" lon="7.075209494372008"><ele>711.0</ele><time>2026-04-25T14:45:49.999Z</time></trkpt><trkpt lat="43.73772707681311" lon="7.075292428912516"><ele>711.0</ele><time>2026-04-25T14:46:40Z</time></trkpt><trkpt lat="43.73769528631767" lon="7.075371474371247"><ele>711.0</ele><time>2026-04-25T14:46:43Z</time></trkpt><trkpt lat="43.73763629751276" lon="7.075403927933246"><ele>711.0</ele><time>2026-04-25T14:47:21Z</time></trkpt><trkpt lat="43.73767193861167" lon="7.075478867540203"><ele>711.0</ele><time>2026-04-25T14:48:00.999Z</time></trkpt><trkpt lat="43.73772794845069" lon="7.07552810927462"><ele>711.0</ele><time>2026-04-25T14:48:03.999Z</time></trkpt><trkpt lat="43.73779420907607" lon="7.0755213906143615"><ele>713.0</ele><time>2026-04-25T14:48:51Z</time></trkpt><trkpt lat="43.737768965524225" lon="7.075667145799923"><ele>715.0</ele><time>2026-04-25T14:49:18Z</time></trkpt><trkpt lat="43.73774707188732" lon="7.075776037956417"><ele>717.0</ele><time>2026-04-25T14:49:29Z</time></trkpt><trkpt lat="43.73777566663701" lon="7.075885564459986"><ele>719.0</ele><time>2026-04-25T14:49:32Z</time></trkpt><trkpt lat="43.73781227886802" lon="7.075976024160719"><ele>721.0</ele><time>2026-04-25T14:49:35.999Z</time></trkpt><trkpt lat="43.73786088799577" lon="7.076056799084779"><ele>723.0</ele><time>2026-04-25T14:50:06.999Z</time></trkpt><trkpt lat="43.737920891906505" lon="7.076105215247425"><ele>718.8333333333334</ele><time>2026-04-25T14:50:11.999Z</time></trkpt><trkpt lat="43.73798703880389" lon="7.076073136800466"><ele>714.6666666666666</ele><time>2026-04-25T14:50:15.999Z</time></trkpt><trkpt lat="43.738066225330115" lon="7.07606549560928"><ele>710.5</ele><time>2026-04-25T14:50:25Z</time></trkpt><trkpt lat="43.73813920534006" lon="7.076080151851804"><ele>706.3333333333333</ele><time>2026-04-25T14:50:28Z</time></trkpt><trkpt lat="43.73820981101352" lon="7.07609851169281"><ele>702.1666666666666</ele><time>2026-04-25T14:50:49Z</time></trkpt><trkpt lat="43.73827467001037" lon="7.075926823435943"><ele>698.0</ele><time>2026-04-25T14:52:11.999Z</time></trkpt><trkpt lat="43.73834389957288" lon="7.075919426512937"><ele>698.0</ele><time>2026-04-25T14:52:23.999Z</time></trkpt><trkpt lat="43.73841853530468" lon="7.075935698072639"><ele>698.0</ele><time>2026-04-25T14:52:43Z</time></trkpt><trkpt lat="43.738468217274445" lon="7.075876977664982"><ele>698.0</ele><time>2026-04-25T14:52:56Z</time></trkpt><trkpt lat="43.73853204487823" lon="7.075841219065249"><ele>698.0</ele><time>2026-04-25T14:53:04Z</time></trkpt><trkpt lat="43.73864355634108" lon="7.075901987428935"><ele>698.0</ele><time>2026-04-25T14:54:09.999Z</time></trkpt><trkpt lat="43.73868546096835" lon="7.075967064570435"><ele>698.0</ele><time>2026-04-25T14:54:19.999Z</time></trkpt><trkpt lat="43.73876706438023" lon="7.075992452925362"><ele>699.3333333333333</ele><time>2026-04-25T14:54:24.999Z</time></trkpt><trkpt lat="43.738831860541545" lon="7.076002897718856"><ele>700.6666666666666</ele><time>2026-04-25T14:54:27.999Z</time></trkpt><trkpt lat="43.73889874704483" lon="7.075929119534772"><ele>702.0</ele><time>2026-04-25T14:54:36Z</time></trkpt><trkpt lat="43.73895663652409" lon="7.0758682297927304"><ele>703.3333333333334</ele><time>2026-04-25T14:54:39Z</time></trkpt><trkpt lat="43.73901406512749" lon="7.075801804058766"><ele>704.6666666666667</ele><time>2026-04-25T14:54:43Z</time></trkpt><trkpt lat="43.739083477132006" lon="7.075707842281016"><ele>706.0</ele><time>2026-04-25T14:54:46Z</time></trkpt><trkpt lat="43.739148195448806" lon="7.075664852960694"><ele>709.7142857142857</ele><time>2026-04-25T14:54:48Z</time></trkpt><trkpt lat="43.73921625907007" lon="7.075643281360453"><ele>713.4285714285714</ele><time>2026-04-25T14:54:50Z</time></trkpt><trkpt lat="43.7392750661283" lon="7.075611343888791"><ele>717.1428571428571</ele><time>2026-04-25T14:54:52Z</time></trkpt><trkpt lat="43.739352684459305" lon="7.075572307959688"><ele>720.8571428571429</ele><time>2026-04-25T14:54:57Z</time></trkpt><trkpt lat="43.739436286969294" lon="7.075609670876248"><ele>724.5714285714287</ele><time>2026-04-25T14:58:01.999Z</time></trkpt><trkpt lat="43.739500798462664" lon="7.07561954058632"><ele>728.2857142857143</ele><time>2026-04-25T14:58:04.999Z</time></trkpt><trkpt lat="43.73956599594316" lon="7.075621899772398"><ele>732.0</ele><time>2026-04-25T14:58:08.999Z</time></trkpt><trkpt lat="43.739626701794634" lon="7.075576288469421"><ele>732.0</ele><time>2026-04-25T14:58:13.999Z</time></trkpt><trkpt lat="43.73970436343811" lon="7.075544660350236"><ele>732.0</ele><time>2026-04-25T14:58:27.999Z</time></trkpt><trkpt lat="43.739763661528634" lon="7.075478656248818"><ele>732.0</ele><time>2026-04-25T14:58:32.999Z</time></trkpt><trkpt lat="43.739807059993375" lon="7.075407537589463"><ele>732.0</ele><time>2026-04-25T14:58:43.001Z</time></trkpt><trkpt lat="43.739861316231334" lon="7.075362922270132"><ele>732.0</ele><time>2026-04-25T14:59:05Z</time></trkpt><trkpt lat="43.73993200722918" lon="7.075349376292275"><ele>732.0</ele><time>2026-04-25T14:59:09Z</time></trkpt><trkpt lat="43.74000235765303" lon="7.075326388842333"><ele>732.0</ele><time>2026-04-25T14:59:12Z</time></trkpt><trkpt lat="43.740065018151085" lon="7.075295098509173"><ele>732.0</ele><time>2026-04-25T14:59:48Z</time></trkpt><trkpt lat="43.74009855837692" lon="7.075211962264622"><ele>732.0</ele><time>2026-04-25T15:00:03Z</time></trkpt><trkpt lat="43.74014255708772" lon="7.075142070935046"><ele>732.0</ele><time>2026-04-25T15:04:58.999Z</time></trkpt><trkpt lat="43.740199359512815" lon="7.0750923774012575"><ele>732.0</ele><time>2026-04-25T15:05:27.999Z</time></trkpt><trkpt lat="43.74026420046581" lon="7.075020634864527"><ele>732.0</ele><time>2026-04-25T15:05:32.999Z</time></trkpt><trkpt lat="43.74030113256419" lon="7.074926648938371"><ele>732.0</ele><time>2026-04-25T15:05:36.999Z</time></trkpt><trkpt lat="43.74032369554364" lon="7.074829487922965"><ele>732.0</ele><time>2026-04-25T15:05:39.999Z</time></trkpt><trkpt lat="43.74031984067064" lon="7.074741673293497"><ele>733.3333333333334</ele><time>2026-04-25T15:05:42.999Z</time></trkpt><trkpt lat="43.7403150031655" lon="7.074614170466939"><ele>734.6666666666666</ele><time>2026-04-25T15:05:45.999Z</time></trkpt><trkpt lat="43.740370625737306" lon="7.07453491537362"><ele>736.0</ele><time>2026-04-25T15:05:48.999Z</time></trkpt><trkpt lat="43.7404160240958" lon="7.074429937630628"><ele>737.3333333333333</ele><time>2026-04-25T15:05:49.999Z</time></trkpt><trkpt lat="43.74046162314284" lon="7.074328732772822"><ele>738.6666666666666</ele><time>2026-04-25T15:05:51.999Z</time></trkpt><trkpt lat="43.74051811688407" lon="7.074256790123044"><ele>740.0</ele><time>2026-04-25T15:05:53.999Z</time></trkpt><trkpt lat="43.740552566819204" lon="7.074178144969838"><ele>739.9999999999999</ele><time>2026-04-25T15:05:58.999Z</time></trkpt><trkpt lat="43.74063434249601" lon="7.074125417304429"><ele>740.0</ele><time>2026-04-25T15:06:01.999Z</time></trkpt><trkpt lat="43.74067722203197" lon="7.074055456518627"><ele>740.0</ele><time>2026-04-25T15:06:03.999Z</time></trkpt><trkpt lat="43.74063336804538" lon="7.073986143484966"><ele>740.0</ele><time>2026-04-25T15:06:23.998Z</time></trkpt><trkpt lat="43.74059945604274" lon="7.073883298046743"><ele>740.0</ele><time>2026-04-25T15:06:36.998Z</time></trkpt><trkpt lat="43.74057551810251" lon="7.0737977753208625"><ele>739.9999999999999</ele><time>2026-04-25T15:06:39.998Z</time></trkpt><trkpt lat="43.74052571463839" lon="7.073718825797575"><ele>740.0</ele><time>2026-04-25T15:06:50.998Z</time></trkpt><trkpt lat="43.74046814272142" lon="7.073759845312679"><ele>743.1666666666666</ele><time>2026-04-25T15:07:07.999Z</time></trkpt><trkpt lat="43.74039746534328" lon="7.073784667686002"><ele>746.3333333333333</ele><time>2026-04-25T15:07:15.999Z</time></trkpt><trkpt lat="43.740337846712805" lon="7.073749153965906"><ele>749.5</ele><time>2026-04-25T15:07:22.999Z</time></trkpt><trkpt lat="43.7402693642317" lon="7.073726666249602"><ele>752.6666666666666</ele><time>2026-04-25T15:07:24.999Z</time></trkpt><trkpt lat="43.740191056394046" lon="7.073708181577679"><ele>755.8333333333334</ele><time>2026-04-25T15:07:26.999Z</time></trkpt><trkpt lat="43.74009890206795" lon="7.073680875883553"><ele>759.0</ele><time>2026-04-25T15:07:29.999Z</time></trkpt><trkpt lat="43.74004826617657" lon="7.07360099117347"><ele>760.8333333333334</ele><time>2026-04-25T15:07:32.999Z</time></trkpt><trkpt lat="43.73999039847088" lon="7.073528972600746"><ele>762.6666666666667</ele><time>2026-04-25T15:07:34.999Z</time></trkpt><trkpt lat="43.739936050958015" lon="7.073465709200012"><ele>764.5</ele><time>2026-04-25T15:07:36.999Z</time></trkpt><trkpt lat="43.739919103952104" lon="7.073366881528002"><ele>766.3333333333334</ele><time>2026-04-25T15:09:02.998Z</time></trkpt><trkpt lat="43.73992345879028" lon="7.073257705799388"><ele>768.1666666666667</ele><time>2026-04-25T15:09:05.998Z</time></trkpt><trkpt lat="43.73994215602262" lon="7.073132677402485"><ele>770.0</ele><time>2026-04-25T15:09:07.998Z</time></trkpt><trkpt lat="43.73994902356834" lon="7.073021107896627"><ele>771.5000000000001</ele><time>2026-04-25T15:09:09.998Z</time></trkpt><trkpt lat="43.73994148082188" lon="7.072911322973792"><ele>773.0</ele><time>2026-04-25T15:09:11.999Z</time></trkpt><trkpt lat="43.739891312584604" lon="7.072822447680157"><ele>774.5</ele><time>2026-04-25T15:09:13.999Z</time></trkpt><trkpt lat="43.739841415904394" lon="7.072744569734078"><ele>776.0</ele><time>2026-04-25T15:09:15.999Z</time></trkpt><trkpt lat="43.73981053943524" lon="7.072637205962713"><ele>777.5000000000001</ele><time>2026-04-25T15:09:17.999Z</time></trkpt><trkpt lat="43.73975687644264" lon="7.072559862725902"><ele>779.0</ele><time>2026-04-25T15:09:20.999Z</time></trkpt><trkpt lat="43.7396809691393" lon="7.072500327551546"><ele>779.0000000000001</ele><time>2026-04-25T15:09:25.999Z</time></trkpt><trkpt lat="43.73961516862547" lon="7.072455421587046"><ele>779.0</ele><time>2026-04-25T15:09:27.999Z</time></trkpt><trkpt lat="43.73956353656385" lon="7.072400575295318"><ele>779.0</ele><time>2026-04-25T15:09:30.999Z</time></trkpt><trkpt lat="43.73951575423958" lon="7.07232260714729"><ele>779.0</ele><time>2026-04-25T15:09:44.999Z</time></trkpt><trkpt lat="43.739434946808686" lon="7.0723045984019235"><ele>779.0</ele><time>2026-04-25T15:09:48.999Z</time></trkpt><trkpt lat="43.739371850469205" lon="7.072315537739194"><ele>779.0000000000001</ele><time>2026-04-25T15:09:52.999Z</time></trkpt><trkpt lat="43.73929259974447" lon="7.0722823021702474"><ele>779.0</ele><time>2026-04-25T15:09:57.999Z</time></trkpt><trkpt lat="43.73923786756544" lon="7.072222396346193"><ele>780.3333333333334</ele><time>2026-04-25T15:10:05.999Z</time></trkpt><trkpt lat="43.739202449572126" lon="7.072131977542235"><ele>781.6666666666667</ele><time>2026-04-25T15:10:11.999Z</time></trkpt><trkpt lat="43.739153566097805" lon="7.072046869697289"><ele>783.0</ele><time>2026-04-25T15:10:18.999Z</time></trkpt><trkpt lat="43.73909351943574" lon="7.071969335011359"><ele>784.3333333333333</ele><time>2026-04-25T15:10:21.999Z</time></trkpt><trkpt lat="43.739007027298065" lon="7.071979178875067"><ele>785.6666666666666</ele><time>2026-04-25T15:10:32.998Z</time></trkpt><trkpt lat="43.738920168856325" lon="7.072015122622742"><ele>787.0</ele><time>2026-04-25T15:11:07.998Z</time></trkpt><trkpt lat="43.73885832302562" lon="7.072057586221119"><ele>786.9999999999999</ele><time>2026-04-25T15:11:19.999Z</time></trkpt><trkpt lat="43.738785392931675" lon="7.072087804092866"><ele>787.0</ele><time>2026-04-25T15:11:24.999Z</time></trkpt><trkpt lat="43.73873243304612" lon="7.072160799993329"><ele>787.0</ele><time>2026-04-25T15:11:28.999Z</time></trkpt><trkpt lat="43.73864489969461" lon="7.072184405328317"><ele>787.0</ele><time>2026-04-25T15:11:32.999Z</time></trkpt><trkpt lat="43.7386126353977" lon="7.072101635616848"><ele>786.9999999999999</ele><time>2026-04-25T15:11:35.999Z</time></trkpt><trkpt lat="43.73858346002854" lon="7.072021494591608"><ele>787.0</ele><time>2026-04-25T15:11:37.999Z</time></trkpt><trkpt lat="43.738534615724575" lon="7.07192609380738"><ele>788.5714285714286</ele><time>2026-04-25T15:11:39.999Z</time></trkpt><trkpt lat="43.73852017267532" lon="7.0718332622864795"><ele>790.1428571428571</ele><time>2026-04-25T15:11:42.999Z</time></trkpt><trkpt lat="43.73846547349995" lon="7.071777210089602"><ele>791.7142857142858</ele><time>2026-04-25T15:11:51.999Z</time></trkpt><trkpt lat="43.73841611809134" lon="7.07170171688906"><ele>793.2857142857142</ele><time>2026-04-25T15:11:57.999Z</time></trkpt><trkpt lat="43.73832740745946" lon="7.071712583640647"><ele>794.8571428571429</ele><time>2026-04-25T15:12:00.999Z</time></trkpt><trkpt lat="43.73826152027067" lon="7.07173690446541"><ele>796.4285714285714</ele><time>2026-04-25T15:12:02.999Z</time></trkpt><trkpt lat="43.73819862842774" lon="7.071755835538953"><ele>798.0</ele><time>2026-04-25T15:12:07.999Z</time></trkpt><trkpt lat="43.73812346185417" lon="7.07180075965057"><ele>798.0</ele><time>2026-04-25T15:12:11.999Z</time></trkpt><trkpt lat="43.73806501136094" lon="7.071855949820912"><ele>798.0</ele><time>2026-04-25T15:12:15.999Z</time></trkpt><trkpt lat="43.73800088537661" lon="7.071915221115311"><ele>798.0</ele><time>2026-04-25T15:12:18.999Z</time></trkpt><trkpt lat="43.737987833851" lon="7.072025697948659"><ele>798.0</ele><time>2026-04-25T15:12:22.999Z</time></trkpt><trkpt lat="43.737986595096494" lon="7.072116294904352"><ele>798.0</ele><time>2026-04-25T15:12:31.999Z</time></trkpt><trkpt lat="43.73791853387238" lon="7.072103668547395"><ele>798.0</ele><time>2026-04-25T15:12:39.998Z</time></trkpt><trkpt lat="43.73789843664151" lon="7.072186856893675"><ele>798.0</ele><time>2026-04-25T15:12:43.998Z</time></trkpt><trkpt lat="43.73793717670749" lon="7.072258689956536"><ele>798.0</ele><time>2026-04-25T15:12:45.998Z</time></trkpt><trkpt lat="43.73790137960823" lon="7.072155898704997"><ele>798.0</ele><time>2026-04-25T15:13:18.998Z</time></trkpt><trkpt lat="43.73791219206533" lon="7.072050265286052"><ele>798.0</ele><time>2026-04-25T15:13:21.999Z</time></trkpt><trkpt lat="43.737923538265356" lon="7.0719523215104365"><ele>798.0</ele><time>2026-04-25T15:16:15.999Z</time></trkpt><trkpt lat="43.73794376572757" lon="7.071843811619208"><ele>798.0</ele><time>2026-04-25T15:16:18.999Z</time></trkpt><trkpt lat="43.737942833070264" lon="7.071748266247384"><ele>798.0</ele><time>2026-04-25T15:16:21.999Z</time></trkpt><trkpt lat="43.737928286513814" lon="7.071638601802332"><ele>799.3333333333334</ele><time>2026-04-25T15:16:23.999Z</time></trkpt><trkpt lat="43.73797717696839" lon="7.07153314441648"><ele>800.6666666666667</ele><time>2026-04-25T15:16:26.999Z</time></trkpt><trkpt lat="43.738030515705226" lon="7.071444477668358"><ele>802.0</ele><time>2026-04-25T15:16:28.999Z</time></trkpt><trkpt lat="43.73804628215119" lon="7.0713330870767726"><ele>803.3333333333334</ele><time>2026-04-25T15:16:32.999Z</time></trkpt><trkpt lat="43.738023121025" lon="7.071203417459645"><ele>804.6666666666667</ele><time>2026-04-25T15:16:36.999Z</time></trkpt><trkpt lat="43.73796977535614" lon="7.071100202412555"><ele>806.0</ele><time>2026-04-25T15:16:39.999Z</time></trkpt><trkpt lat="43.73798203718523" lon="7.0710030740085905"><ele>806.0000000000001</ele><time>2026-04-25T15:16:42.999Z</time></trkpt><trkpt lat="43.738082239274206" lon="7.070961878572654"><ele>806.0</ele><time>2026-04-25T15:16:44.999Z</time></trkpt><trkpt lat="43.73816664633784" lon="7.070932851887527"><ele>806.0</ele><time>2026-04-25T15:16:46.999Z</time></trkpt><trkpt lat="43.73823399426374" lon="7.07088464472844"><ele>806.0</ele><time>2026-04-25T15:16:55.999Z</time></trkpt><trkpt lat="43.738290780143664" lon="7.070811295500926"><ele>806.0000000000001</ele><time>2026-04-25T15:18:45.999Z</time></trkpt><trkpt lat="43.73832336575474" lon="7.070731612734412"><ele>806.0</ele><time>2026-04-25T15:18:48.999Z</time></trkpt><trkpt lat="43.73826367626301" lon="7.07065402084474"><ele>808.4285714285714</ele><time>2026-04-25T15:18:51.999Z</time></trkpt><trkpt lat="43.73822047886647" lon="7.0705881169142435"><ele>810.8571428571428</ele><time>2026-04-25T15:18:53.999Z</time></trkpt><trkpt lat="43.73819885227202" lon="7.070492486528257"><ele>813.2857142857142</ele><time>2026-04-25T15:18:55.999Z</time></trkpt><trkpt lat="43.7382858973509" lon="7.070473261868958"><ele>815.7142857142858</ele><time>2026-04-25T15:20:05.999Z</time></trkpt><trkpt lat="43.738364611483476" lon="7.070477472580363"><ele>818.1428571428571</ele><time>2026-04-25T15:20:07.999Z</time></trkpt><trkpt lat="43.73843758386445" lon="7.070470830727427"><ele>820.5714285714286</ele><time>2026-04-25T15:20:09.999Z</time></trkpt><trkpt lat="43.738501220204896" lon="7.0704580221956785"><ele>823.0</ele><time>2026-04-25T15:20:11.999Z</time></trkpt><trkpt lat="43.73857506018483" lon="7.070458346065917"><ele>822.9999999999999</ele><time>2026-04-25T15:20:13.999Z</time></trkpt><trkpt lat="43.73865223775947" lon="7.070436933438935"><ele>823.0</ele><time>2026-04-25T15:20:15.999Z</time></trkpt><trkpt lat="43.738737530344686" lon="7.070478997424014"><ele>823.0</ele><time>2026-04-25T15:20:18.999Z</time></trkpt><trkpt lat="43.73878724870901" lon="7.070554781073985"><ele>823.0</ele><time>2026-04-25T15:20:21.999Z</time></trkpt><trkpt lat="43.738861326408156" lon="7.070588760430387"><ele>822.9999999999999</ele><time>2026-04-25T15:20:24.999Z</time></trkpt><trkpt lat="43.73895756210826" lon="7.070599354806944"><ele>823.0</ele><time>2026-04-25T15:20:27.999Z</time></trkpt><trkpt lat="43.73902985124609" lon="7.070621133896906"><ele>822.9999999999999</ele><time>2026-04-25T15:20:29.999Z</time></trkpt><trkpt lat="43.739112591236434" lon="7.0706662796013"><ele>823.0</ele><time>2026-04-25T15:20:32.999Z</time></trkpt><trkpt lat="43.73917595534471" lon="7.070658692474911"><ele>823.0</ele><time>2026-04-25T15:20:35.999Z</time></trkpt><trkpt lat="43.739245083380744" lon="7.070678579657373"><ele>823.0</ele><time>2026-04-25T15:20:39.999Z</time></trkpt><trkpt lat="43.73931705476216" lon="7.070672269869655"><ele>822.9999999999999</ele><time>2026-04-25T15:20:41.999Z</time></trkpt><trkpt lat="43.739414093640015" lon="7.070661389141193"><ele>823.0</ele><time>2026-04-25T15:20:43.999Z</time></trkpt><trkpt lat="43.73950623178045" lon="7.070690955799015"><ele>821.8</ele><time>2026-04-25T15:20:45.999Z</time></trkpt><trkpt lat="43.73963656049831" lon="7.0707506182336415"><ele>820.5999999999999</ele><time>2026-04-25T15:20:47.999Z</time></trkpt><trkpt lat="43.739725382092004" lon="7.070771774878379"><ele>819.4000000000001</ele><time>2026-04-25T15:20:48.999Z</time></trkpt><trkpt lat="43.73982060149869" lon="7.070773388842357"><ele>818.2</ele><time>2026-04-25T15:20:49.999Z</time></trkpt><trkpt lat="43.73989252331271" lon="7.070767351572885"><ele>817.0</ele><time>2026-04-25T15:20:50.999Z</time></trkpt><trkpt lat="43.739971532544175" lon="7.070736857322003"><ele>816.9999999999999</ele><time>2026-04-25T15:20:51.999Z</time></trkpt><trkpt lat="43.74003631380755" lon="7.0706961283864045"><ele>817.0</ele><time>2026-04-25T15:20:52.999Z</time></trkpt><trkpt lat="43.7401356629665" lon="7.070649955265133"><ele>817.0</ele><time>2026-04-25T15:20:54.999Z</time></trkpt><trkpt lat="43.74020767195749" lon="7.070577083427563"><ele>817.0</ele><time>2026-04-25T15:20:56.999Z</time></trkpt><trkpt lat="43.74029443397646" lon="7.070578434700045"><ele>816.9999999999999</ele><time>2026-04-25T15:20:59.999Z</time></trkpt><trkpt lat="43.74035993905084" lon="7.070572915114033"><ele>817.0</ele><time>2026-04-25T15:21:01.999Z</time></trkpt><trkpt lat="43.740439070498645" lon="7.070544278904456"><ele>814.3333333333333</ele><time>2026-04-25T15:21:22.998Z</time></trkpt><trkpt lat="43.740501925425114" lon="7.070501148060763"><ele>811.6666666666666</ele><time>2026-04-25T15:21:25.998Z</time></trkpt><trkpt lat="43.740568592561054" lon="7.070433073942709"><ele>809.0</ele><time>2026-04-25T15:21:27.998Z</time></trkpt><trkpt lat="43.74062055683895" lon="7.070362461918632"><ele>806.3333333333333</ele><time>2026-04-25T15:21:31.998Z</time></trkpt><trkpt lat="43.74065658629531" lon="7.070284844713864"><ele>803.6666666666666</ele><time>2026-04-25T15:21:33.998Z</time></trkpt><trkpt lat="43.74071640559944" lon="7.070161848591087"><ele>801.0</ele><time>2026-04-25T15:21:35.998Z</time></trkpt><trkpt lat="43.740796874568154" lon="7.070077930204482"><ele>801.0</ele><time>2026-04-25T15:21:37.998Z</time></trkpt><trkpt lat="43.7408652403654" lon="7.070034035106995"><ele>801.0</ele><time>2026-04-25T15:21:38.998Z</time></trkpt><trkpt lat="43.740936002412106" lon="7.069969994018226"><ele>801.0</ele><time>2026-04-25T15:21:39.998Z</time></trkpt><trkpt lat="43.740994051760836" lon="7.0699119992132395"><ele>801.0</ele><time>2026-04-25T15:21:40.998Z</time></trkpt><trkpt lat="43.74106638511191" lon="7.069817951401108"><ele>801.0</ele><time>2026-04-25T15:21:42.998Z</time></trkpt><trkpt lat="43.74112020882247" lon="7.069765840352538"><ele>801.0</ele><time>2026-04-25T15:21:43.998Z</time></trkpt><trkpt lat="43.74117846685782" lon="7.069699826484893"><ele>800.1666666666666</ele><time>2026-04-25T15:21:45Z</time></trkpt><trkpt lat="43.74125567711764" lon="7.069608247353147"><ele>799.3333333333333</ele><time>2026-04-25T15:21:47Z</time></trkpt><trkpt lat="43.74132021630024" lon="7.069521162493175"><ele>798.5</ele><time>2026-04-25T15:21:49Z</time></trkpt><trkpt lat="43.741394247148065" lon="7.069444543147158"><ele>797.6666666666666</ele><time>2026-04-25T15:21:52Z</time></trkpt><trkpt lat="43.741451938349336" lon="7.069406115769171"><ele>796.8333333333333</ele><time>2026-04-25T15:21:54Z</time></trkpt><trkpt lat="43.7415276564772" lon="7.069387020856536"><ele>796.0</ele><time>2026-04-25T15:21:57Z</time></trkpt><trkpt lat="43.741609948328474" lon="7.069388158943502"><ele>796.0</ele><time>2026-04-25T15:22:00Z</time></trkpt><trkpt lat="43.7416810862798" lon="7.069337059346637"><ele>796.0</ele><time>2026-04-25T15:22:02Z</time></trkpt><trkpt lat="43.74173466689411" lon="7.069251417886795"><ele>796.0</ele><time>2026-04-25T15:22:04Z</time></trkpt><trkpt lat="43.74181260436865" lon="7.069151795679168"><ele>796.0</ele><time>2026-04-25T15:22:06Z</time></trkpt><trkpt lat="43.74188924476685" lon="7.069039338228478"><ele>796.0</ele><time>2026-04-25T15:22:08Z</time></trkpt><trkpt lat="43.741936913501036" lon="7.068964082895955"><ele>794.1666666666666</ele><time>2026-04-25T15:22:10.999Z</time></trkpt><trkpt lat="43.74197828856848" lon="7.068845068164009"><ele>792.3333333333333</ele><time>2026-04-25T15:22:15.999Z</time></trkpt><trkpt lat="43.74201824970682" lon="7.068763487533513"><ele>790.5</ele><time>2026-04-25T15:22:17.999Z</time></trkpt><trkpt lat="43.742069362264296" lon="7.0686538616740515"><ele>788.6666666666667</ele><time>2026-04-25T15:22:19.999Z</time></trkpt><trkpt lat="43.74211416262022" lon="7.068567174158959"><ele>786.8333333333334</ele><time>2026-04-25T15:22:23.999Z</time></trkpt><trkpt lat="43.74214575834434" lon="7.068478599971504"><ele>785.0</ele><time>2026-04-25T15:22:25.999Z</time></trkpt><trkpt lat="43.74213763878616" lon="7.068391321154197"><ele>785.3333333333334</ele><time>2026-04-25T15:22:28.999Z</time></trkpt><trkpt lat="43.74214133704952" lon="7.068236701671942"><ele>785.6666666666667</ele><time>2026-04-25T15:22:30.999Z</time></trkpt><trkpt lat="43.7421801717012" lon="7.068135968300493"><ele>786.0</ele><time>2026-04-25T15:22:32.999Z</time></trkpt><trkpt lat="43.74222624833204" lon="7.068037523486196"><ele>786.3333333333333</ele><time>2026-04-25T15:22:38.999Z</time></trkpt><trkpt lat="43.74226802561138" lon="7.06796071736643"><ele>786.6666666666666</ele><time>2026-04-25T15:22:42.999Z</time></trkpt><trkpt lat="43.742299580704945" lon="7.067868969945614"><ele>787.0</ele><time>2026-04-25T15:22:48.999Z</time></trkpt><trkpt lat="43.74231185588187" lon="7.067776168048951"><ele>787.0</ele><time>2026-04-25T15:22:50.999Z</time></trkpt><trkpt lat="43.74232903883664" lon="7.067657614761265"><ele>787.0</ele><time>2026-04-25T15:22:52.999Z</time></trkpt><trkpt lat="43.74233511580365" lon="7.067532147573629"><ele>787.0</ele><time>2026-04-25T15:22:54.999Z</time></trkpt><trkpt lat="43.74233686754259" lon="7.06742546790012"><ele>787.0</ele><time>2026-04-25T15:22:57.999Z</time></trkpt><trkpt lat="43.742333991361576" lon="7.067319256437212"><ele>787.0</ele><time>2026-04-25T15:22:59.999Z</time></trkpt><trkpt lat="43.742307495090095" lon="7.067154739394676"><ele>786.6</ele><time>2026-04-25T15:23:01.999Z</time></trkpt><trkpt lat="43.742291260298614" lon="7.06701846406145"><ele>786.2</ele><time>2026-04-25T15:23:03.999Z</time></trkpt><trkpt lat="43.74227309004692" lon="7.066912046368232"><ele>785.8</ele><time>2026-04-25T15:23:05.999Z</time></trkpt><trkpt lat="43.74224371529435" lon="7.06679512995443"><ele>785.4</ele><time>2026-04-25T15:23:08.999Z</time></trkpt><trkpt lat="43.74219054588697" lon="7.066678507125614"><ele>785.0</ele><time>2026-04-25T15:23:11.999Z</time></trkpt><trkpt lat="43.74216814665666" lon="7.06655865648136"><ele>786.0</ele><time>2026-04-25T15:23:13.999Z</time></trkpt><trkpt lat="43.74217822184148" lon="7.066454168719925"><ele>787.0</ele><time>2026-04-25T15:23:15.998Z</time></trkpt><trkpt lat="43.74218649687575" lon="7.066319042329003"><ele>788.0</ele><time>2026-04-25T15:23:24.998Z</time></trkpt><trkpt lat="43.742169319732085" lon="7.066162507129993"><ele>789.0</ele><time>2026-04-25T15:23:26.998Z</time></trkpt><trkpt lat="43.742149636881734" lon="7.066020592721333"><ele>790.0</ele><time>2026-04-25T15:23:28.998Z</time></trkpt><trkpt lat="43.74215752314774" lon="7.065899342445798"><ele>792.3333333333333</ele><time>2026-04-25T15:23:30.998Z</time></trkpt><trkpt lat="43.74217222336488" lon="7.065746227817159"><ele>794.6666666666666</ele><time>2026-04-25T15:23:32.998Z</time></trkpt><trkpt lat="43.74218356325105" lon="7.065612874701888"><ele>797.0</ele><time>2026-04-25T15:23:34.998Z</time></trkpt><trkpt lat="43.74218351372439" lon="7.0655039774201365"><ele>799.3333333333333</ele><time>2026-04-25T15:23:36.998Z</time></trkpt><trkpt lat="43.74217932893379" lon="7.065394893070691"><ele>801.6666666666666</ele><time>2026-04-25T15:23:38.998Z</time></trkpt><trkpt lat="43.74216239994414" lon="7.065303786336927"><ele>804.0</ele><time>2026-04-25T15:23:41.998Z</time></trkpt><trkpt lat="43.742138538712524" lon="7.065216169410786"><ele>804.0</ele><time>2026-04-25T15:23:44.998Z</time></trkpt><trkpt lat="43.742137782200246" lon="7.065096588172878"><ele>804.0</ele><time>2026-04-25T15:23:48.998Z</time></trkpt><trkpt lat="43.74213912895551" lon="7.064983302954881"><ele>804.0</ele><time>2026-04-25T15:23:53Z</time></trkpt><trkpt lat="43.7421505031204" lon="7.0648796569184995"><ele>804.0</ele><time>2026-04-25T15:23:55Z</time></trkpt><trkpt lat="43.74214729469476" lon="7.06477301277942"><ele>804.0</ele><time>2026-04-25T15:23:58Z</time></trkpt><trkpt lat="43.742150160819314" lon="7.06467918648097"><ele>804.0</ele><time>2026-04-25T15:24:00Z</time></trkpt><trkpt lat="43.74214466562302" lon="7.06458086260099"><ele>806.5</ele><time>2026-04-25T15:24:03Z</time></trkpt><trkpt lat="43.74214280281155" lon="7.064471821143486"><ele>809.0</ele><time>2026-04-25T15:24:11Z</time></trkpt><trkpt lat="43.74211687337872" lon="7.06437402098516"><ele>811.5</ele><time>2026-04-25T15:24:14Z</time></trkpt><trkpt lat="43.742097805241926" lon="7.064263321831209"><ele>814.0</ele><time>2026-04-25T15:24:16.999Z</time></trkpt><trkpt lat="43.74207968106588" lon="7.064155834681801"><ele>816.5</ele><time>2026-04-25T15:24:18.999Z</time></trkpt><trkpt lat="43.742062124191655" lon="7.0640399800568145"><ele>819.0</ele><time>2026-04-25T15:24:20.999Z</time></trkpt><trkpt lat="43.74203876729078" lon="7.063949102079174"><ele>822.1666666666666</ele><time>2026-04-25T15:24:23.999Z</time></trkpt><trkpt lat="43.74202026383669" lon="7.063848460540644"><ele>825.3333333333333</ele><time>2026-04-25T15:24:25.999Z</time></trkpt><trkpt lat="43.741980691157686" lon="7.0637353293308465"><ele>828.5</ele><time>2026-04-25T15:24:28.999Z</time></trkpt><trkpt lat="43.741949200588024" lon="7.063644996400284"><ele>831.6666666666666</ele><time>2026-04-25T15:24:30.999Z</time></trkpt><trkpt lat="43.74191948078789" lon="7.063541889030397"><ele>834.8333333333333</ele><time>2026-04-25T15:24:33.999Z</time></trkpt><trkpt lat="43.74192072634796" lon="7.063428023048778"><ele>838.0</ele><time>2026-04-25T15:25:09.999Z</time></trkpt><trkpt lat="43.741918083360126" lon="7.063310302482531"><ele>841.8</ele><time>2026-04-25T15:25:12.999Z</time></trkpt><trkpt lat="43.74192457176019" lon="7.063205014573145"><ele>845.5999999999999</ele><time>2026-04-25T15:25:18.999Z</time></trkpt><trkpt lat="43.741934748994915" lon="7.063052449316304"><ele>849.4000000000001</ele><time>2026-04-25T15:25:22.998Z</time></trkpt><trkpt lat="43.741923581827955" lon="7.062900868472558"><ele>853.2</ele><time>2026-04-25T15:25:24.998Z</time></trkpt><trkpt lat="43.74191849393099" lon="7.062764449519884"><ele>857.0</ele><time>2026-04-25T15:25:26.998Z</time></trkpt><trkpt lat="43.74191445636225" lon="7.062675234063508"><ele>857.0000000000001</ele><time>2026-04-25T15:25:28.998Z</time></trkpt><trkpt lat="43.74190651315503" lon="7.062569641848204"><ele>857.0</ele><time>2026-04-25T15:25:30.998Z</time></trkpt><trkpt lat="43.74189596442895" lon="7.062417813063431"><ele>857.0</ele><time>2026-04-25T15:25:32.998Z</time></trkpt><trkpt lat="43.7418854457193" lon="7.062252371331879"><ele>857.0</ele><time>2026-04-25T15:25:34.998Z</time></trkpt><trkpt lat="43.74186974888392" lon="7.062155219533731"><ele>857.0000000000001</ele><time>2026-04-25T15:25:35.998Z</time></trkpt><trkpt lat="43.741839957090534" lon="7.062068574711965"><ele>857.0</ele><time>2026-04-25T15:25:36.998Z</time></trkpt><trkpt lat="43.741811905772636" lon="7.0619764371824925"><ele>857.4000000000001</ele><time>2026-04-25T15:25:37.998Z</time></trkpt><trkpt lat="43.74181731167053" lon="7.061810767299656"><ele>857.8000000000001</ele><time>2026-04-25T15:25:39.998Z</time></trkpt><trkpt lat="43.7418066072037" lon="7.061645639534481"><ele>858.2</ele><time>2026-04-25T15:25:41.998Z</time></trkpt><trkpt lat="43.741813618576536" lon="7.061533965170651"><ele>858.6</ele><time>2026-04-25T15:25:42.998Z</time></trkpt><trkpt lat="43.74182781926995" lon="7.061409616261161"><ele>859.0</ele><time>2026-04-25T15:25:43.998Z</time></trkpt><trkpt lat="43.74182202308932" lon="7.061313369045679"><ele>860.4000000000001</ele><time>2026-04-25T15:25:44.998Z</time></trkpt><trkpt lat="43.74185588968912" lon="7.061142226945903"><ele>861.8000000000001</ele><time>2026-04-25T15:25:46.998Z</time></trkpt><trkpt lat="43.74187401214857" lon="7.061051502355048"><ele>863.1999999999999</ele><time>2026-04-25T15:25:47.998Z</time></trkpt><trkpt lat="43.741918707979515" lon="7.060920269474552"><ele>864.5999999999999</ele><time>2026-04-25T15:25:49.998Z</time></trkpt><trkpt lat="43.74194196720473" lon="7.06082795638566"><ele>866.0</ele><time>2026-04-25T15:25:51.998Z</time></trkpt><trkpt lat="43.74194487111397" lon="7.060714968623407"><ele>868.4285714285713</ele><time>2026-04-25T15:25:56Z</time></trkpt><trkpt lat="43.74195011987604" lon="7.060604852503492"><ele>870.8571428571429</ele><time>2026-04-25T15:26:01Z</time></trkpt><trkpt lat="43.741942430515586" lon="7.060509139242128"><ele>873.2857142857142</ele><time>2026-04-25T15:26:06Z</time></trkpt><trkpt lat="43.74194704224733" lon="7.06041668177695"><ele>875.7142857142857</ele><time>2026-04-25T15:26:35.999Z</time></trkpt><trkpt lat="43.74194414894846" lon="7.060309204286051"><ele>878.1428571428571</ele><time>2026-04-25T15:28:14Z</time></trkpt><trkpt lat="43.74193832278186" lon="7.060211787723394"><ele>880.5714285714286</ele><time>2026-04-25T15:28:17Z</time></trkpt><trkpt lat="43.74193958534403" lon="7.060113534303764"><ele>883.0</ele><time>2026-04-25T15:28:19Z</time></trkpt><trkpt lat="43.74191718940323" lon="7.0600013353465485"><ele>883.5999999999999</ele><time>2026-04-25T15:28:22Z</time></trkpt><trkpt lat="43.741910646290535" lon="7.0598719875517775"><ele>884.1999999999999</ele><time>2026-04-25T15:28:25Z</time></trkpt><trkpt lat="43.74191036034372" lon="7.059740897695615"><ele>884.8</ele><time>2026-04-25T15:28:26.999Z</time></trkpt><trkpt lat="43.74188593263025" lon="7.059626740776451"><ele>885.4</ele><time>2026-04-25T15:28:29.999Z</time></trkpt><trkpt lat="43.74188865295025" lon="7.0594726025836"><ele>886.0</ele><time>2026-04-25T15:28:31.999Z</time></trkpt><trkpt lat="43.741926483364644" lon="7.059348105134013"><ele>886.0</ele><time>2026-04-25T15:28:33.999Z</time></trkpt><trkpt lat="43.74197642457865" lon="7.059192203120319"><ele>885.9999999999999</ele><time>2026-04-25T15:28:35.999Z</time></trkpt><trkpt lat="43.74200052128682" lon="7.059106842886608"><ele>885.9999999999999</ele><time>2026-04-25T15:28:36.999Z</time></trkpt><trkpt lat="43.74200058778284" lon="7.0589797257197135"><ele>886.0</ele><time>2026-04-25T15:28:38.999Z</time></trkpt><trkpt lat="43.74196011198984" lon="7.058871799782588"><ele>886.0</ele><time>2026-04-25T15:29:48.998Z</time></trkpt><trkpt lat="43.74189792759089" lon="7.058752193596073"><ele>886.1666666666666</ele><time>2026-04-25T15:29:50.998Z</time></trkpt><trkpt lat="43.741849931787904" lon="7.058646752115202"><ele>886.3333333333333</ele><time>2026-04-25T15:29:53.998Z</time></trkpt><trkpt lat="43.74185693209295" lon="7.058519755650301"><ele>886.5</ele><time>2026-04-25T15:29:55.998Z</time></trkpt><trkpt lat="43.741882460709974" lon="7.058402558356798"><ele>886.6666666666667</ele><time>2026-04-25T15:29:57.998Z</time></trkpt><trkpt lat="43.741826953735696" lon="7.05835837875633"><ele>886.8333333333334</ele><time>2026-04-25T15:30:00.998Z</time></trkpt><trkpt lat="43.741768867341435" lon="7.058282746042082"><ele>887.0</ele><time>2026-04-25T15:30:03.998Z</time></trkpt><trkpt lat="43.74167663683272" lon="7.0582669772375315"><ele>887.0000000000001</ele><time>2026-04-25T15:30:06.998Z</time></trkpt><trkpt lat="43.741613293768005" lon="7.058288309783904"><ele>887.0</ele><time>2026-04-25T15:30:41.999Z</time></trkpt><trkpt lat="43.74152270663396" lon="7.058223879094498"><ele>887.0</ele><time>2026-04-25T15:30:43.999Z</time></trkpt><trkpt lat="43.74143111016599" lon="7.058162265275964"><ele>887.0</ele><time>2026-04-25T15:30:45.999Z</time></trkpt><trkpt lat="43.741335277944856" lon="7.058167477048344"><ele>887.0000000000001</ele><time>2026-04-25T15:30:47.999Z</time></trkpt><trkpt lat="43.741273815548844" lon="7.058207283264067"><ele>887.0</ele><time>2026-04-25T15:30:49.999Z</time></trkpt><trkpt lat="43.74117831455531" lon="7.058154784750829"><ele>890.5000000000001</ele><time>2026-04-25T15:30:51.999Z</time></trkpt><trkpt lat="43.741078181905785" lon="7.058099747686207"><ele>894.0</ele><time>2026-04-25T15:30:53.999Z</time></trkpt><trkpt lat="43.7410137326717" lon="7.058033160700619"><ele>897.5</ele><time>2026-04-25T15:30:55.999Z</time></trkpt><trkpt lat="43.74094030740697" lon="7.057970562205215"><ele>901.0</ele><time>2026-04-25T15:30:57.999Z</time></trkpt><trkpt lat="43.740873559868334" lon="7.05795527169645"><ele>904.5000000000001</ele><time>2026-04-25T15:30:59.999Z</time></trkpt><trkpt lat="43.740808629275556" lon="7.057861789496179"><ele>908.0</ele><time>2026-04-25T15:31:01.999Z</time></trkpt><trkpt lat="43.74071633606491" lon="7.057821894713305"><ele>910.8</ele><time>2026-04-25T15:31:05.999Z</time></trkpt><trkpt lat="43.740611322866876" lon="7.057799788097154"><ele>913.5999999999999</ele><time>2026-04-25T15:31:07.999Z</time></trkpt><trkpt lat="43.740495489965326" lon="7.057817860302591"><ele>916.4000000000001</ele><time>2026-04-25T15:31:09.999Z</time></trkpt><trkpt lat="43.74038308765949" lon="7.057796345393362"><ele>919.2</ele><time>2026-04-25T15:31:11.999Z</time></trkpt><trkpt lat="43.74031472012564" lon="7.0577925367470185"><ele>922.0</ele><time>2026-04-25T15:31:13.999Z</time></trkpt><trkpt lat="43.74023106664793" lon="7.057769776634354"><ele>923.9999999999999</ele><time>2026-04-25T15:31:15.999Z</time></trkpt><trkpt lat="43.740146567479854" lon="7.057790498157659"><ele>926.0</ele><time>2026-04-25T15:31:18.999Z</time></trkpt><trkpt lat="43.740074915454066" lon="7.057794777899788"><ele>928.0</ele><time>2026-04-25T15:31:20.999Z</time></trkpt><trkpt lat="43.74000215708946" lon="7.05773612126462"><ele>930.0</ele><time>2026-04-25T15:31:22.999Z</time></trkpt><trkpt lat="43.739907252356204" lon="7.05770705962953"><ele>931.9999999999999</ele><time>2026-04-25T15:31:25.999Z</time></trkpt><trkpt lat="43.73983279125136" lon="7.057650736099803"><ele>934.0</ele><time>2026-04-25T15:31:28.999Z</time></trkpt><trkpt lat="43.739784140830636" lon="7.057589601508579"><ele>934.0</ele><time>2026-04-25T15:31:30.999Z</time></trkpt><trkpt lat="43.739715931518056" lon="7.057603618924673"><ele>934.0000000000001</ele><time>2026-04-25T15:31:33.999Z</time></trkpt><trkpt lat="43.73962009601652" lon="7.0576480092088465"><ele>934.0000000000001</ele><time>2026-04-25T15:31:35.998Z</time></trkpt><trkpt lat="43.739515900800846" lon="7.057676748701923"><ele>934.0</ele><time>2026-04-25T15:31:37.998Z</time></trkpt><trkpt lat="43.73941491073871" lon="7.0576986334916105"><ele>934.0</ele><time>2026-04-25T15:31:39.998Z</time></trkpt><trkpt lat="43.73933704941089" lon="7.057697675392939"><ele>936.4285714285713</ele><time>2026-04-25T15:31:41.998Z</time></trkpt><trkpt lat="43.73927200716233" lon="7.057688718867059"><ele>938.8571428571429</ele><time>2026-04-25T15:31:44.998Z</time></trkpt><trkpt lat="43.7392510300398" lon="7.057794767653571"><ele>941.2857142857142</ele><time>2026-04-25T15:42:46Z</time></trkpt><trkpt lat="43.73923560114092" lon="7.0578861902058305"><ele>943.7142857142857</ele><time>2026-04-25T15:42:56Z</time></trkpt><trkpt lat="43.739167709960306" lon="7.05790378799211"><ele>946.1428571428571</ele><time>2026-04-25T15:43:08.999Z</time></trkpt><trkpt lat="43.73909976394612" lon="7.057906496983258"><ele>948.5714285714286</ele><time>2026-04-25T15:43:17.999Z</time></trkpt><trkpt lat="43.7390345375569" lon="7.057903113244885"><ele>951.0</ele><time>2026-04-25T15:43:21.999Z</time></trkpt><trkpt lat="43.738967423897954" lon="7.057922273953791"><ele>951.0</ele><time>2026-04-25T15:43:25.999Z</time></trkpt><trkpt lat="43.73890344237619" lon="7.05794709352788"><ele>951.0</ele><time>2026-04-25T15:43:29.999Z</time></trkpt><trkpt lat="43.738835758399276" lon="7.057951077967253"><ele>951.0</ele><time>2026-04-25T15:43:31.999Z</time></trkpt><trkpt lat="43.73876812709418" lon="7.057940640924029"><ele>951.0</ele><time>2026-04-25T15:43:33.999Z</time></trkpt><trkpt lat="43.738738314510634" lon="7.058055592429932"><ele>951.0</ele><time>2026-04-25T15:43:36.999Z</time></trkpt><trkpt lat="43.738744664438784" lon="7.058156866230063"><ele>951.0</ele><time>2026-04-25T15:43:38.999Z</time></trkpt><trkpt lat="43.738719872091906" lon="7.058256248111404"><ele>951.0</ele><time>2026-04-25T15:43:41.999Z</time></trkpt><trkpt lat="43.73868477169604" lon="7.058375972840193"><ele>952.1428571428571</ele><time>2026-04-25T15:43:44.999Z</time></trkpt><trkpt lat="43.73867115403487" lon="7.058469498467663"><ele>953.2857142857143</ele><time>2026-04-25T15:43:46.999Z</time></trkpt><trkpt lat="43.73859913097521" lon="7.0585000568803205"><ele>954.4285714285714</ele><time>2026-04-25T15:43:57.999Z</time></trkpt><trkpt lat="43.738535584510295" lon="7.058476262304927"><ele>955.5714285714286</ele><time>2026-04-25T15:44:00.999Z</time></trkpt><trkpt lat="43.738459714717635" lon="7.058493584745945"><ele>956.7142857142858</ele><time>2026-04-25T15:44:02.999Z</time></trkpt><trkpt lat="43.73839714186353" lon="7.058525662333523"><ele>957.8571428571429</ele><time>2026-04-25T15:44:04.999Z</time></trkpt><trkpt lat="43.73832941615094" lon="7.058477094675354"><ele>959.0</ele><time>2026-04-25T15:44:06.999Z</time></trkpt><trkpt lat="43.73827936526066" lon="7.058395555039676"><ele>962.0000000000001</ele><time>2026-04-25T15:44:08.998Z</time></trkpt><trkpt lat="43.73823993163992" lon="7.058314386424806"><ele>965.0</ele><time>2026-04-25T15:44:11.998Z</time></trkpt><trkpt lat="43.738191326033366" lon="7.058236080408795"><ele>968.0</ele><time>2026-04-25T15:44:14.998Z</time></trkpt><trkpt lat="43.73814376521309" lon="7.05817737032047"><ele>971.0</ele><time>2026-04-25T15:44:16.998Z</time></trkpt><trkpt lat="43.73805350086053" lon="7.058116606762661"><ele>974.0000000000001</ele><time>2026-04-25T15:44:18.998Z</time></trkpt><trkpt lat="43.737986030196204" lon="7.058031553712487"><ele>977.0</ele><time>2026-04-25T15:44:20.998Z</time></trkpt><trkpt lat="43.7379118497464" lon="7.057976458883133"><ele>977.0000000000001</ele><time>2026-04-25T15:44:23.998Z</time></trkpt><trkpt lat="43.73789140021154" lon="7.0578912706011945"><ele>977.0</ele><time>2026-04-25T15:44:53Z</time></trkpt><trkpt lat="43.73790893480486" lon="7.057797693437837"><ele>977.0</ele><time>2026-04-25T15:45:55.999Z</time></trkpt><trkpt lat="43.73794632268025" lon="7.057693821329482"><ele>977.0</ele><time>2026-04-25T15:45:59.999Z</time></trkpt><trkpt lat="43.73800295986012" lon="7.057565410822682"><ele>977.0000000000001</ele><time>2026-04-25T15:46:01.999Z</time></trkpt><trkpt lat="43.73807057476564" lon="7.057432413530093"><ele>977.0</ele><time>2026-04-25T15:46:03.999Z</time></trkpt><trkpt lat="43.73810065750743" lon="7.0573528076045"><ele>977.1666666666667</ele><time>2026-04-25T15:46:04.999Z</time></trkpt><trkpt lat="43.738125986654495" lon="7.057263915191295"><ele>977.3333333333334</ele><time>2026-04-25T15:46:05.999Z</time></trkpt><trkpt lat="43.73814786964388" lon="7.0571790729517385"><ele>977.5</ele><time>2026-04-25T15:46:06.999Z</time></trkpt><trkpt lat="43.738179547287466" lon="7.057062838529233"><ele>977.6666666666667</ele><time>2026-04-25T15:46:08.999Z</time></trkpt><trkpt lat="43.738198668465245" lon="7.056967859805303"><ele>977.8333333333334</ele><time>2026-04-25T15:46:10.999Z</time></trkpt><trkpt lat="43.73822557134064" lon="7.056861787375972"><ele>978.0</ele><time>2026-04-25T15:46:12.998Z</time></trkpt><trkpt lat="43.73824490404762" lon="7.056748376843548"><ele>978.0</ele><time>2026-04-25T15:46:14.998Z</time></trkpt><trkpt lat="43.73826528620757" lon="7.0566465153273255"><ele>978.0</ele><time>2026-04-25T15:46:16.998Z</time></trkpt><trkpt lat="43.738264247122686" lon="7.05650123721165"><ele>978.0</ele><time>2026-04-25T15:46:19.998Z</time></trkpt><trkpt lat="43.738269398948276" lon="7.056383570828867"><ele>978.0</ele><time>2026-04-25T15:46:21.998Z</time></trkpt><trkpt lat="43.73828934830924" lon="7.056274926844461"><ele>978.0</ele><time>2026-04-25T15:46:24.998Z</time></trkpt><trkpt lat="43.73829887273729" lon="7.056172605628385"><ele>978.0</ele><time>2026-04-25T15:46:31.998Z</time></trkpt><trkpt lat="43.73828352891382" lon="7.056079585372379"><ele>978.0</ele><time>2026-04-25T15:46:40.998Z</time></trkpt><trkpt lat="43.738298825864355" lon="7.055992598409637"><ele>978.0</ele><time>2026-04-25T15:46:44.998Z</time></trkpt><trkpt lat="43.7383072592482" lon="7.055901617982146"><ele>978.0</ele><time>2026-04-25T15:46:47.998Z</time></trkpt><trkpt lat="43.7383656364443" lon="7.055843120325928"><ele>978.0</ele><time>2026-04-25T15:46:50.998Z</time></trkpt><trkpt lat="43.738385830147976" lon="7.05574541331239"><ele>978.0</ele><time>2026-04-25T15:46:53.998Z</time></trkpt><trkpt lat="43.7383742909232" lon="7.055621548300383"><ele>978.0</ele><time>2026-04-25T15:46:57Z</time></trkpt><trkpt lat="43.738389683021154" lon="7.05548424997637"><ele>977.6666666666666</ele><time>2026-04-25T15:46:59Z</time></trkpt><trkpt lat="43.73844671318658" lon="7.055371427146511"><ele>977.3333333333333</ele><time>2026-04-25T15:47:01Z</time></trkpt><trkpt lat="43.73848622600169" lon="7.05529276374727"><ele>977.0</ele><time>2026-04-25T15:47:04Z</time></trkpt><trkpt lat="43.73850908670434" lon="7.0551792890206375"><ele>976.6666666666666</ele><time>2026-04-25T15:47:08Z</time></trkpt><trkpt lat="43.73852156125622" lon="7.055079474653231"><ele>976.3333333333333</ele><time>2026-04-25T15:47:10Z</time></trkpt><trkpt lat="43.73850546000219" lon="7.054979800738598"><ele>976.0</ele><time>2026-04-25T15:47:13Z</time></trkpt><trkpt lat="43.73849587295672" lon="7.054878701934703"><ele>975.1666666666666</ele><time>2026-04-25T15:47:14.999Z</time></trkpt><trkpt lat="43.73851439963615" lon="7.054788043472526"><ele>974.3333333333333</ele><time>2026-04-25T15:47:16.999Z</time></trkpt><trkpt lat="43.738582432466515" lon="7.0547503082654295"><ele>973.5</ele><time>2026-04-25T15:47:19.999Z</time></trkpt><trkpt lat="43.73863151716989" lon="7.054625791094429"><ele>972.6666666666667</ele><time>2026-04-25T15:47:22.999Z</time></trkpt><trkpt lat="43.738643869431144" lon="7.054517045575714"><ele>971.8333333333334</ele><time>2026-04-25T15:47:24.999Z</time></trkpt><trkpt lat="43.73866288745908" lon="7.0544006759917055"><ele>971.0</ele><time>2026-04-25T15:47:25.999Z</time></trkpt><trkpt lat="43.7387041321784" lon="7.054246994123706"><ele>976.5999999999999</ele><time>2026-04-25T15:47:27.999Z</time></trkpt><trkpt lat="43.738762401707085" lon="7.054126122746611"><ele>982.1999999999999</ele><time>2026-04-25T15:47:29.999Z</time></trkpt><trkpt lat="43.738829273352735" lon="7.054005475815455"><ele>987.8000000000001</ele><time>2026-04-25T15:47:31.999Z</time></trkpt><trkpt lat="43.73889042351927" lon="7.053881083129066"><ele>993.4000000000001</ele><time>2026-04-25T15:47:33.999Z</time></trkpt><trkpt lat="43.7389278927785" lon="7.053787729387857"><ele>999.0</ele><time>2026-04-25T15:47:35.999Z</time></trkpt><trkpt lat="43.73896478036115" lon="7.053676918331592"><ele>1001.2</ele><time>2026-04-25T15:47:37.999Z</time></trkpt><trkpt lat="43.73904059505487" lon="7.053549356888894"><ele>1003.4000000000001</ele><time>2026-04-25T15:47:39.999Z</time></trkpt><trkpt lat="43.739082890541" lon="7.0534521692929575"><ele>1005.6</ele><time>2026-04-25T15:47:41.999Z</time></trkpt><trkpt lat="43.73911683732707" lon="7.053331249951829"><ele>1007.8</ele><time>2026-04-25T15:47:43.999Z</time></trkpt><trkpt lat="43.739172802672734" lon="7.053239360993009"><ele>1010.0</ele><time>2026-04-25T15:47:45.999Z</time></trkpt><trkpt lat="43.73923526231013" lon="7.053145307719789"><ele>1010.0</ele><time>2026-04-25T15:47:47.999Z</time></trkpt><trkpt lat="43.73929665006813" lon="7.053064287721316"><ele>1009.9999999999999</ele><time>2026-04-25T15:47:49.999Z</time></trkpt><trkpt lat="43.739336439146214" lon="7.05297967448298"><ele>1010.0</ele><time>2026-04-25T15:47:55.999Z</time></trkpt><trkpt lat="43.739390879931705" lon="7.052894431527162"><ele>1010.0</ele><time>2026-04-25T15:47:58.999Z</time></trkpt><trkpt lat="43.73942876099049" lon="7.052824518166754"><ele>1009.9999999999999</ele><time>2026-04-25T15:48:49.998Z</time></trkpt><trkpt lat="43.73944607634968" lon="7.0527390391245355"><ele>1010.0</ele><time>2026-04-25T15:51:55.999Z</time></trkpt><trkpt lat="43.73947283179342" lon="7.052653966921287"><ele>1010.0</ele><time>2026-04-25T15:52:04.999Z</time></trkpt><trkpt lat="43.739493933103454" lon="7.052567251563602"><ele>1012.8571428571428</ele><time>2026-04-25T15:52:13.999Z</time></trkpt><trkpt lat="43.73949758989451" lon="7.052463482233868"><ele>1015.7142857142856</ele><time>2026-04-25T15:52:23.999Z</time></trkpt><trkpt lat="43.73950144423076" lon="7.052363956850869"><ele>1018.5714285714286</ele><time>2026-04-25T15:52:30.999Z</time></trkpt><trkpt lat="43.73951424142332" lon="7.052272902064819"><ele>1021.4285714285713</ele><time>2026-04-25T15:52:36.998Z</time></trkpt><trkpt lat="43.73954039864085" lon="7.052191173990654"><ele>1024.2857142857142</ele><time>2026-04-25T15:52:44.998Z</time></trkpt><trkpt lat="43.73951598888047" lon="7.052278852999502"><ele>1027.142857142857</ele><time>2026-04-25T15:52:59.998Z</time></trkpt><trkpt lat="43.73950315264192" lon="7.052376920929887"><ele>1030.0</ele><time>2026-04-25T15:53:06.998Z</time></trkpt><trkpt lat="43.73949547465943" lon="7.052468236926534"><ele>1031.0</ele><time>2026-04-25T15:53:13Z</time></trkpt><trkpt lat="43.73949092287913" lon="7.052558568959977"><ele>1032.0</ele><time>2026-04-25T15:53:19Z</time></trkpt><trkpt lat="43.73947688422213" lon="7.052654504306929"><ele>1033.0</ele><time>2026-04-25T15:53:26Z</time></trkpt><trkpt lat="43.73943728303084" lon="7.052724973216073"><ele>1034.0</ele><time>2026-04-25T15:53:49.999Z</time></trkpt><trkpt lat="43.73939924913675" lon="7.052794960582341"><ele>1035.0</ele><time>2026-04-25T15:53:56.999Z</time></trkpt><trkpt lat="43.73939632560998" lon="7.052909673919947"><ele>1036.0</ele><time>2026-04-25T15:56:58.998Z</time></trkpt><trkpt lat="43.73934701325627" lon="7.052983334711961"><ele>1037.0</ele><time>2026-04-25T15:57:07.998Z</time></trkpt><trkpt lat="43.73929620546165" lon="7.053057926371953"><ele>1032.6666666666667</ele><time>2026-04-25T15:57:11.998Z</time></trkpt><trkpt lat="43.73925988469598" lon="7.053130450865645"><ele>1028.3333333333335</ele><time>2026-04-25T15:57:14.998Z</time></trkpt><trkpt lat="43.73920546304966" lon="7.053190074697248"><ele>1024.0</ele><time>2026-04-25T15:57:22.998Z</time></trkpt><trkpt lat="43.73915553895479" lon="7.053276566183329"><ele>1019.6666666666667</ele><time>2026-04-25T15:57:30Z</time></trkpt><trkpt lat="43.73911423465421" lon="7.0533532242538"><ele>1015.3333333333334</ele><time>2026-04-25T15:57:33Z</time></trkpt><trkpt lat="43.73908537641627" lon="7.05345981527079"><ele>1011.0</ele><time>2026-04-25T15:57:36Z</time></trkpt><trkpt lat="43.73903895655991" lon="7.05356329739288"><ele>1010.9999999999999</ele><time>2026-04-25T15:57:39Z</time></trkpt><trkpt lat="43.73898802157373" lon="7.053639457632325"><ele>1011.0</ele><time>2026-04-25T15:57:41Z</time></trkpt><trkpt lat="43.73895685260524" lon="7.053719232077552"><ele>1010.9999999999999</ele><time>2026-04-25T15:57:43Z</time></trkpt><trkpt lat="43.73891913197179" lon="7.053798676371859"><ele>1010.9999999999999</ele><time>2026-04-25T15:57:45Z</time></trkpt><trkpt lat="43.738892669972955" lon="7.0538902775073336"><ele>1011.0</ele><time>2026-04-25T15:57:47Z</time></trkpt><trkpt lat="43.73885720971524" lon="7.053972383638345"><ele>1010.9999999999999</ele><time>2026-04-25T15:57:48.999Z</time></trkpt><trkpt lat="43.73881454667626" lon="7.054047952403321"><ele>1010.9999999999999</ele><time>2026-04-25T15:57:50.999Z</time></trkpt><trkpt lat="43.738748457252576" lon="7.0541523118040566"><ele>1009.0</ele><time>2026-04-25T15:57:53.999Z</time></trkpt><trkpt lat="43.73869964883299" lon="7.054257163519243"><ele>1007.0</ele><time>2026-04-25T15:57:55.999Z</time></trkpt><trkpt lat="43.73868385223934" lon="7.054352688114489"><ele>1005.0</ele><time>2026-04-25T15:57:57.999Z</time></trkpt><trkpt lat="43.73866117200258" lon="7.054455649037138"><ele>1003.0</ele><time>2026-04-25T15:57:59.999Z</time></trkpt><trkpt lat="43.73864625613545" lon="7.054559709482669"><ele>1001.0</ele><time>2026-04-25T15:58:01.999Z</time></trkpt><trkpt lat="43.738625666920534" lon="7.054665456762292"><ele>999.0</ele><time>2026-04-25T15:58:04.999Z</time></trkpt><trkpt lat="43.7385779183008" lon="7.0547345191304425"><ele>995.1666666666666</ele><time>2026-04-25T15:58:06.999Z</time></trkpt><trkpt lat="43.73852034558753" lon="7.054795214159086"><ele>991.3333333333333</ele><time>2026-04-25T15:58:08.999Z</time></trkpt><trkpt lat="43.738499901226795" lon="7.0548884689708435"><ele>987.5</ele><time>2026-04-25T15:58:11.999Z</time></trkpt><trkpt lat="43.738504280131664" lon="7.05498690906542"><ele>983.6666666666666</ele><time>2026-04-25T15:58:14.999Z</time></trkpt><trkpt lat="43.738515652918544" lon="7.0550879994351945"><ele>979.8333333333333</ele><time>2026-04-25T15:58:17.999Z</time></trkpt><trkpt lat="43.738509814864216" lon="7.055208454072773"><ele>976.0</ele><time>2026-04-25T15:58:22.999Z</time></trkpt><trkpt lat="43.73846578515089" lon="7.0553031962807236"><ele>975.9999999999999</ele><time>2026-04-25T15:58:27.999Z</time></trkpt><trkpt lat="43.7384353793557" lon="7.055387588068477"><ele>976.0</ele><time>2026-04-25T15:58:30.999Z</time></trkpt><trkpt lat="43.73839331628165" lon="7.0554713677687015"><ele>976.0</ele><time>2026-04-25T15:58:33.999Z</time></trkpt><trkpt lat="43.73837034217534" lon="7.055591139613543"><ele>976.0</ele><time>2026-04-25T15:58:36.999Z</time></trkpt><trkpt lat="43.73837352327066" lon="7.055710927478162"><ele>975.9999999999999</ele><time>2026-04-25T15:58:39.999Z</time></trkpt><trkpt lat="43.73837577131766" lon="7.055813797484705"><ele>976.0</ele><time>2026-04-25T15:58:42.999Z</time></trkpt><trkpt lat="43.73831129692505" lon="7.055910398457589"><ele>976.3333333333333</ele><time>2026-04-25T15:58:45.999Z</time></trkpt><trkpt lat="43.73829545897951" lon="7.0560228862182965"><ele>976.6666666666666</ele><time>2026-04-25T15:59:03.998Z</time></trkpt><trkpt lat="43.738297751691285" lon="7.056113767051499"><ele>977.0</ele><time>2026-04-25T15:59:13.998Z</time></trkpt><trkpt lat="43.738303399674436" lon="7.056211685053495"><ele>977.3333333333333</ele><time>2026-04-25T15:59:21.998Z</time></trkpt><trkpt lat="43.73828816415968" lon="7.056310409498275"><ele>977.6666666666666</ele><time>2026-04-25T15:59:23.998Z</time></trkpt><trkpt lat="43.73827190808055" lon="7.056404185916772"><ele>978.0</ele><time>2026-04-25T15:59:25.998Z</time></trkpt><trkpt lat="43.73827341948972" lon="7.05654310995716"><ele>978.0</ele><time>2026-04-25T15:59:27.998Z</time></trkpt><trkpt lat="43.73828020628043" lon="7.056650026694567"><ele>978.0</ele><time>2026-04-25T15:59:29.998Z</time></trkpt><trkpt lat="43.73826369719644" lon="7.056739094905067"><ele>978.0</ele><time>2026-04-25T15:59:32Z</time></trkpt><trkpt lat="43.73823078374714" lon="7.0568732109407275"><ele>978.0</ele><time>2026-04-25T15:59:34Z</time></trkpt><trkpt lat="43.738197606643325" lon="7.057001371542244"><ele>978.0</ele><time>2026-04-25T15:59:36Z</time></trkpt><trkpt lat="43.73817360160866" lon="7.0570885403499375"><ele>978.0</ele><time>2026-04-25T15:59:38Z</time></trkpt><trkpt lat="43.738146401722766" lon="7.057199075200041"><ele>978.0</ele><time>2026-04-25T15:59:41Z</time></trkpt><trkpt lat="43.738103157858056" lon="7.057347758613776"><ele>978.0</ele><time>2026-04-25T15:59:43Z</time></trkpt><trkpt lat="43.73805298773797" lon="7.05747685594143"><ele>978.0</ele><time>2026-04-25T15:59:45Z</time></trkpt><trkpt lat="43.73800501814087" lon="7.0575607224796775"><ele>978.0</ele><time>2026-04-25T15:59:47Z</time></trkpt><trkpt lat="43.737962083989885" lon="7.057646477414867"><ele>978.0</ele><time>2026-04-25T15:59:49Z</time></trkpt><trkpt lat="43.7379222466259" lon="7.05775133153606"><ele>977.8571428571429</ele><time>2026-04-25T15:59:51Z</time></trkpt><trkpt lat="43.73789190175972" lon="7.057836887394461"><ele>977.7142857142858</ele><time>2026-04-25T15:59:53Z</time></trkpt><trkpt lat="43.73788119685226" lon="7.057939507638471"><ele>977.5714285714287</ele><time>2026-04-25T15:59:56Z</time></trkpt><trkpt lat="43.737936577471004" lon="7.057987826147378"><ele>977.4285714285716</ele><time>2026-04-25T16:00:10.999Z</time></trkpt><trkpt lat="43.7379965460404" lon="7.058024114801575"><ele>977.2857142857143</ele><time>2026-04-25T16:00:13.999Z</time></trkpt><trkpt lat="43.738039351434864" lon="7.058110343566944"><ele>977.1428571428573</ele><time>2026-04-25T16:01:09.998Z</time></trkpt><trkpt lat="43.73811057966306" lon="7.058160517082904"><ele>977.0000000000001</ele><time>2026-04-25T16:01:12.998Z</time></trkpt><trkpt lat="43.73816948354317" lon="7.058204640725081"><ele>977.0000000000001</ele><time>2026-04-25T16:01:14.998Z</time></trkpt><trkpt lat="43.73822479748377" lon="7.058284000898213"><ele>977.0</ele><time>2026-04-25T16:01:16.998Z</time></trkpt><trkpt lat="43.73826826769418" lon="7.058374867709273"><ele>977.0000000000001</ele><time>2026-04-25T16:01:18.998Z</time></trkpt><trkpt lat="43.738307847324" lon="7.0584470989276324"><ele>977.0000000000001</ele><time>2026-04-25T16:01:20.998Z</time></trkpt><trkpt lat="43.73835727189976" lon="7.058502359596152"><ele>977.0</ele><time>2026-04-25T16:01:22.998Z</time></trkpt><trkpt lat="43.73841937514963" lon="7.058540475624675"><ele>977.0000000000001</ele><time>2026-04-25T16:01:24.998Z</time></trkpt><trkpt lat="43.73850374971521" lon="7.058485336506844"><ele>977.0000000000001</ele><time>2026-04-25T16:01:27.998Z</time></trkpt><trkpt lat="43.738577653887255" lon="7.058491700652494"><ele>974.0000000000001</ele><time>2026-04-25T16:01:29.998Z</time></trkpt><trkpt lat="43.73864444291652" lon="7.058506584983404"><ele>971.0</ele><time>2026-04-25T16:01:31.998Z</time></trkpt><trkpt lat="43.73868840019079" lon="7.05843890103713"><ele>968.0</ele><time>2026-04-25T16:01:34.998Z</time></trkpt><trkpt lat="43.73870024193979" lon="7.058327594618287"><ele>965.0</ele><time>2026-04-25T16:01:38Z</time></trkpt><trkpt lat="43.738729524272074" lon="7.058216480828564"><ele>962.0000000000001</ele><time>2026-04-25T16:01:41Z</time></trkpt><trkpt lat="43.73874262005255" lon="7.058104902662202"><ele>959.0</ele><time>2026-04-25T16:01:45Z</time></trkpt><trkpt lat="43.7387403332203" lon="7.0580055090004"><ele>957.8571428571429</ele><time>2026-04-25T16:01:47Z</time></trkpt><trkpt lat="43.73879664111368" lon="7.057931863373091"><ele>956.7142857142858</ele><time>2026-04-25T16:01:51Z</time></trkpt><trkpt lat="43.738876163485955" lon="7.057942271011464"><ele>955.5714285714286</ele><time>2026-04-25T16:01:53Z</time></trkpt><trkpt lat="43.738939351428435" lon="7.0579466373105015"><ele>954.4285714285714</ele><time>2026-04-25T16:01:56Z</time></trkpt><trkpt lat="43.7390146047868" lon="7.057924004868061"><ele>953.2857142857143</ele><time>2026-04-25T16:02:05.999Z</time></trkpt><trkpt lat="43.739081461596676" lon="7.057904465954288"><ele>952.1428571428571</ele><time>2026-04-25T16:02:07.999Z</time></trkpt><trkpt lat="43.73915206894865" lon="7.057919211073575"><ele>951.0</ele><time>2026-04-25T16:02:12.999Z</time></trkpt><trkpt lat="43.739228050989624" lon="7.057903858058115"><ele>951.0</ele><time>2026-04-25T16:02:16.999Z</time></trkpt><trkpt lat="43.7392485479675" lon="7.057820485299567"><ele>951.0</ele><time>2026-04-25T16:02:22.999Z</time></trkpt><trkpt lat="43.739263704728806" lon="7.057734236941129"><ele>951.0</ele><time>2026-04-25T16:02:25.999Z</time></trkpt><trkpt lat="43.73930985150686" lon="7.057673947167682"><ele>951.0</ele><time>2026-04-25T16:02:30.999Z</time></trkpt><trkpt lat="43.7394021795083" lon="7.057699161862866"><ele>951.0</ele><time>2026-04-25T16:02:33.999Z</time></trkpt><trkpt lat="43.73947701374419" lon="7.057697295899834"><ele>951.0</ele><time>2026-04-25T16:02:35.999Z</time></trkpt><trkpt lat="43.73957506498725" lon="7.057667677040505"><ele>948.1666666666666</ele><time>2026-04-25T16:02:37.999Z</time></trkpt><trkpt lat="43.73967432162615" lon="7.057643508377399"><ele>945.3333333333333</ele><time>2026-04-25T16:02:39.999Z</time></trkpt><trkpt lat="43.73975203238684" lon="7.057598516358045"><ele>942.5</ele><time>2026-04-25T16:02:41.999Z</time></trkpt><trkpt lat="43.7398238534314" lon="7.057616090353996"><ele>939.6666666666666</ele><time>2026-04-25T16:02:44.999Z</time></trkpt><trkpt lat="43.73988356193112" lon="7.0577007221472075"><ele>936.8333333333333</ele><time>2026-04-25T16:02:47.999Z</time></trkpt><trkpt lat="43.739946603897074" lon="7.057734156671612"><ele>934.0</ele><time>2026-04-25T16:02:49.999Z</time></trkpt><trkpt lat="43.740013644776226" lon="7.057752668325842"><ele>933.9999999999999</ele><time>2026-04-25T16:02:51.999Z</time></trkpt><trkpt lat="43.74007418545615" lon="7.057788614823317"><ele>934.0</ele><time>2026-04-25T16:02:53.999Z</time></trkpt><trkpt lat="43.74015735683196" lon="7.057806011555735"><ele>934.0</ele><time>2026-04-25T16:02:56.999Z</time></trkpt><trkpt lat="43.740240582129715" lon="7.057784104773479"><ele>934.0</ele><time>2026-04-25T16:02:59.999Z</time></trkpt><trkpt lat="43.74033914632376" lon="7.0578030395451545"><ele>933.9999999999999</ele><time>2026-04-25T16:03:02.999Z</time></trkpt><trkpt lat="43.74042307140501" lon="7.057803857390487"><ele>934.0</ele><time>2026-04-25T16:03:04.998Z</time></trkpt><trkpt lat="43.74050489355382" lon="7.05783344684673"><ele>931.9999999999999</ele><time>2026-04-25T16:03:06.998Z</time></trkpt><trkpt lat="43.74058970035281" lon="7.057834113657683"><ele>930.0</ele><time>2026-04-25T16:03:08.998Z</time></trkpt><trkpt lat="43.740672174399805" lon="7.057828400664046"><ele>928.0</ele><time>2026-04-25T16:03:10.998Z</time></trkpt><trkpt lat="43.740739991039796" lon="7.057854591985943"><ele>926.0</ele><time>2026-04-25T16:03:12.998Z</time></trkpt><trkpt lat="43.74081261727241" lon="7.057873576154163"><ele>923.9999999999999</ele><time>2026-04-25T16:03:15.998Z</time></trkpt><trkpt lat="43.74088006504934" lon="7.057971489052075"><ele>922.0</ele><time>2026-04-25T16:03:18.998Z</time></trkpt><trkpt lat="43.74094511168835" lon="7.057989644148707"><ele>921.9999999999999</ele><time>2026-04-25T16:03:20.998Z</time></trkpt><trkpt lat="43.74103514981661" lon="7.058037100313845"><ele>922.0</ele><time>2026-04-25T16:03:23.998Z</time></trkpt><trkpt lat="43.74109352913915" lon="7.058088404020936"><ele>922.0</ele><time>2026-04-25T16:03:25.998Z</time></trkpt><trkpt lat="43.74116230686096" lon="7.058150935008344"><ele>922.0</ele><time>2026-04-25T16:03:27.998Z</time></trkpt><trkpt lat="43.741231190368204" lon="7.058188382534129"><ele>921.9999999999999</ele><time>2026-04-25T16:03:29.998Z</time></trkpt><trkpt lat="43.7413001629859" lon="7.058210260879712"><ele>922.0</ele><time>2026-04-25T16:03:31.998Z</time></trkpt><trkpt lat="43.74136212779468" lon="7.058179719167831"><ele>919.6666666666666</ele><time>2026-04-25T16:03:33.998Z</time></trkpt><trkpt lat="43.7414286311838" lon="7.0581703637810165"><ele>917.3333333333333</ele><time>2026-04-25T16:03:35.998Z</time></trkpt><trkpt lat="43.74149627318986" lon="7.058198964118831"><ele>915.0</ele><time>2026-04-25T16:03:37.998Z</time></trkpt><trkpt lat="43.741564677891766" lon="7.058254915871475"><ele>912.6666666666667</ele><time>2026-04-25T16:03:39.998Z</time></trkpt><trkpt lat="43.74163551793649" lon="7.058306864492956"><ele>910.3333333333334</ele><time>2026-04-25T16:03:41.998Z</time></trkpt><trkpt lat="43.74172376682374" lon="7.05826773785788"><ele>908.0</ele><time>2026-04-25T16:03:45Z</time></trkpt><trkpt lat="43.741791008514205" lon="7.058321283801663"><ele>905.5714285714287</ele><time>2026-04-25T16:03:48Z</time></trkpt><trkpt lat="43.741845043377666" lon="7.058377083242249"><ele>903.1428571428572</ele><time>2026-04-25T16:03:51Z</time></trkpt><trkpt lat="43.7418806226945" lon="7.058465113959964"><ele>900.7142857142858</ele><time>2026-04-25T16:03:55Z</time></trkpt><trkpt lat="43.74186427221313" lon="7.058549335764331"><ele>898.2857142857143</ele><time>2026-04-25T16:03:57Z</time></trkpt><trkpt lat="43.74185241074631" lon="7.058642742370087"><ele>895.8571428571429</ele><time>2026-04-25T16:03:59Z</time></trkpt><trkpt lat="43.74187780118064" lon="7.058754585607939"><ele>893.4285714285716</ele><time>2026-04-25T16:04:02Z</time></trkpt><trkpt lat="43.74194381523431" lon="7.0588336470325785"><ele>891.0</ele><time>2026-04-25T16:04:05Z</time></trkpt><trkpt lat="43.74197531988658" lon="7.05890950649149"><ele>891.0000000000001</ele><time>2026-04-25T16:04:07.999Z</time></trkpt><trkpt lat="43.741997951853506" lon="7.05899324914255"><ele>891.0</ele><time>2026-04-25T16:04:40.999Z</time></trkpt><trkpt lat="43.74202914046742" lon="7.0588994171950175"><ele>891.0</ele><time>2026-04-25T16:04:54.999Z</time></trkpt><trkpt lat="43.74211349062155" lon="7.058930311010486"><ele>891.0</ele><time>2026-04-25T16:05:00.999Z</time></trkpt><trkpt lat="43.7421879622755" lon="7.0589413686428895"><ele>891.0</ele><time>2026-04-25T16:05:02.999Z</time></trkpt><trkpt lat="43.74221047778755" lon="7.059030380341409"><ele>891.0000000000001</ele><time>2026-04-25T16:05:05.999Z</time></trkpt><trkpt lat="43.742257813779005" lon="7.059116499119496"><ele>891.0</ele><time>2026-04-25T16:05:08.999Z</time></trkpt><trkpt lat="43.742307426548" lon="7.05918736874499"><ele>890.2857142857143</ele><time>2026-04-25T16:05:11.998Z</time></trkpt><trkpt lat="43.74234890840113" lon="7.059274272577026"><ele>889.5714285714286</ele><time>2026-04-25T16:05:15.998Z</time></trkpt><trkpt lat="43.74235712055908" lon="7.059373508103398"><ele>888.8571428571429</ele><time>2026-04-25T16:05:24.998Z</time></trkpt><trkpt lat="43.742376667675295" lon="7.059462917210162"><ele>888.1428571428571</ele><time>2026-04-25T16:05:29.998Z</time></trkpt><trkpt lat="43.742412479142736" lon="7.059543836019712"><ele>887.4285714285714</ele><time>2026-04-25T16:05:35.998Z</time></trkpt><trkpt lat="43.742459811911424" lon="7.059629277079254"><ele>886.7142857142858</ele><time>2026-04-25T16:05:42.998Z</time></trkpt><trkpt lat="43.74252318645781" lon="7.059680392097216"><ele>886.0</ele><time>2026-04-25T16:05:52Z</time></trkpt><trkpt lat="43.74257735155614" lon="7.059730643939965"><ele>885.9999999999999</ele><time>2026-04-25T16:07:32.998Z</time></trkpt><trkpt lat="43.742597281887704" lon="7.0598428258847745"><ele>886.0</ele><time>2026-04-25T16:07:45.998Z</time></trkpt><trkpt lat="43.7426239916405" lon="7.059947368410194"><ele>886.0</ele><time>2026-04-25T16:07:49.998Z</time></trkpt><trkpt lat="43.74266628098851" lon="7.060028773072024"><ele>886.0</ele><time>2026-04-25T16:07:52.998Z</time></trkpt><trkpt lat="43.74273607578316" lon="7.060089429126087"><ele>885.9999999999999</ele><time>2026-04-25T16:08:27.999Z</time></trkpt><trkpt lat="43.74277966705551" lon="7.060153736336671"><ele>886.0</ele><time>2026-04-25T16:08:35.999Z</time></trkpt><trkpt lat="43.74284819120804" lon="7.060155783471584"><ele>889.8333333333333</ele><time>2026-04-25T16:08:40.999Z</time></trkpt><trkpt lat="43.74289434958482" lon="7.060227762772291"><ele>893.6666666666666</ele><time>2026-04-25T16:08:43.999Z</time></trkpt><trkpt lat="43.742950142615676" lon="7.060157884357882"><ele>897.5</ele><time>2026-04-25T16:08:58.999Z</time></trkpt><trkpt lat="43.74302408959257" lon="7.060107777086985"><ele>901.3333333333333</ele><time>2026-04-25T16:09:01.999Z</time></trkpt><trkpt lat="43.743110004000364" lon="7.06010714004787"><ele>905.1666666666666</ele><time>2026-04-25T16:09:05.999Z</time></trkpt><trkpt lat="43.74318595796083" lon="7.0601643380954044"><ele>909.0</ele><time>2026-04-25T16:09:08.999Z</time></trkpt><trkpt lat="43.743255113121215" lon="7.060146797880653"><ele>909.0</ele><time>2026-04-25T16:09:11.999Z</time></trkpt><trkpt lat="43.7432577590249" lon="7.06027485823653"><ele>909.0000000000001</ele><time>2026-04-25T16:09:14.999Z</time></trkpt><trkpt lat="43.743273549497246" lon="7.060384567767388"><ele>909.0000000000001</ele><time>2026-04-25T16:09:18.999Z</time></trkpt><trkpt lat="43.743307904149844" lon="7.06050091356111"><ele>909.0</ele><time>2026-04-25T16:09:21.999Z</time></trkpt><trkpt lat="43.7433330276271" lon="7.0606203486034165"><ele>909.0</ele><time>2026-04-25T16:09:26.998Z</time></trkpt><trkpt lat="43.74333349434507" lon="7.060772589476398"><ele>909.2857142857142</ele><time>2026-04-25T16:09:28.998Z</time></trkpt><trkpt lat="43.74333243797546" lon="7.060875290466083"><ele>909.5714285714287</ele><time>2026-04-25T16:09:30.998Z</time></trkpt><trkpt lat="43.743321614570974" lon="7.060979101419397"><ele>909.8571428571429</ele><time>2026-04-25T16:09:32.998Z</time></trkpt><trkpt lat="43.74330130924286" lon="7.061073174141865"><ele>910.1428571428571</ele><time>2026-04-25T16:09:34.998Z</time></trkpt><trkpt lat="43.74328882405771" lon="7.0611982299488085"><ele>910.4285714285713</ele><time>2026-04-25T16:09:36.998Z</time></trkpt><trkpt lat="43.74333346986718" lon="7.0612627736067"><ele>910.7142857142858</ele><time>2026-04-25T16:09:38.998Z</time></trkpt><trkpt lat="43.74337374061254" lon="7.061336314344358"><ele>911.0</ele><time>2026-04-25T16:09:41.998Z</time></trkpt><trkpt lat="43.74337531850726" lon="7.0614515660060695"><ele>911.0000000000001</ele><time>2026-04-25T16:09:44.998Z</time></trkpt><trkpt lat="43.743380374894535" lon="7.061563982749302"><ele>911.0</ele><time>2026-04-25T16:09:46.998Z</time></trkpt><trkpt lat="43.743405702022486" lon="7.061701212858417"><ele>911.0</ele><time>2026-04-25T16:09:49.998Z</time></trkpt><trkpt lat="43.743452310009104" lon="7.061807261473463"><ele>911.0</ele><time>2026-04-25T16:09:51.998Z</time></trkpt><trkpt lat="43.743508804940454" lon="7.061849313587594"><ele>911.0000000000001</ele><time>2026-04-25T16:09:53.998Z</time></trkpt><trkpt lat="43.743558104058884" lon="7.06194684539711"><ele>911.0</ele><time>2026-04-25T16:09:56.998Z</time></trkpt><trkpt lat="43.74360323940176" lon="7.062020169983873"><ele>911.0000000000001</ele><time>2026-04-25T16:09:59.998Z</time></trkpt><trkpt lat="43.7436855655401" lon="7.062076436407948"><ele>911.0</ele><time>2026-04-25T16:10:02Z</time></trkpt><trkpt lat="43.743745092473084" lon="7.062047804370526"><ele>911.0</ele><time>2026-04-25T16:10:04Z</time></trkpt><trkpt lat="43.743811151178626" lon="7.062002920382883"><ele>911.0</ele><time>2026-04-25T16:10:07Z</time></trkpt><trkpt lat="43.743849057044784" lon="7.061913682109317"><ele>911.0000000000001</ele><time>2026-04-25T16:10:10Z</time></trkpt><trkpt lat="43.74389120523" lon="7.061803900508694"><ele>911.0</ele><time>2026-04-25T16:10:13Z</time></trkpt><trkpt lat="43.74394253756477" lon="7.061632151739282"><ele>911.4</ele><time>2026-04-25T16:10:15Z</time></trkpt><trkpt lat="43.743961275181434" lon="7.061546587065783"><ele>911.8</ele><time>2026-04-25T16:10:16Z</time></trkpt><trkpt lat="43.74400103823545" lon="7.06138700791769"><ele>912.1999999999999</ele><time>2026-04-25T16:10:18Z</time></trkpt><trkpt lat="43.744018685956945" lon="7.061218197920697"><ele>912.5999999999999</ele><time>2026-04-25T16:10:20Z</time></trkpt><trkpt lat="43.7440448149448" lon="7.0610569734966635"><ele>913.0</ele><time>2026-04-25T16:10:21.999Z</time></trkpt><trkpt lat="43.74406420659356" lon="7.060957604614407"><ele>913.0</ele><time>2026-04-25T16:10:22.999Z</time></trkpt><trkpt lat="43.744076567357766" lon="7.060849199531715"><ele>913.0</ele><time>2026-04-25T16:10:23.999Z</time></trkpt><trkpt lat="43.74407715249453" lon="7.060712914129244"><ele>913.0</ele><time>2026-04-25T16:10:24.999Z</time></trkpt><trkpt lat="43.744084778194924" lon="7.06056544965298"><ele>913.0</ele><time>2026-04-25T16:10:25.999Z</time></trkpt><trkpt lat="43.74411044254855" lon="7.060438166302196"><ele>913.0</ele><time>2026-04-25T16:10:26.999Z</time></trkpt><trkpt lat="43.74413323417701" lon="7.0603315404914655"><ele>912.9999999999999</ele><time>2026-04-25T16:10:27.999Z</time></trkpt><trkpt lat="43.74414859824309" lon="7.0602459129154"><ele>913.0</ele><time>2026-04-25T16:10:28.999Z</time></trkpt><trkpt lat="43.74415202433371" lon="7.060149181237163"><ele>913.0</ele><time>2026-04-25T16:10:29.999Z</time></trkpt><trkpt lat="43.744146388033215" lon="7.060055434629888"><ele>913.0</ele><time>2026-04-25T16:10:30.999Z</time></trkpt><trkpt lat="43.744135723876944" lon="7.059959876547727"><ele>912.9999999999999</ele><time>2026-04-25T16:10:31.999Z</time></trkpt><trkpt lat="43.74412667753183" lon="7.059790477412755"><ele>913.0</ele><time>2026-04-25T16:10:33.999Z</time></trkpt><trkpt lat="43.744125380273466" lon="7.059634983716143"><ele>913.3333333333333</ele><time>2026-04-25T16:10:35.999Z</time></trkpt><trkpt lat="43.744148574260734" lon="7.0594686816918975"><ele>913.6666666666666</ele><time>2026-04-25T16:10:37.999Z</time></trkpt><trkpt lat="43.74416715411909" lon="7.0593766798947595"><ele>914.0</ele><time>2026-04-25T16:10:38.999Z</time></trkpt><trkpt lat="43.74417774557989" lon="7.059289172812365"><ele>914.3333333333333</ele><time>2026-04-25T16:10:39.999Z</time></trkpt><trkpt lat="43.744166077001196" lon="7.059202197160211"><ele>914.6666666666666</ele><time>2026-04-25T16:10:40.999Z</time></trkpt><trkpt lat="43.74415718854334" lon="7.059113389247728"><ele>915.0</ele><time>2026-04-25T16:10:41.999Z</time></trkpt><trkpt lat="43.74417985879661" lon="7.058969399673556"><ele>916.4</ele><time>2026-04-25T16:10:43.999Z</time></trkpt><trkpt lat="43.744195976169195" lon="7.05888085073865"><ele>917.8</ele><time>2026-04-25T16:10:44.999Z</time></trkpt><trkpt lat="43.74421168976209" lon="7.0587822143717975"><ele>919.2</ele><time>2026-04-25T16:10:45.999Z</time></trkpt><trkpt lat="43.74424147302382" lon="7.058636120532468"><ele>920.6</ele><time>2026-04-25T16:10:47.999Z</time></trkpt><trkpt lat="43.74428572137437" lon="7.058529732155712"><ele>922.0</ele><time>2026-04-25T16:10:49.999Z</time></trkpt><trkpt lat="43.74436281980305" lon="7.058403247817568"><ele>922.8</ele><time>2026-04-25T16:10:51.999Z</time></trkpt><trkpt lat="43.744457262253114" lon="7.058323044450247"><ele>923.6</ele><time>2026-04-25T16:10:53.999Z</time></trkpt><trkpt lat="43.74456084717639" lon="7.058317824073307"><ele>924.3999999999999</ele><time>2026-04-25T16:10:55.999Z</time></trkpt><trkpt lat="43.744622712711696" lon="7.058360029354623"><ele>925.1999999999999</ele><time>2026-04-25T16:10:56.999Z</time></trkpt><trkpt lat="43.744688993919084" lon="7.058434459576197"><ele>926.0</ele><time>2026-04-25T16:10:57.999Z</time></trkpt><trkpt lat="43.74475240448733" lon="7.0585086689797825"><ele>926.0000000000001</ele><time>2026-04-25T16:10:58.999Z</time></trkpt><trkpt lat="43.74484869103513" lon="7.05856824163368"><ele>926.0</ele><time>2026-04-25T16:11:00.999Z</time></trkpt><trkpt lat="43.74496317120783" lon="7.058586139478985"><ele>926.0</ele><time>2026-04-25T16:11:02.999Z</time></trkpt><trkpt lat="43.745028888130214" lon="7.058613763459821"><ele>926.0</ele><time>2026-04-25T16:11:03.999Z</time></trkpt><trkpt lat="43.74509615929104" lon="7.058628307865108"><ele>926.0000000000001</ele><time>2026-04-25T16:11:04.999Z</time></trkpt><trkpt lat="43.74516427766694" lon="7.058639042573328"><ele>926.0</ele><time>2026-04-25T16:11:06.999Z</time></trkpt><trkpt lat="43.74526389501666" lon="7.058639808992543"><ele>927.0000000000001</ele><time>2026-04-25T16:11:09.999Z</time></trkpt><trkpt lat="43.74534783640353" lon="7.058612329970936"><ele>928.0</ele><time>2026-04-25T16:11:11.999Z</time></trkpt><trkpt lat="43.74542935817954" lon="7.058541112653691"><ele>929.0</ele><time>2026-04-25T16:11:13.999Z</time></trkpt><trkpt lat="43.745477907716406" lon="7.058441746475159"><ele>930.0</ele><time>2026-04-25T16:11:15.999Z</time></trkpt><trkpt lat="43.74553636530169" lon="7.058351864433311"><ele>931.0000000000001</ele><time>2026-04-25T16:11:17.999Z</time></trkpt><trkpt lat="43.74556855807162" lon="7.058262352961879"><ele>932.0</ele><time>2026-04-25T16:11:19.998Z</time></trkpt><trkpt lat="43.74563548899373" lon="7.058162239182157"><ele>933.8</ele><time>2026-04-25T16:11:21.998Z</time></trkpt><trkpt lat="43.74569469837549" lon="7.058117505943925"><ele>935.6</ele><time>2026-04-25T16:11:22.998Z</time></trkpt><trkpt lat="43.745772350978925" lon="7.058084978407568"><ele>937.3999999999999</ele><time>2026-04-25T16:11:23.998Z</time></trkpt><trkpt lat="43.74584292806983" lon="7.058066693391034"><ele>939.1999999999999</ele><time>2026-04-25T16:11:24.998Z</time></trkpt><trkpt lat="43.74593950380257" lon="7.0581079354533305"><ele>941.0</ele><time>2026-04-25T16:11:26.998Z</time></trkpt><trkpt lat="43.74602475743176" lon="7.0582462747500285"><ele>939.8</ele><time>2026-04-25T16:11:28.998Z</time></trkpt><trkpt lat="43.74610497110936" lon="7.058295653413185"><ele>938.5999999999999</ele><time>2026-04-25T16:11:29.998Z</time></trkpt><trkpt lat="43.74617861817303" lon="7.05835471012556"><ele>937.4</ele><time>2026-04-25T16:11:30.998Z</time></trkpt><trkpt lat="43.74623909081567" lon="7.058403345355154"><ele>936.2</ele><time>2026-04-25T16:11:31.998Z</time></trkpt><trkpt lat="43.74637561999888" lon="7.058365490445337"><ele>935.0</ele><time>2026-04-25T16:11:33.998Z</time></trkpt><trkpt lat="43.746437064381716" lon="7.058320263834737"><ele>935.0000000000001</ele><time>2026-04-25T16:11:34.998Z</time></trkpt><trkpt lat="43.746512575654066" lon="7.058330147053332"><ele>935.0</ele><time>2026-04-25T16:11:35.998Z</time></trkpt><trkpt lat="43.74656969893964" lon="7.058383208341928"><ele>935.0000000000001</ele><time>2026-04-25T16:11:36.998Z</time></trkpt><trkpt lat="43.746615719467265" lon="7.058448451954799"><ele>935.0000000000001</ele><time>2026-04-25T16:11:37.998Z</time></trkpt><trkpt lat="43.746673774117504" lon="7.05850646271013"><ele>935.0</ele><time>2026-04-25T16:11:38.998Z</time></trkpt><trkpt lat="43.74673199412347" lon="7.05855442571789"><ele>935.0000000000001</ele><time>2026-04-25T16:11:39.998Z</time></trkpt><trkpt lat="43.74679801130357" lon="7.058582466134461"><ele>935.0000000000001</ele><time>2026-04-25T16:11:40.998Z</time></trkpt><trkpt lat="43.746874301928145" lon="7.058595727704377"><ele>936.0000000000001</ele><time>2026-04-25T16:11:41.998Z</time></trkpt><trkpt lat="43.7469386026285" lon="7.058586417150057"><ele>937.0</ele><time>2026-04-25T16:11:42.998Z</time></trkpt><trkpt lat="43.74703212863936" lon="7.058670220887953"><ele>938.0</ele><time>2026-04-25T16:11:44.998Z</time></trkpt><trkpt lat="43.74708182587998" lon="7.058776310736341"><ele>939.0</ele><time>2026-04-25T16:11:45.998Z</time></trkpt><trkpt lat="43.74712696012714" lon="7.058839802964883"><ele>940.0000000000001</ele><time>2026-04-25T16:11:46.998Z</time></trkpt><trkpt lat="43.74723693455089" lon="7.058883411863589"><ele>941.0</ele><time>2026-04-25T16:11:48.998Z</time></trkpt><trkpt lat="43.7473094412174" lon="7.058933097465259"><ele>941.0000000000001</ele><time>2026-04-25T16:11:49.998Z</time></trkpt><trkpt lat="43.747397822229495" lon="7.0590270780844016"><ele>941.0</ele><time>2026-04-25T16:11:51.998Z</time></trkpt><trkpt lat="43.747462437395946" lon="7.059118296481467"><ele>941.0</ele><time>2026-04-25T16:11:53.998Z</time></trkpt><trkpt lat="43.74751659555367" lon="7.059169801171595"><ele>941.0</ele><time>2026-04-25T16:11:54.998Z</time></trkpt><trkpt lat="43.747625539440186" lon="7.059155948115676"><ele>941.0000000000001</ele><time>2026-04-25T16:11:56.998Z</time></trkpt><trkpt lat="43.74766863295034" lon="7.059091138501142"><ele>941.0</ele><time>2026-04-25T16:11:57.998Z</time></trkpt><trkpt lat="43.74771875893813" lon="7.059028644462768"><ele>942.0</ele><time>2026-04-25T16:11:58.998Z</time></trkpt><trkpt lat="43.747775380293355" lon="7.058962779976442"><ele>942.9999999999999</ele><time>2026-04-25T16:11:59.998Z</time></trkpt><trkpt lat="43.74783776674589" lon="7.0588935864617826"><ele>943.9999999999999</ele><time>2026-04-25T16:12:00.998Z</time></trkpt><trkpt lat="43.74789631242049" lon="7.058833822300032"><ele>945.0</ele><time>2026-04-25T16:12:01.998Z</time></trkpt><trkpt lat="43.74795512395696" lon="7.058698028527437"><ele>946.0</ele><time>2026-04-25T16:12:03.998Z</time></trkpt><trkpt lat="43.74802480852959" lon="7.058570525565377"><ele>946.0</ele><time>2026-04-25T16:12:05.998Z</time></trkpt><trkpt lat="43.74805607288569" lon="7.058478877908037"><ele>945.9999999999999</ele><time>2026-04-25T16:12:08Z</time></trkpt><trkpt lat="43.74813323119439" lon="7.058389792812374"><ele>945.9999999999999</ele><time>2026-04-25T16:12:10Z</time></trkpt><trkpt lat="43.7482340492127" lon="7.058355315130912"><ele>946.0</ele><time>2026-04-25T16:12:12Z</time></trkpt><trkpt lat="43.748305382595525" lon="7.058334211961933"><ele>946.0</ele><time>2026-04-25T16:12:13Z</time></trkpt><trkpt lat="43.748416916346116" lon="7.058289661245471"><ele>947.6666666666666</ele><time>2026-04-25T16:12:15Z</time></trkpt><trkpt lat="43.748522056188506" lon="7.058247683354689"><ele>949.3333333333333</ele><time>2026-04-25T16:12:17Z</time></trkpt><trkpt lat="43.74864692524287" lon="7.058281968458061"><ele>951.0</ele><time>2026-04-25T16:12:19Z</time></trkpt><trkpt lat="43.7487098562279" lon="7.058303561031988"><ele>952.6666666666667</ele><time>2026-04-25T16:12:20Z</time></trkpt><trkpt lat="43.74878308321617" lon="7.058318436854361"><ele>954.3333333333334</ele><time>2026-04-25T16:12:21Z</time></trkpt><trkpt lat="43.748854303590356" lon="7.058326009189154"><ele>956.0</ele><time>2026-04-25T16:12:22Z</time></trkpt><trkpt lat="43.748951919529006" lon="7.058320381718908"><ele>957.1999999999999</ele><time>2026-04-25T16:12:24Z</time></trkpt><trkpt lat="43.74905038980388" lon="7.058268752576736"><ele>958.3999999999999</ele><time>2026-04-25T16:12:25.999Z</time></trkpt><trkpt lat="43.74913916332898" lon="7.058230115227958"><ele>959.6</ele><time>2026-04-25T16:12:27.999Z</time></trkpt><trkpt lat="43.749203086539524" lon="7.058159717033117"><ele>960.8</ele><time>2026-04-25T16:12:29.999Z</time></trkpt><trkpt lat="43.74928385021235" lon="7.058057997677057"><ele>962.0</ele><time>2026-04-25T16:12:31.999Z</time></trkpt><trkpt lat="43.74933268446759" lon="7.058000290055161"><ele>962.0000000000001</ele><time>2026-04-25T16:12:32.999Z</time></trkpt><trkpt lat="43.74934015879295" lon="7.057905568663977"><ele>962.0</ele><time>2026-04-25T16:12:33.999Z</time></trkpt><trkpt lat="43.74940543758344" lon="7.057834984525481"><ele>962.0</ele><time>2026-04-25T16:12:35.999Z</time></trkpt><trkpt lat="43.749452601846045" lon="7.057725874310551"><ele>962.0</ele><time>2026-04-25T16:12:37.999Z</time></trkpt><trkpt lat="43.74949052238887" lon="7.057655054846417"><ele>962.0000000000001</ele><time>2026-04-25T16:12:38.999Z</time></trkpt><trkpt lat="43.74953611803343" lon="7.057569988830887"><ele>962.0</ele><time>2026-04-25T16:12:39.999Z</time></trkpt><trkpt lat="43.74957867442034" lon="7.0574858978555035"><ele>963.6</ele><time>2026-04-25T16:12:40.999Z</time></trkpt><trkpt lat="43.74961813943282" lon="7.057384891550828"><ele>965.2</ele><time>2026-04-25T16:12:41.999Z</time></trkpt><trkpt lat="43.74966213664281" lon="7.057307350687101"><ele>966.8</ele><time>2026-04-25T16:12:42.999Z</time></trkpt><trkpt lat="43.749720121535425" lon="7.0571718442930695"><ele>968.4</ele><time>2026-04-25T16:12:44.999Z</time></trkpt><trkpt lat="43.74981060852961" lon="7.0570412321385545"><ele>970.0</ele><time>2026-04-25T16:12:46.999Z</time></trkpt><trkpt lat="43.74985513303135" lon="7.0569639569261415"><ele>970.0</ele><time>2026-04-25T16:12:47.999Z</time></trkpt><trkpt lat="43.749920321580454" lon="7.056860317722171"><ele>970.0</ele><time>2026-04-25T16:12:49.999Z</time></trkpt><trkpt lat="43.74997298796305" lon="7.05678210863672"><ele>970.0</ele><time>2026-04-25T16:12:51.999Z</time></trkpt><trkpt lat="43.750086593121495" lon="7.056799305256435"><ele>970.0</ele><time>2026-04-25T16:12:53.999Z</time></trkpt><trkpt lat="43.750198909658764" lon="7.056740767195559"><ele>970.0</ele><time>2026-04-25T16:12:55.999Z</time></trkpt><trkpt lat="43.750293125235494" lon="7.056644168692111"><ele>970.1666666666666</ele><time>2026-04-25T16:12:57.999Z</time></trkpt><trkpt lat="43.75036649426312" lon="7.0565613099338185"><ele>970.3333333333333</ele><time>2026-04-25T16:12:59.999Z</time></trkpt><trkpt lat="43.75044218212272" lon="7.056462268152536"><ele>970.5</ele><time>2026-04-25T16:13:01.999Z</time></trkpt><trkpt lat="43.7504407885665" lon="7.056372653891478"><ele>970.6666666666667</ele><time>2026-04-25T16:13:02.999Z</time></trkpt><trkpt lat="43.75047623429396" lon="7.056271949473052"><ele>970.8333333333334</ele><time>2026-04-25T16:13:04.999Z</time></trkpt><trkpt lat="43.75054879438353" lon="7.0561822043356965"><ele>971.0</ele><time>2026-04-25T16:13:06.999Z</time></trkpt><trkpt lat="43.75061602874411" lon="7.056144368373327"><ele>971.0</ele><time>2026-04-25T16:13:07.999Z</time></trkpt><trkpt lat="43.750665665955566" lon="7.056073860815974"><ele>970.9999999999999</ele><time>2026-04-25T16:13:08.999Z</time></trkpt><trkpt lat="43.75076425697251" lon="7.0559966980878"><ele>970.9999999999999</ele><time>2026-04-25T16:13:10.999Z</time></trkpt><trkpt lat="43.75083603172636" lon="7.055923288308962"><ele>971.0</ele><time>2026-04-25T16:13:12.999Z</time></trkpt><trkpt lat="43.750904359957964" lon="7.0558541178755405"><ele>971.0</ele><time>2026-04-25T16:13:14.999Z</time></trkpt><trkpt lat="43.75099599826841" lon="7.055767414648793"><ele>970.1666666666667</ele><time>2026-04-25T16:13:16.999Z</time></trkpt><trkpt lat="43.75105322813196" lon="7.055718398905983"><ele>969.3333333333334</ele><time>2026-04-25T16:13:17.999Z</time></trkpt><trkpt lat="43.75111433394007" lon="7.055671551158031"><ele>968.5</ele><time>2026-04-25T16:13:18.999Z</time></trkpt><trkpt lat="43.75116824737742" lon="7.055600210674596"><ele>967.6666666666667</ele><time>2026-04-25T16:13:19.999Z</time></trkpt><trkpt lat="43.75127756027641" lon="7.055553823125028"><ele>966.8333333333334</ele><time>2026-04-25T16:13:21.999Z</time></trkpt><trkpt lat="43.75136845527262" lon="7.0555222338750525"><ele>966.0</ele><time>2026-04-25T16:13:23.999Z</time></trkpt><trkpt lat="43.751440366020184" lon="7.055428111967577"><ele>966.0</ele><time>2026-04-25T16:13:25.999Z</time></trkpt><trkpt lat="43.75152864422082" lon="7.055299778748341"><ele>965.9999999999999</ele><time>2026-04-25T16:13:27.999Z</time></trkpt><trkpt lat="43.7516103161312" lon="7.0551751503978215"><ele>965.9999999999999</ele><time>2026-04-25T16:13:29.999Z</time></trkpt><trkpt lat="43.75165927463978" lon="7.055114650541483"><ele>966.0</ele><time>2026-04-25T16:13:30.998Z</time></trkpt><trkpt lat="43.75170850679961" lon="7.055039270914533"><ele>966.0</ele><time>2026-04-25T16:13:31.998Z</time></trkpt><trkpt lat="43.75174869546872" lon="7.0549677223501"><ele>966.1999999999999</ele><time>2026-04-25T16:13:32.998Z</time></trkpt><trkpt lat="43.75185871071584" lon="7.054904271310748"><ele>966.3999999999999</ele><time>2026-04-25T16:13:34.998Z</time></trkpt><trkpt lat="43.751879826943195" lon="7.054801257219767"><ele>966.6</ele><time>2026-04-25T16:13:35.998Z</time></trkpt><trkpt lat="43.75194601238507" lon="7.054752740336347"><ele>966.8</ele><time>2026-04-25T16:13:36.998Z</time></trkpt><trkpt lat="43.75202632663264" lon="7.0547035586317675"><ele>967.0</ele><time>2026-04-25T16:13:37.998Z</time></trkpt><trkpt lat="43.75212709496673" lon="7.054643989517795"><ele>966.9999999999999</ele><time>2026-04-25T16:13:38.998Z</time></trkpt><trkpt lat="43.75222029638447" lon="7.054556726191009"><ele>967.0</ele><time>2026-04-25T16:13:39.998Z</time></trkpt><trkpt lat="43.75229880548649" lon="7.054478487263646"><ele>967.0</ele><time>2026-04-25T16:13:40.998Z</time></trkpt><trkpt lat="43.752360511807865" lon="7.054432836728103"><ele>967.0</ele><time>2026-04-25T16:13:41.998Z</time></trkpt><trkpt lat="43.752415907359875" lon="7.054361128800964"><ele>966.9999999999999</ele><time>2026-04-25T16:13:42.998Z</time></trkpt><trkpt lat="43.75247682460749" lon="7.054263511196761"><ele>967.0</ele><time>2026-04-25T16:13:43.998Z</time></trkpt><trkpt lat="43.75255059225686" lon="7.054177140837557"><ele>967.2</ele><time>2026-04-25T16:13:44.998Z</time></trkpt><trkpt lat="43.75261153899326" lon="7.054111932081377"><ele>967.4000000000001</ele><time>2026-04-25T16:13:45.998Z</time></trkpt><trkpt lat="43.752671626984366" lon="7.054016404946036"><ele>967.5999999999999</ele><time>2026-04-25T16:13:47.998Z</time></trkpt><trkpt lat="43.75271817661673" lon="7.053851749873684"><ele>967.8</ele><time>2026-04-25T16:13:49.998Z</time></trkpt><trkpt lat="43.7527477819071" lon="7.053743883667927"><ele>968.0</ele><time>2026-04-25T16:13:50.998Z</time></trkpt><trkpt lat="43.75279431986269" lon="7.053660534691001"><ele>968.0</ele><time>2026-04-25T16:13:51.998Z</time></trkpt><trkpt lat="43.752827135258876" lon="7.053576155834446"><ele>968.0</ele><time>2026-04-25T16:13:52.998Z</time></trkpt><trkpt lat="43.75286492639343" lon="7.053451206425854"><ele>968.0</ele><time>2026-04-25T16:13:54.998Z</time></trkpt><trkpt lat="43.752898073348845" lon="7.053278328620064"><ele>968.0</ele><time>2026-04-25T16:13:56.998Z</time></trkpt><trkpt lat="43.7529273798609" lon="7.053150178556238"><ele>968.0</ele><time>2026-04-25T16:13:58.998Z</time></trkpt><trkpt lat="43.752952789388445" lon="7.053017590612602"><ele>968.5999999999999</ele><time>2026-04-25T16:14:00.998Z</time></trkpt><trkpt lat="43.75304646097292" lon="7.052922243680016"><ele>969.1999999999999</ele><time>2026-04-25T16:14:02.998Z</time></trkpt><trkpt lat="43.753103874566584" lon="7.052833647925814"><ele>969.8</ele><time>2026-04-25T16:14:03.998Z</time></trkpt><trkpt lat="43.75316769747748" lon="7.052706738607203"><ele>970.4</ele><time>2026-04-25T16:14:04.998Z</time></trkpt><trkpt lat="43.75324699271781" lon="7.052591315793463"><ele>971.0</ele><time>2026-04-25T16:14:05.998Z</time></trkpt><trkpt lat="43.753339147336284" lon="7.052478909614433"><ele>971.0</ele><time>2026-04-25T16:14:06.998Z</time></trkpt><trkpt lat="43.753416785168326" lon="7.052339042366244"><ele>970.9999999999999</ele><time>2026-04-25T16:14:07.998Z</time></trkpt><trkpt lat="43.75349590821125" lon="7.052247085048739"><ele>970.9999999999999</ele><time>2026-04-25T16:14:08.998Z</time></trkpt><trkpt lat="43.753546402950626" lon="7.05213953264928"><ele>971.0</ele><time>2026-04-25T16:14:09.998Z</time></trkpt><trkpt lat="43.753601537428054" lon="7.052053767907422"><ele>971.0</ele><time>2026-04-25T16:14:10.998Z</time></trkpt><trkpt lat="43.75364663570651" lon="7.0519831373061175"><ele>971.1999999999999</ele><time>2026-04-25T16:14:12Z</time></trkpt><trkpt lat="43.75370562540433" lon="7.051862798455042"><ele>971.3999999999999</ele><time>2026-04-25T16:14:14Z</time></trkpt><trkpt lat="43.75376640789091" lon="7.051755297637426"><ele>971.6</ele><time>2026-04-25T16:14:16Z</time></trkpt><trkpt lat="43.75383844680637" lon="7.051615460449031"><ele>971.8</ele><time>2026-04-25T16:14:18Z</time></trkpt><trkpt lat="43.75387633996753" lon="7.051542423235751"><ele>972.0</ele><time>2026-04-25T16:14:19Z</time></trkpt><trkpt lat="43.75392395118905" lon="7.051484213004892"><ele>972.2</ele><time>2026-04-25T16:14:20Z</time></trkpt><trkpt lat="43.753981357776105" lon="7.051444709675884"><ele>972.4000000000001</ele><time>2026-04-25T16:14:21Z</time></trkpt><trkpt lat="43.75409896567733" lon="7.051388280048367"><ele>972.5999999999999</ele><time>2026-04-25T16:14:23Z</time></trkpt><trkpt lat="43.75416806960839" lon="7.051383371553889"><ele>972.8</ele><time>2026-04-25T16:14:24Z</time></trkpt><trkpt lat="43.75427671469996" lon="7.05132584405216"><ele>973.0</ele><time>2026-04-25T16:14:26Z</time></trkpt><trkpt lat="43.75435616636267" lon="7.0512108823624375"><ele>972.8</ele><time>2026-04-25T16:14:28Z</time></trkpt><trkpt lat="43.75439679429446" lon="7.051065386506991"><ele>972.5999999999999</ele><time>2026-04-25T16:14:30Z</time></trkpt><trkpt lat="43.75441463691349" lon="7.050976499610284"><ele>972.4000000000001</ele><time>2026-04-25T16:14:31Z</time></trkpt><trkpt lat="43.75448401929673" lon="7.050860993473733"><ele>972.2</ele><time>2026-04-25T16:14:33Z</time></trkpt><trkpt lat="43.75451818777552" lon="7.050692764951624"><ele>972.0</ele><time>2026-04-25T16:14:34.999Z</time></trkpt><trkpt lat="43.75453333021233" lon="7.050574776352874"><ele>972.0</ele><time>2026-04-25T16:14:35.999Z</time></trkpt><trkpt lat="43.754551743457114" lon="7.050422064641486"><ele>972.0</ele><time>2026-04-25T16:14:36.999Z</time></trkpt><trkpt lat="43.75456917638969" lon="7.0502509336236745"><ele>972.0</ele><time>2026-04-25T16:14:37.999Z</time></trkpt><trkpt lat="43.75459027572737" lon="7.05010087591394"><ele>972.0</ele><time>2026-04-25T16:14:38.999Z</time></trkpt><trkpt lat="43.754600401912036" lon="7.049982156073612"><ele>972.0</ele><time>2026-04-25T16:14:39.999Z</time></trkpt><trkpt lat="43.75463096226373" lon="7.049901687024726"><ele>971.6666666666666</ele><time>2026-04-25T16:14:40.999Z</time></trkpt><trkpt lat="43.75469358839694" lon="7.0498285046512"><ele>971.3333333333333</ele><time>2026-04-25T16:14:42.999Z</time></trkpt><trkpt lat="43.754781317241275" lon="7.049731318843302"><ele>971.0</ele><time>2026-04-25T16:14:44.999Z</time></trkpt><trkpt lat="43.75483751179815" lon="7.049658754159585"><ele>970.6666666666666</ele><time>2026-04-25T16:14:46.999Z</time></trkpt><trkpt lat="43.754900293917316" lon="7.049621073614935"><ele>970.3333333333333</ele><time>2026-04-25T16:14:48.999Z</time></trkpt><trkpt lat="43.75497147241272" lon="7.049537846693867"><ele>970.0</ele><time>2026-04-25T16:14:50.999Z</time></trkpt><trkpt lat="43.754994130166466" lon="7.049444398595146"><ele>969.9999999999999</ele><time>2026-04-25T16:14:52.999Z</time></trkpt><trkpt lat="43.75500450181038" lon="7.049300456331075"><ele>970.0</ele><time>2026-04-25T16:14:54.999Z</time></trkpt><trkpt lat="43.75504349454878" lon="7.04920365527346"><ele>970.0</ele><time>2026-04-25T16:14:55.999Z</time></trkpt><trkpt lat="43.75503816548193" lon="7.04909939103453"><ele>970.0</ele><time>2026-04-25T16:14:56.999Z</time></trkpt><trkpt lat="43.75504965893897" lon="7.049008002611227"><ele>969.9999999999999</ele><time>2026-04-25T16:14:57.999Z</time></trkpt><trkpt lat="43.75504802346001" lon="7.048905983220534"><ele>970.0</ele><time>2026-04-25T16:14:58.999Z</time></trkpt><trkpt lat="43.755054810027666" lon="7.048796378332597"><ele>969.4999999999999</ele><time>2026-04-25T16:14:59.999Z</time></trkpt><trkpt lat="43.75506683743647" lon="7.048695281823302"><ele>969.0</ele><time>2026-04-25T16:15:00.999Z</time></trkpt><trkpt lat="43.75508704166256" lon="7.048572095495022"><ele>968.5</ele><time>2026-04-25T16:15:01.999Z</time></trkpt><trkpt lat="43.75513185355912" lon="7.0484594887005425"><ele>968.0</ele><time>2026-04-25T16:15:02.999Z</time></trkpt><trkpt lat="43.75517376117515" lon="7.048368199445449"><ele>967.4999999999999</ele><time>2026-04-25T16:15:03.999Z</time></trkpt><trkpt lat="43.75521166696989" lon="7.048257569986768"><ele>967.0</ele><time>2026-04-25T16:15:04.999Z</time></trkpt><trkpt lat="43.75525432841379" lon="7.048140736679181"><ele>966.3333333333333</ele><time>2026-04-25T16:15:05.999Z</time></trkpt><trkpt lat="43.75529711321876" lon="7.048011879433894"><ele>965.6666666666666</ele><time>2026-04-25T16:15:06.999Z</time></trkpt><trkpt lat="43.75533466441937" lon="7.047896515243048"><ele>965.0</ele><time>2026-04-25T16:15:07.999Z</time></trkpt><trkpt lat="43.755385499450504" lon="7.047793098490551"><ele>964.3333333333333</ele><time>2026-04-25T16:15:08.999Z</time></trkpt><trkpt lat="43.755430577339276" lon="7.047707315935687"><ele>963.6666666666666</ele><time>2026-04-25T16:15:09.999Z</time></trkpt><trkpt lat="43.75548238613035" lon="7.04762050139525"><ele>963.0</ele><time>2026-04-25T16:15:10.999Z</time></trkpt><trkpt lat="43.75552785670433" lon="7.047554092639983"><ele>963.0</ele><time>2026-04-25T16:15:11.999Z</time></trkpt><trkpt lat="43.7555616141816" lon="7.0474772125129865"><ele>963.0</ele><time>2026-04-25T16:15:12.999Z</time></trkpt><trkpt lat="43.75563206947726" lon="7.047374715364962"><ele>963.0</ele><time>2026-04-25T16:15:14.999Z</time></trkpt><trkpt lat="43.75570312050473" lon="7.047396071332324"><ele>963.0</ele><time>2026-04-25T16:15:18.999Z</time></trkpt><trkpt lat="43.75574832707287" lon="7.047457301117511"><ele>963.0</ele><time>2026-04-25T16:15:31.999Z</time></trkpt><trkpt lat="43.755802701443386" lon="7.047532054160657"><ele>963.0</ele><time>2026-04-25T16:15:36.998Z</time></trkpt><trkpt lat="43.75575526895669" lon="7.047604688362945"><ele>963.0</ele><time>2026-04-25T16:15:39.998Z</time></trkpt><trkpt lat="43.75568982886545" lon="7.047640066319337"><ele>963.0</ele><time>2026-04-25T16:15:40.998Z</time></trkpt><trkpt lat="43.7556646626628" lon="7.047744670979626"><ele>963.0</ele><time>2026-04-25T16:15:42.998Z</time></trkpt><trkpt lat="43.7556319994701" lon="7.047924399813184"><ele>963.0</ele><time>2026-04-25T16:15:44.998Z</time></trkpt><trkpt lat="43.755645872594215" lon="7.048031550235502"><ele>963.0</ele><time>2026-04-25T16:15:46.998Z</time></trkpt><trkpt lat="43.75564552696657" lon="7.0481487512327465"><ele>963.0</ele><time>2026-04-25T16:15:48.998Z</time></trkpt><trkpt lat="43.75564384277356" lon="7.0482898538152705"><ele>961.8</ele><time>2026-04-25T16:15:50.998Z</time></trkpt><trkpt lat="43.75565124891026" lon="7.048431124232721"><ele>960.5999999999999</ele><time>2026-04-25T16:15:52.998Z</time></trkpt><trkpt lat="43.755636837183665" lon="7.0485209857199775"><ele>959.4000000000001</ele><time>2026-04-25T16:15:53.998Z</time></trkpt><trkpt lat="43.75563001448954" lon="7.048692072712788"><ele>958.2</ele><time>2026-04-25T16:15:55.998Z</time></trkpt><trkpt lat="43.75560036467167" lon="7.048795070890418"><ele>957.0</ele><time>2026-04-25T16:15:57.998Z</time></trkpt><trkpt lat="43.75563926567211" lon="7.048894977713548"><ele>957.0</ele><time>2026-04-25T16:15:59.998Z</time></trkpt><trkpt lat="43.755697747406465" lon="7.048962170446532"><ele>957.0</ele><time>2026-04-25T16:16:01.998Z</time></trkpt><trkpt lat="43.755743575572716" lon="7.049069031918807"><ele>957.0</ele><time>2026-04-25T16:16:03.998Z</time></trkpt><trkpt lat="43.7558076597905" lon="7.049147848425676"><ele>957.0</ele><time>2026-04-25T16:16:05.998Z</time></trkpt><trkpt lat="43.75590832393837" lon="7.0492257036768295"><ele>957.0</ele><time>2026-04-25T16:16:07.998Z</time></trkpt><trkpt lat="43.75600123544035" lon="7.049234551294135"><ele>954.5</ele><time>2026-04-25T16:16:10.998Z</time></trkpt><trkpt lat="43.75607447266604" lon="7.049322873924659"><ele>952.0</ele><time>2026-04-25T16:16:12.998Z</time></trkpt><trkpt lat="43.75618065335612" lon="7.049375554151307"><ele>949.5</ele><time>2026-04-25T16:16:14.998Z</time></trkpt><trkpt lat="43.756221497128735" lon="7.049480906714954"><ele>947.0</ele><time>2026-04-25T16:16:16.998Z</time></trkpt><trkpt lat="43.75625670674133" lon="7.049581286060295"><ele>944.5</ele><time>2026-04-25T16:16:19Z</time></trkpt><trkpt lat="43.75630754080655" lon="7.049644800099259"><ele>942.0</ele><time>2026-04-25T16:16:20Z</time></trkpt><trkpt lat="43.75637555745871" lon="7.049712624437215"><ele>942.0</ele><time>2026-04-25T16:16:21Z</time></trkpt><trkpt lat="43.75643956769109" lon="7.049802266872551"><ele>942.0</ele><time>2026-04-25T16:16:22Z</time></trkpt><trkpt lat="43.75648790020663" lon="7.04988477062028"><ele>942.0</ele><time>2026-04-25T16:16:23Z</time></trkpt><trkpt lat="43.75651215584386" lon="7.049972871694198"><ele>942.0</ele><time>2026-04-25T16:16:24Z</time></trkpt><trkpt lat="43.75653842788788" lon="7.05009237524823"><ele>942.0</ele><time>2026-04-25T16:16:25Z</time></trkpt><trkpt lat="43.75653800873517" lon="7.050246755006481"><ele>942.0</ele><time>2026-04-25T16:16:26Z</time></trkpt><trkpt lat="43.75653803143729" lon="7.050406187520018"><ele>942.1666666666666</ele><time>2026-04-25T16:16:27Z</time></trkpt><trkpt lat="43.75652462603459" lon="7.050514545315309"><ele>942.3333333333333</ele><time>2026-04-25T16:16:28Z</time></trkpt><trkpt lat="43.75654628706603" lon="7.050621498922949"><ele>942.5</ele><time>2026-04-25T16:16:30Z</time></trkpt><trkpt lat="43.756603088919185" lon="7.0507239617085755"><ele>942.6666666666666</ele><time>2026-04-25T16:16:32Z</time></trkpt><trkpt lat="43.75668727484958" lon="7.050804636708199"><ele>942.8333333333333</ele><time>2026-04-25T16:16:34Z</time></trkpt><trkpt lat="43.756725225511516" lon="7.050905583901879"><ele>943.0</ele><time>2026-04-25T16:16:35Z</time></trkpt><trkpt lat="43.756760150506835" lon="7.0510197366144105"><ele>943.0</ele><time>2026-04-25T16:16:36Z</time></trkpt><trkpt lat="43.75680743035292" lon="7.0511829953520095"><ele>943.0</ele><time>2026-04-25T16:16:37Z</time></trkpt><trkpt lat="43.75685779745172" lon="7.051339757186829"><ele>943.0</ele><time>2026-04-25T16:16:38Z</time></trkpt><trkpt lat="43.7569003610223" lon="7.051453142099123"><ele>943.0</ele><time>2026-04-25T16:16:39Z</time></trkpt><trkpt lat="43.75694063934078" lon="7.051545451044684"><ele>943.0</ele><time>2026-04-25T16:16:40Z</time></trkpt><trkpt lat="43.75698590775119" lon="7.051624699876485"><ele>942.0</ele><time>2026-04-25T16:16:40.999Z</time></trkpt><trkpt lat="43.75703622475437" lon="7.051717761218372"><ele>941.0</ele><time>2026-04-25T16:16:41.999Z</time></trkpt><trkpt lat="43.75712630219695" lon="7.051789119198269"><ele>940.0</ele><time>2026-04-25T16:16:43.999Z</time></trkpt><trkpt lat="43.757207048660206" lon="7.051770903763581"><ele>939.0</ele><time>2026-04-25T16:16:45.999Z</time></trkpt><trkpt lat="43.75734490574359" lon="7.051833584471769"><ele>938.0</ele><time>2026-04-25T16:16:47.999Z</time></trkpt><trkpt lat="43.75744091480321" lon="7.051870229869617"><ele>938.0000000000001</ele><time>2026-04-25T16:16:48.999Z</time></trkpt><trkpt lat="43.75753837332054" lon="7.051878088327351"><ele>938.0</ele><time>2026-04-25T16:16:49.999Z</time></trkpt><trkpt lat="43.75762438459773" lon="7.051893746987914"><ele>938.0</ele><time>2026-04-25T16:16:50.999Z</time></trkpt><trkpt lat="43.757692074601316" lon="7.051941396546056"><ele>938.0</ele><time>2026-04-25T16:16:51.999Z</time></trkpt><trkpt lat="43.757740338734216" lon="7.052024644756649"><ele>938.0000000000001</ele><time>2026-04-25T16:16:52.999Z</time></trkpt><trkpt lat="43.75778654245416" lon="7.052118826793759"><ele>938.0</ele><time>2026-04-25T16:16:53.999Z</time></trkpt><trkpt lat="43.7578647386977" lon="7.052238283380237"><ele>939.2</ele><time>2026-04-25T16:16:54.999Z</time></trkpt><trkpt lat="43.75797074631651" lon="7.0523580733411375"><ele>940.4</ele><time>2026-04-25T16:16:55.999Z</time></trkpt><trkpt lat="43.758066930923384" lon="7.052445713518369"><ele>941.6000000000001</ele><time>2026-04-25T16:16:56.999Z</time></trkpt><trkpt lat="43.75813906226631" lon="7.052510130563707"><ele>942.8000000000001</ele><time>2026-04-25T16:16:57.999Z</time></trkpt><trkpt lat="43.75820162251385" lon="7.052523305592002"><ele>944.0</ele><time>2026-04-25T16:16:58.999Z</time></trkpt><trkpt lat="43.75830153538567" lon="7.05247584053786"><ele>944.1666666666667</ele><time>2026-04-25T16:17:00.999Z</time></trkpt><trkpt lat="43.75836897123483" lon="7.052436514944219"><ele>944.3333333333334</ele><time>2026-04-25T16:17:01.999Z</time></trkpt><trkpt lat="43.758416160068734" lon="7.052371691191852"><ele>944.5</ele><time>2026-04-25T16:17:02.999Z</time></trkpt><trkpt lat="43.75848292560931" lon="7.052309319996766"><ele>944.6666666666667</ele><time>2026-04-25T16:17:03.999Z</time></trkpt><trkpt lat="43.75854770470834" lon="7.052245307187466"><ele>944.8333333333334</ele><time>2026-04-25T16:17:04.999Z</time></trkpt><trkpt lat="43.758643623810066" lon="7.052241149029538"><ele>945.0</ele><time>2026-04-25T16:17:06.999Z</time></trkpt><trkpt lat="43.758720146448894" lon="7.052363752110529"><ele>946.1666666666666</ele><time>2026-04-25T16:17:08.999Z</time></trkpt><trkpt lat="43.75872740694672" lon="7.052493396429927"><ele>947.3333333333333</ele><time>2026-04-25T16:17:09.999Z</time></trkpt><trkpt lat="43.75871045319703" lon="7.052590560681635"><ele>948.5</ele><time>2026-04-25T16:17:10.999Z</time></trkpt><trkpt lat="43.7587165753968" lon="7.0526915800346615"><ele>949.6666666666666</ele><time>2026-04-25T16:17:11.999Z</time></trkpt><trkpt lat="43.75874903206049" lon="7.052776604805619"><ele>950.8333333333333</ele><time>2026-04-25T16:17:12.999Z</time></trkpt><trkpt lat="43.7588071253869" lon="7.052919840832239"><ele>952.0</ele><time>2026-04-25T16:17:14.999Z</time></trkpt><trkpt lat="43.75892518069067" lon="7.052906677596708"><ele>952.0</ele><time>2026-04-25T16:17:16.999Z</time></trkpt><trkpt lat="43.758998117584184" lon="7.05284577582835"><ele>952.0</ele><time>2026-04-25T16:17:17.999Z</time></trkpt><trkpt lat="43.75904662381048" lon="7.052747202777958"><ele>952.0</ele><time>2026-04-25T16:17:18.999Z</time></trkpt><trkpt lat="43.75911437911546" lon="7.052703297144757"><ele>952.0</ele><time>2026-04-25T16:17:19.999Z</time></trkpt><trkpt lat="43.75925809858241" lon="7.052719971156925"><ele>952.0</ele><time>2026-04-25T16:17:21.999Z</time></trkpt><trkpt lat="43.759363460547114" lon="7.052776602571239"><ele>954.0</ele><time>2026-04-25T16:17:22.999Z</time></trkpt><trkpt lat="43.75944258596098" lon="7.052829590662396"><ele>956.0</ele><time>2026-04-25T16:17:23.999Z</time></trkpt><trkpt lat="43.759543315361746" lon="7.052954562918963"><ele>958.0</ele><time>2026-04-25T16:17:25.999Z</time></trkpt><trkpt lat="43.75959310487382" lon="7.053040785221419"><ele>960.0</ele><time>2026-04-25T16:17:26.999Z</time></trkpt><trkpt lat="43.759544104012654" lon="7.053273806780784"><ele>959.4</ele><time>2026-04-25T16:17:27.999Z</time></trkpt><trkpt lat="43.759570672844504" lon="7.053442760827471"><ele>958.8</ele><time>2026-04-25T16:17:28.999Z</time></trkpt><trkpt lat="43.759630774820174" lon="7.05359706349292"><ele>958.2</ele><time>2026-04-25T16:17:29.999Z</time></trkpt><trkpt lat="43.75967987494041" lon="7.053700988548863"><ele>957.6</ele><time>2026-04-25T16:17:30.999Z</time></trkpt><trkpt lat="43.759726067422456" lon="7.053781308075146"><ele>957.0</ele><time>2026-04-25T16:17:31.999Z</time></trkpt><trkpt lat="43.75980739613299" lon="7.053871824252059"><ele>957.0</ele><time>2026-04-25T16:17:32.999Z</time></trkpt><trkpt lat="43.75989778006608" lon="7.053990034625878"><ele>957.0</ele><time>2026-04-25T16:17:33.999Z</time></trkpt><trkpt lat="43.75994221765525" lon="7.0541251882471565"><ele>957.0</ele><time>2026-04-25T16:17:34.999Z</time></trkpt><trkpt lat="43.76001505841279" lon="7.054166950864108"><ele>957.0</ele><time>2026-04-25T16:17:35.999Z</time></trkpt><trkpt lat="43.760073804191514" lon="7.0542054169491415"><ele>957.0</ele><time>2026-04-25T16:17:36.999Z</time></trkpt><trkpt lat="43.760152328854275" lon="7.054226574434405"><ele>957.0</ele><time>2026-04-25T16:17:37.999Z</time></trkpt><trkpt lat="43.76025175756471" lon="7.054247874613732"><ele>957.0</ele><time>2026-04-25T16:17:38.999Z</time></trkpt><trkpt lat="43.76033611407764" lon="7.054251183500929"><ele>957.0</ele><time>2026-04-25T16:17:39.999Z</time></trkpt><trkpt lat="43.76041145272862" lon="7.054213155882014"><ele>957.0</ele><time>2026-04-25T16:17:40.999Z</time></trkpt><trkpt lat="43.76048472826046" lon="7.0541542378816136"><ele>957.0</ele><time>2026-04-25T16:17:41.999Z</time></trkpt><trkpt lat="43.760542664299436" lon="7.054030593259563"><ele>957.6</ele><time>2026-04-25T16:17:42.999Z</time></trkpt><trkpt lat="43.760569809548564" lon="7.0539485245887175"><ele>958.2</ele><time>2026-04-25T16:17:43.999Z</time></trkpt><trkpt lat="43.76065557304204" lon="7.053947507968628"><ele>958.8</ele><time>2026-04-25T16:17:45.998Z</time></trkpt><trkpt lat="43.76075794961182" lon="7.053981880622044"><ele>959.4</ele><time>2026-04-25T16:17:46.998Z</time></trkpt><trkpt lat="43.76085948937595" lon="7.053969950454864"><ele>960.0</ele><time>2026-04-25T16:17:47.998Z</time></trkpt><trkpt lat="43.760969850351835" lon="7.053938236756381"><ele>960.3333333333333</ele><time>2026-04-25T16:17:48.998Z</time></trkpt><trkpt lat="43.76109463764966" lon="7.053944550827188"><ele>960.6666666666666</ele><time>2026-04-25T16:17:49.998Z</time></trkpt><trkpt lat="43.76126201590992" lon="7.054018675787506"><ele>961.0</ele><time>2026-04-25T16:17:50.998Z</time></trkpt><trkpt lat="43.761429626592886" lon="7.054079500820367"><ele>961.25</ele><time>2026-04-25T16:17:51.998Z</time></trkpt><trkpt lat="43.76159301105673" lon="7.054138087058597"><ele>961.5</ele><time>2026-04-25T16:17:52.998Z</time></trkpt><trkpt lat="43.76172665513323" lon="7.0541890315276525"><ele>961.75</ele><time>2026-04-25T16:17:53.998Z</time></trkpt><trkpt lat="43.76183265737371" lon="7.054240351531047"><ele>962.0</ele><time>2026-04-25T16:17:54.998Z</time></trkpt><trkpt lat="43.76187838310736" lon="7.0543099810487435"><ele>962.0000000000001</ele><time>2026-04-25T16:17:55.998Z</time></trkpt><trkpt lat="43.761881425347816" lon="7.054442962240737"><ele>962.0</ele><time>2026-04-25T16:17:57.998Z</time></trkpt><trkpt lat="43.76183859691546" lon="7.054525776902573"><ele>962.0</ele><time>2026-04-25T16:18:00.998Z</time></trkpt><trkpt lat="43.76179471428938" lon="7.0546072616862165"><ele>962.0</ele><time>2026-04-25T16:18:19.998Z</time></trkpt><trkpt lat="43.76172679573963" lon="7.054665856582806"><ele>962.0000000000001</ele><time>2026-04-25T16:18:21.998Z</time></trkpt><trkpt lat="43.7616088593132" lon="7.054692865108424"><ele>962.0</ele><time>2026-04-25T16:18:24Z</time></trkpt><trkpt lat="43.761486001305585" lon="7.054712401661448"><ele>961.4285714285713</ele><time>2026-04-25T16:18:26Z</time></trkpt><trkpt lat="43.76141172001918" lon="7.054747951038303"><ele>960.8571428571429</ele><time>2026-04-25T16:18:27Z</time></trkpt><trkpt lat="43.76134577345911" lon="7.054797677641288"><ele>960.2857142857142</ele><time>2026-04-25T16:18:28Z</time></trkpt><trkpt lat="43.76128772398235" lon="7.054871401190668"><ele>959.7142857142857</ele><time>2026-04-25T16:18:29Z</time></trkpt><trkpt lat="43.76123839496299" lon="7.05496132516074"><ele>959.1428571428571</ele><time>2026-04-25T16:18:30Z</time></trkpt><trkpt lat="43.761189120183154" lon="7.055018925012541"><ele>958.5714285714286</ele><time>2026-04-25T16:18:31Z</time></trkpt><trkpt lat="43.761126560650006" lon="7.055033392943361"><ele>958.0</ele><time>2026-04-25T16:18:32Z</time></trkpt><trkpt lat="43.7610445593085" lon="7.055022610474974"><ele>957.4285714285713</ele><time>2026-04-25T16:18:33Z</time></trkpt><trkpt lat="43.76096058158964" lon="7.05502088952385"><ele>956.8571428571429</ele><time>2026-04-25T16:18:34Z</time></trkpt><trkpt lat="43.76089459437516" lon="7.055055224305091"><ele>956.2857142857142</ele><time>2026-04-25T16:18:35Z</time></trkpt><trkpt lat="43.76084549735229" lon="7.055125417246621"><ele>955.7142857142857</ele><time>2026-04-25T16:18:36Z</time></trkpt><trkpt lat="43.760800539592495" lon="7.055215018903063"><ele>955.1428571428571</ele><time>2026-04-25T16:18:37Z</time></trkpt><trkpt lat="43.76076146970314" lon="7.055302644620292"><ele>954.5714285714286</ele><time>2026-04-25T16:18:38Z</time></trkpt><trkpt lat="43.76071348229608" lon="7.055365984442681"><ele>954.0</ele><time>2026-04-25T16:18:39Z</time></trkpt><trkpt lat="43.76067662466933" lon="7.055439204198515"><ele>954.0</ele><time>2026-04-25T16:18:40Z</time></trkpt><trkpt lat="43.76061263274018" lon="7.055488103535905"><ele>953.9999999999999</ele><time>2026-04-25T16:18:41Z</time></trkpt><trkpt lat="43.76053485123119" lon="7.055506597411102"><ele>954.0</ele><time>2026-04-25T16:18:42Z</time></trkpt><trkpt lat="43.76045607870717" lon="7.055531883138662"><ele>954.0</ele><time>2026-04-25T16:18:43Z</time></trkpt><trkpt lat="43.76039176035235" lon="7.05552294053928"><ele>953.9999999999999</ele><time>2026-04-25T16:18:44Z</time></trkpt><trkpt lat="43.76031850171699" lon="7.055484959411939"><ele>954.0</ele><time>2026-04-25T16:18:44.999Z</time></trkpt><trkpt lat="43.760251963104245" lon="7.055447090366631"><ele>954.0</ele><time>2026-04-25T16:18:45.999Z</time></trkpt><trkpt lat="43.760161621458046" lon="7.055413977364309"><ele>953.5</ele><time>2026-04-25T16:18:46.999Z</time></trkpt><trkpt lat="43.76006582423569" lon="7.055383116186569"><ele>953.0</ele><time>2026-04-25T16:18:47.999Z</time></trkpt><trkpt lat="43.759983525720756" lon="7.055316863899071"><ele>952.5</ele><time>2026-04-25T16:18:48.999Z</time></trkpt><trkpt lat="43.759896472675145" lon="7.055262694783631"><ele>952.0</ele><time>2026-04-25T16:18:49.999Z</time></trkpt><trkpt lat="43.75982987935684" lon="7.055215718761893"><ele>951.5</ele><time>2026-04-25T16:18:50.999Z</time></trkpt><trkpt lat="43.759761325012" lon="7.055207867811803"><ele>951.0</ele><time>2026-04-25T16:18:51.999Z</time></trkpt><trkpt lat="43.75969797382953" lon="7.055249284772449"><ele>951.0</ele><time>2026-04-25T16:18:52.999Z</time></trkpt><trkpt lat="43.759618282063656" lon="7.055314207571104"><ele>951.0</ele><time>2026-04-25T16:18:53.999Z</time></trkpt><trkpt lat="43.75952731007498" lon="7.0553891492829495"><ele>951.0</ele><time>2026-04-25T16:18:54.999Z</time></trkpt><trkpt lat="43.75946476950499" lon="7.05545333799941"><ele>951.0</ele><time>2026-04-25T16:18:55.999Z</time></trkpt><trkpt lat="43.759465078908335" lon="7.055544833606306"><ele>951.0</ele><time>2026-04-25T16:18:57.999Z</time></trkpt><trkpt lat="43.75951999259403" lon="7.055605684813746"><ele>951.0</ele><time>2026-04-25T16:18:58.999Z</time></trkpt><trkpt lat="43.75961044457072" lon="7.055619897783771"><ele>951.0</ele><time>2026-04-25T16:18:59.999Z</time></trkpt><trkpt lat="43.75968807774299" lon="7.055610114597167"><ele>950.9999999999999</ele><time>2026-04-25T16:19:00.999Z</time></trkpt><trkpt lat="43.75974350329798" lon="7.055756076619414"><ele>950.9999999999999</ele><time>2026-04-25T16:19:02.999Z</time></trkpt><trkpt lat="43.759704350634784" lon="7.055906351880738"><ele>951.0</ele><time>2026-04-25T16:19:04.999Z</time></trkpt><trkpt lat="43.75969461049265" lon="7.056019551775319"><ele>951.0</ele><time>2026-04-25T16:19:05.999Z</time></trkpt><trkpt lat="43.75966941854625" lon="7.056162106338946"><ele>949.5999999999999</ele><time>2026-04-25T16:19:06.999Z</time></trkpt><trkpt lat="43.75963242183658" lon="7.056346275019728"><ele>948.1999999999999</ele><time>2026-04-25T16:19:07.999Z</time></trkpt><trkpt lat="43.75959730779822" lon="7.056484875407806"><ele>946.8000000000001</ele><time>2026-04-25T16:19:08.999Z</time></trkpt><trkpt lat="43.759609263904856" lon="7.0565967183973655"><ele>945.4000000000001</ele><time>2026-04-25T16:19:09.999Z</time></trkpt><trkpt lat="43.75965601881878" lon="7.05667393521236"><ele>944.0</ele><time>2026-04-25T16:19:10.999Z</time></trkpt><trkpt lat="43.75973083037133" lon="7.056722807715775"><ele>942.0</ele><time>2026-04-25T16:19:11.999Z</time></trkpt><trkpt lat="43.759795089782976" lon="7.056807225927502"><ele>940.0</ele><time>2026-04-25T16:19:12.999Z</time></trkpt><trkpt lat="43.75982699387561" lon="7.056948056416661"><ele>938.0</ele><time>2026-04-25T16:19:13.999Z</time></trkpt><trkpt lat="43.75986973751402" lon="7.0571151184000565"><ele>936.0</ele><time>2026-04-25T16:19:14.999Z</time></trkpt><trkpt lat="43.7599052308941" lon="7.057324154145916"><ele>934.6666666666667</ele><time>2026-04-25T16:19:15.999Z</time></trkpt><trkpt lat="43.759924787987195" lon="7.057553675339979"><ele>933.3333333333334</ele><time>2026-04-25T16:19:16.999Z</time></trkpt><trkpt lat="43.75995038707205" lon="7.057764368706794"><ele>932.0</ele><time>2026-04-25T16:19:17.999Z</time></trkpt><trkpt lat="43.75998913520345" lon="7.057936400468983"><ele>932.0</ele><time>2026-04-25T16:19:18.999Z</time></trkpt><trkpt lat="43.76001866778054" lon="7.0580971305898474"><ele>932.0</ele><time>2026-04-25T16:19:19.999Z</time></trkpt><trkpt lat="43.7600452968518" lon="7.0582682716548595"><ele>932.0</ele><time>2026-04-25T16:19:20.999Z</time></trkpt><trkpt lat="43.76007800114268" lon="7.0584512254215115"><ele>932.0</ele><time>2026-04-25T16:19:21.999Z</time></trkpt><trkpt lat="43.760112202220185" lon="7.058610042506012"><ele>931.6</ele><time>2026-04-25T16:19:22.999Z</time></trkpt><trkpt lat="43.760123496635764" lon="7.058746459798005"><ele>931.2</ele><time>2026-04-25T16:19:23.999Z</time></trkpt><trkpt lat="43.76011758547428" lon="7.0588513879202095"><ele>930.8</ele><time>2026-04-25T16:19:24.999Z</time></trkpt><trkpt lat="43.76007576080958" lon="7.058941106219863"><ele>930.4</ele><time>2026-04-25T16:19:25.999Z</time></trkpt><trkpt lat="43.75999184531623" lon="7.05902705380861"><ele>930.0</ele><time>2026-04-25T16:19:26.999Z</time></trkpt><trkpt lat="43.75990284188393" lon="7.059111365641133"><ele>929.4</ele><time>2026-04-25T16:19:27.999Z</time></trkpt><trkpt lat="43.75984171901869" lon="7.059235959829242"><ele>928.8</ele><time>2026-04-25T16:19:28.999Z</time></trkpt><trkpt lat="43.759801467331926" lon="7.059376947428522"><ele>928.2</ele><time>2026-04-25T16:19:29.999Z</time></trkpt><trkpt lat="43.75974275757298" lon="7.059510156080708"><ele>927.6</ele><time>2026-04-25T16:19:30.999Z</time></trkpt><trkpt lat="43.75966073121721" lon="7.059610258880346"><ele>927.0</ele><time>2026-04-25T16:19:31.999Z</time></trkpt><trkpt lat="43.7595835394881" lon="7.059694162872264"><ele>927.0</ele><time>2026-04-25T16:19:32.999Z</time></trkpt><trkpt lat="43.75955422856164" lon="7.0597735783733855"><ele>927.0</ele><time>2026-04-25T16:19:33.999Z</time></trkpt><trkpt lat="43.759559664727824" lon="7.059870610530469"><ele>927.0</ele><time>2026-04-25T16:19:34.999Z</time></trkpt><trkpt lat="43.75955795287088" lon="7.059996814229631"><ele>927.0</ele><time>2026-04-25T16:19:35.999Z</time></trkpt><trkpt lat="43.75954927059074" lon="7.060157462147644"><ele>927.0</ele><time>2026-04-25T16:19:36.999Z</time></trkpt><trkpt lat="43.759534878879705" lon="7.060359504367926"><ele>926.8</ele><time>2026-04-25T16:19:37.999Z</time></trkpt><trkpt lat="43.75953807626221" lon="7.060537861100613"><ele>926.6</ele><time>2026-04-25T16:19:38.999Z</time></trkpt><trkpt lat="43.75954556834181" lon="7.060693853891771"><ele>926.3999999999999</ele><time>2026-04-25T16:19:39.999Z</time></trkpt><trkpt lat="43.75955714252006" lon="7.060819464880981"><ele>926.1999999999999</ele><time>2026-04-25T16:19:40.999Z</time></trkpt><trkpt lat="43.75957135922173" lon="7.060926380892316"><ele>926.0</ele><time>2026-04-25T16:19:41.999Z</time></trkpt><trkpt lat="43.75958796949647" lon="7.061011897616302"><ele>926.0000000000001</ele><time>2026-04-25T16:19:42.999Z</time></trkpt><trkpt lat="43.75954834429794" lon="7.061154995132799"><ele>926.0</ele><time>2026-04-25T16:19:44.999Z</time></trkpt><trkpt lat="43.75948599872921" lon="7.061236030863751"><ele>926.0</ele><time>2026-04-25T16:19:46.999Z</time></trkpt><trkpt lat="43.759419369498445" lon="7.061257418097778"><ele>926.0</ele><time>2026-04-25T16:19:48.999Z</time></trkpt><trkpt lat="43.75935208296615" lon="7.061267701345927"><ele>926.0000000000001</ele><time>2026-04-25T16:19:51.998Z</time></trkpt><trkpt lat="43.75924950059617" lon="7.061333876915453"><ele>926.0</ele><time>2026-04-25T16:19:54.998Z</time></trkpt><trkpt lat="43.75918945260985" lon="7.061369168243052"><ele>924.8333333333334</ele><time>2026-04-25T16:19:55.998Z</time></trkpt><trkpt lat="43.75912517231477" lon="7.061385958411008"><ele>923.6666666666667</ele><time>2026-04-25T16:19:56.998Z</time></trkpt><trkpt lat="43.75905132478828" lon="7.061398011460197"><ele>922.5</ele><time>2026-04-25T16:19:57.998Z</time></trkpt><trkpt lat="43.75897088771" lon="7.061418498892387"><ele>921.3333333333333</ele><time>2026-04-25T16:19:58.998Z</time></trkpt><trkpt lat="43.75888235597315" lon="7.0614538691084885"><ele>920.1666666666666</ele><time>2026-04-25T16:19:59.998Z</time></trkpt><trkpt lat="43.758776418464365" lon="7.061513479923419"><ele>919.0</ele><time>2026-04-25T16:20:00.998Z</time></trkpt><trkpt lat="43.7586708880969" lon="7.061577241874492"><ele>918.8000000000001</ele><time>2026-04-25T16:20:01.998Z</time></trkpt><trkpt lat="43.7585756109577" lon="7.061646658210989"><ele>918.6000000000001</ele><time>2026-04-25T16:20:02.998Z</time></trkpt><trkpt lat="43.75848896443917" lon="7.061695868081668"><ele>918.4</ele><time>2026-04-25T16:20:03.998Z</time></trkpt><trkpt lat="43.75841602893997" lon="7.061738212914896"><ele>918.2</ele><time>2026-04-25T16:20:04.998Z</time></trkpt><trkpt lat="43.758350354592075" lon="7.061765713848133"><ele>918.0</ele><time>2026-04-25T16:20:05.998Z</time></trkpt><trkpt lat="43.75826488555253" lon="7.061674691966708"><ele>917.75</ele><time>2026-04-25T16:20:07.998Z</time></trkpt><trkpt lat="43.758151975070724" lon="7.06155903567486"><ele>917.5</ele><time>2026-04-25T16:20:09.998Z</time></trkpt><trkpt lat="43.75804616335879" lon="7.061507853632389"><ele>917.25</ele><time>2026-04-25T16:20:10.998Z</time></trkpt><trkpt lat="43.75794280417743" lon="7.061465205118293"><ele>917.0</ele><time>2026-04-25T16:20:11.998Z</time></trkpt><trkpt lat="43.7578508762787" lon="7.0614416001416425"><ele>917.0000000000001</ele><time>2026-04-25T16:20:12.998Z</time></trkpt><trkpt lat="43.75777137150343" lon="7.061426510727026"><ele>917.0</ele><time>2026-04-25T16:20:13.998Z</time></trkpt><trkpt lat="43.75770087661181" lon="7.061412088916834"><ele>917.0</ele><time>2026-04-25T16:20:14.998Z</time></trkpt><trkpt lat="43.757687265714075" lon="7.061313278873577"><ele>917.0</ele><time>2026-04-25T16:20:17.998Z</time></trkpt><trkpt lat="43.75762464533806" lon="7.061239007805289"><ele>917.0000000000001</ele><time>2026-04-25T16:20:21.998Z</time></trkpt><trkpt lat="43.757506008284686" lon="7.061227979150583"><ele>917.0</ele><time>2026-04-25T16:20:23.998Z</time></trkpt><trkpt lat="43.75740646382001" lon="7.061208600590589"><ele>916.2</ele><time>2026-04-25T16:20:25.998Z</time></trkpt><trkpt lat="43.75734210473132" lon="7.061221322205979"><ele>915.4000000000001</ele><time>2026-04-25T16:20:27.998Z</time></trkpt><trkpt lat="43.75730913988136" lon="7.06109505653481"><ele>914.5999999999999</ele><time>2026-04-25T16:20:31Z</time></trkpt><trkpt lat="43.75718818564109" lon="7.061016337061754"><ele>913.8</ele><time>2026-04-25T16:20:34Z</time></trkpt><trkpt lat="43.757084728426555" lon="7.0609343736612855"><ele>913.0</ele><time>2026-04-25T16:20:35Z</time></trkpt><trkpt lat="43.75697757722729" lon="7.060858280702376"><ele>912.9999999999999</ele><time>2026-04-25T16:20:36Z</time></trkpt><trkpt lat="43.756895634546225" lon="7.060803152987918"><ele>913.0</ele><time>2026-04-25T16:20:37Z</time></trkpt><trkpt lat="43.75683461009335" lon="7.060731775158647"><ele>913.0</ele><time>2026-04-25T16:20:38Z</time></trkpt><trkpt lat="43.75677946076606" lon="7.060654608876789"><ele>913.0</ele><time>2026-04-25T16:20:39Z</time></trkpt><trkpt lat="43.75671729767887" lon="7.060597570755483"><ele>912.9999999999999</ele><time>2026-04-25T16:20:40Z</time></trkpt><trkpt lat="43.75666261318947" lon="7.060534091200474"><ele>913.0</ele><time>2026-04-25T16:20:42Z</time></trkpt><trkpt lat="43.756653792042364" lon="7.0604298863094765"><ele>913.2</ele><time>2026-04-25T16:20:45Z</time></trkpt><trkpt lat="43.756616205941434" lon="7.060328211467886"><ele>913.4</ele><time>2026-04-25T16:20:47Z</time></trkpt><trkpt lat="43.75652666303554" lon="7.060291026425629"><ele>913.6000000000001</ele><time>2026-04-25T16:20:49Z</time></trkpt><trkpt lat="43.75648104498741" lon="7.060170026406616"><ele>913.8000000000001</ele><time>2026-04-25T16:20:52.999Z</time></trkpt><trkpt lat="43.75638909632736" lon="7.060075496764564"><ele>914.0</ele><time>2026-04-25T16:20:54.999Z</time></trkpt><trkpt lat="43.7563055503707" lon="7.059994259341883"><ele>914.6666666666667</ele><time>2026-04-25T16:20:56.999Z</time></trkpt><trkpt lat="43.756237049411816" lon="7.059948437108176"><ele>915.3333333333334</ele><time>2026-04-25T16:20:58.999Z</time></trkpt><trkpt lat="43.75621103367296" lon="7.059863545655076"><ele>916.0</ele><time>2026-04-25T16:21:00.999Z</time></trkpt><trkpt lat="43.75620083256291" lon="7.059719497844399"><ele>916.6666666666667</ele><time>2026-04-25T16:21:03.999Z</time></trkpt><trkpt lat="43.75617156892008" lon="7.059603509226426"><ele>917.3333333333334</ele><time>2026-04-25T16:21:04.999Z</time></trkpt><trkpt lat="43.756129813139786" lon="7.059460465542042"><ele>918.0</ele><time>2026-04-25T16:21:05.999Z</time></trkpt><trkpt lat="43.756083000254925" lon="7.059330772951988"><ele>918.0</ele><time>2026-04-25T16:21:06.999Z</time></trkpt><trkpt lat="43.756058066329004" lon="7.0592350347175"><ele>918.0</ele><time>2026-04-25T16:21:07.999Z</time></trkpt><trkpt lat="43.75611385139238" lon="7.059055538217889"><ele>918.0</ele><time>2026-04-25T16:21:09.999Z</time></trkpt><trkpt lat="43.756171407975955" lon="7.058948666871443"><ele>918.0</ele><time>2026-04-25T16:21:10.999Z</time></trkpt><trkpt lat="43.75624461247803" lon="7.058832907932839"><ele>918.0</ele><time>2026-04-25T16:21:11.999Z</time></trkpt><trkpt lat="43.756306944503606" lon="7.058682029857284"><ele>918.2</ele><time>2026-04-25T16:21:12.999Z</time></trkpt><trkpt lat="43.75635396082733" lon="7.058515158205978"><ele>918.4</ele><time>2026-04-25T16:21:13.999Z</time></trkpt><trkpt lat="43.7563802456206" lon="7.058380176170881"><ele>918.6000000000001</ele><time>2026-04-25T16:21:14.999Z</time></trkpt><trkpt lat="43.7563884769674" lon="7.058276358997539"><ele>918.8000000000001</ele><time>2026-04-25T16:21:15.999Z</time></trkpt><trkpt lat="43.756317460060316" lon="7.058147343881332"><ele>919.0</ele><time>2026-04-25T16:21:17.999Z</time></trkpt><trkpt lat="43.756227981852824" lon="7.058105380468084"><ele>919.8333333333333</ele><time>2026-04-25T16:21:19.999Z</time></trkpt><trkpt lat="43.756173178076054" lon="7.057957130204259"><ele>920.6666666666666</ele><time>2026-04-25T16:21:21.999Z</time></trkpt><trkpt lat="43.75612606497968" lon="7.057886009146277"><ele>921.5</ele><time>2026-04-25T16:21:22.999Z</time></trkpt><trkpt lat="43.75606800492578" lon="7.057801458891857"><ele>922.3333333333333</ele><time>2026-04-25T16:21:23.999Z</time></trkpt><trkpt lat="43.75602164519682" lon="7.057705621259323"><ele>923.1666666666666</ele><time>2026-04-25T16:21:24.999Z</time></trkpt><trkpt lat="43.75598616657114" lon="7.057592644555699"><ele>924.0</ele><time>2026-04-25T16:21:26.999Z</time></trkpt><trkpt lat="43.75591611686923" lon="7.057560070254155"><ele>924.8333333333334</ele><time>2026-04-25T16:21:28.999Z</time></trkpt><trkpt lat="43.755829807765544" lon="7.057517941483805"><ele>925.6666666666667</ele><time>2026-04-25T16:21:30.999Z</time></trkpt><trkpt lat="43.7557626468675" lon="7.057461821427037"><ele>926.5</ele><time>2026-04-25T16:21:32.999Z</time></trkpt><trkpt lat="43.7558333063563" lon="7.057549008614262"><ele>927.3333333333334</ele><time>2026-04-25T16:21:48.999Z</time></trkpt><trkpt lat="43.75577452596219" lon="7.0574465801533774"><ele>928.1666666666667</ele><time>2026-04-25T16:22:05.998Z</time></trkpt><trkpt lat="43.755698096846935" lon="7.057398770468266"><ele>929.0</ele><time>2026-04-25T16:22:07.998Z</time></trkpt><trkpt lat="43.755610316638595" lon="7.057371276187149"><ele>929.0</ele><time>2026-04-25T16:22:09.998Z</time></trkpt><trkpt lat="43.755549847788025" lon="7.057328551200303"><ele>929.0000000000001</ele><time>2026-04-25T16:22:13.998Z</time></trkpt><trkpt lat="43.755599952324864" lon="7.057385031773286"><ele>929.0</ele><time>2026-04-25T16:22:28.998Z</time></trkpt><trkpt lat="43.755670079033834" lon="7.057417315386411"><ele>929.0</ele><time>2026-04-25T16:22:30.998Z</time></trkpt><trkpt lat="43.755737389044235" lon="7.057456351493637"><ele>929.0000000000001</ele><time>2026-04-25T16:22:32.998Z</time></trkpt><trkpt lat="43.75579632599475" lon="7.057538783795192"><ele>929.0</ele><time>2026-04-25T16:22:34.998Z</time></trkpt><trkpt lat="43.75584902273806" lon="7.057626943805713"><ele>929.0</ele><time>2026-04-25T16:22:37Z</time></trkpt><trkpt lat="43.75581549975416" lon="7.057731491699024"><ele>929.0000000000001</ele><time>2026-04-25T16:22:41Z</time></trkpt><trkpt lat="43.75574549933395" lon="7.057763274844139"><ele>929.0</ele><time>2026-04-25T16:22:42Z</time></trkpt><trkpt lat="43.75567999489489" lon="7.057793632170031"><ele>929.0</ele><time>2026-04-25T16:22:43Z</time></trkpt><trkpt lat="43.75560777830216" lon="7.057815181319748"><ele>929.0</ele><time>2026-04-25T16:22:44Z</time></trkpt><trkpt lat="43.75552962142666" lon="7.05781126658992"><ele>929.0000000000001</ele><time>2026-04-25T16:22:45Z</time></trkpt><trkpt lat="43.75542431614543" lon="7.057773154350255"><ele>929.0</ele><time>2026-04-25T16:22:46Z</time></trkpt><trkpt lat="43.75533780177503" lon="7.057733550803114"><ele>929.0000000000001</ele><time>2026-04-25T16:22:47Z</time></trkpt><trkpt lat="43.75528185916582" lon="7.057824200573788"><ele>929.0</ele><time>2026-04-25T16:22:49Z</time></trkpt><trkpt lat="43.75524490800698" lon="7.05790439578363"><ele>929.0</ele><time>2026-04-25T16:22:50Z</time></trkpt><trkpt lat="43.75513997067799" lon="7.057935854074399"><ele>929.0</ele><time>2026-04-25T16:22:52Z</time></trkpt><trkpt lat="43.75506429195837" lon="7.057953370961236"><ele>929.0000000000001</ele><time>2026-04-25T16:22:53Z</time></trkpt><trkpt lat="43.75498921643907" lon="7.057943350640727"><ele>929.0</ele><time>2026-04-25T16:22:54Z</time></trkpt><trkpt lat="43.754924735594535" lon="7.057909064737362"><ele>930.8000000000001</ele><time>2026-04-25T16:22:55Z</time></trkpt><trkpt lat="43.75483205601516" lon="7.057975721416258"><ele>932.6000000000001</ele><time>2026-04-25T16:22:57Z</time></trkpt><trkpt lat="43.75477904423321" lon="7.058026245782127"><ele>934.4</ele><time>2026-04-25T16:22:58Z</time></trkpt><trkpt lat="43.754708042965106" lon="7.05806481266125"><ele>936.2</ele><time>2026-04-25T16:22:59Z</time></trkpt><trkpt lat="43.75461298462053" lon="7.058050998962796"><ele>938.0</ele><time>2026-04-25T16:23:00.999Z</time></trkpt><trkpt lat="43.75459304995157" lon="7.057887604608372"><ele>938.0000000000001</ele><time>2026-04-25T16:23:02.999Z</time></trkpt><trkpt lat="43.754538458847804" lon="7.057766179695234"><ele>938.0</ele><time>2026-04-25T16:23:04.999Z</time></trkpt><trkpt lat="43.75450174230847" lon="7.057669909786066"><ele>938.0</ele><time>2026-04-25T16:23:05.999Z</time></trkpt><trkpt lat="43.75445154491582" lon="7.057559842026496"><ele>938.0</ele><time>2026-04-25T16:23:06.999Z</time></trkpt><trkpt lat="43.75439176498004" lon="7.057477575509548"><ele>938.0000000000001</ele><time>2026-04-25T16:23:07.999Z</time></trkpt><trkpt lat="43.75434136871814" lon="7.057391487585721"><ele>938.0</ele><time>2026-04-25T16:23:08.999Z</time></trkpt><trkpt lat="43.75430650772011" lon="7.057301004175802"><ele>938.6666666666667</ele><time>2026-04-25T16:23:09.999Z</time></trkpt><trkpt lat="43.75424411560158" lon="7.057219138239496"><ele>939.3333333333334</ele><time>2026-04-25T16:23:10.999Z</time></trkpt><trkpt lat="43.754188175186776" lon="7.0571443489392784"><ele>940.0</ele><time>2026-04-25T16:23:11.999Z</time></trkpt><trkpt lat="43.7541637812617" lon="7.057059737696193"><ele>940.6666666666667</ele><time>2026-04-25T16:23:12.999Z</time></trkpt><trkpt lat="43.754172561354814" lon="7.056954523297088"><ele>941.3333333333334</ele><time>2026-04-25T16:23:13.999Z</time></trkpt><trkpt lat="43.75420138402093" lon="7.056837729303775"><ele>942.0</ele><time>2026-04-25T16:23:14.999Z</time></trkpt><trkpt lat="43.7542627555585" lon="7.056702261992055"><ele>942.0</ele><time>2026-04-25T16:23:15.999Z</time></trkpt><trkpt lat="43.75435814224716" lon="7.056571554632318"><ele>942.0</ele><time>2026-04-25T16:23:16.999Z</time></trkpt><trkpt lat="43.75445839968117" lon="7.056443788927709"><ele>942.0</ele><time>2026-04-25T16:23:17.999Z</time></trkpt><trkpt lat="43.75452786413509" lon="7.056306730379942"><ele>942.0</ele><time>2026-04-25T16:23:18.999Z</time></trkpt><trkpt lat="43.754577345526364" lon="7.05613935806302"><ele>941.5</ele><time>2026-04-25T16:23:19.999Z</time></trkpt><trkpt lat="43.75465537771784" lon="7.055981043486471"><ele>941.0</ele><time>2026-04-25T16:23:20.999Z</time></trkpt><trkpt lat="43.75474432346288" lon="7.055876719166753"><ele>940.5</ele><time>2026-04-25T16:23:21.999Z</time></trkpt><trkpt lat="43.75483380419165" lon="7.0557645943231675"><ele>940.0</ele><time>2026-04-25T16:23:22.999Z</time></trkpt><trkpt lat="43.75489722768976" lon="7.055657774555334"><ele>939.4</ele><time>2026-04-25T16:23:23.999Z</time></trkpt><trkpt lat="43.75492826396457" lon="7.055542886477999"><ele>938.8</ele><time>2026-04-25T16:23:24.999Z</time></trkpt><trkpt lat="43.75493098629304" lon="7.0554542669090985"><ele>938.2</ele><time>2026-04-25T16:23:25.999Z</time></trkpt><trkpt lat="43.75488065748292" lon="7.055278051820931"><ele>937.6</ele><time>2026-04-25T16:23:27.999Z</time></trkpt><trkpt lat="43.75488307701407" lon="7.055114789874679"><ele>937.0</ele><time>2026-04-25T16:23:29.999Z</time></trkpt><trkpt lat="43.75494207003513" lon="7.054961398637655"><ele>937.2</ele><time>2026-04-25T16:23:31.999Z</time></trkpt><trkpt lat="43.75492472187548" lon="7.0548696866281375"><ele>937.4000000000001</ele><time>2026-04-25T16:23:32.999Z</time></trkpt><trkpt lat="43.75490272601532" lon="7.054748454371058"><ele>937.5999999999999</ele><time>2026-04-25T16:23:34.999Z</time></trkpt><trkpt lat="43.755001791171104" lon="7.054621823989871"><ele>937.8</ele><time>2026-04-25T16:23:36.999Z</time></trkpt><trkpt lat="43.75511507760215" lon="7.054519349973284"><ele>938.0</ele><time>2026-04-25T16:23:38.999Z</time></trkpt><trkpt lat="43.75523164386687" lon="7.0545032629857145"><ele>938.2</ele><time>2026-04-25T16:23:39.999Z</time></trkpt><trkpt lat="43.75536222520677" lon="7.054486646332068"><ele>938.4</ele><time>2026-04-25T16:23:40.999Z</time></trkpt><trkpt lat="43.75545765772842" lon="7.054494227305259"><ele>938.6000000000001</ele><time>2026-04-25T16:23:41.999Z</time></trkpt><trkpt lat="43.755550820236465" lon="7.054543701485049"><ele>938.8000000000001</ele><time>2026-04-25T16:23:42.999Z</time></trkpt><trkpt lat="43.755634284587686" lon="7.054568316260958"><ele>939.0</ele><time>2026-04-25T16:23:43.999Z</time></trkpt><trkpt lat="43.75570390209113" lon="7.054505612528422"><ele>939.0</ele><time>2026-04-25T16:23:44.999Z</time></trkpt><trkpt lat="43.75577707879701" lon="7.054390907327799"><ele>939.0000000000001</ele><time>2026-04-25T16:23:45.999Z</time></trkpt><trkpt lat="43.75586230826089" lon="7.054315755932101"><ele>939.0000000000001</ele><time>2026-04-25T16:23:46.999Z</time></trkpt><trkpt lat="43.75596966323987" lon="7.054295453886691"><ele>939.0</ele><time>2026-04-25T16:23:47.999Z</time></trkpt><trkpt lat="43.756042730604676" lon="7.054266538259502"><ele>939.0</ele><time>2026-04-25T16:23:48.999Z</time></trkpt><trkpt lat="43.7561594409684" lon="7.054260419849934"><ele>938.6666666666666</ele><time>2026-04-25T16:23:50.999Z</time></trkpt><trkpt lat="43.75623345752765" lon="7.0542626515750495"><ele>938.3333333333333</ele><time>2026-04-25T16:23:51.999Z</time></trkpt><trkpt lat="43.756318206782936" lon="7.054279967251824"><ele>938.0</ele><time>2026-04-25T16:23:52.999Z</time></trkpt><trkpt lat="43.75641506689946" lon="7.054293536711603"><ele>937.6666666666666</ele><time>2026-04-25T16:23:53.999Z</time></trkpt><trkpt lat="43.75650665970764" lon="7.05430466359054"><ele>937.3333333333333</ele><time>2026-04-25T16:23:54.999Z</time></trkpt><trkpt lat="43.756575198087454" lon="7.054333453079051"><ele>937.0</ele><time>2026-04-25T16:23:55.999Z</time></trkpt><trkpt lat="43.75663160856564" lon="7.05425734917182"><ele>937.2</ele><time>2026-04-25T16:23:58.999Z</time></trkpt><trkpt lat="43.75666656180626" lon="7.054119806145566"><ele>937.4000000000001</ele><time>2026-04-25T16:24:00.999Z</time></trkpt><trkpt lat="43.75674410630871" lon="7.054013493500531"><ele>937.5999999999999</ele><time>2026-04-25T16:24:02.999Z</time></trkpt><trkpt lat="43.756818578070856" lon="7.053977595279434"><ele>937.8</ele><time>2026-04-25T16:24:03.999Z</time></trkpt><trkpt lat="43.7568120482383" lon="7.053884796489391"><ele>938.0</ele><time>2026-04-25T16:24:07.998Z</time></trkpt><trkpt lat="43.75678909474018" lon="7.053735578266684"><ele>938.0000000000001</ele><time>2026-04-25T16:24:09.998Z</time></trkpt><trkpt lat="43.75683494975228" lon="7.05366318086721"><ele>938.0</ele><time>2026-04-25T16:24:10.998Z</time></trkpt><trkpt lat="43.75690021913188" lon="7.0535960515051315"><ele>938.0</ele><time>2026-04-25T16:24:11.998Z</time></trkpt><trkpt lat="43.756992771864496" lon="7.053502066209214"><ele>938.0</ele><time>2026-04-25T16:24:12.998Z</time></trkpt><trkpt lat="43.75705920368914" lon="7.053415811604603"><ele>938.0000000000001</ele><time>2026-04-25T16:24:13.998Z</time></trkpt><trkpt lat="43.757102978917864" lon="7.053325676027434"><ele>938.0</ele><time>2026-04-25T16:24:14.998Z</time></trkpt><trkpt lat="43.75715333473531" lon="7.053242275296196"><ele>937.3333333333334</ele><time>2026-04-25T16:24:15.998Z</time></trkpt><trkpt lat="43.75721535667049" lon="7.0531534421635005"><ele>936.6666666666667</ele><time>2026-04-25T16:24:16.998Z</time></trkpt><trkpt lat="43.757272070180264" lon="7.053063005114691"><ele>936.0</ele><time>2026-04-25T16:24:17.998Z</time></trkpt><trkpt lat="43.75731133670524" lon="7.052982744817178"><ele>935.3333333333333</ele><time>2026-04-25T16:24:18.998Z</time></trkpt><trkpt lat="43.75738145661209" lon="7.052908995038765"><ele>934.6666666666666</ele><time>2026-04-25T16:24:20.998Z</time></trkpt><trkpt lat="43.75729888082717" lon="7.052935502517473"><ele>934.0</ele><time>2026-04-25T16:24:24.998Z</time></trkpt><trkpt lat="43.75727893894094" lon="7.053022643545699"><ele>934.0</ele><time>2026-04-25T16:24:25.998Z</time></trkpt><trkpt lat="43.75722266865052" lon="7.053083364064791"><ele>934.0000000000001</ele><time>2026-04-25T16:24:26.998Z</time></trkpt><trkpt lat="43.757113169508955" lon="7.0531000995322"><ele>934.0000000000001</ele><time>2026-04-25T16:24:28.998Z</time></trkpt><trkpt lat="43.756991791542724" lon="7.053008341542147"><ele>934.0</ele><time>2026-04-25T16:24:30.998Z</time></trkpt><trkpt lat="43.75691782146862" lon="7.052944306851722"><ele>934.0</ele><time>2026-04-25T16:24:31.998Z</time></trkpt><trkpt lat="43.756845367427054" lon="7.0529004773434885"><ele>934.6666666666666</ele><time>2026-04-25T16:24:32.998Z</time></trkpt><trkpt lat="43.756777030929335" lon="7.052869523452124"><ele>935.3333333333333</ele><time>2026-04-25T16:24:33.998Z</time></trkpt><trkpt lat="43.7567115901391" lon="7.052848380225657"><ele>936.0</ele><time>2026-04-25T16:24:34.998Z</time></trkpt><trkpt lat="43.75660689942909" lon="7.052804510983856"><ele>936.6666666666667</ele><time>2026-04-25T16:24:36.998Z</time></trkpt><trkpt lat="43.75654588599043" lon="7.052776989843444"><ele>937.3333333333334</ele><time>2026-04-25T16:24:38.998Z</time></trkpt><trkpt lat="43.756471893597094" lon="7.052845463725387"><ele>938.0</ele><time>2026-04-25T16:24:44Z</time></trkpt><trkpt lat="43.756405298164324" lon="7.052807869872347"><ele>938.0000000000001</ele><time>2026-04-25T16:24:47Z</time></trkpt><trkpt lat="43.75642926478781" lon="7.052726307435733"><ele>938.0</ele><time>2026-04-25T16:24:52Z</time></trkpt><trkpt lat="43.75641352213768" lon="7.052588817794814"><ele>938.0</ele><time>2026-04-25T16:24:55Z</time></trkpt><trkpt lat="43.756309776973715" lon="7.052635958211965"><ele>938.0</ele><time>2026-04-25T16:25:00Z</time></trkpt><trkpt lat="43.75623235948476" lon="7.052627191353377"><ele>938.0000000000001</ele><time>2026-04-25T16:25:03Z</time></trkpt><trkpt lat="43.7562109995674" lon="7.052513591336039"><ele>938.0</ele><time>2026-04-25T16:25:06Z</time></trkpt><trkpt lat="43.756194703881064" lon="7.052416264399846"><ele>938.6666666666667</ele><time>2026-04-25T16:25:11.999Z</time></trkpt><trkpt lat="43.756144763097794" lon="7.052362430270878"><ele>939.3333333333334</ele><time>2026-04-25T16:25:22.999Z</time></trkpt><trkpt lat="43.756059580700246" lon="7.052402021949932"><ele>940.0</ele><time>2026-04-25T16:25:27.999Z</time></trkpt><trkpt lat="43.75597817735958" lon="7.05239803877879"><ele>940.6666666666667</ele><time>2026-04-25T16:25:29.999Z</time></trkpt><trkpt lat="43.75590556312817" lon="7.0523531578670795"><ele>941.3333333333334</ele><time>2026-04-25T16:25:33.999Z</time></trkpt><trkpt lat="43.75586085699724" lon="7.052245235033113"><ele>942.0</ele><time>2026-04-25T16:25:35.999Z</time></trkpt><trkpt lat="43.75580446238198" lon="7.052202836535583"><ele>944.6666666666666</ele><time>2026-04-25T16:25:37.999Z</time></trkpt><trkpt lat="43.75574776975449" lon="7.052131270328957"><ele>947.3333333333333</ele><time>2026-04-25T16:25:39.999Z</time></trkpt><trkpt lat="43.75570646188879" lon="7.052058225095732"><ele>950.0</ele><time>2026-04-25T16:25:41.999Z</time></trkpt><trkpt lat="43.755676619567105" lon="7.051974414336418"><ele>952.6666666666666</ele><time>2026-04-25T16:25:47.999Z</time></trkpt><trkpt lat="43.75569776257675" lon="7.051878634625863"><ele>955.3333333333333</ele><time>2026-04-25T16:25:53.999Z</time></trkpt><trkpt lat="43.75563017361674" lon="7.051791981144412"><ele>958.0</ele><time>2026-04-25T16:25:57.999Z</time></trkpt><trkpt lat="43.75552109097181" lon="7.051782968006608"><ele>957.9999999999999</ele><time>2026-04-25T16:25:59.999Z</time></trkpt><trkpt lat="43.75545225556955" lon="7.051797432783292"><ele>958.0</ele><time>2026-04-25T16:26:01.999Z</time></trkpt><trkpt lat="43.755390544418205" lon="7.051748744653216"><ele>958.0</ele><time>2026-04-25T16:26:14.998Z</time></trkpt><trkpt lat="43.75533281905778" lon="7.051708278838005"><ele>958.0</ele><time>2026-04-25T16:26:17.998Z</time></trkpt><trkpt lat="43.75528607027287" lon="7.051579820235978"><ele>957.9999999999999</ele><time>2026-04-25T16:26:19.998Z</time></trkpt><trkpt lat="43.755260560890314" lon="7.05146481910542"><ele>958.0</ele><time>2026-04-25T16:26:22.998Z</time></trkpt><trkpt lat="43.75524265082037" lon="7.051374310714568"><ele>958.1666666666666</ele><time>2026-04-25T16:26:25.998Z</time></trkpt><trkpt lat="43.75523357388903" lon="7.051286242319427"><ele>958.3333333333333</ele><time>2026-04-25T16:26:39.998Z</time></trkpt><trkpt lat="43.755168346718015" lon="7.051341593290274"><ele>958.5</ele><time>2026-04-25T16:26:44.998Z</time></trkpt><trkpt lat="43.755072774227536" lon="7.0513769251545435"><ele>958.6666666666667</ele><time>2026-04-25T16:26:46.998Z</time></trkpt><trkpt lat="43.75501556567929" lon="7.051419381747534"><ele>958.8333333333334</ele><time>2026-04-25T16:26:49Z</time></trkpt><trkpt lat="43.75494367401819" lon="7.05140886594262"><ele>959.0</ele><time>2026-04-25T16:26:51Z</time></trkpt><trkpt lat="43.754862480304595" lon="7.051433576207717"><ele>960.8333333333334</ele><time>2026-04-25T16:26:54Z</time></trkpt><trkpt lat="43.75476557647278" lon="7.051429079206643"><ele>962.6666666666667</ele><time>2026-04-25T16:26:56Z</time></trkpt><trkpt lat="43.754652264817686" lon="7.051410158536316"><ele>964.5</ele><time>2026-04-25T16:26:58Z</time></trkpt><trkpt lat="43.754565073026875" lon="7.05139666924829"><ele>966.3333333333333</ele><time>2026-04-25T16:27:00Z</time></trkpt><trkpt lat="43.754507185094035" lon="7.05134770628318"><ele>968.1666666666666</ele><time>2026-04-25T16:27:05Z</time></trkpt><trkpt lat="43.75443968416163" lon="7.051368197703787"><ele>970.0</ele><time>2026-04-25T16:27:09Z</time></trkpt><trkpt lat="43.754388756500454" lon="7.051310136020707"><ele>969.9999999999999</ele><time>2026-04-25T16:27:17.999Z</time></trkpt><trkpt lat="43.75435857295235" lon="7.051230084538481"><ele>970.0</ele><time>2026-04-25T16:27:21.999Z</time></trkpt><trkpt lat="43.754366907988526" lon="7.051140137165324"><ele>970.0</ele><time>2026-04-25T16:27:23.999Z</time></trkpt><trkpt lat="43.7543976052552" lon="7.051061511154733"><ele>970.0</ele><time>2026-04-25T16:27:24.999Z</time></trkpt><trkpt lat="43.75446042083435" lon="7.0509308266986075"><ele>969.9999999999999</ele><time>2026-04-25T16:27:26.999Z</time></trkpt><trkpt lat="43.754499049261774" lon="7.050782101355621"><ele>970.0</ele><time>2026-04-25T16:27:28.999Z</time></trkpt><trkpt lat="43.75451231913799" lon="7.050689801901068"><ele>970.4</ele><time>2026-04-25T16:27:29.999Z</time></trkpt><trkpt lat="43.754523717200726" lon="7.050566101229064"><ele>970.8</ele><time>2026-04-25T16:27:30.999Z</time></trkpt><trkpt lat="43.75454576769084" lon="7.0504075212624615"><ele>971.2</ele><time>2026-04-25T16:27:31.999Z</time></trkpt><trkpt lat="43.75457216334798" lon="7.050236443645145"><ele>971.6</ele><time>2026-04-25T16:27:32.999Z</time></trkpt><trkpt lat="43.75458471768925" lon="7.050091539236638"><ele>972.0</ele><time>2026-04-25T16:27:33.999Z</time></trkpt><trkpt lat="43.754600447741026" lon="7.0499736862308096"><ele>971.6666666666666</ele><time>2026-04-25T16:27:34.999Z</time></trkpt><trkpt lat="43.75462024537238" lon="7.049883305358423"><ele>971.3333333333333</ele><time>2026-04-25T16:27:35.999Z</time></trkpt><trkpt lat="43.75471230967035" lon="7.049782231522933"><ele>971.0</ele><time>2026-04-25T16:27:37.999Z</time></trkpt><trkpt lat="43.754771714084924" lon="7.049731208005168"><ele>970.6666666666666</ele><time>2026-04-25T16:27:38.999Z</time></trkpt><trkpt lat="43.75482846052717" lon="7.049681214353926"><ele>970.3333333333333</ele><time>2026-04-25T16:27:39.999Z</time></trkpt><trkpt lat="43.75490703364453" lon="7.049622741625136"><ele>970.0</ele><time>2026-04-25T16:27:41.999Z</time></trkpt><trkpt lat="43.7549583045873" lon="7.04954246351642"><ele>970.0</ele><time>2026-04-25T16:27:43.999Z</time></trkpt><trkpt lat="43.755000181904514" lon="7.049430400545572"><ele>970.0</ele><time>2026-04-25T16:27:45.999Z</time></trkpt><trkpt lat="43.755020424949045" lon="7.049256001273194"><ele>970.0</ele><time>2026-04-25T16:27:47.999Z</time></trkpt><trkpt lat="43.755042325667674" lon="7.049162151877555"><ele>970.0</ele><time>2026-04-25T16:27:48.999Z</time></trkpt><trkpt lat="43.755049861002284" lon="7.04905566747413"><ele>970.0</ele><time>2026-04-25T16:27:49.999Z</time></trkpt><trkpt lat="43.75505059891122" lon="7.048937885892038"><ele>969.4</ele><time>2026-04-25T16:27:50.999Z</time></trkpt><trkpt lat="43.755055516654586" lon="7.048834159724211"><ele>968.8</ele><time>2026-04-25T16:27:51.999Z</time></trkpt><trkpt lat="43.755065409659956" lon="7.0487242035973035"><ele>968.2</ele><time>2026-04-25T16:27:52.999Z</time></trkpt><trkpt lat="43.755084373529186" lon="7.048611725486436"><ele>967.6</ele><time>2026-04-25T16:27:53.999Z</time></trkpt><trkpt lat="43.75512965802571" lon="7.048480663732806"><ele>967.0</ele><time>2026-04-25T16:27:54.999Z</time></trkpt><trkpt lat="43.75519389899992" lon="7.048338618365986"><ele>966.0</ele><time>2026-04-25T16:27:55.999Z</time></trkpt><trkpt lat="43.75525821100858" lon="7.048178440839615"><ele>965.0</ele><time>2026-04-25T16:27:56.999Z</time></trkpt><trkpt lat="43.755301204064196" lon="7.048002666324033"><ele>964.0</ele><time>2026-04-25T16:27:57.999Z</time></trkpt><trkpt lat="43.7553519478905" lon="7.0478682069234635"><ele>963.0</ele><time>2026-04-25T16:27:58.999Z</time></trkpt><trkpt lat="43.75540902636564" lon="7.047736216991292"><ele>963.0</ele><time>2026-04-25T16:27:59.999Z</time></trkpt><trkpt lat="43.755482454040845" lon="7.0476052441442985"><ele>963.0</ele><time>2026-04-25T16:28:00.999Z</time></trkpt><trkpt lat="43.75555413508488" lon="7.047472098073642"><ele>963.0</ele><time>2026-04-25T16:28:01.999Z</time></trkpt><trkpt lat="43.75563237158016" lon="7.047363946302473"><ele>963.0</ele><time>2026-04-25T16:28:02.999Z</time></trkpt><trkpt lat="43.75572618864905" lon="7.047269864049083"><ele>963.5999999999999</ele><time>2026-04-25T16:28:03.999Z</time></trkpt><trkpt lat="43.7558153848603" lon="7.047164374072431"><ele>964.1999999999999</ele><time>2026-04-25T16:28:04.999Z</time></trkpt><trkpt lat="43.75589275782042" lon="7.047064293948356"><ele>964.8</ele><time>2026-04-25T16:28:05.999Z</time></trkpt><trkpt lat="43.755956636415796" lon="7.046974676912821"><ele>965.4</ele><time>2026-04-25T16:28:06.999Z</time></trkpt><trkpt lat="43.756010801612554" lon="7.04689134185345"><ele>966.0</ele><time>2026-04-25T16:28:07.999Z</time></trkpt><trkpt lat="43.756064074261545" lon="7.046814539745289"><ele>966.1666666666666</ele><time>2026-04-25T16:28:08.999Z</time></trkpt><trkpt lat="43.75612383607421" lon="7.046749398204808"><ele>966.3333333333333</ele><time>2026-04-25T16:28:09.999Z</time></trkpt><trkpt lat="43.75617997983563" lon="7.046689349653183"><ele>966.5</ele><time>2026-04-25T16:28:10.999Z</time></trkpt><trkpt lat="43.756253886470326" lon="7.046637999399454"><ele>966.6666666666666</ele><time>2026-04-25T16:28:11.999Z</time></trkpt><trkpt lat="43.75632991072483" lon="7.0465768838682035"><ele>966.8333333333333</ele><time>2026-04-25T16:28:12.999Z</time></trkpt><trkpt lat="43.75639467764754" lon="7.046516306820493"><ele>967.0</ele><time>2026-04-25T16:28:13.999Z</time></trkpt><trkpt lat="43.756463161961" lon="7.046455534961291"><ele>967.3333333333333</ele><time>2026-04-25T16:28:14.998Z</time></trkpt><trkpt lat="43.7565436785507" lon="7.046382246105058"><ele>967.6666666666666</ele><time>2026-04-25T16:28:15.998Z</time></trkpt><trkpt lat="43.75661230999378" lon="7.0463050232498"><ele>968.0</ele><time>2026-04-25T16:28:16.998Z</time></trkpt><trkpt lat="43.756670404566236" lon="7.0462327122209265"><ele>968.3333333333333</ele><time>2026-04-25T16:28:17.998Z</time></trkpt><trkpt lat="43.75672206335719" lon="7.046171688282625"><ele>968.6666666666666</ele><time>2026-04-25T16:28:18.998Z</time></trkpt><trkpt lat="43.75677611326578" lon="7.0461207000907375"><ele>969.0</ele><time>2026-04-25T16:28:19.998Z</time></trkpt><trkpt lat="43.75685652744144" lon="7.046046560574445"><ele>969.4285714285713</ele><time>2026-04-25T16:28:22.998Z</time></trkpt><trkpt lat="43.75691674747944" lon="7.0459771936682305"><ele>969.8571428571429</ele><time>2026-04-25T16:28:25.998Z</time></trkpt><trkpt lat="43.756963214398574" lon="7.04591340196938"><ele>970.2857142857142</ele><time>2026-04-25T16:28:28.998Z</time></trkpt><trkpt lat="43.75701550219894" lon="7.045863622202092"><ele>970.7142857142857</ele><time>2026-04-25T16:28:30.998Z</time></trkpt><trkpt lat="43.75708205404872" lon="7.0457926782453715"><ele>971.1428571428571</ele><time>2026-04-25T16:28:32.998Z</time></trkpt><trkpt lat="43.757085557822656" lon="7.04570541281953"><ele>971.5714285714286</ele><time>2026-04-25T16:28:36.998Z</time></trkpt><trkpt lat="43.757141805448484" lon="7.045628667282096"><ele>972.0</ele><time>2026-04-25T16:28:41.998Z</time></trkpt><trkpt lat="43.75712711030533" lon="7.045537093859753"><ele>972.0</ele><time>2026-04-25T16:28:44.998Z</time></trkpt><trkpt lat="43.757043097637464" lon="7.0455480165762205"><ele>972.0</ele><time>2026-04-25T16:28:47.998Z</time></trkpt><trkpt lat="43.75697310489078" lon="7.045582807269284"><ele>972.0</ele><time>2026-04-25T16:28:50.998Z</time></trkpt><trkpt lat="43.75690976238701" lon="7.045525558727177"><ele>972.0</ele><time>2026-04-25T16:28:52.998Z</time></trkpt><trkpt lat="43.75684652534536" lon="7.045513098847992"><ele>972.0</ele><time>2026-04-25T16:28:55Z</time></trkpt><trkpt lat="43.756773142462194" lon="7.04546370181654"><ele>972.0</ele><time>2026-04-25T16:28:57Z</time></trkpt><trkpt lat="43.75671391895008" lon="7.045379832253156"><ele>972.0</ele><time>2026-04-25T16:28:58Z</time></trkpt><trkpt lat="43.75668721368927" lon="7.045258278965941"><ele>972.0</ele><time>2026-04-25T16:29:00Z</time></trkpt><trkpt lat="43.756659693514656" lon="7.045143589153484"><ele>972.0</ele><time>2026-04-25T16:29:03Z</time></trkpt><trkpt lat="43.75662440330137" lon="7.044979801971508"><ele>972.0</ele><time>2026-04-25T16:29:05Z</time></trkpt><trkpt lat="43.75660101161167" lon="7.0448948377196015"><ele>972.0</ele><time>2026-04-25T16:29:08Z</time></trkpt><trkpt lat="43.756670050573156" lon="7.044871283597281"><ele>972.0</ele><time>2026-04-25T16:29:10Z</time></trkpt><trkpt lat="43.756720065219476" lon="7.044779611285141"><ele>972.0</ele><time>2026-04-25T16:29:12Z</time></trkpt><trkpt lat="43.75679129729025" lon="7.044644106491605"><ele>972.0</ele><time>2026-04-25T16:29:14Z</time></trkpt><trkpt lat="43.75683002617712" lon="7.044568356509811"><ele>972.0</ele><time>2026-04-25T16:29:15Z</time></trkpt><trkpt lat="43.756902038466706" lon="7.044440185212618"><ele>972.0</ele><time>2026-04-25T16:29:16.999Z</time></trkpt><trkpt lat="43.756961353620206" lon="7.044387174243782"><ele>972.0</ele><time>2026-04-25T16:29:17.999Z</time></trkpt><trkpt lat="43.757024955657116" lon="7.044338830344511"><ele>972.0</ele><time>2026-04-25T16:29:18.999Z</time></trkpt><trkpt lat="43.75713266406739" lon="7.044272917870032"><ele>972.1666666666666</ele><time>2026-04-25T16:29:20.999Z</time></trkpt><trkpt lat="43.7572047436005" lon="7.0443002089330164"><ele>972.3333333333333</ele><time>2026-04-25T16:29:21.999Z</time></trkpt><trkpt lat="43.75729157871367" lon="7.044239049121139"><ele>972.5</ele><time>2026-04-25T16:29:23.999Z</time></trkpt><trkpt lat="43.7573333857531" lon="7.044153296531464"><ele>972.6666666666666</ele><time>2026-04-25T16:29:24.999Z</time></trkpt><trkpt lat="43.75740051490865" lon="7.044056464908731"><ele>972.8333333333333</ele><time>2026-04-25T16:29:25.999Z</time></trkpt><trkpt lat="43.7574638216523" lon="7.043961794940413"><ele>973.0</ele><time>2026-04-25T16:29:26.999Z</time></trkpt><trkpt lat="43.75750669928536" lon="7.0438553276570195"><ele>972.8333333333333</ele><time>2026-04-25T16:29:27.999Z</time></trkpt><trkpt lat="43.75753346118837" lon="7.043754337537351"><ele>972.6666666666666</ele><time>2026-04-25T16:29:28.999Z</time></trkpt><trkpt lat="43.75755796845634" lon="7.043647599024344"><ele>972.5</ele><time>2026-04-25T16:29:29.999Z</time></trkpt><trkpt lat="43.75758012334821" lon="7.043541865692175"><ele>972.3333333333333</ele><time>2026-04-25T16:29:30.999Z</time></trkpt><trkpt lat="43.757621574912285" lon="7.04345182683868"><ele>972.1666666666666</ele><time>2026-04-25T16:29:31.999Z</time></trkpt><trkpt lat="43.75767141833277" lon="7.0433760774795795"><ele>972.0</ele><time>2026-04-25T16:29:32.999Z</time></trkpt><trkpt lat="43.75772894803993" lon="7.043320105713703"><ele>971.6</ele><time>2026-04-25T16:29:33.999Z</time></trkpt><trkpt lat="43.757811108960794" lon="7.043274063638391"><ele>971.2</ele><time>2026-04-25T16:29:34.999Z</time></trkpt><trkpt lat="43.75791083110342" lon="7.04321363788234"><ele>970.8</ele><time>2026-04-25T16:29:35.999Z</time></trkpt><trkpt lat="43.75797602352711" lon="7.043166413994805"><ele>970.4</ele><time>2026-04-25T16:29:36.999Z</time></trkpt><trkpt lat="43.758056225821484" lon="7.0430910164510765"><ele>970.0</ele><time>2026-04-25T16:29:38.999Z</time></trkpt><trkpt lat="43.758071863463535" lon="7.042913129221084"><ele>970.0</ele><time>2026-04-25T16:29:40.999Z</time></trkpt><trkpt lat="43.75807150668984" lon="7.042756107408289"><ele>970.0</ele><time>2026-04-25T16:29:41.999Z</time></trkpt><trkpt lat="43.75806390505549" lon="7.042609070804107"><ele>970.0</ele><time>2026-04-25T16:29:42.999Z</time></trkpt><trkpt lat="43.758052956809486" lon="7.042480271245212"><ele>970.0</ele><time>2026-04-25T16:29:43.999Z</time></trkpt><trkpt lat="43.75808579859749" lon="7.042355600964135"><ele>970.0</ele><time>2026-04-25T16:29:45.999Z</time></trkpt><trkpt lat="43.758140863285455" lon="7.042291682486567"><ele>969.8333333333333</ele><time>2026-04-25T16:29:46.999Z</time></trkpt><trkpt lat="43.758177626639515" lon="7.042199543887368"><ele>969.6666666666666</ele><time>2026-04-25T16:29:47.999Z</time></trkpt><trkpt lat="43.758220564160496" lon="7.04209191851673"><ele>969.5</ele><time>2026-04-25T16:29:48.999Z</time></trkpt><trkpt lat="43.75827464052378" lon="7.041985392218199"><ele>969.3333333333333</ele><time>2026-04-25T16:29:49.999Z</time></trkpt><trkpt lat="43.75832841328645" lon="7.041904512737723"><ele>969.1666666666666</ele><time>2026-04-25T16:29:50.999Z</time></trkpt><trkpt lat="43.75840397017145" lon="7.041843261896894"><ele>969.0</ele><time>2026-04-25T16:29:51.999Z</time></trkpt><trkpt lat="43.75848499142131" lon="7.0418017490566305"><ele>968.8333333333334</ele><time>2026-04-25T16:29:52.999Z</time></trkpt><trkpt lat="43.75856418691291" lon="7.041766326505914"><ele>968.6666666666667</ele><time>2026-04-25T16:29:53.999Z</time></trkpt><trkpt lat="43.758639081005185" lon="7.041725352253376"><ele>968.5</ele><time>2026-04-25T16:29:54.999Z</time></trkpt><trkpt lat="43.75872431613481" lon="7.041691400458245"><ele>968.3333333333334</ele><time>2026-04-25T16:29:55.999Z</time></trkpt><trkpt lat="43.758807736957216" lon="7.041683120616011"><ele>968.1666666666667</ele><time>2026-04-25T16:29:56.999Z</time></trkpt><trkpt lat="43.75888183683448" lon="7.041687628678153"><ele>968.0</ele><time>2026-04-25T16:29:57.999Z</time></trkpt><trkpt lat="43.75896408930544" lon="7.041648822869292"><ele>967.3333333333334</ele><time>2026-04-25T16:29:59.999Z</time></trkpt><trkpt lat="43.75902865136032" lon="7.0415606048521955"><ele>966.6666666666667</ele><time>2026-04-25T16:30:02.999Z</time></trkpt><trkpt lat="43.759100332188865" lon="7.041494695616845"><ele>966.0</ele><time>2026-04-25T16:30:05.999Z</time></trkpt><trkpt lat="43.75915315532314" lon="7.04143060564163"><ele>965.3333333333333</ele><time>2026-04-25T16:30:08.999Z</time></trkpt><trkpt lat="43.759217132020254" lon="7.041395168047914"><ele>964.6666666666666</ele><time>2026-04-25T16:30:11.999Z</time></trkpt><trkpt lat="43.7592267544777" lon="7.041290025589089"><ele>964.0</ele><time>2026-04-25T16:30:14.999Z</time></trkpt><trkpt lat="43.759200265813625" lon="7.041188929588791"><ele>963.9999999999999</ele><time>2026-04-25T16:30:16.999Z</time></trkpt><trkpt lat="43.759146601003884" lon="7.041138591742862"><ele>964.0</ele><time>2026-04-25T16:30:17.999Z</time></trkpt><trkpt lat="43.759090543657294" lon="7.041088059598604"><ele>964.0</ele><time>2026-04-25T16:30:18.999Z</time></trkpt><trkpt lat="43.75903148262602" lon="7.0409942286467935"><ele>964.0</ele><time>2026-04-25T16:30:19.998Z</time></trkpt><trkpt lat="43.758976462698335" lon="7.040919473713459"><ele>963.9999999999999</ele><time>2026-04-25T16:30:20.998Z</time></trkpt><trkpt lat="43.758913308858226" lon="7.040871224103697"><ele>964.0</ele><time>2026-04-25T16:30:21.998Z</time></trkpt><trkpt lat="43.75882565103753" lon="7.040826393376245"><ele>963.9999999999999</ele><time>2026-04-25T16:30:22.998Z</time></trkpt><trkpt lat="43.7587471481092" lon="7.040798000485651"><ele>964.0</ele><time>2026-04-25T16:30:23.998Z</time></trkpt><trkpt lat="43.758687276298105" lon="7.040757897796397"><ele>964.0</ele><time>2026-04-25T16:30:24.998Z</time></trkpt><trkpt lat="43.75863086310118" lon="7.040687000302172"><ele>964.0</ele><time>2026-04-25T16:30:25.998Z</time></trkpt><trkpt lat="43.758583519423475" lon="7.040577938239956"><ele>963.9999999999999</ele><time>2026-04-25T16:30:26.998Z</time></trkpt><trkpt lat="43.758553318111325" lon="7.04045764098669"><ele>964.0</ele><time>2026-04-25T16:30:27.998Z</time></trkpt><trkpt lat="43.75853997754918" lon="7.04034535553525"><ele>963.6666666666666</ele><time>2026-04-25T16:30:28.998Z</time></trkpt><trkpt lat="43.758509715045136" lon="7.04026090860855"><ele>963.3333333333333</ele><time>2026-04-25T16:30:29.998Z</time></trkpt><trkpt lat="43.758457945097504" lon="7.040202342325827"><ele>963.0</ele><time>2026-04-25T16:30:30.998Z</time></trkpt><trkpt lat="43.75838411008583" lon="7.040154924162118"><ele>962.6666666666667</ele><time>2026-04-25T16:30:31.998Z</time></trkpt><trkpt lat="43.75832562010632" lon="7.040080377155522"><ele>962.3333333333334</ele><time>2026-04-25T16:30:32.998Z</time></trkpt><trkpt lat="43.75828431322376" lon="7.039971757853992"><ele>962.0</ele><time>2026-04-25T16:30:33.998Z</time></trkpt><trkpt lat="43.7582561959468" lon="7.039857692804689"><ele>962.0000000000001</ele><time>2026-04-25T16:30:34.998Z</time></trkpt><trkpt lat="43.758223723190675" lon="7.039760875135967"><ele>962.0</ele><time>2026-04-25T16:30:35.998Z</time></trkpt><trkpt lat="43.758204455592086" lon="7.0396670630168625"><ele>962.0</ele><time>2026-04-25T16:30:36.998Z</time></trkpt><trkpt lat="43.75822211173691" lon="7.039576346874411"><ele>962.0</ele><time>2026-04-25T16:30:37.998Z</time></trkpt><trkpt lat="43.75826090831466" lon="7.039463555857581"><ele>962.0000000000001</ele><time>2026-04-25T16:30:38.998Z</time></trkpt><trkpt lat="43.75829499306612" lon="7.039339534494575"><ele>962.0</ele><time>2026-04-25T16:30:39.998Z</time></trkpt><trkpt lat="43.758286954901614" lon="7.039229934462517"><ele>962.0</ele><time>2026-04-25T16:30:40.998Z</time></trkpt><trkpt lat="43.75824636913337" lon="7.03910517428785"><ele>962.0</ele><time>2026-04-25T16:30:41.998Z</time></trkpt><trkpt lat="43.75820425587517" lon="7.038950530990119"><ele>962.0</ele><time>2026-04-25T16:30:42.998Z</time></trkpt><trkpt lat="43.75818186243397" lon="7.0388181821067555"><ele>962.0</ele><time>2026-04-25T16:30:43.998Z</time></trkpt><trkpt lat="43.75814849237852" lon="7.038724430421075"><ele>962.0</ele><time>2026-04-25T16:30:44.998Z</time></trkpt><trkpt lat="43.758083391794266" lon="7.0386287031553225"><ele>962.0</ele><time>2026-04-25T16:30:45.998Z</time></trkpt><trkpt lat="43.758024322482434" lon="7.038551792136005"><ele>962.0</ele><time>2026-04-25T16:30:46.998Z</time></trkpt><trkpt lat="43.75803571386348" lon="7.0383963130281915"><ele>962.0</ele><time>2026-04-25T16:30:48.998Z</time></trkpt><trkpt lat="43.7580762910489" lon="7.038319547766019"><ele>962.0</ele><time>2026-04-25T16:30:49.998Z</time></trkpt><trkpt lat="43.758117249361575" lon="7.038240719955519"><ele>962.0</ele><time>2026-04-25T16:30:51.998Z</time></trkpt><trkpt lat="43.75824817788273" lon="7.0382130255847635"><ele>961.2</ele><time>2026-04-25T16:30:53.998Z</time></trkpt><trkpt lat="43.75833663333824" lon="7.03818369974875"><ele>960.4000000000001</ele><time>2026-04-25T16:30:54.998Z</time></trkpt><trkpt lat="43.758398325554374" lon="7.038165680124137"><ele>959.5999999999999</ele><time>2026-04-25T16:30:55.998Z</time></trkpt><trkpt lat="43.75847449974061" lon="7.038077620191625"><ele>958.8</ele><time>2026-04-25T16:30:57.998Z</time></trkpt><trkpt lat="43.7585411447505" lon="7.037962883374967"><ele>958.0</ele><time>2026-04-25T16:31:00Z</time></trkpt><trkpt lat="43.75862482107669" lon="7.037863628978509"><ele>957.3333333333333</ele><time>2026-04-25T16:31:02Z</time></trkpt><trkpt lat="43.75862566929367" lon="7.037701247234582"><ele>956.6666666666666</ele><time>2026-04-25T16:31:04Z</time></trkpt><trkpt lat="43.75857411344613" lon="7.037621813997972"><ele>956.0</ele><time>2026-04-25T16:31:05Z</time></trkpt><trkpt lat="43.75853733838776" lon="7.037543410952463"><ele>955.3333333333333</ele><time>2026-04-25T16:31:06Z</time></trkpt><trkpt lat="43.75852274425048" lon="7.037447095127718"><ele>954.6666666666666</ele><time>2026-04-25T16:31:07Z</time></trkpt><trkpt lat="43.75851147550532" lon="7.037357014944998"><ele>954.0</ele><time>2026-04-25T16:31:08Z</time></trkpt><trkpt lat="43.75848484043458" lon="7.037272788178563"><ele>953.1666666666666</ele><time>2026-04-25T16:31:09Z</time></trkpt><trkpt lat="43.758412213658744" lon="7.037205792658805"><ele>952.3333333333333</ele><time>2026-04-25T16:31:10Z</time></trkpt><trkpt lat="43.758316980316" lon="7.037144251578122"><ele>951.5</ele><time>2026-04-25T16:31:11Z</time></trkpt><trkpt lat="43.75823731663166" lon="7.037079541176706"><ele>950.6666666666666</ele><time>2026-04-25T16:31:12Z</time></trkpt><trkpt lat="43.758175765399294" lon="7.0370276422089635"><ele>949.8333333333333</ele><time>2026-04-25T16:31:13Z</time></trkpt><trkpt lat="43.75813716763303" lon="7.0369488626215215"><ele>949.0</ele><time>2026-04-25T16:31:14Z</time></trkpt><trkpt lat="43.75810782496956" lon="7.036825439781264"><ele>948.9999999999999</ele><time>2026-04-25T16:31:15Z</time></trkpt><trkpt lat="43.758082015108286" lon="7.036692128122435"><ele>949.0</ele><time>2026-04-25T16:31:16Z</time></trkpt><trkpt lat="43.75806858399382" lon="7.036564087362375"><ele>949.0</ele><time>2026-04-25T16:31:17Z</time></trkpt><trkpt lat="43.75807081651195" lon="7.03644224336717"><ele>949.0</ele><time>2026-04-25T16:31:18Z</time></trkpt><trkpt lat="43.75809184079989" lon="7.036329362024175"><ele>948.9999999999999</ele><time>2026-04-25T16:31:19Z</time></trkpt><trkpt lat="43.758104674697826" lon="7.036234958808339"><ele>949.0</ele><time>2026-04-25T16:31:20Z</time></trkpt><trkpt lat="43.758090758040986" lon="7.036141940309534"><ele>948.4000000000001</ele><time>2026-04-25T16:31:20.999Z</time></trkpt><trkpt lat="43.75805475146202" lon="7.036025593683837"><ele>947.8000000000001</ele><time>2026-04-25T16:31:21.999Z</time></trkpt><trkpt lat="43.758030706701916" lon="7.0359069429142"><ele>947.1999999999999</ele><time>2026-04-25T16:31:22.999Z</time></trkpt><trkpt lat="43.758033548650594" lon="7.035786367791148"><ele>946.5999999999999</ele><time>2026-04-25T16:31:23.999Z</time></trkpt><trkpt lat="43.75805246520032" lon="7.035635117948707"><ele>946.0</ele><time>2026-04-25T16:31:24.999Z</time></trkpt><trkpt lat="43.758051116637525" lon="7.035482211573563"><ele>945.0</ele><time>2026-04-25T16:31:25.999Z</time></trkpt><trkpt lat="43.758040500038724" lon="7.035332309302463"><ele>943.9999999999999</ele><time>2026-04-25T16:31:26.999Z</time></trkpt><trkpt lat="43.75802070879491" lon="7.035202994053812"><ele>942.9999999999999</ele><time>2026-04-25T16:31:27.999Z</time></trkpt><trkpt lat="43.75799541485864" lon="7.035096344983392"><ele>942.0</ele><time>2026-04-25T16:31:28.999Z</time></trkpt><trkpt lat="43.7579620720592" lon="7.034997406498781"><ele>941.0</ele><time>2026-04-25T16:31:29.999Z</time></trkpt><trkpt lat="43.757910383621606" lon="7.03490295632678"><ele>940.6666666666667</ele><time>2026-04-25T16:31:30.999Z</time></trkpt><trkpt lat="43.75785180708038" lon="7.034807153430339"><ele>940.3333333333334</ele><time>2026-04-25T16:31:31.999Z</time></trkpt><trkpt lat="43.75781140517315" lon="7.0347159122726985"><ele>940.0</ele><time>2026-04-25T16:31:32.999Z</time></trkpt><trkpt lat="43.75776130754892" lon="7.034605106875902"><ele>939.6666666666667</ele><time>2026-04-25T16:31:33.999Z</time></trkpt><trkpt lat="43.757705604419286" lon="7.034533922423499"><ele>939.3333333333334</ele><time>2026-04-25T16:31:34.999Z</time></trkpt><trkpt lat="43.757664127123874" lon="7.034441903619879"><ele>939.0</ele><time>2026-04-25T16:31:36.999Z</time></trkpt><trkpt lat="43.757653164930005" lon="7.034334880526376"><ele>939.4000000000001</ele><time>2026-04-25T16:31:39.999Z</time></trkpt><trkpt lat="43.75761303322552" lon="7.0342305383381865"><ele>939.8000000000001</ele><time>2026-04-25T16:31:41.999Z</time></trkpt><trkpt lat="43.757551547793014" lon="7.034093107125827"><ele>940.1999999999999</ele><time>2026-04-25T16:31:43.999Z</time></trkpt><trkpt lat="43.75748917241644" lon="7.033977826335439"><ele>940.5999999999999</ele><time>2026-04-25T16:31:45.999Z</time></trkpt><trkpt lat="43.75744509839884" lon="7.033884446405047"><ele>941.0</ele><time>2026-04-25T16:31:47.999Z</time></trkpt><trkpt lat="43.75736761607123" lon="7.033795976081978"><ele>941.0</ele><time>2026-04-25T16:31:49.999Z</time></trkpt><trkpt lat="43.75729436059793" lon="7.033698309373298"><ele>940.9999999999999</ele><time>2026-04-25T16:31:51.999Z</time></trkpt><trkpt lat="43.757261297409684" lon="7.033518818430787"><ele>940.9999999999999</ele><time>2026-04-25T16:31:53.999Z</time></trkpt><trkpt lat="43.75725165459702" lon="7.033384031065471"><ele>941.0</ele><time>2026-04-25T16:31:54.999Z</time></trkpt><trkpt lat="43.75723593388023" lon="7.033268340149889"><ele>941.0</ele><time>2026-04-25T16:31:55.999Z</time></trkpt><trkpt lat="43.75719432574395" lon="7.033181361946398"><ele>941.4</ele><time>2026-04-25T16:31:56.999Z</time></trkpt><trkpt lat="43.75711435140588" lon="7.033112410688692"><ele>941.8</ele><time>2026-04-25T16:31:57.999Z</time></trkpt><trkpt lat="43.75702596663897" lon="7.033026264049486"><ele>942.1999999999999</ele><time>2026-04-25T16:31:58.999Z</time></trkpt><trkpt lat="43.75696184245604" lon="7.032937059220111"><ele>942.5999999999999</ele><time>2026-04-25T16:31:59.999Z</time></trkpt><trkpt lat="43.756949671993794" lon="7.032824932008283"><ele>943.0</ele><time>2026-04-25T16:32:00.999Z</time></trkpt><trkpt lat="43.75692737978968" lon="7.0327132422671355"><ele>943.0</ele><time>2026-04-25T16:32:01.999Z</time></trkpt><trkpt lat="43.75687662839961" lon="7.032622462226505"><ele>943.0</ele><time>2026-04-25T16:32:02.999Z</time></trkpt><trkpt lat="43.75681319265751" lon="7.032523010361089"><ele>943.0</ele><time>2026-04-25T16:32:03.999Z</time></trkpt><trkpt lat="43.75674138192366" lon="7.032431080943096"><ele>943.0</ele><time>2026-04-25T16:32:04.999Z</time></trkpt><trkpt lat="43.75670983924786" lon="7.032310168206105"><ele>943.0</ele><time>2026-04-25T16:32:05.999Z</time></trkpt><trkpt lat="43.75664641130158" lon="7.0322070391422"><ele>943.2</ele><time>2026-04-25T16:32:06.999Z</time></trkpt><trkpt lat="43.75655729238858" lon="7.032132267949416"><ele>943.4</ele><time>2026-04-25T16:32:07.999Z</time></trkpt><trkpt lat="43.75652989796474" lon="7.032033661607179"><ele>943.6000000000001</ele><time>2026-04-25T16:32:08.999Z</time></trkpt><trkpt lat="43.7565223321903" lon="7.031913604574287"><ele>943.8000000000001</ele><time>2026-04-25T16:32:09.999Z</time></trkpt><trkpt lat="43.756463641505626" lon="7.031793980031281"><ele>944.0</ele><time>2026-04-25T16:32:10.999Z</time></trkpt><trkpt lat="43.75643428966025" lon="7.031658406776663"><ele>944.4000000000001</ele><time>2026-04-25T16:32:11.999Z</time></trkpt><trkpt lat="43.756423912875654" lon="7.031526763951029"><ele>944.8000000000001</ele><time>2026-04-25T16:32:12.999Z</time></trkpt><trkpt lat="43.756418509251844" lon="7.0313934135549925"><ele>945.1999999999999</ele><time>2026-04-25T16:32:13.999Z</time></trkpt><trkpt lat="43.75638395613938" lon="7.031267049532954"><ele>945.5999999999999</ele><time>2026-04-25T16:32:14.999Z</time></trkpt><trkpt lat="43.75637165272458" lon="7.031140105014637"><ele>946.0</ele><time>2026-04-25T16:32:15.999Z</time></trkpt><trkpt lat="43.75639547142327" lon="7.031007228926239"><ele>946.0</ele><time>2026-04-25T16:32:16.999Z</time></trkpt><trkpt lat="43.7564147529374" lon="7.030855813194307"><ele>945.9999999999999</ele><time>2026-04-25T16:32:17.999Z</time></trkpt><trkpt lat="43.7564086678236" lon="7.03071025460652"><ele>945.9999999999999</ele><time>2026-04-25T16:32:18.999Z</time></trkpt><trkpt lat="43.75638636652389" lon="7.030583851852215"><ele>946.0</ele><time>2026-04-25T16:32:19.999Z</time></trkpt><trkpt lat="43.75634125129092" lon="7.030474531223622"><ele>946.0</ele><time>2026-04-25T16:32:20.999Z</time></trkpt><trkpt lat="43.756277359092515" lon="7.030369815088219"><ele>945.6666666666666</ele><time>2026-04-25T16:32:21.999Z</time></trkpt><trkpt lat="43.756201636037055" lon="7.030241412388593"><ele>945.3333333333333</ele><time>2026-04-25T16:32:22.999Z</time></trkpt><trkpt lat="43.75614152248443" lon="7.030131861835762"><ele>945.0</ele><time>2026-04-25T16:32:23.999Z</time></trkpt><trkpt lat="43.756097704513465" lon="7.0300345981915395"><ele>944.6666666666667</ele><time>2026-04-25T16:32:24.998Z</time></trkpt><trkpt lat="43.756068379083" lon="7.029941862944476"><ele>944.3333333333334</ele><time>2026-04-25T16:32:25.998Z</time></trkpt><trkpt lat="43.75603937739061" lon="7.0298515822483285"><ele>944.0</ele><time>2026-04-25T16:32:26.998Z</time></trkpt><trkpt lat="43.75600837921977" lon="7.029727475346244"><ele>943.5</ele><time>2026-04-25T16:32:28.998Z</time></trkpt><trkpt lat="43.75612166085241" lon="7.029595582647475"><ele>943.0</ele><time>2026-04-25T16:32:30.998Z</time></trkpt><trkpt lat="43.756200437650826" lon="7.029518633807132"><ele>942.5</ele><time>2026-04-25T16:32:31.998Z</time></trkpt><trkpt lat="43.75627877403437" lon="7.02942398218833"><ele>942.0</ele><time>2026-04-25T16:32:32.998Z</time></trkpt><trkpt lat="43.75635166861535" lon="7.029320000713539"><ele>942.0</ele><time>2026-04-25T16:32:33.998Z</time></trkpt><trkpt lat="43.75641966772946" lon="7.029235342415834"><ele>942.0</ele><time>2026-04-25T16:32:34.998Z</time></trkpt><trkpt lat="43.756485565885434" lon="7.0291668157634275"><ele>942.0</ele><time>2026-04-25T16:32:35.998Z</time></trkpt><trkpt lat="43.75655485842369" lon="7.029126382705966"><ele>942.0</ele><time>2026-04-25T16:32:36.998Z</time></trkpt><trkpt lat="43.75662769022112" lon="7.029113973720911"><ele>942.0</ele><time>2026-04-25T16:32:37.998Z</time></trkpt><trkpt lat="43.75671395561177" lon="7.029122902015307"><ele>942.0</ele><time>2026-04-25T16:32:38.998Z</time></trkpt><trkpt lat="43.756807832924515" lon="7.029110932686184"><ele>941.5</ele><time>2026-04-25T16:32:39.998Z</time></trkpt><trkpt lat="43.756895298372804" lon="7.029065495653224"><ele>941.0</ele><time>2026-04-25T16:32:40.998Z</time></trkpt><trkpt lat="43.756973997072066" lon="7.029020537693289"><ele>940.5</ele><time>2026-04-25T16:32:41.998Z</time></trkpt><trkpt lat="43.757053583161245" lon="7.029002395805756"><ele>940.0</ele><time>2026-04-25T16:32:42.998Z</time></trkpt><trkpt lat="43.75711327868949" lon="7.028972694821366"><ele>939.5</ele><time>2026-04-25T16:32:43.998Z</time></trkpt><trkpt lat="43.75714399682507" lon="7.028889458745002"><ele>939.0</ele><time>2026-04-25T16:32:44.998Z</time></trkpt><trkpt lat="43.75713807026631" lon="7.028749702244751"><ele>939.0</ele><time>2026-04-25T16:32:45.998Z</time></trkpt><trkpt lat="43.75713812713979" lon="7.02859375742176"><ele>939.0</ele><time>2026-04-25T16:32:46.998Z</time></trkpt><trkpt lat="43.75716407667109" lon="7.02843782460845"><ele>939.0</ele><time>2026-04-25T16:32:47.998Z</time></trkpt><trkpt lat="43.75720158968092" lon="7.028286758791225"><ele>939.0</ele><time>2026-04-25T16:32:48.998Z</time></trkpt><trkpt lat="43.7572219055136" lon="7.028139204157533"><ele>939.0</ele><time>2026-04-25T16:32:49.998Z</time></trkpt><trkpt lat="43.75721546696504" lon="7.027985368328593"><ele>939.0000000000001</ele><time>2026-04-25T16:32:50.998Z</time></trkpt><trkpt lat="43.7571895945997" lon="7.027818595157997"><ele>939.0000000000001</ele><time>2026-04-25T16:32:51.998Z</time></trkpt><trkpt lat="43.75717167729254" lon="7.027686377986621"><ele>939.0</ele><time>2026-04-25T16:32:52.998Z</time></trkpt><trkpt lat="43.757176830787955" lon="7.027597779549793"><ele>939.0</ele><time>2026-04-25T16:32:53.998Z</time></trkpt><trkpt lat="43.75723048460115" lon="7.027516200578894"><ele>939.1666666666666</ele><time>2026-04-25T16:32:54.998Z</time></trkpt><trkpt lat="43.75728742970928" lon="7.027449801056802"><ele>939.3333333333333</ele><time>2026-04-25T16:32:55.998Z</time></trkpt><trkpt lat="43.75733683822023" lon="7.027383614736884"><ele>939.5</ele><time>2026-04-25T16:32:56.998Z</time></trkpt><trkpt lat="43.757388891956175" lon="7.027314312481593"><ele>939.6666666666666</ele><time>2026-04-25T16:32:57.998Z</time></trkpt><trkpt lat="43.757458731736584" lon="7.027268466084624"><ele>939.8333333333333</ele><time>2026-04-25T16:32:58.998Z</time></trkpt><trkpt lat="43.75754701638182" lon="7.027261447809558"><ele>940.0</ele><time>2026-04-25T16:32:59.998Z</time></trkpt><trkpt lat="43.75761144973512" lon="7.027229108614049"><ele>939.9999999999999</ele><time>2026-04-25T16:33:00.998Z</time></trkpt><trkpt lat="43.75764576065974" lon="7.027148131946795"><ele>940.0</ele><time>2026-04-25T16:33:01.998Z</time></trkpt><trkpt lat="43.757630053483076" lon="7.0270472258223"><ele>940.0</ele><time>2026-04-25T16:33:02.998Z</time></trkpt><trkpt lat="43.757574702469235" lon="7.026961491105068"><ele>940.0</ele><time>2026-04-25T16:33:03.998Z</time></trkpt><trkpt lat="43.75750991412495" lon="7.026878337055052"><ele>939.9999999999999</ele><time>2026-04-25T16:33:04.998Z</time></trkpt><trkpt lat="43.75747268155425" lon="7.0267780162465305"><ele>940.0</ele><time>2026-04-25T16:33:06Z</time></trkpt><trkpt lat="43.75747136535438" lon="7.026660739372552"><ele>939.6</ele><time>2026-04-25T16:33:07Z</time></trkpt><trkpt lat="43.7574711417173" lon="7.0265553465561075"><ele>939.2</ele><time>2026-04-25T16:33:08Z</time></trkpt><trkpt lat="43.757429564431156" lon="7.026470402759585"><ele>938.8</ele><time>2026-04-25T16:33:09Z</time></trkpt><trkpt lat="43.75735657550815" lon="7.026375955368191"><ele>938.4</ele><time>2026-04-25T16:33:10Z</time></trkpt><trkpt lat="43.75725568822328" lon="7.02627123603045"><ele>938.0</ele><time>2026-04-25T16:33:11Z</time></trkpt><trkpt lat="43.7571427238437" lon="7.026146186905385"><ele>938.0</ele><time>2026-04-25T16:33:12Z</time></trkpt><trkpt lat="43.75704946650161" lon="7.0260237522553854"><ele>938.0</ele><time>2026-04-25T16:33:13Z</time></trkpt><trkpt lat="43.75695524340191" lon="7.025914827844502"><ele>938.0</ele><time>2026-04-25T16:33:14Z</time></trkpt><trkpt lat="43.75686397865868" lon="7.025826816568501"><ele>938.0</ele><time>2026-04-25T16:33:15Z</time></trkpt><trkpt lat="43.75677454481189" lon="7.025751084393437"><ele>938.0</ele><time>2026-04-25T16:33:16Z</time></trkpt><trkpt lat="43.75667345379775" lon="7.02565788504043"><ele>938.0</ele><time>2026-04-25T16:33:17Z</time></trkpt><trkpt lat="43.75658059620768" lon="7.025557525170717"><ele>938.0</ele><time>2026-04-25T16:33:18Z</time></trkpt><trkpt lat="43.75649109849041" lon="7.025479774263172"><ele>938.0</ele><time>2026-04-25T16:33:19Z</time></trkpt><trkpt lat="43.75637732894689" lon="7.025439275659207"><ele>938.0</ele><time>2026-04-25T16:33:20Z</time></trkpt><trkpt lat="43.75626459936305" lon="7.025385796808956"><ele>938.0</ele><time>2026-04-25T16:33:21Z</time></trkpt><trkpt lat="43.75616324386947" lon="7.025307477950723"><ele>938.0</ele><time>2026-04-25T16:33:22Z</time></trkpt><trkpt lat="43.756059593227185" lon="7.025210041024943"><ele>938.0</ele><time>2026-04-25T16:33:23Z</time></trkpt><trkpt lat="43.755945469561084" lon="7.0250874940978845"><ele>938.5999999999999</ele><time>2026-04-25T16:33:24Z</time></trkpt><trkpt lat="43.75583241103142" lon="7.02497490440878"><ele>939.1999999999999</ele><time>2026-04-25T16:33:25Z</time></trkpt><trkpt lat="43.75573202515531" lon="7.024890143721383"><ele>939.8</ele><time>2026-04-25T16:33:26Z</time></trkpt><trkpt lat="43.75564491246815" lon="7.024832408137876"><ele>940.4</ele><time>2026-04-25T16:33:27Z</time></trkpt><trkpt lat="43.75556035140978" lon="7.024791409722592"><ele>941.0</ele><time>2026-04-25T16:33:27.999Z</time></trkpt><trkpt lat="43.75548534484881" lon="7.024790935467925"><ele>941.0000000000001</ele><time>2026-04-25T16:33:28.999Z</time></trkpt><trkpt lat="43.755408918443244" lon="7.024812482473166"><ele>941.0</ele><time>2026-04-25T16:33:29.999Z</time></trkpt><trkpt lat="43.755343320058564" lon="7.024809662554686"><ele>941.0</ele><time>2026-04-25T16:33:30.999Z</time></trkpt><trkpt lat="43.75528623118611" lon="7.024751695995408"><ele>941.0</ele><time>2026-04-25T16:33:31.999Z</time></trkpt><trkpt lat="43.755232441937814" lon="7.024659845040719"><ele>941.0000000000001</ele><time>2026-04-25T16:33:32.999Z</time></trkpt><trkpt lat="43.75516453337223" lon="7.024599346197635"><ele>941.0</ele><time>2026-04-25T16:33:33.999Z</time></trkpt><trkpt lat="43.755093798532926" lon="7.024560167887681"><ele>941.5714285714284</ele><time>2026-04-25T16:33:34.999Z</time></trkpt><trkpt lat="43.75502818488432" lon="7.024550960172452"><ele>942.1428571428571</ele><time>2026-04-25T16:33:35.999Z</time></trkpt><trkpt lat="43.754949220124324" lon="7.02453658653712"><ele>942.7142857142857</ele><time>2026-04-25T16:33:36.999Z</time></trkpt><trkpt lat="43.754870281516254" lon="7.02450730780909"><ele>943.2857142857142</ele><time>2026-04-25T16:33:37.999Z</time></trkpt><trkpt lat="43.754815882076706" lon="7.024455085850243"><ele>943.8571428571429</ele><time>2026-04-25T16:33:38.999Z</time></trkpt><trkpt lat="43.75477295765152" lon="7.024385369720857"><ele>944.4285714285714</ele><time>2026-04-25T16:33:39.999Z</time></trkpt><trkpt lat="43.75473514545187" lon="7.0243038970853915"><ele>945.0</ele><time>2026-04-25T16:33:40.999Z</time></trkpt><trkpt lat="43.754667379046616" lon="7.024241995346288"><ele>945.0</ele><time>2026-04-25T16:33:41.999Z</time></trkpt><trkpt lat="43.75457016064112" lon="7.024212843487277"><ele>945.0</ele><time>2026-04-25T16:33:42.999Z</time></trkpt><trkpt lat="43.754480947565696" lon="7.024134189333856"><ele>945.0</ele><time>2026-04-25T16:33:43.999Z</time></trkpt><trkpt lat="43.75439194398286" lon="7.024023810222864"><ele>945.0</ele><time>2026-04-25T16:33:44.999Z</time></trkpt><trkpt lat="43.754310132663754" lon="7.023924893805224"><ele>945.0</ele><time>2026-04-25T16:33:45.999Z</time></trkpt><trkpt lat="43.75425136223816" lon="7.023823212321637"><ele>944.6666666666666</ele><time>2026-04-25T16:33:46.999Z</time></trkpt><trkpt lat="43.75421170742364" lon="7.023710051278087"><ele>944.3333333333333</ele><time>2026-04-25T16:33:47.999Z</time></trkpt><trkpt lat="43.75415817753236" lon="7.023580571104128"><ele>944.0</ele><time>2026-04-25T16:33:48.999Z</time></trkpt><trkpt lat="43.754101426484034" lon="7.023503597244499"><ele>943.6666666666666</ele><time>2026-04-25T16:33:49.999Z</time></trkpt><trkpt lat="43.754040302000625" lon="7.023440144144345"><ele>943.3333333333333</ele><time>2026-04-25T16:33:50.999Z</time></trkpt><trkpt lat="43.75398004575108" lon="7.023371005637991"><ele>943.0</ele><time>2026-04-25T16:33:51.999Z</time></trkpt><trkpt lat="43.75394001924175" lon="7.023280148176394"><ele>942.8</ele><time>2026-04-25T16:33:52.999Z</time></trkpt><trkpt lat="43.753914236080675" lon="7.023166253619188"><ele>942.5999999999999</ele><time>2026-04-25T16:33:53.999Z</time></trkpt><trkpt lat="43.75387231957879" lon="7.023034303327599"><ele>942.4000000000001</ele><time>2026-04-25T16:33:54.999Z</time></trkpt><trkpt lat="43.75382405520107" lon="7.022911137491642"><ele>942.2</ele><time>2026-04-25T16:33:55.999Z</time></trkpt><trkpt lat="43.75377855709361" lon="7.0227810200383765"><ele>942.0</ele><time>2026-04-25T16:33:56.999Z</time></trkpt><trkpt lat="43.753730491965015" lon="7.022629242710029"><ele>942.0</ele><time>2026-04-25T16:33:57.999Z</time></trkpt><trkpt lat="43.753689908328084" lon="7.0224963452729465"><ele>942.0</ele><time>2026-04-25T16:33:58.999Z</time></trkpt><trkpt lat="43.7536749862182" lon="7.022386589320522"><ele>942.0</ele><time>2026-04-25T16:33:59.999Z</time></trkpt><trkpt lat="43.75368961350851" lon="7.022266675083463"><ele>942.0</ele><time>2026-04-25T16:34:00.999Z</time></trkpt><trkpt lat="43.753724107419735" lon="7.022120658747212"><ele>942.0</ele><time>2026-04-25T16:34:01.999Z</time></trkpt><trkpt lat="43.75375408664191" lon="7.021966500974008"><ele>942.0</ele><time>2026-04-25T16:34:02.999Z</time></trkpt><trkpt lat="43.753739559530345" lon="7.021838229203742"><ele>942.0</ele><time>2026-04-25T16:34:03.999Z</time></trkpt><trkpt lat="43.753721716244385" lon="7.021700269612826"><ele>942.0</ele><time>2026-04-25T16:34:04.999Z</time></trkpt><trkpt lat="43.7537175038841" lon="7.021580126717225"><ele>942.0</ele><time>2026-04-25T16:34:05.999Z</time></trkpt><trkpt lat="43.7536777480495" lon="7.021479294191838"><ele>942.0</ele><time>2026-04-25T16:34:07.999Z</time></trkpt><trkpt lat="43.753589366432365" lon="7.021379872976085"><ele>942.0</ele><time>2026-04-25T16:34:09.999Z</time></trkpt><trkpt lat="43.75355370951098" lon="7.02129977530653"><ele>942.0</ele><time>2026-04-25T16:34:10.999Z</time></trkpt><trkpt lat="43.75354159019206" lon="7.0211824766143485"><ele>942.0</ele><time>2026-04-25T16:34:11.999Z</time></trkpt><trkpt lat="43.7535194198262" lon="7.021027225915468"><ele>942.0</ele><time>2026-04-25T16:34:12.999Z</time></trkpt><trkpt lat="43.75349300317845" lon="7.020838797218934"><ele>942.0</ele><time>2026-04-25T16:34:13.999Z</time></trkpt><trkpt lat="43.7534756198582" lon="7.020629807783918"><ele>942.6666666666667</ele><time>2026-04-25T16:34:14.999Z</time></trkpt><trkpt lat="43.75345213943674" lon="7.020398152761871"><ele>943.3333333333334</ele><time>2026-04-25T16:34:15.999Z</time></trkpt><trkpt lat="43.75343485762195" lon="7.020171766975039"><ele>944.0</ele><time>2026-04-25T16:34:16.999Z</time></trkpt><trkpt lat="43.753423795044945" lon="7.019965817078092"><ele>944.25</ele><time>2026-04-25T16:34:17.999Z</time></trkpt><trkpt lat="43.75340220987394" lon="7.01977176328683"><ele>944.5</ele><time>2026-04-25T16:34:18.999Z</time></trkpt><trkpt lat="43.75338418371662" lon="7.0195800331070455"><ele>944.75</ele><time>2026-04-25T16:34:19.999Z</time></trkpt><trkpt lat="43.75336943787167" lon="7.019408011771006"><ele>945.0</ele><time>2026-04-25T16:34:20.999Z</time></trkpt><trkpt lat="43.75336736239686" lon="7.019263851926931"><ele>945.0</ele><time>2026-04-25T16:34:21.999Z</time></trkpt><trkpt lat="43.75336774069936" lon="7.019137601379054"><ele>945.0</ele><time>2026-04-25T16:34:22.999Z</time></trkpt><trkpt lat="43.75339514914373" lon="7.019029000771935"><ele>945.0</ele><time>2026-04-25T16:34:23.999Z</time></trkpt><trkpt lat="43.75343812733795" lon="7.01894200173618"><ele>945.0</ele><time>2026-04-25T16:34:24.999Z</time></trkpt><trkpt lat="43.753496240998786" lon="7.018889524533427"><ele>945.0</ele><time>2026-04-25T16:34:25.999Z</time></trkpt><trkpt lat="43.75353965739292" lon="7.018822485415435"><ele>945.0</ele><time>2026-04-25T16:34:26.999Z</time></trkpt><trkpt lat="43.753531735726504" lon="7.018646185745682"><ele>945.0</ele><time>2026-04-25T16:34:28.999Z</time></trkpt><trkpt lat="43.75351817715817" lon="7.018537354624584"><ele>945.0</ele><time>2026-04-25T16:34:29.999Z</time></trkpt><trkpt lat="43.753517978828064" lon="7.0184451252456475"><ele>945.0</ele><time>2026-04-25T16:34:30.999Z</time></trkpt><trkpt lat="43.75358366789324" lon="7.0183574693528525"><ele>945.0</ele><time>2026-04-25T16:34:32.998Z</time></trkpt><trkpt lat="43.75371139697192" lon="7.018341606195269"><ele>945.0</ele><time>2026-04-25T16:34:34.998Z</time></trkpt><trkpt lat="43.753783564602365" lon="7.018321260189219"><ele>945.0</ele><time>2026-04-25T16:34:35.998Z</time></trkpt><trkpt lat="43.75387106301927" lon="7.018252482721279"><ele>942.6</ele><time>2026-04-25T16:34:36.998Z</time></trkpt><trkpt lat="43.75396398586362" lon="7.018178207010598"><ele>940.2</ele><time>2026-04-25T16:34:37.998Z</time></trkpt><trkpt lat="43.754050087966014" lon="7.018141196968128"><ele>937.8</ele><time>2026-04-25T16:34:38.998Z</time></trkpt><trkpt lat="43.75414923135216" lon="7.018139406683455"><ele>935.4</ele><time>2026-04-25T16:34:39.998Z</time></trkpt><trkpt lat="43.75424368122346" lon="7.018142578111328"><ele>933.0</ele><time>2026-04-25T16:34:40.998Z</time></trkpt><trkpt lat="43.754332035818074" lon="7.018124477939874"><ele>934.6666666666666</ele><time>2026-04-25T16:34:41.998Z</time></trkpt><trkpt lat="43.75442468614514" lon="7.018096456119469"><ele>936.3333333333333</ele><time>2026-04-25T16:34:42.998Z</time></trkpt><trkpt lat="43.75450988175391" lon="7.0180751999538"><ele>938.0</ele><time>2026-04-25T16:34:43.998Z</time></trkpt><trkpt lat="43.754579724615674" lon="7.018055996678753"><ele>939.6666666666666</ele><time>2026-04-25T16:34:44.998Z</time></trkpt><trkpt lat="43.75465944907772" lon="7.018066286884633"><ele>941.3333333333333</ele><time>2026-04-25T16:34:45.998Z</time></trkpt><trkpt lat="43.7547636234847" lon="7.018093235373946"><ele>943.0</ele><time>2026-04-25T16:34:46.998Z</time></trkpt><trkpt lat="43.7548947318784" lon="7.018135850839892"><ele>943.0</ele><time>2026-04-25T16:34:47.998Z</time></trkpt><trkpt lat="43.755044945254596" lon="7.018179013900393"><ele>943.0</ele><time>2026-04-25T16:34:48.998Z</time></trkpt><trkpt lat="43.75517642442668" lon="7.018211635874092"><ele>943.0</ele><time>2026-04-25T16:34:49.998Z</time></trkpt><trkpt lat="43.75529113252923" lon="7.0182374943240875"><ele>943.0</ele><time>2026-04-25T16:34:50.998Z</time></trkpt><trkpt lat="43.75539801887046" lon="7.018260006252951"><ele>943.2</ele><time>2026-04-25T16:34:51.998Z</time></trkpt><trkpt lat="43.755500484608824" lon="7.018278506906961"><ele>943.4</ele><time>2026-04-25T16:34:52.998Z</time></trkpt><trkpt lat="43.75559857586301" lon="7.018292070211616"><ele>943.6000000000001</ele><time>2026-04-25T16:34:53.998Z</time></trkpt><trkpt lat="43.75569937178173" lon="7.018313165200522"><ele>943.8000000000001</ele><time>2026-04-25T16:34:54.998Z</time></trkpt><trkpt lat="43.75579711595905" lon="7.018341423716981"><ele>944.0</ele><time>2026-04-25T16:34:55.998Z</time></trkpt><trkpt lat="43.75589476195559" lon="7.0183576789219"><ele>944.0</ele><time>2026-04-25T16:34:56.998Z</time></trkpt><trkpt lat="43.75596751290286" lon="7.018367769083157"><ele>944.0</ele><time>2026-04-25T16:34:57.998Z</time></trkpt><trkpt lat="43.75603810695417" lon="7.0183711785552845"><ele>944.0</ele><time>2026-04-25T16:34:58.998Z</time></trkpt><trkpt lat="43.75610594151731" lon="7.018363249177987"><ele>944.0</ele><time>2026-04-25T16:34:59.998Z</time></trkpt><trkpt lat="43.75618124485949" lon="7.01838703364747"><ele>944.0</ele><time>2026-04-25T16:35:00.998Z</time></trkpt><trkpt lat="43.75625762288268" lon="7.018420768921021"><ele>944.0</ele><time>2026-04-25T16:35:01.998Z</time></trkpt><trkpt lat="43.756324319238836" lon="7.018441121099438"><ele>944.0</ele><time>2026-04-25T16:35:02.998Z</time></trkpt><trkpt lat="43.75643514336396" lon="7.018498149796718"><ele>944.1666666666667</ele><time>2026-04-25T16:35:04.998Z</time></trkpt><trkpt lat="43.756498856580706" lon="7.018518636237729"><ele>944.3333333333334</ele><time>2026-04-25T16:35:05.998Z</time></trkpt><trkpt lat="43.75658093786916" lon="7.018542245521088"><ele>944.5</ele><time>2026-04-25T16:35:06.998Z</time></trkpt><trkpt lat="43.75665907162787" lon="7.018555508454932"><ele>944.6666666666667</ele><time>2026-04-25T16:35:07.998Z</time></trkpt><trkpt lat="43.75673652120181" lon="7.018574368671626"><ele>944.8333333333334</ele><time>2026-04-25T16:35:08.998Z</time></trkpt><trkpt lat="43.75680938454289" lon="7.018600425519528"><ele>945.0</ele><time>2026-04-25T16:35:09.998Z</time></trkpt><trkpt lat="43.756905770628684" lon="7.018639175275827"><ele>946.5</ele><time>2026-04-25T16:35:10.998Z</time></trkpt><trkpt lat="43.75702293750361" lon="7.01868491775549"><ele>948.0</ele><time>2026-04-25T16:35:12Z</time></trkpt><trkpt lat="43.75714749162632" lon="7.018726955896175"><ele>949.5</ele><time>2026-04-25T16:35:13Z</time></trkpt><trkpt lat="43.757249040248276" lon="7.018764058425201"><ele>951.0</ele><time>2026-04-25T16:35:14Z</time></trkpt><trkpt lat="43.7573495275962" lon="7.018799576801962"><ele>951.0</ele><time>2026-04-25T16:35:15Z</time></trkpt><trkpt lat="43.75746620976739" lon="7.01884741056207"><ele>951.0</ele><time>2026-04-25T16:35:16Z</time></trkpt><trkpt lat="43.757591771481714" lon="7.0188967695410325"><ele>951.0</ele><time>2026-04-25T16:35:17Z</time></trkpt><trkpt lat="43.757700254388084" lon="7.018942766649593"><ele>951.0</ele><time>2026-04-25T16:35:18Z</time></trkpt><trkpt lat="43.75779188590583" lon="7.018982534416632"><ele>951.8333333333334</ele><time>2026-04-25T16:35:19Z</time></trkpt><trkpt lat="43.757869873326705" lon="7.01901852245144"><ele>952.6666666666667</ele><time>2026-04-25T16:35:20Z</time></trkpt><trkpt lat="43.75792988508379" lon="7.0190551758966695"><ele>953.5</ele><time>2026-04-25T16:35:21Z</time></trkpt><trkpt lat="43.75805629700799" lon="7.019035803596344"><ele>954.3333333333334</ele><time>2026-04-25T16:35:23Z</time></trkpt><trkpt lat="43.758123482846386" lon="7.019024470479292"><ele>955.1666666666667</ele><time>2026-04-25T16:35:24Z</time></trkpt><trkpt lat="43.75819850784938" lon="7.019035845403367"><ele>956.0</ele><time>2026-04-25T16:35:25Z</time></trkpt><trkpt lat="43.75829053524865" lon="7.01907894218252"><ele>955.75</ele><time>2026-04-25T16:35:26Z</time></trkpt><trkpt lat="43.75840447514811" lon="7.01915459521199"><ele>955.5</ele><time>2026-04-25T16:35:27Z</time></trkpt><trkpt lat="43.75852387444297" lon="7.019226649225406"><ele>955.25</ele><time>2026-04-25T16:35:28Z</time></trkpt><trkpt lat="43.75863868237105" lon="7.01929629428581"><ele>955.0</ele><time>2026-04-25T16:35:29Z</time></trkpt><trkpt lat="43.75875129222569" lon="7.019334479090072"><ele>956.2</ele><time>2026-04-25T16:35:30Z</time></trkpt><trkpt lat="43.75887746473043" lon="7.01934835682066"><ele>957.4</ele><time>2026-04-25T16:35:31Z</time></trkpt><trkpt lat="43.75899617912122" lon="7.019351930059127"><ele>958.5999999999999</ele><time>2026-04-25T16:35:32Z</time></trkpt><trkpt lat="43.75909101358191" lon="7.019373419822025"><ele>959.8</ele><time>2026-04-25T16:35:33Z</time></trkpt><trkpt lat="43.75916266345929" lon="7.019404579543501"><ele>961.0</ele><time>2026-04-25T16:35:33.999Z</time></trkpt><trkpt lat="43.75928279901111" lon="7.019317309431824"><ele>960.8</ele><time>2026-04-25T16:35:35.999Z</time></trkpt><trkpt lat="43.75936994270766" lon="7.019312709249257"><ele>960.5999999999999</ele><time>2026-04-25T16:35:36.999Z</time></trkpt><trkpt lat="43.759463997126744" lon="7.019347379487915"><ele>960.4</ele><time>2026-04-25T16:35:37.999Z</time></trkpt><trkpt lat="43.75955066921344" lon="7.019407766606186"><ele>960.2</ele><time>2026-04-25T16:35:38.999Z</time></trkpt><trkpt lat="43.759624631468" lon="7.019492076742872"><ele>960.0</ele><time>2026-04-25T16:35:39.999Z</time></trkpt><trkpt lat="43.75967973202229" lon="7.019589106199929"><ele>960.0</ele><time>2026-04-25T16:35:40.999Z</time></trkpt><trkpt lat="43.7597285583538" lon="7.019684619456191"><ele>960.0</ele><time>2026-04-25T16:35:41.999Z</time></trkpt><trkpt lat="43.75980345155138" lon="7.019733339306895"><ele>960.0</ele><time>2026-04-25T16:35:42.999Z</time></trkpt><trkpt lat="43.75990458408869" lon="7.019754315178939"><ele>960.0</ele><time>2026-04-25T16:35:43.999Z</time></trkpt><trkpt lat="43.76000454764586" lon="7.019773656268681"><ele>960.0</ele><time>2026-04-25T16:35:44.999Z</time></trkpt><trkpt lat="43.76009970163075" lon="7.0197749069990145"><ele>960.0</ele><time>2026-04-25T16:35:45.999Z</time></trkpt><trkpt lat="43.76018678725978" lon="7.019767656629717"><ele>960.0</ele><time>2026-04-25T16:35:46.999Z</time></trkpt><trkpt lat="43.760263631433766" lon="7.019771375418998"><ele>960.0</ele><time>2026-04-25T16:35:47.999Z</time></trkpt><trkpt lat="43.76033109616693" lon="7.019709933631914"><ele>960.0</ele><time>2026-04-25T16:35:49.999Z</time></trkpt><trkpt lat="43.76030294605171" lon="7.019624909769607"><ele>960.0</ele><time>2026-04-25T16:35:51.999Z</time></trkpt><trkpt lat="43.76024742920044" lon="7.019583266097079"><ele>960.0</ele><time>2026-04-25T16:35:52.999Z</time></trkpt><trkpt lat="43.7601674773325" lon="7.019582863150149"><ele>960.0</ele><time>2026-04-25T16:35:53.999Z</time></trkpt><trkpt lat="43.76007586072403" lon="7.019626971784305"><ele>960.0</ele><time>2026-04-25T16:35:54.999Z</time></trkpt><trkpt lat="43.75998136745043" lon="7.019681445485704"><ele>960.0</ele><time>2026-04-25T16:35:55.999Z</time></trkpt><trkpt lat="43.75988739934811" lon="7.019706119375002"><ele>960.0</ele><time>2026-04-25T16:35:56.999Z</time></trkpt><trkpt lat="43.75979477246449" lon="7.019708594781698"><ele>960.0</ele><time>2026-04-25T16:35:57.999Z</time></trkpt><trkpt lat="43.75971104362366" lon="7.019678288784604"><ele>960.0</ele><time>2026-04-25T16:35:58.999Z</time></trkpt><trkpt lat="43.759643655351326" lon="7.019602236429044"><ele>960.0</ele><time>2026-04-25T16:35:59.999Z</time></trkpt><trkpt lat="43.759594909683855" lon="7.019484720207658"><ele>960.0</ele><time>2026-04-25T16:36:00.999Z</time></trkpt><trkpt lat="43.7595441595913" lon="7.0193939791855735"><ele>960.0</ele><time>2026-04-25T16:36:01.999Z</time></trkpt><trkpt lat="43.75944179304842" lon="7.019339162781464"><ele>960.0</ele><time>2026-04-25T16:36:02.999Z</time></trkpt><trkpt lat="43.759335453178295" lon="7.019306442466395"><ele>960.2</ele><time>2026-04-25T16:36:03.999Z</time></trkpt><trkpt lat="43.759245973729215" lon="7.019306139950882"><ele>960.4</ele><time>2026-04-25T16:36:04.999Z</time></trkpt><trkpt lat="43.75917139912183" lon="7.019332226253425"><ele>960.5999999999999</ele><time>2026-04-25T16:36:05.999Z</time></trkpt><trkpt lat="43.75909409051484" lon="7.019373254024711"><ele>960.8</ele><time>2026-04-25T16:36:06.999Z</time></trkpt><trkpt lat="43.759004055181485" lon="7.019365982496718"><ele>961.0</ele><time>2026-04-25T16:36:07.999Z</time></trkpt><trkpt lat="43.75889604564458" lon="7.019320944003989"><ele>961.0</ele><time>2026-04-25T16:36:08.999Z</time></trkpt><trkpt lat="43.758765585382434" lon="7.019277032030727"><ele>961.0</ele><time>2026-04-25T16:36:09.999Z</time></trkpt><trkpt lat="43.75864475997428" lon="7.019221432405333"><ele>961.0</ele><time>2026-04-25T16:36:10.999Z</time></trkpt><trkpt lat="43.758542835207216" lon="7.01916562338622"><ele>961.0</ele><time>2026-04-25T16:36:11.999Z</time></trkpt><trkpt lat="43.758457457121466" lon="7.019117044219403"><ele>960.0</ele><time>2026-04-25T16:36:12.999Z</time></trkpt><trkpt lat="43.758373776880255" lon="7.019064327166634"><ele>958.9999999999999</ele><time>2026-04-25T16:36:13.999Z</time></trkpt><trkpt lat="43.75828717248013" lon="7.019013870451497"><ele>957.9999999999999</ele><time>2026-04-25T16:36:14.999Z</time></trkpt><trkpt lat="43.75818764519681" lon="7.018971689270295"><ele>957.0</ele><time>2026-04-25T16:36:15.999Z</time></trkpt><trkpt lat="43.758103326128754" lon="7.018928951732894"><ele>956.0</ele><time>2026-04-25T16:36:16.999Z</time></trkpt><trkpt lat="43.758034039539794" lon="7.018807357086908"><ele>956.0</ele><time>2026-04-25T16:36:18.999Z</time></trkpt><trkpt lat="43.758042727004515" lon="7.0186713867010395"><ele>955.9999999999999</ele><time>2026-04-25T16:36:20.999Z</time></trkpt><trkpt lat="43.75806923584344" lon="7.018560328177612"><ele>955.9999999999999</ele><time>2026-04-25T16:36:21.999Z</time></trkpt><trkpt lat="43.758078015571776" lon="7.01842006449015"><ele>956.0</ele><time>2026-04-25T16:36:22.999Z</time></trkpt><trkpt lat="43.7580664374605" lon="7.018260848156944"><ele>956.0</ele><time>2026-04-25T16:36:23.999Z</time></trkpt><trkpt lat="43.75805356919246" lon="7.018106121599749"><ele>956.1666666666667</ele><time>2026-04-25T16:36:24.999Z</time></trkpt><trkpt lat="43.75804283553951" lon="7.017983894476996"><ele>956.3333333333334</ele><time>2026-04-25T16:36:25.999Z</time></trkpt><trkpt lat="43.758051229809524" lon="7.0178653829662325"><ele>956.5</ele><time>2026-04-25T16:36:26.999Z</time></trkpt><trkpt lat="43.758067054667656" lon="7.0177494089626045"><ele>956.6666666666667</ele><time>2026-04-25T16:36:27.999Z</time></trkpt><trkpt lat="43.75805228909409" lon="7.017641485411616"><ele>956.8333333333334</ele><time>2026-04-25T16:36:28.999Z</time></trkpt><trkpt lat="43.758046378090015" lon="7.01753038253108"><ele>957.0</ele><time>2026-04-25T16:36:29.999Z</time></trkpt><trkpt lat="43.75805787633333" lon="7.017425325247939"><ele>957.8333333333334</ele><time>2026-04-25T16:36:30.999Z</time></trkpt><trkpt lat="43.75809687895854" lon="7.017331970654468"><ele>958.6666666666667</ele><time>2026-04-25T16:36:31.999Z</time></trkpt><trkpt lat="43.75813702269483" lon="7.017251400737047"><ele>959.5</ele><time>2026-04-25T16:36:32.999Z</time></trkpt><trkpt lat="43.758166049319335" lon="7.0171527943564564"><ele>960.3333333333334</ele><time>2026-04-25T16:36:33.999Z</time></trkpt><trkpt lat="43.75816439910692" lon="7.017033913168532"><ele>961.1666666666667</ele><time>2026-04-25T16:36:34.999Z</time></trkpt><trkpt lat="43.758148578143874" lon="7.016914382790748"><ele>962.0</ele><time>2026-04-25T16:36:35.999Z</time></trkpt><trkpt lat="43.758122664641746" lon="7.0167830256897386"><ele>962.0000000000001</ele><time>2026-04-25T16:36:36.999Z</time></trkpt><trkpt lat="43.758094598192756" lon="7.016659906505826"><ele>962.0</ele><time>2026-04-25T16:36:37.999Z</time></trkpt><trkpt lat="43.75804565855592" lon="7.0165654610920765"><ele>962.0</ele><time>2026-04-25T16:36:38.998Z</time></trkpt><trkpt lat="43.757995206529465" lon="7.0164955841697685"><ele>962.0</ele><time>2026-04-25T16:36:39.998Z</time></trkpt><trkpt lat="43.75797542069391" lon="7.016372706058139"><ele>962.0000000000001</ele><time>2026-04-25T16:36:41.998Z</time></trkpt><trkpt lat="43.75797128989291" lon="7.016244819933874"><ele>962.0</ele><time>2026-04-25T16:36:43.998Z</time></trkpt><trkpt lat="43.757953870624206" lon="7.016097836335514"><ele>961.6666666666667</ele><time>2026-04-25T16:36:45.998Z</time></trkpt><trkpt lat="43.757967939774865" lon="7.0159657998826095"><ele>961.3333333333334</ele><time>2026-04-25T16:36:47.998Z</time></trkpt><trkpt lat="43.75803537278668" lon="7.015881558606491"><ele>961.0</ele><time>2026-04-25T16:36:49.998Z</time></trkpt><trkpt lat="43.75809017417796" lon="7.015818721195136"><ele>960.6666666666667</ele><time>2026-04-25T16:36:51.998Z</time></trkpt><trkpt lat="43.758146184159564" lon="7.015747870955351"><ele>960.3333333333334</ele><time>2026-04-25T16:36:53.998Z</time></trkpt><trkpt lat="43.7581983544067" lon="7.015681275877116"><ele>960.0</ele><time>2026-04-25T16:36:55.998Z</time></trkpt><trkpt lat="43.758257091818344" lon="7.015616015390494"><ele>957.6</ele><time>2026-04-25T16:36:57.998Z</time></trkpt><trkpt lat="43.758354056314055" lon="7.015518737815759"><ele>955.2</ele><time>2026-04-25T16:36:59.998Z</time></trkpt><trkpt lat="43.75842082119115" lon="7.015455674862889"><ele>952.8</ele><time>2026-04-25T16:37:00.998Z</time></trkpt><trkpt lat="43.75850728321697" lon="7.015395277612655"><ele>950.4</ele><time>2026-04-25T16:37:01.998Z</time></trkpt><trkpt lat="43.7586002194856" lon="7.015339126231188"><ele>948.0</ele><time>2026-04-25T16:37:02.998Z</time></trkpt><trkpt lat="43.758694271262144" lon="7.015282691785156"><ele>948.0</ele><time>2026-04-25T16:37:03.998Z</time></trkpt><trkpt lat="43.75879318479942" lon="7.015235664353265"><ele>948.0</ele><time>2026-04-25T16:37:04.998Z</time></trkpt><trkpt lat="43.758885051592934" lon="7.015188296271192"><ele>948.0</ele><time>2026-04-25T16:37:05.998Z</time></trkpt><trkpt lat="43.7589756959521" lon="7.015148800882478"><ele>948.0</ele><time>2026-04-25T16:37:06.998Z</time></trkpt><trkpt lat="43.75906680211575" lon="7.0151113213240235"><ele>948.0</ele><time>2026-04-25T16:37:07.998Z</time></trkpt><trkpt lat="43.75915826430679" lon="7.015077299780387"><ele>948.0</ele><time>2026-04-25T16:37:08.998Z</time></trkpt><trkpt lat="43.75925752537883" lon="7.01505133473467"><ele>948.0</ele><time>2026-04-25T16:37:09.998Z</time></trkpt><trkpt lat="43.75936108846258" lon="7.015028887329935"><ele>948.0</ele><time>2026-04-25T16:37:10.998Z</time></trkpt><trkpt lat="43.75946737486106" lon="7.015002396312454"><ele>948.0</ele><time>2026-04-25T16:37:11.998Z</time></trkpt><trkpt lat="43.7595663694638" lon="7.01497740167426"><ele>948.0</ele><time>2026-04-25T16:37:12.998Z</time></trkpt><trkpt lat="43.75965534873088" lon="7.014957736362767"><ele>944.3333333333334</ele><time>2026-04-25T16:37:13.998Z</time></trkpt><trkpt lat="43.75973326481014" lon="7.014930141201237"><ele>940.6666666666667</ele><time>2026-04-25T16:37:14.998Z</time></trkpt><trkpt lat="43.75980914155228" lon="7.014899895256167"><ele>937.0</ele><time>2026-04-25T16:37:15.998Z</time></trkpt><trkpt lat="43.759900190317964" lon="7.014856861220526"><ele>933.3333333333334</ele><time>2026-04-25T16:37:16.998Z</time></trkpt><trkpt lat="43.75998384010981" lon="7.014813129905549"><ele>929.6666666666667</ele><time>2026-04-25T16:37:18Z</time></trkpt><trkpt lat="43.760054095928325" lon="7.014774869272175"><ele>926.0</ele><time>2026-04-25T16:37:19Z</time></trkpt><trkpt lat="43.76011810220622" lon="7.014742024500855"><ele>927.8333333333334</ele><time>2026-04-25T16:37:20Z</time></trkpt><trkpt lat="43.76023165584062" lon="7.014684035020589"><ele>929.6666666666667</ele><time>2026-04-25T16:37:22Z</time></trkpt><trkpt lat="43.76028843834452" lon="7.0146393932453215"><ele>931.5</ele><time>2026-04-25T16:37:23Z</time></trkpt><trkpt lat="43.7603531685642" lon="7.014604289692307"><ele>933.3333333333333</ele><time>2026-04-25T16:37:24Z</time></trkpt><trkpt lat="43.760426757264035" lon="7.014576511762828"><ele>935.1666666666666</ele><time>2026-04-25T16:37:25Z</time></trkpt><trkpt lat="43.76052150468864" lon="7.014591983743875"><ele>937.0</ele><time>2026-04-25T16:37:26Z</time></trkpt><trkpt lat="43.7606129144132" lon="7.014619224859663"><ele>937.0</ele><time>2026-04-25T16:37:27Z</time></trkpt><trkpt lat="43.76072983188063" lon="7.014572196276964"><ele>937.0</ele><time>2026-04-25T16:37:29Z</time></trkpt><trkpt lat="43.76080783598192" lon="7.01453912593624"><ele>937.0</ele><time>2026-04-25T16:37:30Z</time></trkpt><trkpt lat="43.760877961870996" lon="7.014539739523373"><ele>937.0</ele><time>2026-04-25T16:37:31Z</time></trkpt><trkpt lat="43.760952324728514" lon="7.01454414317663"><ele>937.0</ele><time>2026-04-25T16:37:32Z</time></trkpt><trkpt lat="43.76105451578249" lon="7.014548542142759"><ele>938.4000000000001</ele><time>2026-04-25T16:37:33Z</time></trkpt><trkpt lat="43.76114565874211" lon="7.0145306335781665"><ele>939.8000000000001</ele><time>2026-04-25T16:37:34Z</time></trkpt><trkpt lat="43.76122964607958" lon="7.014503390936505"><ele>941.2</ele><time>2026-04-25T16:37:35Z</time></trkpt><trkpt lat="43.76129458275436" lon="7.014486660692066"><ele>942.6</ele><time>2026-04-25T16:37:36Z</time></trkpt><trkpt lat="43.761433720101614" lon="7.014535345764372"><ele>944.0</ele><time>2026-04-25T16:37:38Z</time></trkpt><trkpt lat="43.76151335434446" lon="7.014558211001982"><ele>944.0000000000001</ele><time>2026-04-25T16:37:38.999Z</time></trkpt><trkpt lat="43.7615890163003" lon="7.014520635167033"><ele>944.0</ele><time>2026-04-25T16:37:40.999Z</time></trkpt><trkpt lat="43.761591410157855" lon="7.014354472269243"><ele>944.0</ele><time>2026-04-25T16:37:42.999Z</time></trkpt><trkpt lat="43.76160468708636" lon="7.014247028777048"><ele>944.0</ele><time>2026-04-25T16:37:43.999Z</time></trkpt><trkpt lat="43.76163675523737" lon="7.014116665180069"><ele>944.0000000000001</ele><time>2026-04-25T16:37:45.999Z</time></trkpt><trkpt lat="43.76167578480569" lon="7.014045590446443"><ele>944.0</ele><time>2026-04-25T16:37:47.999Z</time></trkpt><trkpt lat="43.76172350867858" lon="7.013982510698071"><ele>944.0</ele><time>2026-04-25T16:37:48.999Z</time></trkpt><trkpt lat="43.76178768922547" lon="7.013933440596386"><ele>944.0000000000001</ele><time>2026-04-25T16:37:49.999Z</time></trkpt><trkpt lat="43.761852531594954" lon="7.0138531888588105"><ele>944.0000000000001</ele><time>2026-04-25T16:37:51.999Z</time></trkpt><trkpt lat="43.761946792092665" lon="7.013812782252949"><ele>944.0</ele><time>2026-04-25T16:37:53.999Z</time></trkpt><trkpt lat="43.76207048797913" lon="7.013768630949493"><ele>944.0</ele><time>2026-04-25T16:37:55.999Z</time></trkpt><trkpt lat="43.762112416282655" lon="7.013701343272582"><ele>945.0</ele><time>2026-04-25T16:37:56.999Z</time></trkpt><trkpt lat="43.762116515600944" lon="7.013585166417539"><ele>946.0000000000001</ele><time>2026-04-25T16:37:57.999Z</time></trkpt><trkpt lat="43.762087723978425" lon="7.013477479538677"><ele>947.0000000000001</ele><time>2026-04-25T16:37:58.999Z</time></trkpt><trkpt lat="43.76205816361768" lon="7.013388937047726"><ele>948.0</ele><time>2026-04-25T16:37:59.999Z</time></trkpt><trkpt lat="43.76209660717995" lon="7.013290706365658"><ele>949.0</ele><time>2026-04-25T16:38:01.999Z</time></trkpt><trkpt lat="43.76219365059125" lon="7.013162708329074"><ele>948.9999999999999</ele><time>2026-04-25T16:38:03.999Z</time></trkpt><trkpt lat="43.762265654542084" lon="7.013125505332336"><ele>949.0</ele><time>2026-04-25T16:38:04.999Z</time></trkpt><trkpt lat="43.76235116877209" lon="7.013098302026198"><ele>949.0</ele><time>2026-04-25T16:38:05.999Z</time></trkpt><trkpt lat="43.76244848921075" lon="7.013080103387496"><ele>949.0</ele><time>2026-04-25T16:38:06.999Z</time></trkpt><trkpt lat="43.76254142339185" lon="7.013076858167117"><ele>948.9999999999999</ele><time>2026-04-25T16:38:07.999Z</time></trkpt><trkpt lat="43.76260522481252" lon="7.013047634402795"><ele>949.0</ele><time>2026-04-25T16:38:08.999Z</time></trkpt><trkpt lat="43.76267080649102" lon="7.0129098146054725"><ele>949.0</ele><time>2026-04-25T16:38:10.999Z</time></trkpt><trkpt lat="43.76267455052317" lon="7.012779297425418"><ele>949.0000000000001</ele><time>2026-04-25T16:38:12.999Z</time></trkpt><trkpt lat="43.76273733413783" lon="7.0126662189868085"><ele>949.0000000000001</ele><time>2026-04-25T16:38:14.999Z</time></trkpt><trkpt lat="43.762804593575076" lon="7.0125677479382675"><ele>949.0</ele><time>2026-04-25T16:38:16.999Z</time></trkpt><trkpt lat="43.76284452986274" lon="7.01249340533549"><ele>949.0</ele><time>2026-04-25T16:38:17.999Z</time></trkpt><trkpt lat="43.76293282051991" lon="7.012373504558378"><ele>949.8000000000001</ele><time>2026-04-25T16:38:19.999Z</time></trkpt><trkpt lat="43.76304727859861" lon="7.0122966367702455"><ele>950.6000000000001</ele><time>2026-04-25T16:38:21.999Z</time></trkpt><trkpt lat="43.763056396284675" lon="7.012174479426517"><ele>951.4</ele><time>2026-04-25T16:38:22.999Z</time></trkpt><trkpt lat="43.763057328049804" lon="7.0120143120036795"><ele>952.2</ele><time>2026-04-25T16:38:23.999Z</time></trkpt><trkpt lat="43.76307333395444" lon="7.011853373623592"><ele>953.0</ele><time>2026-04-25T16:38:24.999Z</time></trkpt><trkpt lat="43.763080291799035" lon="7.011751621795402"><ele>953.0000000000001</ele><time>2026-04-25T16:38:25.999Z</time></trkpt><trkpt lat="43.7630775147315" lon="7.011662907640142"><ele>953.0</ele><time>2026-04-25T16:38:26.999Z</time></trkpt><trkpt lat="43.763079674863214" lon="7.0115266554259374"><ele>953.0</ele><time>2026-04-25T16:38:28.999Z</time></trkpt><trkpt lat="43.76306911185845" lon="7.011432217665736"><ele>953.0</ele><time>2026-04-25T16:38:29.999Z</time></trkpt><trkpt lat="43.7630638329727" lon="7.011343196594543"><ele>953.0000000000001</ele><time>2026-04-25T16:38:30.999Z</time></trkpt><trkpt lat="43.76312454945817" lon="7.011262698466838"><ele>953.0</ele><time>2026-04-25T16:38:32.999Z</time></trkpt><trkpt lat="43.76319613043511" lon="7.011224351797315"><ele>953.0000000000001</ele><time>2026-04-25T16:38:33.999Z</time></trkpt><trkpt lat="43.763289355126574" lon="7.011178670224127"><ele>953.0</ele><time>2026-04-25T16:38:34.999Z</time></trkpt><trkpt lat="43.7633807119438" lon="7.011172506557604"><ele>953.0</ele><time>2026-04-25T16:38:35.999Z</time></trkpt><trkpt lat="43.763460408028344" lon="7.0111871389427325"><ele>953.0</ele><time>2026-04-25T16:38:36.999Z</time></trkpt><trkpt lat="43.76352423639105" lon="7.0111842679002"><ele>953.0000000000001</ele><time>2026-04-25T16:38:37.999Z</time></trkpt><trkpt lat="43.763602483020165" lon="7.011159124416566"><ele>953.0</ele><time>2026-04-25T16:38:38.999Z</time></trkpt><trkpt lat="43.763670042977914" lon="7.011133266398177"><ele>955.5999999999999</ele><time>2026-04-25T16:38:39.999Z</time></trkpt><trkpt lat="43.76378288071628" lon="7.011153236420029"><ele>958.1999999999999</ele><time>2026-04-25T16:38:41.999Z</time></trkpt><trkpt lat="43.76381804715864" lon="7.011226319706086"><ele>960.8</ele><time>2026-04-25T16:38:42.998Z</time></trkpt><trkpt lat="43.76386282387421" lon="7.011337609080459"><ele>963.4</ele><time>2026-04-25T16:38:43.998Z</time></trkpt><trkpt lat="43.76391223158346" lon="7.01142862281199"><ele>966.0</ele><time>2026-04-25T16:38:44.998Z</time></trkpt><trkpt lat="43.76401338189875" lon="7.011483677070617"><ele>966.0</ele><time>2026-04-25T16:38:46.998Z</time></trkpt><trkpt lat="43.76407365507452" lon="7.011530638106593"><ele>966.0</ele><time>2026-04-25T16:38:47.998Z</time></trkpt><trkpt lat="43.76416087941647" lon="7.011618082315318"><ele>966.0</ele><time>2026-04-25T16:38:49.998Z</time></trkpt><trkpt lat="43.764202838433405" lon="7.01170717754572"><ele>966.0</ele><time>2026-04-25T16:38:50.998Z</time></trkpt><trkpt lat="43.76427459542066" lon="7.011772296926804"><ele>966.0</ele><time>2026-04-25T16:38:51.998Z</time></trkpt><trkpt lat="43.764362364460695" lon="7.011841029367837"><ele>966.0</ele><time>2026-04-25T16:38:52.998Z</time></trkpt><trkpt lat="43.76444360339027" lon="7.01190206871614"><ele>966.0</ele><time>2026-04-25T16:38:53.998Z</time></trkpt><trkpt lat="43.76453906420431" lon="7.011961767354317"><ele>965.9999999999999</ele><time>2026-04-25T16:38:54.998Z</time></trkpt><trkpt lat="43.76465735491454" lon="7.012023581564697"><ele>965.9999999999999</ele><time>2026-04-25T16:38:55.998Z</time></trkpt><trkpt lat="43.76476446118084" lon="7.01209337333871"><ele>966.0</ele><time>2026-04-25T16:38:56.998Z</time></trkpt><trkpt lat="43.76485567609434" lon="7.0121417855186285"><ele>966.0</ele><time>2026-04-25T16:38:57.998Z</time></trkpt><trkpt lat="43.764943437632" lon="7.012183310752282"><ele>966.0</ele><time>2026-04-25T16:38:58.998Z</time></trkpt><trkpt lat="43.76502680534977" lon="7.012231675298206"><ele>966.0</ele><time>2026-04-25T16:38:59.998Z</time></trkpt><trkpt lat="43.76511195164659" lon="7.01232275758914"><ele>966.0</ele><time>2026-04-25T16:39:00.998Z</time></trkpt><trkpt lat="43.765217165390766" lon="7.0124454525149"><ele>966.0</ele><time>2026-04-25T16:39:01.998Z</time></trkpt><trkpt lat="43.765348056282214" lon="7.012556484114745"><ele>967.0</ele><time>2026-04-25T16:39:02.998Z</time></trkpt><trkpt lat="43.765457980394096" lon="7.012662702584906"><ele>967.9999999999999</ele><time>2026-04-25T16:39:03.998Z</time></trkpt><trkpt lat="43.76555151928908" lon="7.012743581111433"><ele>968.9999999999999</ele><time>2026-04-25T16:39:04.998Z</time></trkpt><trkpt lat="43.76561536052725" lon="7.0128073006404"><ele>970.0</ele><time>2026-04-25T16:39:05.998Z</time></trkpt><trkpt lat="43.765680885182995" lon="7.012827820860202"><ele>971.0</ele><time>2026-04-25T16:39:06.998Z</time></trkpt><trkpt lat="43.765765262326056" lon="7.0128336403504745"><ele>971.0</ele><time>2026-04-25T16:39:07.998Z</time></trkpt><trkpt lat="43.76583012232792" lon="7.012859526340156"><ele>970.9999999999999</ele><time>2026-04-25T16:39:08.998Z</time></trkpt><trkpt lat="43.76585690332289" lon="7.013030213949026"><ele>970.9999999999999</ele><time>2026-04-25T16:39:10.998Z</time></trkpt><trkpt lat="43.76588715109653" lon="7.013123537238505"><ele>971.0</ele><time>2026-04-25T16:39:11.998Z</time></trkpt><trkpt lat="43.765941802798714" lon="7.01322814632908"><ele>971.0</ele><time>2026-04-25T16:39:12.998Z</time></trkpt><trkpt lat="43.766010195725606" lon="7.013308016216551"><ele>973.0</ele><time>2026-04-25T16:39:13.998Z</time></trkpt><trkpt lat="43.7660797330631" lon="7.013341167050176"><ele>974.9999999999999</ele><time>2026-04-25T16:39:14.998Z</time></trkpt><trkpt lat="43.76616609087579" lon="7.013357133317515"><ele>976.9999999999999</ele><time>2026-04-25T16:39:15.998Z</time></trkpt><trkpt lat="43.76623170728052" lon="7.013398218383212"><ele>979.0</ele><time>2026-04-25T16:39:16.998Z</time></trkpt><trkpt lat="43.76632136210106" lon="7.013523144228013"><ele>981.0</ele><time>2026-04-25T16:39:18.998Z</time></trkpt><trkpt lat="43.766341716463074" lon="7.013650007231708"><ele>981.0</ele><time>2026-04-25T16:39:19.998Z</time></trkpt><trkpt lat="43.766335590764854" lon="7.013794360139783"><ele>980.9999999999999</ele><time>2026-04-25T16:39:20.998Z</time></trkpt><trkpt lat="43.76634491806345" lon="7.013914093991485"><ele>980.9999999999999</ele><time>2026-04-25T16:39:21.998Z</time></trkpt><trkpt lat="43.76639011994055" lon="7.013990244527826"><ele>981.0</ele><time>2026-04-25T16:39:23Z</time></trkpt><trkpt lat="43.76646798803736" lon="7.01404248784011"><ele>981.0</ele><time>2026-04-25T16:39:24Z</time></trkpt><trkpt lat="43.766562279849445" lon="7.014110203941373"><ele>981.0</ele><time>2026-04-25T16:39:25Z</time></trkpt><trkpt lat="43.76666029990637" lon="7.014203346622825"><ele>980.9999999999999</ele><time>2026-04-25T16:39:26Z</time></trkpt><trkpt lat="43.76676157121272" lon="7.014299929918626"><ele>980.9999999999999</ele><time>2026-04-25T16:39:27Z</time></trkpt><trkpt lat="43.76686466797931" lon="7.014368228921986"><ele>981.0</ele><time>2026-04-25T16:39:28Z</time></trkpt><trkpt lat="43.76694930161237" lon="7.0144015446475345"><ele>981.0</ele><time>2026-04-25T16:39:29Z</time></trkpt><trkpt lat="43.767025616669365" lon="7.014385255267105"><ele>981.0</ele><time>2026-04-25T16:39:30Z</time></trkpt><trkpt lat="43.767106129014685" lon="7.0143773443807484"><ele>980.9999999999999</ele><time>2026-04-25T16:39:31Z</time></trkpt><trkpt lat="43.76717391267081" lon="7.014429667303644"><ele>980.9999999999999</ele><time>2026-04-25T16:39:32Z</time></trkpt><trkpt lat="43.767276553144235" lon="7.01451038871563"><ele>981.0</ele><time>2026-04-25T16:39:33Z</time></trkpt><trkpt lat="43.767392248236334" lon="7.014588051552653"><ele>981.0</ele><time>2026-04-25T16:39:34Z</time></trkpt><trkpt lat="43.76749193218186" lon="7.014652720159193"><ele>981.0</ele><time>2026-04-25T16:39:35Z</time></trkpt><trkpt lat="43.76758739812604" lon="7.014677007330833"><ele>981.0</ele><time>2026-04-25T16:39:36Z</time></trkpt><trkpt lat="43.76768905938701" lon="7.014679616204325"><ele>981.0</ele><time>2026-04-25T16:39:37Z</time></trkpt><trkpt lat="43.76777752720818" lon="7.014684753583322"><ele>981.0</ele><time>2026-04-25T16:39:38Z</time></trkpt><trkpt lat="43.76784785231672" lon="7.014712744440222"><ele>981.0</ele><time>2026-04-25T16:39:39Z</time></trkpt><trkpt lat="43.76788520231208" lon="7.014785814329218"><ele>981.0</ele><time>2026-04-25T16:39:40Z</time></trkpt><trkpt lat="43.76788813579548" lon="7.014879116373445"><ele>981.4</ele><time>2026-04-25T16:39:41Z</time></trkpt><trkpt lat="43.76787729007004" lon="7.014974613367992"><ele>981.8</ele><time>2026-04-25T16:39:42Z</time></trkpt><trkpt lat="43.76784742496141" lon="7.015081285775215"><ele>982.1999999999999</ele><time>2026-04-25T16:39:43Z</time></trkpt><trkpt lat="43.76779280908546" lon="7.015219722451875"><ele>982.5999999999999</ele><time>2026-04-25T16:39:43.999Z</time></trkpt><trkpt lat="43.767723031340324" lon="7.015374304184627"><ele>983.0</ele><time>2026-04-25T16:39:44.999Z</time></trkpt><trkpt lat="43.76767157591884" lon="7.015492995315165"><ele>981.8</ele><time>2026-04-25T16:39:45.999Z</time></trkpt><trkpt lat="43.7676425032775" lon="7.015580326766905"><ele>980.5999999999999</ele><time>2026-04-25T16:39:46.999Z</time></trkpt><trkpt lat="43.76766526898415" lon="7.01568351206047"><ele>979.4000000000001</ele><time>2026-04-25T16:39:48.999Z</time></trkpt><trkpt lat="43.76777828271571" lon="7.015752951368839"><ele>978.2</ele><time>2026-04-25T16:39:50.999Z</time></trkpt><trkpt lat="43.767842444986165" lon="7.015810585439123"><ele>977.0</ele><time>2026-04-25T16:39:51.999Z</time></trkpt><trkpt lat="43.76792481220012" lon="7.015896645512186"><ele>976.6666666666667</ele><time>2026-04-25T16:39:52.999Z</time></trkpt><trkpt lat="43.768004440313966" lon="7.015979961621002"><ele>976.3333333333334</ele><time>2026-04-25T16:39:53.999Z</time></trkpt><trkpt lat="43.76807891381136" lon="7.0160268005157524"><ele>976.0</ele><time>2026-04-25T16:39:54.999Z</time></trkpt><trkpt lat="43.76815764121109" lon="7.016057014440914"><ele>975.6666666666667</ele><time>2026-04-25T16:39:55.999Z</time></trkpt><trkpt lat="43.768241144789265" lon="7.016077772361452"><ele>975.3333333333334</ele><time>2026-04-25T16:39:56.999Z</time></trkpt><trkpt lat="43.76831254129792" lon="7.016120457507221"><ele>975.0</ele><time>2026-04-25T16:39:57.999Z</time></trkpt><trkpt lat="43.768374731018355" lon="7.016198967744669"><ele>975.0</ele><time>2026-04-25T16:39:58.999Z</time></trkpt><trkpt lat="43.76843802759782" lon="7.016308921884113"><ele>975.0</ele><time>2026-04-25T16:39:59.999Z</time></trkpt><trkpt lat="43.76849079973488" lon="7.0164359125120415"><ele>975.0</ele><time>2026-04-25T16:40:00.999Z</time></trkpt><trkpt lat="43.768530028059764" lon="7.016544751978333"><ele>975.0</ele><time>2026-04-25T16:40:01.999Z</time></trkpt><trkpt lat="43.76858325827459" lon="7.016609839105014"><ele>975.0</ele><time>2026-04-25T16:40:02.999Z</time></trkpt><trkpt lat="43.76866262265469" lon="7.016643263348107"><ele>975.0</ele><time>2026-04-25T16:40:03.999Z</time></trkpt><trkpt lat="43.768734686468186" lon="7.016705220844392"><ele>976.8333333333334</ele><time>2026-04-25T16:40:04.999Z</time></trkpt><trkpt lat="43.768793794724424" lon="7.016802141822144"><ele>978.6666666666667</ele><time>2026-04-25T16:40:05.999Z</time></trkpt><trkpt lat="43.76884670641572" lon="7.016900669485621"><ele>980.5</ele><time>2026-04-25T16:40:06.999Z</time></trkpt><trkpt lat="43.76891519999615" lon="7.016945703253419"><ele>982.3333333333334</ele><time>2026-04-25T16:40:07.999Z</time></trkpt><trkpt lat="43.76899748824155" lon="7.016978657790917"><ele>984.1666666666667</ele><time>2026-04-25T16:40:08.999Z</time></trkpt><trkpt lat="43.76907817556437" lon="7.017042491152673"><ele>986.0</ele><time>2026-04-25T16:40:09.999Z</time></trkpt><trkpt lat="43.76916409184419" lon="7.0171446221931815"><ele>986.0000000000001</ele><time>2026-04-25T16:40:10.999Z</time></trkpt><trkpt lat="43.769247148468665" lon="7.0172138680963805"><ele>986.0</ele><time>2026-04-25T16:40:11.999Z</time></trkpt><trkpt lat="43.76932859797236" lon="7.0172559059810755"><ele>986.0</ele><time>2026-04-25T16:40:12.999Z</time></trkpt><trkpt lat="43.769417492657595" lon="7.0172785494993315"><ele>986.0</ele><time>2026-04-25T16:40:13.999Z</time></trkpt><trkpt lat="43.76949761758473" lon="7.017301902368045"><ele>986.0000000000001</ele><time>2026-04-25T16:40:14.999Z</time></trkpt><trkpt lat="43.7695669350682" lon="7.017336598109178"><ele>986.0</ele><time>2026-04-25T16:40:15.999Z</time></trkpt><trkpt lat="43.76964158640556" lon="7.017374763613931"><ele>987.4</ele><time>2026-04-25T16:40:16.999Z</time></trkpt><trkpt lat="43.76974435946059" lon="7.017423995805195"><ele>988.8</ele><time>2026-04-25T16:40:17.999Z</time></trkpt><trkpt lat="43.7698512699871" lon="7.017481977243235"><ele>990.1999999999999</ele><time>2026-04-25T16:40:18.999Z</time></trkpt><trkpt lat="43.76994486089233" lon="7.0175292976661545"><ele>991.5999999999999</ele><time>2026-04-25T16:40:19.999Z</time></trkpt><trkpt lat="43.77000700358973" lon="7.01761344221317"><ele>993.0</ele><time>2026-04-25T16:40:20.999Z</time></trkpt><trkpt lat="43.77006426445879" lon="7.017650176209124"><ele>993.0</ele><time>2026-04-25T16:40:21.999Z</time></trkpt><trkpt lat="43.77008447612396" lon="7.0177391852803686"><ele>993.0</ele><time>2026-04-25T16:52:02Z</time></trkpt><trkpt lat="43.77015610502258" lon="7.0178235812996075"><ele>993.0</ele><time>2026-04-25T16:52:04Z</time></trkpt><trkpt lat="43.77020997046105" lon="7.01787666835419"><ele>993.0</ele><time>2026-04-25T16:52:05Z</time></trkpt><trkpt lat="43.77026762481596" lon="7.017948366812518"><ele>993.0</ele><time>2026-04-25T16:52:06Z</time></trkpt><trkpt lat="43.77032998771266" lon="7.018030052098939"><ele>993.0</ele><time>2026-04-25T16:52:07Z</time></trkpt><trkpt lat="43.77037902869918" lon="7.0181044839388935"><ele>994.0</ele><time>2026-04-25T16:52:08Z</time></trkpt><trkpt lat="43.770489884743945" lon="7.018259234721459"><ele>995.0</ele><time>2026-04-25T16:52:10Z</time></trkpt><trkpt lat="43.770546179813344" lon="7.0183361753823394"><ele>996.0</ele><time>2026-04-25T16:52:11Z</time></trkpt><trkpt lat="43.77060256086096" lon="7.018408196249016"><ele>997.0</ele><time>2026-04-25T16:52:12Z</time></trkpt><trkpt lat="43.77066223181754" lon="7.0184780646168985"><ele>998.0</ele><time>2026-04-25T16:52:13Z</time></trkpt><trkpt lat="43.77072073034193" lon="7.0185389653252495"><ele>998.0</ele><time>2026-04-25T16:52:14Z</time></trkpt><trkpt lat="43.770781428755946" lon="7.018596077303989"><ele>998.0</ele><time>2026-04-25T16:52:15Z</time></trkpt><trkpt lat="43.7708543929113" lon="7.018656465031362"><ele>998.0</ele><time>2026-04-25T16:52:16Z</time></trkpt><trkpt lat="43.77095015896457" lon="7.018694459049904"><ele>998.0</ele><time>2026-04-25T16:52:16.999Z</time></trkpt><trkpt lat="43.7710603920547" lon="7.018713928865861"><ele>998.0</ele><time>2026-04-25T16:52:17.999Z</time></trkpt><trkpt lat="43.771164151864056" lon="7.018725085437634"><ele>999.6666666666667</ele><time>2026-04-25T16:52:18.999Z</time></trkpt><trkpt lat="43.77124373459321" lon="7.018743715568939"><ele>1001.3333333333334</ele><time>2026-04-25T16:52:19.999Z</time></trkpt><trkpt lat="43.77132830666028" lon="7.018844700297773"><ele>1003.0</ele><time>2026-04-25T16:52:21.999Z</time></trkpt><trkpt lat="43.77138180173395" lon="7.018892138614712"><ele>1004.6666666666667</ele><time>2026-04-25T16:52:23.999Z</time></trkpt><trkpt lat="43.77146432320273" lon="7.0189386580725275"><ele>1006.3333333333334</ele><time>2026-04-25T16:52:25.999Z</time></trkpt><trkpt lat="43.771519982761134" lon="7.019008448390555"><ele>1008.0</ele><time>2026-04-25T16:52:28.999Z</time></trkpt><trkpt lat="43.77145131537638" lon="7.019105640177951"><ele>1007.6666666666666</ele><time>2026-04-25T16:52:31.999Z</time></trkpt><trkpt lat="43.77139948309746" lon="7.019214010617135"><ele>1007.3333333333333</ele><time>2026-04-25T16:52:33.999Z</time></trkpt><trkpt lat="43.77135982738864" lon="7.019358363677002"><ele>1007.0</ele><time>2026-04-25T16:52:35.999Z</time></trkpt><trkpt lat="43.7713534773973" lon="7.019450965531556"><ele>1006.6666666666666</ele><time>2026-04-25T16:52:36.999Z</time></trkpt><trkpt lat="43.77135594405894" lon="7.0195465568037285"><ele>1006.3333333333333</ele><time>2026-04-25T16:52:37.999Z</time></trkpt><trkpt lat="43.77135485307032" lon="7.019639809085858"><ele>1006.0</ele><time>2026-04-25T16:52:38.999Z</time></trkpt><trkpt lat="43.7713575665502" lon="7.019730398394322"><ele>1006.0</ele><time>2026-04-25T16:52:39.999Z</time></trkpt><trkpt lat="43.7713606580971" lon="7.01981957564178"><ele>1005.9999999999999</ele><time>2026-04-25T16:52:40.999Z</time></trkpt><trkpt lat="43.77129113442547" lon="7.01998148439796"><ele>1005.9999999999999</ele><time>2026-04-25T16:52:42.999Z</time></trkpt><trkpt lat="43.77120096036483" lon="7.020044045018664"><ele>1006.0</ele><time>2026-04-25T16:52:43.999Z</time></trkpt><trkpt lat="43.771090658364216" lon="7.02011284650486"><ele>1006.0</ele><time>2026-04-25T16:52:44.999Z</time></trkpt><trkpt lat="43.770994830284025" lon="7.020192067241768"><ele>1004.8333333333333</ele><time>2026-04-25T16:52:45.999Z</time></trkpt><trkpt lat="43.77090386970528" lon="7.020278684893349"><ele>1003.6666666666666</ele><time>2026-04-25T16:52:46.999Z</time></trkpt><trkpt lat="43.77083182353876" lon="7.020354234488334"><ele>1002.5</ele><time>2026-04-25T16:52:47.999Z</time></trkpt><trkpt lat="43.770786505367816" lon="7.02042899001659"><ele>1001.3333333333333</ele><time>2026-04-25T16:52:48.999Z</time></trkpt><trkpt lat="43.77076117729793" lon="7.020569028946658"><ele>1000.1666666666666</ele><time>2026-04-25T16:52:50.999Z</time></trkpt><trkpt lat="43.770744911632036" lon="7.020659957122554"><ele>999.0</ele><time>2026-04-25T16:52:51.999Z</time></trkpt><trkpt lat="43.77073110227897" lon="7.020789246012384"><ele>999.6</ele><time>2026-04-25T16:52:52.999Z</time></trkpt><trkpt lat="43.77072858543877" lon="7.020915893503478"><ele>1000.2</ele><time>2026-04-25T16:52:53.999Z</time></trkpt><trkpt lat="43.77073288988422" lon="7.021029992144252"><ele>1000.8000000000001</ele><time>2026-04-25T16:52:54.999Z</time></trkpt><trkpt lat="43.77075859306856" lon="7.0211574482864005"><ele>1001.4000000000001</ele><time>2026-04-25T16:52:55.999Z</time></trkpt><trkpt lat="43.77078872968746" lon="7.02129656180532"><ele>1002.0</ele><time>2026-04-25T16:52:56.999Z</time></trkpt><trkpt lat="43.770799161598084" lon="7.021427623752565"><ele>1002.0</ele><time>2026-04-25T16:52:57.999Z</time></trkpt><trkpt lat="43.770789455118496" lon="7.021547187297442"><ele>1002.0</ele><time>2026-04-25T16:52:58.999Z</time></trkpt><trkpt lat="43.77073956482625" lon="7.021646095735748"><ele>1002.0</ele><time>2026-04-25T16:52:59.999Z</time></trkpt><trkpt lat="43.770663682026" lon="7.021714696377105"><ele>1002.0</ele><time>2026-04-25T16:53:00.999Z</time></trkpt><trkpt lat="43.77057102236969" lon="7.0217622704874865"><ele>1002.0</ele><time>2026-04-25T16:53:01.999Z</time></trkpt><trkpt lat="43.770460750989585" lon="7.0218110448488815"><ele>1002.4000000000001</ele><time>2026-04-25T16:53:02.999Z</time></trkpt><trkpt lat="43.770362143923165" lon="7.021877822657915"><ele>1002.8000000000001</ele><time>2026-04-25T16:53:03.999Z</time></trkpt><trkpt lat="43.770288763961375" lon="7.021940096578958"><ele>1003.2</ele><time>2026-04-25T16:53:04.999Z</time></trkpt><trkpt lat="43.770234801995805" lon="7.021995434855939"><ele>1003.6</ele><time>2026-04-25T16:53:05.999Z</time></trkpt><trkpt lat="43.770203061845095" lon="7.022134693404655"><ele>1004.0</ele><time>2026-04-25T16:53:07.999Z</time></trkpt><trkpt lat="43.77019968977167" lon="7.022264392034453"><ele>1003.4000000000001</ele><time>2026-04-25T16:53:08.999Z</time></trkpt><trkpt lat="43.77016517835468" lon="7.022413482716924"><ele>1002.8000000000001</ele><time>2026-04-25T16:53:09.999Z</time></trkpt><trkpt lat="43.77011584077754" lon="7.0225793856867496"><ele>1002.1999999999999</ele><time>2026-04-25T16:53:10.999Z</time></trkpt><trkpt lat="43.770070185293065" lon="7.022720454858659"><ele>1001.5999999999999</ele><time>2026-04-25T16:53:11.999Z</time></trkpt><trkpt lat="43.77002832854079" lon="7.022834127031343"><ele>1001.0</ele><time>2026-04-25T16:53:12.999Z</time></trkpt><trkpt lat="43.76997871982911" lon="7.022934181734674"><ele>1001.0</ele><time>2026-04-25T16:53:13.999Z</time></trkpt><trkpt lat="43.76990698097647" lon="7.023041582043172"><ele>1000.9999999999999</ele><time>2026-04-25T16:53:14.998Z</time></trkpt><trkpt lat="43.76983863954604" lon="7.023162018531968"><ele>1000.9999999999999</ele><time>2026-04-25T16:53:15.998Z</time></trkpt><trkpt lat="43.76976902294784" lon="7.023258497876753"><ele>1001.0</ele><time>2026-04-25T16:53:16.998Z</time></trkpt><trkpt lat="43.76973063559747" lon="7.0233298716507955"><ele>1001.0</ele><time>2026-04-25T16:53:17.998Z</time></trkpt><trkpt lat="43.76972346773242" lon="7.023437938275952"><ele>1001.5000000000001</ele><time>2026-04-25T16:53:19.998Z</time></trkpt><trkpt lat="43.7697399890741" lon="7.023581613472856"><ele>1002.0</ele><time>2026-04-25T16:53:21.998Z</time></trkpt><trkpt lat="43.76972029782673" lon="7.023666897011679"><ele>1002.5</ele><time>2026-04-25T16:53:22.998Z</time></trkpt><trkpt lat="43.76967738469162" lon="7.023775022560114"><ele>1003.0</ele><time>2026-04-25T16:53:23.998Z</time></trkpt><trkpt lat="43.76962893791055" lon="7.023888346799212"><ele>1003.5000000000001</ele><time>2026-04-25T16:53:24.998Z</time></trkpt><trkpt lat="43.76959067178954" lon="7.023993271262938"><ele>1004.0</ele><time>2026-04-25T16:53:25.998Z</time></trkpt><trkpt lat="43.76954927305422" lon="7.024075821709029"><ele>1004.6</ele><time>2026-04-25T16:53:26.998Z</time></trkpt><trkpt lat="43.76949444680723" lon="7.024163033813837"><ele>1005.2</ele><time>2026-04-25T16:53:27.998Z</time></trkpt><trkpt lat="43.76942958091209" lon="7.02425154784425"><ele>1005.8000000000001</ele><time>2026-04-25T16:53:28.998Z</time></trkpt><trkpt lat="43.769365309282826" lon="7.024347170219584"><ele>1006.4000000000001</ele><time>2026-04-25T16:53:29.998Z</time></trkpt><trkpt lat="43.76930405626239" lon="7.0244432090183775"><ele>1007.0</ele><time>2026-04-25T16:53:30.998Z</time></trkpt><trkpt lat="43.769242852512924" lon="7.024541926751385"><ele>1007.3333333333334</ele><time>2026-04-25T16:53:31.998Z</time></trkpt><trkpt lat="43.76919432886174" lon="7.024628376220014"><ele>1007.6666666666667</ele><time>2026-04-25T16:53:32.998Z</time></trkpt><trkpt lat="43.769164121744204" lon="7.02474360802945"><ele>1008.0</ele><time>2026-04-25T16:53:34.998Z</time></trkpt><trkpt lat="43.76917035820426" lon="7.02487597453078"><ele>1008.3333333333333</ele><time>2026-04-25T16:53:36.998Z</time></trkpt><trkpt lat="43.76916348780158" lon="7.0249939178646725"><ele>1008.6666666666666</ele><time>2026-04-25T16:53:38.998Z</time></trkpt><trkpt lat="43.769181682659955" lon="7.025119844679835"><ele>1009.0</ele><time>2026-04-25T16:53:40.998Z</time></trkpt><trkpt lat="43.7691842541052" lon="7.025294783789976"><ele>1010.25</ele><time>2026-04-25T16:53:42.998Z</time></trkpt><trkpt lat="43.769162960471796" lon="7.0254251139165484"><ele>1011.5</ele><time>2026-04-25T16:53:43.998Z</time></trkpt><trkpt lat="43.7691382229347" lon="7.0255845709414615"><ele>1012.75</ele><time>2026-04-25T16:53:44.998Z</time></trkpt><trkpt lat="43.76911812277104" lon="7.0257655316104515"><ele>1014.0</ele><time>2026-04-25T16:53:45.998Z</time></trkpt><trkpt lat="43.769096863581794" lon="7.025931619567823"><ele>1015.0</ele><time>2026-04-25T16:53:46.998Z</time></trkpt><trkpt lat="43.76908019280382" lon="7.026045960736154"><ele>1016.0000000000001</ele><time>2026-04-25T16:53:47.998Z</time></trkpt><trkpt lat="43.76905388640978" lon="7.026183164107051"><ele>1017.0000000000001</ele><time>2026-04-25T16:53:49.998Z</time></trkpt><trkpt lat="43.76898953590687" lon="7.0262629541449675"><ele>1018.0</ele><time>2026-04-25T16:53:51.998Z</time></trkpt><trkpt lat="43.768915142225495" lon="7.026395444082306"><ele>1019.0</ele><time>2026-04-25T16:53:53.998Z</time></trkpt><trkpt lat="43.76887089218618" lon="7.0264803543403715"><ele>1019.0000000000001</ele><time>2026-04-25T16:53:54.998Z</time></trkpt><trkpt lat="43.76882268936992" lon="7.026578017964143"><ele>1019.0</ele><time>2026-04-25T16:53:55.998Z</time></trkpt><trkpt lat="43.76877935501162" lon="7.026675240461881"><ele>1019.0</ele><time>2026-04-25T16:53:56.998Z</time></trkpt><trkpt lat="43.768744148773735" lon="7.026762978451361"><ele>1019.0</ele><time>2026-04-25T16:53:57.998Z</time></trkpt><trkpt lat="43.768709236358774" lon="7.026842531217874"><ele>1019.0000000000001</ele><time>2026-04-25T16:53:58.998Z</time></trkpt><trkpt lat="43.76865690473662" lon="7.0269462707166985"><ele>1019.0</ele><time>2026-04-25T16:54:00.998Z</time></trkpt><trkpt lat="43.768593340540356" lon="7.02693491064042"><ele>1019.1666666666667</ele><time>2026-04-25T16:54:02.999Z</time></trkpt><trkpt lat="43.768541221833466" lon="7.026874696022283"><ele>1019.3333333333334</ele><time>2026-04-25T16:54:04.999Z</time></trkpt><trkpt lat="43.76847115791648" lon="7.026896883130684"><ele>1019.5</ele><time>2026-04-25T16:54:12Z</time></trkpt><trkpt lat="43.768405584791836" lon="7.026857618492064"><ele>1019.6666666666667</ele><time>2026-04-25T16:54:17Z</time></trkpt><trkpt lat="43.76833048226288" lon="7.026832825477773"><ele>1019.8333333333334</ele><time>2026-04-25T16:54:21Z</time></trkpt><trkpt lat="43.768267034315706" lon="7.026796866144257"><ele>1020.0</ele><time>2026-04-25T16:54:22.999Z</time></trkpt><trkpt lat="43.76818129472472" lon="7.02673333481362"><ele>1020.0</ele><time>2026-04-25T16:54:24.999Z</time></trkpt><trkpt lat="43.76810228885202" lon="7.026682980831687"><ele>1020.0</ele><time>2026-04-25T16:54:26.999Z</time></trkpt><trkpt lat="43.76803641033218" lon="7.026633340348235"><ele>1020.0</ele><time>2026-04-25T16:54:28.999Z</time></trkpt><trkpt lat="43.76794294004818" lon="7.026574349609234"><ele>1020.0</ele><time>2026-04-25T16:54:30.999Z</time></trkpt><trkpt lat="43.76787624356023" lon="7.026520564539885"><ele>1020.0</ele><time>2026-04-25T16:54:31.999Z</time></trkpt><trkpt lat="43.767790616598866" lon="7.026455163438865"><ele>1020.0</ele><time>2026-04-25T16:54:32.999Z</time></trkpt><trkpt lat="43.76770168244031" lon="7.026387137300685"><ele>1019.5</ele><time>2026-04-25T16:54:33.999Z</time></trkpt><trkpt lat="43.7676172650596" lon="7.0263166140162525"><ele>1019.0</ele><time>2026-04-25T16:54:34.999Z</time></trkpt><trkpt lat="43.76752452290153" lon="7.0262534189583405"><ele>1018.5</ele><time>2026-04-25T16:54:35.999Z</time></trkpt><trkpt lat="43.76741271476136" lon="7.02617438886754"><ele>1018.0</ele><time>2026-04-25T16:54:36.999Z</time></trkpt><trkpt lat="43.767296109526676" lon="7.026094261783955"><ele>1018.0</ele><time>2026-04-25T16:54:37.999Z</time></trkpt><trkpt lat="43.76719535644728" lon="7.026024363350024"><ele>1018.0</ele><time>2026-04-25T16:54:38.999Z</time></trkpt><trkpt lat="43.76708304242478" lon="7.025942078401746"><ele>1018.0</ele><time>2026-04-25T16:54:39.999Z</time></trkpt><trkpt lat="43.76697267270111" lon="7.025854032794075"><ele>1018.0</ele><time>2026-04-25T16:54:40.999Z</time></trkpt><trkpt lat="43.76683939593383" lon="7.025777568276915"><ele>1018.25</ele><time>2026-04-25T16:54:41.999Z</time></trkpt><trkpt lat="43.76672861761334" lon="7.025698619852856"><ele>1018.5</ele><time>2026-04-25T16:54:42.999Z</time></trkpt><trkpt lat="43.76662053132007" lon="7.025620769731874"><ele>1018.75</ele><time>2026-04-25T16:54:43.999Z</time></trkpt><trkpt lat="43.7665089856938" lon="7.025543242976141"><ele>1019.0</ele><time>2026-04-25T16:54:44.999Z</time></trkpt><trkpt lat="43.766399173637964" lon="7.025459417043422"><ele>1019.0</ele><time>2026-04-25T16:54:45.999Z</time></trkpt><trkpt lat="43.76630373280633" lon="7.025387820886325"><ele>1019.0000000000001</ele><time>2026-04-25T16:54:46.999Z</time></trkpt><trkpt lat="43.76620944111363" lon="7.025317818890938"><ele>1019.0000000000001</ele><time>2026-04-25T16:54:47.999Z</time></trkpt><trkpt lat="43.76611480950431" lon="7.0252470172314885"><ele>1019.0</ele><time>2026-04-25T16:54:48.999Z</time></trkpt><trkpt lat="43.76601895885666" lon="7.025170884339566"><ele>1019.0</ele><time>2026-04-25T16:54:49.999Z</time></trkpt><trkpt lat="43.765912245000976" lon="7.025094175310665"><ele>1018.4000000000001</ele><time>2026-04-25T16:54:50.999Z</time></trkpt><trkpt lat="43.765800723361856" lon="7.025015076342674"><ele>1017.8000000000001</ele><time>2026-04-25T16:54:51.999Z</time></trkpt><trkpt lat="43.765693835076846" lon="7.0249323757867135"><ele>1017.1999999999999</ele><time>2026-04-25T16:54:52.999Z</time></trkpt><trkpt lat="43.765604090277826" lon="7.024854277149766"><ele>1016.5999999999999</ele><time>2026-04-25T16:54:53.999Z</time></trkpt><trkpt lat="43.76552723471317" lon="7.024782252763827"><ele>1016.0</ele><time>2026-04-25T16:54:54.999Z</time></trkpt><trkpt lat="43.76544310549427" lon="7.024725682281461"><ele>1016.4</ele><time>2026-04-25T16:54:55.999Z</time></trkpt><trkpt lat="43.76535399161612" lon="7.024708396210351"><ele>1016.8</ele><time>2026-04-25T16:54:56.999Z</time></trkpt><trkpt lat="43.76525591047267" lon="7.024708153970027"><ele>1017.1999999999999</ele><time>2026-04-25T16:54:57.999Z</time></trkpt><trkpt lat="43.76514915202024" lon="7.02471849177051"><ele>1017.5999999999999</ele><time>2026-04-25T16:54:58.999Z</time></trkpt><trkpt lat="43.76503061295572" lon="7.0247268783079715"><ele>1018.0</ele><time>2026-04-25T16:54:59.999Z</time></trkpt><trkpt lat="43.764910184469855" lon="7.024732270030702"><ele>1017.9999999999999</ele><time>2026-04-25T16:55:00.999Z</time></trkpt><trkpt lat="43.764814078051636" lon="7.024731749235861"><ele>1018.0</ele><time>2026-04-25T16:55:01.999Z</time></trkpt><trkpt lat="43.76473465623721" lon="7.02472196292866"><ele>1018.0</ele><time>2026-04-25T16:55:02.999Z</time></trkpt><trkpt lat="43.764656563739976" lon="7.024692138308256"><ele>1018.0</ele><time>2026-04-25T16:55:03.999Z</time></trkpt><trkpt lat="43.76457743281599" lon="7.024648661906276"><ele>1017.9999999999999</ele><time>2026-04-25T16:55:04.999Z</time></trkpt><trkpt lat="43.76448227621373" lon="7.024601793898639"><ele>1018.0</ele><time>2026-04-25T16:55:05.999Z</time></trkpt><trkpt lat="43.76437969501823" lon="7.024576329553673"><ele>1016.4999999999999</ele><time>2026-04-25T16:55:06.999Z</time></trkpt><trkpt lat="43.764294371374326" lon="7.024544615390633"><ele>1015.0</ele><time>2026-04-25T16:55:07.999Z</time></trkpt><trkpt lat="43.76421868746164" lon="7.02449961402084"><ele>1013.5</ele><time>2026-04-25T16:55:08.999Z</time></trkpt><trkpt lat="43.76414606962003" lon="7.024453365128404"><ele>1012.0</ele><time>2026-04-25T16:55:09.999Z</time></trkpt><trkpt lat="43.7640876113376" lon="7.024391752441689"><ele>1010.4999999999999</ele><time>2026-04-25T16:55:10.999Z</time></trkpt><trkpt lat="43.76402055105416" lon="7.02431844189516"><ele>1009.0</ele><time>2026-04-25T16:55:11.999Z</time></trkpt><trkpt lat="43.76394741647797" lon="7.02426372766724"><ele>1009.0</ele><time>2026-04-25T16:55:12.999Z</time></trkpt><trkpt lat="43.763861298541435" lon="7.024206611031124"><ele>1009.0000000000001</ele><time>2026-04-25T16:55:13.999Z</time></trkpt><trkpt lat="43.76375772855405" lon="7.024132823482523"><ele>1009.0000000000001</ele><time>2026-04-25T16:55:14.999Z</time></trkpt><trkpt lat="43.763656594100716" lon="7.024053750605196"><ele>1009.0</ele><time>2026-04-25T16:55:15.999Z</time></trkpt><trkpt lat="43.763564586614436" lon="7.023984606129967"><ele>1009.0</ele><time>2026-04-25T16:55:16.999Z</time></trkpt><trkpt lat="43.76348051668205" lon="7.023929573743503"><ele>1007.8333333333333</ele><time>2026-04-25T16:55:17.999Z</time></trkpt><trkpt lat="43.76340898528419" lon="7.023875996021313"><ele>1006.6666666666666</ele><time>2026-04-25T16:55:18.999Z</time></trkpt><trkpt lat="43.76333812640541" lon="7.023815361677835"><ele>1005.5</ele><time>2026-04-25T16:55:19.999Z</time></trkpt><trkpt lat="43.76326748714533" lon="7.023753049563515"><ele>1004.3333333333333</ele><time>2026-04-25T16:55:20.999Z</time></trkpt><trkpt lat="43.76320471581096" lon="7.023694447347061"><ele>1003.1666666666666</ele><time>2026-04-25T16:55:21.999Z</time></trkpt><trkpt lat="43.76314148091435" lon="7.02363640168178"><ele>1002.0</ele><time>2026-04-25T16:55:22.999Z</time></trkpt><trkpt lat="43.763095045895724" lon="7.023573649695215"><ele>1002.0</ele><time>2026-04-25T16:55:23.999Z</time></trkpt><trkpt lat="43.763049819997654" lon="7.023490513047981"><ele>1002.0</ele><time>2026-04-25T16:55:24.999Z</time></trkpt><trkpt lat="43.76301873921328" lon="7.023379471641537"><ele>1002.0</ele><time>2026-04-25T16:55:25.999Z</time></trkpt><trkpt lat="43.76298150188007" lon="7.023250405285069"><ele>1002.0</ele><time>2026-04-25T16:55:26.999Z</time></trkpt><trkpt lat="43.762946418364486" lon="7.02312876845646"><ele>1002.0</ele><time>2026-04-25T16:55:27.999Z</time></trkpt><trkpt lat="43.76290380618852" lon="7.023004773679022"><ele>1001.8333333333334</ele><time>2026-04-25T16:55:28.999Z</time></trkpt><trkpt lat="43.76285349248441" lon="7.022892397805397"><ele>1001.6666666666667</ele><time>2026-04-25T16:55:29.998Z</time></trkpt><trkpt lat="43.76280834535608" lon="7.022783759937123"><ele>1001.5</ele><time>2026-04-25T16:55:30.998Z</time></trkpt><trkpt lat="43.76275909013767" lon="7.022681239582011"><ele>1001.3333333333334</ele><time>2026-04-25T16:55:31.998Z</time></trkpt><trkpt lat="43.76271610238366" lon="7.022586791648265"><ele>1001.1666666666667</ele><time>2026-04-25T16:55:32.998Z</time></trkpt><trkpt lat="43.76267567947033" lon="7.022502721891416"><ele>1001.0</ele><time>2026-04-25T16:55:33.998Z</time></trkpt><trkpt lat="43.762636943634355" lon="7.022406753968557"><ele>999.0000000000001</ele><time>2026-04-25T16:55:34.998Z</time></trkpt><trkpt lat="43.76259922475435" lon="7.022313418731687"><ele>997.0</ele><time>2026-04-25T16:55:35.998Z</time></trkpt><trkpt lat="43.76256150337161" lon="7.022210356577787"><ele>995.0</ele><time>2026-04-25T16:55:36.998Z</time></trkpt><trkpt lat="43.76252896308942" lon="7.022109689500573"><ele>993.0</ele><time>2026-04-25T16:55:37.998Z</time></trkpt><trkpt lat="43.76249370744263" lon="7.0220213580681845"><ele>991.0000000000001</ele><time>2026-04-25T16:55:38.998Z</time></trkpt><trkpt lat="43.762463557533685" lon="7.021936525304333"><ele>989.0</ele><time>2026-04-25T16:55:39.998Z</time></trkpt><trkpt lat="43.76243743346095" lon="7.02181760812183"><ele>989.0000000000001</ele><time>2026-04-25T16:55:41.998Z</time></trkpt><trkpt lat="43.76237760635339" lon="7.0217827722613935"><ele>989.0</ele><time>2026-04-25T16:55:44.998Z</time></trkpt><trkpt lat="43.76230623584733" lon="7.021812682628874"><ele>989.0</ele><time>2026-04-25T16:55:48.998Z</time></trkpt><trkpt lat="43.76221063885613" lon="7.021854833710109"><ele>989.0</ele><time>2026-04-25T16:55:51.998Z</time></trkpt><trkpt lat="43.762127040701536" lon="7.021889563901752"><ele>989.0000000000001</ele><time>2026-04-25T16:55:53.998Z</time></trkpt><trkpt lat="43.76204848294934" lon="7.021915608776161"><ele>989.0</ele><time>2026-04-25T16:55:55.998Z</time></trkpt><trkpt lat="43.76196185071385" lon="7.0218754864797885"><ele>987.5000000000001</ele><time>2026-04-25T16:55:57.998Z</time></trkpt><trkpt lat="43.761850291438975" lon="7.021791870878861"><ele>986.0</ele><time>2026-04-25T16:55:59.998Z</time></trkpt><trkpt lat="43.76178576697227" lon="7.0217397667296675"><ele>984.5</ele><time>2026-04-25T16:56:00.998Z</time></trkpt><trkpt lat="43.76172605188612" lon="7.02170299519892"><ele>983.0</ele><time>2026-04-25T16:56:01.998Z</time></trkpt><trkpt lat="43.76166313934284" lon="7.02166011805881"><ele>981.5000000000001</ele><time>2026-04-25T16:56:02.998Z</time></trkpt><trkpt lat="43.76160507035794" lon="7.0216158901901515"><ele>980.0</ele><time>2026-04-25T16:56:03.998Z</time></trkpt><trkpt lat="43.76149277989581" lon="7.021537189237273"><ele>980.0000000000001</ele><time>2026-04-25T16:56:05.998Z</time></trkpt><trkpt lat="43.761433521951425" lon="7.021491661793946"><ele>980.0</ele><time>2026-04-25T16:56:06.998Z</time></trkpt><trkpt lat="43.76133281787668" lon="7.021386397092487"><ele>980.0</ele><time>2026-04-25T16:56:09Z</time></trkpt><trkpt lat="43.76127716876543" lon="7.021342656768565"><ele>980.0</ele><time>2026-04-25T16:56:10Z</time></trkpt><trkpt lat="43.76122013594478" lon="7.021295944017272"><ele>980.0000000000001</ele><time>2026-04-25T16:56:11Z</time></trkpt><trkpt lat="43.76112816611008" lon="7.021210089635234"><ele>980.0</ele><time>2026-04-25T16:56:13Z</time></trkpt><trkpt lat="43.761022536766326" lon="7.021123266197543"><ele>977.8333333333334</ele><time>2026-04-25T16:56:15Z</time></trkpt><trkpt lat="43.760962081365825" lon="7.021075218341711"><ele>975.6666666666667</ele><time>2026-04-25T16:56:16Z</time></trkpt><trkpt lat="43.76089733420083" lon="7.021015195933554"><ele>973.5</ele><time>2026-04-25T16:56:17Z</time></trkpt><trkpt lat="43.760840535736705" lon="7.020964495472385"><ele>971.3333333333333</ele><time>2026-04-25T16:56:18Z</time></trkpt><trkpt lat="43.760789805129264" lon="7.02091141156894"><ele>969.1666666666666</ele><time>2026-04-25T16:56:19Z</time></trkpt><trkpt lat="43.76069100433442" lon="7.020839113524753"><ele>967.0</ele><time>2026-04-25T16:56:21Z</time></trkpt><trkpt lat="43.76063943015529" lon="7.020788349676505"><ele>966.8</ele><time>2026-04-25T16:56:22Z</time></trkpt><trkpt lat="43.7605851039491" lon="7.020740900125945"><ele>966.6</ele><time>2026-04-25T16:56:23Z</time></trkpt><trkpt lat="43.76048362451262" lon="7.020655842843378"><ele>966.3999999999999</ele><time>2026-04-25T16:56:25Z</time></trkpt><trkpt lat="43.7604266147978" lon="7.020598283786272"><ele>966.1999999999999</ele><time>2026-04-25T16:56:26Z</time></trkpt><trkpt lat="43.76036819966566" lon="7.020546656169118"><ele>966.0</ele><time>2026-04-25T16:56:27Z</time></trkpt><trkpt lat="43.760257570937185" lon="7.020457394195273"><ele>965.0</ele><time>2026-04-25T16:56:29Z</time></trkpt><trkpt lat="43.76019925065742" lon="7.020406352605121"><ele>964.0</ele><time>2026-04-25T16:56:30Z</time></trkpt><trkpt lat="43.760138634193225" lon="7.020345922696826"><ele>963.0</ele><time>2026-04-25T16:56:31Z</time></trkpt><trkpt lat="43.76005345579221" lon="7.020269106179735"><ele>962.0</ele><time>2026-04-25T16:56:32.999Z</time></trkpt><trkpt lat="43.75996264503762" lon="7.020226600302773"><ele>961.0</ele><time>2026-04-25T16:56:34.999Z</time></trkpt><trkpt lat="43.75995042293622" lon="7.0200946740312355"><ele>960.0</ele><time>2026-04-25T16:56:44.999Z</time></trkpt><trkpt lat="43.759989754074454" lon="7.019937813220421"><ele>960.0</ele><time>2026-04-25T16:56:46.999Z</time></trkpt><trkpt lat="43.760035186184155" lon="7.019864601746249"><ele>960.0</ele><time>2026-04-25T16:56:47.999Z</time></trkpt><trkpt lat="43.760105104751986" lon="7.0198042356746475"><ele>960.0</ele><time>2026-04-25T16:56:48.999Z</time></trkpt><trkpt lat="43.760184412171924" lon="7.019760620540528"><ele>960.0</ele><time>2026-04-25T16:56:49.999Z</time></trkpt><trkpt lat="43.760271994277716" lon="7.019748299922009"><ele>960.0</ele><time>2026-04-25T16:56:50.999Z</time></trkpt><trkpt lat="43.76032692644886" lon="7.019688196929135"><ele>960.0</ele><time>2026-04-25T16:56:52.999Z</time></trkpt><trkpt lat="43.76026187428967" lon="7.019679806681584"><ele>960.0</ele><time>2026-04-25T16:56:54.999Z</time></trkpt><trkpt lat="43.7601502351191" lon="7.019691707086587"><ele>960.0</ele><time>2026-04-25T16:56:56.999Z</time></trkpt><trkpt lat="43.76004091059261" lon="7.019674938829788"><ele>960.0</ele><time>2026-04-25T16:56:58.999Z</time></trkpt><trkpt lat="43.75995763172103" lon="7.0196838505655945"><ele>960.0</ele><time>2026-04-25T16:56:59.999Z</time></trkpt><trkpt lat="43.759852753883074" lon="7.019683809269624"><ele>960.0</ele><time>2026-04-25T16:57:00.999Z</time></trkpt><trkpt lat="43.759737502289745" lon="7.019677599381922"><ele>960.0</ele><time>2026-04-25T16:57:01.999Z</time></trkpt><trkpt lat="43.75965926224943" lon="7.019645600917258"><ele>960.0</ele><time>2026-04-25T16:57:02.999Z</time></trkpt><trkpt lat="43.75961556177094" lon="7.019561097627258"><ele>960.0</ele><time>2026-04-25T16:57:03.999Z</time></trkpt><trkpt lat="43.75958330008493" lon="7.019456273031249"><ele>960.0</ele><time>2026-04-25T16:57:04.999Z</time></trkpt><trkpt lat="43.759516330747196" lon="7.019370599129147"><ele>960.0</ele><time>2026-04-25T16:57:05.999Z</time></trkpt><trkpt lat="43.759415563720765" lon="7.019325824150836"><ele>960.0</ele><time>2026-04-25T16:57:06.999Z</time></trkpt><trkpt lat="43.759314416530565" lon="7.019309539734602"><ele>960.2</ele><time>2026-04-25T16:57:07.999Z</time></trkpt><trkpt lat="43.759231731430276" lon="7.019313689585394"><ele>960.4</ele><time>2026-04-25T16:57:08.999Z</time></trkpt><trkpt lat="43.75914367977987" lon="7.01933873408155"><ele>960.5999999999999</ele><time>2026-04-25T16:57:09.999Z</time></trkpt><trkpt lat="43.75904356630012" lon="7.019365394134565"><ele>960.8</ele><time>2026-04-25T16:57:10.999Z</time></trkpt><trkpt lat="43.75893596736353" lon="7.01936514351211"><ele>961.0</ele><time>2026-04-25T16:57:11.999Z</time></trkpt><trkpt lat="43.7588114703367" lon="7.019338369776679"><ele>961.0</ele><time>2026-04-25T16:57:12.999Z</time></trkpt><trkpt lat="43.758683827451776" lon="7.0192960150548895"><ele>961.0</ele><time>2026-04-25T16:57:13.999Z</time></trkpt><trkpt lat="43.7585529148637" lon="7.0192331340235"><ele>961.0</ele><time>2026-04-25T16:57:14.999Z</time></trkpt><trkpt lat="43.758431893685895" lon="7.019150507218946"><ele>961.0</ele><time>2026-04-25T16:57:15.999Z</time></trkpt><trkpt lat="43.758326639469466" lon="7.01906379893773"><ele>960.0</ele><time>2026-04-25T16:57:16.999Z</time></trkpt><trkpt lat="43.758233991670096" lon="7.018998419185861"><ele>958.9999999999999</ele><time>2026-04-25T16:57:17.999Z</time></trkpt><trkpt lat="43.75814812987807" lon="7.018970986204726"><ele>957.9999999999999</ele><time>2026-04-25T16:57:18.999Z</time></trkpt><trkpt lat="43.7580732300324" lon="7.018988043947799"><ele>957.0</ele><time>2026-04-25T16:57:19.999Z</time></trkpt><trkpt lat="43.75801027519848" lon="7.019016039926852"><ele>956.0</ele><time>2026-04-25T16:57:20.999Z</time></trkpt><trkpt lat="43.75788716894894" lon="7.019033680647418"><ele>956.0</ele><time>2026-04-25T16:57:22.999Z</time></trkpt><trkpt lat="43.75781034189425" lon="7.018994477396581"><ele>956.0</ele><time>2026-04-25T16:57:23.999Z</time></trkpt><trkpt lat="43.75770641332117" lon="7.018927840204647"><ele>956.0</ele><time>2026-04-25T16:57:24.999Z</time></trkpt><trkpt lat="43.75757535159536" lon="7.018870844311761"><ele>956.0</ele><time>2026-04-25T16:57:25.999Z</time></trkpt><trkpt lat="43.75743357805555" lon="7.018822164217178"><ele>954.75</ele><time>2026-04-25T16:57:26.999Z</time></trkpt><trkpt lat="43.75728268914964" lon="7.018760730976969"><ele>953.5</ele><time>2026-04-25T16:57:27.999Z</time></trkpt><trkpt lat="43.75714527318303" lon="7.018711419688108"><ele>952.25</ele><time>2026-04-25T16:57:28.999Z</time></trkpt><trkpt lat="43.75701932899288" lon="7.018664851791645"><ele>951.0</ele><time>2026-04-25T16:57:29.999Z</time></trkpt><trkpt lat="43.75689505370747" lon="7.018623456871644"><ele>949.8</ele><time>2026-04-25T16:57:30.999Z</time></trkpt><trkpt lat="43.75677531615552" lon="7.018579746963634"><ele>948.5999999999999</ele><time>2026-04-25T16:57:31.999Z</time></trkpt><trkpt lat="43.75666650915954" lon="7.018544148469171"><ele>947.4</ele><time>2026-04-25T16:57:32.999Z</time></trkpt><trkpt lat="43.75656322841265" lon="7.0185086706819995"><ele>946.2</ele><time>2026-04-25T16:57:33.999Z</time></trkpt><trkpt lat="43.75646355705374" lon="7.018480272384331"><ele>945.0</ele><time>2026-04-25T16:57:34.999Z</time></trkpt><trkpt lat="43.7563710849529" lon="7.018451030303942"><ele>945.0</ele><time>2026-04-25T16:57:35.999Z</time></trkpt><trkpt lat="43.75628390735745" lon="7.018420659057125"><ele>945.0</ele><time>2026-04-25T16:57:36.999Z</time></trkpt><trkpt lat="43.75620047750876" lon="7.018393335934771"><ele>945.0</ele><time>2026-04-25T16:57:37.998Z</time></trkpt><trkpt lat="43.75611907326655" lon="7.018366863214596"><ele>945.0</ele><time>2026-04-25T16:57:38.998Z</time></trkpt><trkpt lat="43.75603735541136" lon="7.018345178364043"><ele>945.0</ele><time>2026-04-25T16:57:39.998Z</time></trkpt><trkpt lat="43.75595179039059" lon="7.018334752539191"><ele>945.0</ele><time>2026-04-25T16:57:40.998Z</time></trkpt><trkpt lat="43.75586708842426" lon="7.0183361804384505"><ele>944.75</ele><time>2026-04-25T16:57:41.998Z</time></trkpt><trkpt lat="43.755773220409544" lon="7.018320367910293"><ele>944.5</ele><time>2026-04-25T16:57:42.998Z</time></trkpt><trkpt lat="43.755642533174345" lon="7.018295208792619"><ele>944.25</ele><time>2026-04-25T16:57:43.998Z</time></trkpt><trkpt lat="43.75551101885086" lon="7.018266936501443"><ele>944.0</ele><time>2026-04-25T16:57:44.998Z</time></trkpt><trkpt lat="43.75540433001315" lon="7.01824620155757"><ele>943.8333333333334</ele><time>2026-04-25T16:57:45.998Z</time></trkpt><trkpt lat="43.75532286595041" lon="7.018229012861364"><ele>943.6666666666667</ele><time>2026-04-25T16:57:46.998Z</time></trkpt><trkpt lat="43.755256096329965" lon="7.018209386262736"><ele>943.5</ele><time>2026-04-25T16:57:47.998Z</time></trkpt><trkpt lat="43.75515232798819" lon="7.018183574753334"><ele>943.3333333333333</ele><time>2026-04-25T16:57:49.998Z</time></trkpt><trkpt lat="43.75508589360056" lon="7.018168998191901"><ele>943.1666666666666</ele><time>2026-04-25T16:57:51.998Z</time></trkpt><trkpt lat="43.754981686776354" lon="7.018147853342992"><ele>943.0</ele><time>2026-04-25T16:58:36Z</time></trkpt><trkpt lat="43.754848632973086" lon="7.018111106515212"><ele>943.0</ele><time>2026-04-25T16:58:37.999Z</time></trkpt><trkpt lat="43.75475462123459" lon="7.018089778903249"><ele>943.0</ele><time>2026-04-25T16:58:38.999Z</time></trkpt><trkpt lat="43.75466410776293" lon="7.018068777546054"><ele>943.0</ele><time>2026-04-25T16:58:39.999Z</time></trkpt><trkpt lat="43.75458376214064" lon="7.018044627508578"><ele>943.0</ele><time>2026-04-25T16:58:40.999Z</time></trkpt><trkpt lat="43.75451457606963" lon="7.018029756657486"><ele>943.0</ele><time>2026-04-25T16:58:41.999Z</time></trkpt><trkpt lat="43.754397927900804" lon="7.018067647068019"><ele>941.3333333333333</ele><time>2026-04-25T16:58:43.999Z</time></trkpt><trkpt lat="43.754314026712926" lon="7.018107011101166"><ele>939.6666666666666</ele><time>2026-04-25T16:58:44.999Z</time></trkpt><trkpt lat="43.754207348680005" lon="7.0181292873112735"><ele>938.0</ele><time>2026-04-25T16:58:45.999Z</time></trkpt><trkpt lat="43.75412048846834" lon="7.018145854539122"><ele>936.3333333333333</ele><time>2026-04-25T16:58:46.999Z</time></trkpt><trkpt lat="43.75404223971251" lon="7.018136262882447"><ele>934.6666666666666</ele><time>2026-04-25T16:58:47.999Z</time></trkpt><trkpt lat="43.75396706005341" lon="7.018148205730116"><ele>933.0</ele><time>2026-04-25T16:58:48.999Z</time></trkpt><trkpt lat="43.753902875589446" lon="7.018181697884236"><ele>933.0</ele><time>2026-04-25T16:58:49.999Z</time></trkpt><trkpt lat="43.7538370413232" lon="7.018231344095186"><ele>933.0</ele><time>2026-04-25T16:58:50.999Z</time></trkpt><trkpt lat="43.75376769758921" lon="7.018299259700743"><ele>933.0</ele><time>2026-04-25T16:58:51.999Z</time></trkpt><trkpt lat="43.753697618610126" lon="7.018343203521667"><ele>933.0</ele><time>2026-04-25T16:58:52.999Z</time></trkpt><trkpt lat="43.75359660767596" lon="7.018309985372476"><ele>933.0</ele><time>2026-04-25T16:58:54.999Z</time></trkpt><trkpt lat="43.753547757502325" lon="7.018232650140243"><ele>933.0</ele><time>2026-04-25T16:58:55.999Z</time></trkpt><trkpt lat="43.75349240339591" lon="7.018137985709856"><ele>932.8333333333334</ele><time>2026-04-25T16:58:56.999Z</time></trkpt><trkpt lat="43.75344623232538" lon="7.018051570353792"><ele>932.6666666666667</ele><time>2026-04-25T16:58:57.999Z</time></trkpt><trkpt lat="43.753408346843734" lon="7.017963348422994"><ele>932.5</ele><time>2026-04-25T16:58:58.999Z</time></trkpt><trkpt lat="43.7533614089103" lon="7.0178274777496"><ele>932.3333333333334</ele><time>2026-04-25T16:59:00.999Z</time></trkpt><trkpt lat="43.7533071137287" lon="7.017729954564779"><ele>932.1666666666667</ele><time>2026-04-25T16:59:02.999Z</time></trkpt><trkpt lat="43.75322185875461" lon="7.017686557513147"><ele>932.0</ele><time>2026-04-25T16:59:04.999Z</time></trkpt><trkpt lat="43.7531293401231" lon="7.017622921749236"><ele>932.0000000000001</ele><time>2026-04-25T16:59:06.999Z</time></trkpt><trkpt lat="43.75307303000924" lon="7.017570994557686"><ele>932.0</ele><time>2026-04-25T16:59:07.999Z</time></trkpt><trkpt lat="43.75300727743252" lon="7.017523942837037"><ele>932.0</ele><time>2026-04-25T16:59:08.999Z</time></trkpt><trkpt lat="43.75293393761543" lon="7.017472418763207"><ele>932.0</ele><time>2026-04-25T16:59:09.999Z</time></trkpt><trkpt lat="43.752853600026334" lon="7.017428001530126"><ele>932.0000000000001</ele><time>2026-04-25T16:59:10.999Z</time></trkpt><trkpt lat="43.75278738012296" lon="7.017365945315746"><ele>932.0</ele><time>2026-04-25T16:59:11.999Z</time></trkpt><trkpt lat="43.75271524211771" lon="7.017290268186776"><ele>929.8</ele><time>2026-04-25T16:59:12.999Z</time></trkpt><trkpt lat="43.75264484764566" lon="7.017226207818798"><ele>927.6</ele><time>2026-04-25T16:59:13.999Z</time></trkpt><trkpt lat="43.75258275277456" lon="7.017158616025606"><ele>925.3999999999999</ele><time>2026-04-25T16:59:14.999Z</time></trkpt><trkpt lat="43.752500416275794" lon="7.017086294349842"><ele>923.1999999999999</ele><time>2026-04-25T16:59:15.999Z</time></trkpt><trkpt lat="43.75240711395479" lon="7.017002313570054"><ele>921.0</ele><time>2026-04-25T16:59:16.999Z</time></trkpt><trkpt lat="43.752315518172324" lon="7.016917492759614"><ele>921.0</ele><time>2026-04-25T16:59:17.999Z</time></trkpt><trkpt lat="43.75222451343398" lon="7.016849944088461"><ele>920.9999999999999</ele><time>2026-04-25T16:59:18.999Z</time></trkpt><trkpt lat="43.75214754366583" lon="7.016789346055321"><ele>920.9999999999999</ele><time>2026-04-25T16:59:19.999Z</time></trkpt><trkpt lat="43.75207082593606" lon="7.016724504985493"><ele>921.0</ele><time>2026-04-25T16:59:20.999Z</time></trkpt><trkpt lat="43.75199787700791" lon="7.016649445242336"><ele>921.0</ele><time>2026-04-25T16:59:21.999Z</time></trkpt><trkpt lat="43.75193061434451" lon="7.0165516954121845"><ele>919.1999999999999</ele><time>2026-04-25T16:59:22.999Z</time></trkpt><trkpt lat="43.75184659042093" lon="7.01645449852128"><ele>917.3999999999999</ele><time>2026-04-25T16:59:23.999Z</time></trkpt><trkpt lat="43.75176654580312" lon="7.016376934472352"><ele>915.6</ele><time>2026-04-25T16:59:24.999Z</time></trkpt><trkpt lat="43.751690461225515" lon="7.016314339822457"><ele>913.8</ele><time>2026-04-25T16:59:25.999Z</time></trkpt><trkpt lat="43.7516034387321" lon="7.016260608192792"><ele>912.0</ele><time>2026-04-25T16:59:26.999Z</time></trkpt><trkpt lat="43.751505653925115" lon="7.016220055835831"><ele>912.0</ele><time>2026-04-25T16:59:27.999Z</time></trkpt><trkpt lat="43.75139912579062" lon="7.016167901085258"><ele>912.0</ele><time>2026-04-25T16:59:28.999Z</time></trkpt><trkpt lat="43.751304130804485" lon="7.016118414508509"><ele>912.0</ele><time>2026-04-25T16:59:29.999Z</time></trkpt><trkpt lat="43.75121253428383" lon="7.0160808663703795"><ele>912.0</ele><time>2026-04-25T16:59:30.999Z</time></trkpt><trkpt lat="43.751145542625615" lon="7.016054473557906"><ele>912.0</ele><time>2026-04-25T16:59:31.999Z</time></trkpt><trkpt lat="43.75105369099355" lon="7.016042467641791"><ele>911.8333333333334</ele><time>2026-04-25T16:59:33.999Z</time></trkpt><trkpt lat="43.75098950972732" lon="7.016059573055839"><ele>911.6666666666667</ele><time>2026-04-25T16:59:35.999Z</time></trkpt><trkpt lat="43.75094356252404" lon="7.016147575583883"><ele>911.5</ele><time>2026-04-25T16:59:38.999Z</time></trkpt><trkpt lat="43.750914572586225" lon="7.016234024326811"><ele>911.3333333333334</ele><time>2026-04-25T16:59:41.999Z</time></trkpt><trkpt lat="43.75084329237398" lon="7.016255400643314"><ele>911.1666666666667</ele><time>2026-04-25T16:59:44.998Z</time></trkpt><trkpt lat="43.75076351125601" lon="7.016272619632957"><ele>911.0</ele><time>2026-04-25T16:59:47.998Z</time></trkpt><trkpt lat="43.75066579066879" lon="7.016244457930505"><ele>911.0</ele><time>2026-04-25T16:59:50.998Z</time></trkpt><trkpt lat="43.750587072317145" lon="7.016247301391955"><ele>910.9999999999999</ele><time>2026-04-25T16:59:52.998Z</time></trkpt><trkpt lat="43.75050654134879" lon="7.016233312889815"><ele>910.9999999999999</ele><time>2026-04-25T16:59:54.998Z</time></trkpt><trkpt lat="43.75041858012654" lon="7.016238252922211"><ele>911.0</ele><time>2026-04-25T16:59:56.998Z</time></trkpt><trkpt lat="43.75030914699473" lon="7.01620809195053"><ele>911.0</ele><time>2026-04-25T16:59:58.998Z</time></trkpt><trkpt lat="43.75018683750289" lon="7.016189983496757"><ele>909.5714285714287</ele><time>2026-04-25T17:00:00.998Z</time></trkpt><trkpt lat="43.75011817197584" lon="7.016177636147046"><ele>908.1428571428571</ele><time>2026-04-25T17:00:02.998Z</time></trkpt><trkpt lat="43.75005402229374" lon="7.016139190017442"><ele>906.7142857142858</ele><time>2026-04-25T17:00:05.998Z</time></trkpt><trkpt lat="43.74997714595423" lon="7.016140890114112"><ele>905.2857142857143</ele><time>2026-04-25T17:00:07.998Z</time></trkpt><trkpt lat="43.749891003645494" lon="7.016118786240392"><ele>903.8571428571429</ele><time>2026-04-25T17:00:09.998Z</time></trkpt><trkpt lat="43.749826226445734" lon="7.016100917587121"><ele>902.4285714285714</ele><time>2026-04-25T17:00:12.998Z</time></trkpt><trkpt lat="43.749753359097845" lon="7.016093139875938"><ele>901.0</ele><time>2026-04-25T17:00:16.998Z</time></trkpt><trkpt lat="43.74968263178952" lon="7.016068796895819"><ele>900.9999999999999</ele><time>2026-04-25T17:00:21Z</time></trkpt><trkpt lat="43.74961421759034" lon="7.016036139350309"><ele>901.0</ele><time>2026-04-25T17:00:25Z</time></trkpt><trkpt lat="43.74954123981005" lon="7.016002514199028"><ele>901.0</ele><time>2026-04-25T17:00:28Z</time></trkpt><trkpt lat="43.749447984668045" lon="7.015948361088924"><ele>901.0</ele><time>2026-04-25T17:00:31Z</time></trkpt><trkpt lat="43.74936393185568" lon="7.015919065623252"><ele>900.9999999999999</ele><time>2026-04-25T17:00:34Z</time></trkpt><trkpt lat="43.74930076880038" lon="7.015888925417883"><ele>901.0</ele><time>2026-04-25T17:00:37Z</time></trkpt><trkpt lat="43.749196934055604" lon="7.015836594636591"><ele>893.4</ele><time>2026-04-25T17:00:39Z</time></trkpt><trkpt lat="43.74911269033894" lon="7.015817480714132"><ele>885.8</ele><time>2026-04-25T17:00:41Z</time></trkpt><trkpt lat="43.74903948389489" lon="7.0157852638011935"><ele>878.1999999999999</ele><time>2026-04-25T17:00:43Z</time></trkpt><trkpt lat="43.74893277874796" lon="7.015734581917941"><ele>870.5999999999999</ele><time>2026-04-25T17:00:44.999Z</time></trkpt><trkpt lat="43.7488627543684" lon="7.015720834970676"><ele>863.0</ele><time>2026-04-25T17:00:45.999Z</time></trkpt><trkpt lat="43.74876189173849" lon="7.015660126666258"><ele>863.0</ele><time>2026-04-25T17:00:47.999Z</time></trkpt><trkpt lat="43.74867294111095" lon="7.015573689062643"><ele>863.0</ele><time>2026-04-25T17:00:49.999Z</time></trkpt><trkpt lat="43.74859152784834" lon="7.015518684281266"><ele>863.0</ele><time>2026-04-25T17:00:51.999Z</time></trkpt><trkpt lat="43.74851992198663" lon="7.015428119199278"><ele>863.0</ele><time>2026-04-25T17:00:53.999Z</time></trkpt><trkpt lat="43.74845616503951" lon="7.0152949040218475"><ele>863.0</ele><time>2026-04-25T17:00:55.999Z</time></trkpt><trkpt lat="43.748420340696455" lon="7.015222273376376"><ele>862.8333333333334</ele><time>2026-04-25T17:00:56.999Z</time></trkpt><trkpt lat="43.748369147729996" lon="7.015138213839349"><ele>862.6666666666667</ele><time>2026-04-25T17:00:57.999Z</time></trkpt><trkpt lat="43.748310569662756" lon="7.015037773183452"><ele>862.5</ele><time>2026-04-25T17:00:58.999Z</time></trkpt><trkpt lat="43.748253960645215" lon="7.014946505146348"><ele>862.3333333333333</ele><time>2026-04-25T17:00:59.999Z</time></trkpt><trkpt lat="43.74818669493073" lon="7.014866882834663"><ele>862.1666666666666</ele><time>2026-04-25T17:01:00.999Z</time></trkpt><trkpt lat="43.7481327392366" lon="7.014778910294553"><ele>862.0</ele><time>2026-04-25T17:01:01.999Z</time></trkpt><trkpt lat="43.74808725554245" lon="7.01470646851894"><ele>862.0</ele><time>2026-04-25T17:01:02.999Z</time></trkpt><trkpt lat="43.74802925144949" lon="7.0146234159950165"><ele>862.0</ele><time>2026-04-25T17:01:04.999Z</time></trkpt><trkpt lat="43.74796144254853" lon="7.014564167310762"><ele>862.0</ele><time>2026-04-25T17:01:06.999Z</time></trkpt><trkpt lat="43.74788549252722" lon="7.014530162307451"><ele>862.0</ele><time>2026-04-25T17:01:08.999Z</time></trkpt><trkpt lat="43.74778296311645" lon="7.014436242099746"><ele>862.0</ele><time>2026-04-25T17:01:10.999Z</time></trkpt><trkpt lat="43.74770551608867" lon="7.014341510848506"><ele>860.8</ele><time>2026-04-25T17:01:11.999Z</time></trkpt><trkpt lat="43.74762845286292" lon="7.01423018793301"><ele>859.6</ele><time>2026-04-25T17:01:12.999Z</time></trkpt><trkpt lat="43.74756179535259" lon="7.014134205870015"><ele>858.3999999999999</ele><time>2026-04-25T17:01:13.999Z</time></trkpt><trkpt lat="43.74750638634455" lon="7.014058318397502"><ele>857.1999999999999</ele><time>2026-04-25T17:01:14.999Z</time></trkpt><trkpt lat="43.747448662135284" lon="7.014006154541021"><ele>856.0</ele><time>2026-04-25T17:01:15.999Z</time></trkpt><trkpt lat="43.747353435753034" lon="7.013975853208698"><ele>855.9999999999999</ele><time>2026-04-25T17:01:17.999Z</time></trkpt><trkpt lat="43.74728726067906" lon="7.014024694572533"><ele>856.0</ele><time>2026-04-25T17:01:41.999Z</time></trkpt><trkpt lat="43.74722651911778" lon="7.01407927152074"><ele>856.0</ele><time>2026-04-25T17:01:43.999Z</time></trkpt><trkpt lat="43.74717365552595" lon="7.014181816492239"><ele>856.0</ele><time>2026-04-25T17:01:45.999Z</time></trkpt><trkpt lat="43.74711671803126" lon="7.014326567988784"><ele>855.9999999999999</ele><time>2026-04-25T17:01:47.999Z</time></trkpt><trkpt lat="43.7470753520721" lon="7.014398229465201"><ele>856.0</ele><time>2026-04-25T17:01:48.999Z</time></trkpt><trkpt lat="43.747035705143055" lon="7.014481257436279"><ele>856.1428571428572</ele><time>2026-04-25T17:01:49.999Z</time></trkpt><trkpt lat="43.746996508264836" lon="7.0145643986388855"><ele>856.2857142857143</ele><time>2026-04-25T17:01:50.999Z</time></trkpt><trkpt lat="43.74695191881467" lon="7.014644016413683"><ele>856.4285714285714</ele><time>2026-04-25T17:01:51.998Z</time></trkpt><trkpt lat="43.74689891606413" lon="7.014710988188001"><ele>856.5714285714287</ele><time>2026-04-25T17:01:52.998Z</time></trkpt><trkpt lat="43.746849954304395" lon="7.014786248545056"><ele>856.7142857142857</ele><time>2026-04-25T17:01:53.998Z</time></trkpt><trkpt lat="43.746800389849284" lon="7.014851715007374"><ele>856.8571428571429</ele><time>2026-04-25T17:01:54.998Z</time></trkpt><trkpt lat="43.74673207513947" lon="7.014913928410126"><ele>857.0</ele><time>2026-04-25T17:01:55.998Z</time></trkpt><trkpt lat="43.746686221637425" lon="7.014989092860014"><ele>861.6666666666667</ele><time>2026-04-25T17:01:56.998Z</time></trkpt><trkpt lat="43.74658775594066" lon="7.015088473001015"><ele>866.3333333333334</ele><time>2026-04-25T17:01:58.998Z</time></trkpt><trkpt lat="43.746525313097194" lon="7.015135900823349"><ele>871.0</ele><time>2026-04-25T17:01:59.998Z</time></trkpt><trkpt lat="43.74645333295732" lon="7.015176531873092"><ele>875.6666666666667</ele><time>2026-04-25T17:02:00.998Z</time></trkpt><trkpt lat="43.74637876120142" lon="7.015215794930933"><ele>880.3333333333334</ele><time>2026-04-25T17:02:01.998Z</time></trkpt><trkpt lat="43.746302586185" lon="7.015240039265212"><ele>885.0</ele><time>2026-04-25T17:02:02.998Z</time></trkpt><trkpt lat="43.746233872637895" lon="7.015269919678861"><ele>885.0</ele><time>2026-04-25T17:02:03.998Z</time></trkpt><trkpt lat="43.7461660444784" lon="7.01529602100501"><ele>885.0</ele><time>2026-04-25T17:02:04.998Z</time></trkpt><trkpt lat="43.746097310605094" lon="7.015295145453146"><ele>885.0</ele><time>2026-04-25T17:02:05.998Z</time></trkpt><trkpt lat="43.746019576663905" lon="7.01529837293182"><ele>885.0</ele><time>2026-04-25T17:02:06.998Z</time></trkpt><trkpt lat="43.74594024426957" lon="7.015300347553523"><ele>885.0</ele><time>2026-04-25T17:02:07.998Z</time></trkpt><trkpt lat="43.74586033608801" lon="7.015324648885837"><ele>885.0</ele><time>2026-04-25T17:02:08.998Z</time></trkpt><trkpt lat="43.74577063521783" lon="7.015349557689806"><ele>880.8333333333334</ele><time>2026-04-25T17:02:09.998Z</time></trkpt><trkpt lat="43.7456901828816" lon="7.015379981331361"><ele>876.6666666666667</ele><time>2026-04-25T17:02:10.998Z</time></trkpt><trkpt lat="43.74561433936269" lon="7.015422130019871"><ele>872.5</ele><time>2026-04-25T17:02:11.998Z</time></trkpt><trkpt lat="43.74555381647846" lon="7.015449216328196"><ele>868.3333333333334</ele><time>2026-04-25T17:02:12.998Z</time></trkpt><trkpt lat="43.74548297838345" lon="7.015444363096684"><ele>864.1666666666667</ele><time>2026-04-25T17:02:13.998Z</time></trkpt><trkpt lat="43.745407369001384" lon="7.0154463396033275"><ele>860.0</ele><time>2026-04-25T17:02:14.998Z</time></trkpt><trkpt lat="43.745336459877805" lon="7.015478546102817"><ele>860.0000000000001</ele><time>2026-04-25T17:02:15.998Z</time></trkpt><trkpt lat="43.745277990299925" lon="7.015548585946338"><ele>860.0</ele><time>2026-04-25T17:02:16.998Z</time></trkpt><trkpt lat="43.745238083762025" lon="7.0156309801271455"><ele>860.0</ele><time>2026-04-25T17:02:17.998Z</time></trkpt><trkpt lat="43.745157609876806" lon="7.015760640527"><ele>860.0</ele><time>2026-04-25T17:02:19.998Z</time></trkpt><trkpt lat="43.74509641870904" lon="7.0158153623187305"><ele>860.0000000000001</ele><time>2026-04-25T17:02:20.998Z</time></trkpt><trkpt lat="43.74504603824489" lon="7.015868152283459"><ele>860.0</ele><time>2026-04-25T17:02:21.998Z</time></trkpt><trkpt lat="43.7449543917904" lon="7.01595180278512"><ele>861.6</ele><time>2026-04-25T17:02:23.998Z</time></trkpt><trkpt lat="43.744901553984846" lon="7.0160166309493635"><ele>863.2</ele><time>2026-04-25T17:02:24.998Z</time></trkpt><trkpt lat="43.744795968071614" lon="7.016072777424075"><ele>864.8</ele><time>2026-04-25T17:02:27Z</time></trkpt><trkpt lat="43.74470553841372" lon="7.016189113554751"><ele>866.4</ele><time>2026-04-25T17:02:29Z</time></trkpt><trkpt lat="43.74461209491684" lon="7.0162869673718165"><ele>868.0</ele><time>2026-04-25T17:02:31Z</time></trkpt><trkpt lat="43.744551594107676" lon="7.016343564730388"><ele>867.9999999999999</ele><time>2026-04-25T17:02:32Z</time></trkpt><trkpt lat="43.744484906667836" lon="7.016409430364283"><ele>868.0</ele><time>2026-04-25T17:02:33Z</time></trkpt><trkpt lat="43.744429846088394" lon="7.0164539263406445"><ele>868.0</ele><time>2026-04-25T17:02:34Z</time></trkpt><trkpt lat="43.74436011480038" lon="7.016568452626887"><ele>868.0</ele><time>2026-04-25T17:02:36Z</time></trkpt><trkpt lat="43.744304875042026" lon="7.016628930165156"><ele>867.9999999999999</ele><time>2026-04-25T17:02:37Z</time></trkpt><trkpt lat="43.74421376683839" lon="7.016691819438027"><ele>868.0</ele><time>2026-04-25T17:02:38Z</time></trkpt><trkpt lat="43.74414034703536" lon="7.016772964024619"><ele>867.4</ele><time>2026-04-25T17:02:39Z</time></trkpt><trkpt lat="43.74406701697112" lon="7.016851507413616"><ele>866.8</ele><time>2026-04-25T17:02:40Z</time></trkpt><trkpt lat="43.743961948543905" lon="7.016899202812857"><ele>866.2</ele><time>2026-04-25T17:02:41Z</time></trkpt><trkpt lat="43.74387162563671" lon="7.01697287711126"><ele>865.6</ele><time>2026-04-25T17:02:42Z</time></trkpt><trkpt lat="43.743793916363714" lon="7.017039836676317"><ele>865.0</ele><time>2026-04-25T17:02:43Z</time></trkpt><trkpt lat="43.74373401771153" lon="7.01711474396353"><ele>864.9999999999999</ele><time>2026-04-25T17:02:44Z</time></trkpt><trkpt lat="43.743669729839574" lon="7.01718279837692"><ele>865.0</ele><time>2026-04-25T17:02:45Z</time></trkpt><trkpt lat="43.74360392573105" lon="7.017230419825283"><ele>865.0</ele><time>2026-04-25T17:02:46Z</time></trkpt><trkpt lat="43.743544003488466" lon="7.017272778801017"><ele>865.0</ele><time>2026-04-25T17:02:47Z</time></trkpt><trkpt lat="43.74347398133994" lon="7.017374632879034"><ele>864.9999999999999</ele><time>2026-04-25T17:02:47.999Z</time></trkpt><trkpt lat="43.74342162309447" lon="7.0174533275587105"><ele>865.0</ele><time>2026-04-25T17:02:48.999Z</time></trkpt><trkpt lat="43.743359339473514" lon="7.017473662775546"><ele>865.6</ele><time>2026-04-25T17:02:49.999Z</time></trkpt><trkpt lat="43.74326799480873" lon="7.0174799090473385"><ele>866.2</ele><time>2026-04-25T17:02:50.999Z</time></trkpt><trkpt lat="43.743169067079656" lon="7.017525183631598"><ele>866.8</ele><time>2026-04-25T17:02:51.999Z</time></trkpt><trkpt lat="43.743074336611414" lon="7.017592362237211"><ele>867.4</ele><time>2026-04-25T17:02:52.999Z</time></trkpt><trkpt lat="43.742999413150166" lon="7.017654183685388"><ele>868.0</ele><time>2026-04-25T17:02:53.999Z</time></trkpt><trkpt lat="43.74294020949841" lon="7.017686023150543"><ele>868.0</ele><time>2026-04-25T17:02:54.999Z</time></trkpt><trkpt lat="43.742859308262226" lon="7.017705294519998"><ele>868.0</ele><time>2026-04-25T17:02:55.999Z</time></trkpt><trkpt lat="43.742754422702575" lon="7.017708681963069"><ele>868.0</ele><time>2026-04-25T17:02:56.999Z</time></trkpt><trkpt lat="43.74264006194063" lon="7.017747904553841"><ele>868.0</ele><time>2026-04-25T17:02:57.999Z</time></trkpt><trkpt lat="43.74253148084448" lon="7.017773571014427"><ele>868.0</ele><time>2026-04-25T17:02:58.999Z</time></trkpt><trkpt lat="43.74244425803455" lon="7.017795287797927"><ele>864.2</ele><time>2026-04-25T17:02:59.999Z</time></trkpt><trkpt lat="43.7423652602754" lon="7.017819350788261"><ele>860.4</ele><time>2026-04-25T17:03:00.999Z</time></trkpt><trkpt lat="43.74227173030737" lon="7.017857392575991"><ele>856.6</ele><time>2026-04-25T17:03:01.999Z</time></trkpt><trkpt lat="43.74215331626568" lon="7.017896639456643"><ele>852.8000000000001</ele><time>2026-04-25T17:03:02.999Z</time></trkpt><trkpt lat="43.74204969703362" lon="7.017931092738644"><ele>849.0</ele><time>2026-04-25T17:03:03.999Z</time></trkpt><trkpt lat="43.74196119452738" lon="7.017960373163952"><ele>847.0</ele><time>2026-04-25T17:03:04.999Z</time></trkpt><trkpt lat="43.7418671701077" lon="7.017981785171608"><ele>845.0</ele><time>2026-04-25T17:03:05.999Z</time></trkpt><trkpt lat="43.74176949692518" lon="7.018001997544342"><ele>843.0</ele><time>2026-04-25T17:03:06.999Z</time></trkpt><trkpt lat="43.74168683309207" lon="7.018015487108133"><ele>841.0</ele><time>2026-04-25T17:03:07.999Z</time></trkpt><trkpt lat="43.74161714130634" lon="7.018032011900703"><ele>839.0</ele><time>2026-04-25T17:03:08.999Z</time></trkpt><trkpt lat="43.74154068183347" lon="7.018036926015607"><ele>837.0</ele><time>2026-04-25T17:03:09.999Z</time></trkpt><trkpt lat="43.7414627233182" lon="7.018077218038985"><ele>837.0</ele><time>2026-04-25T17:03:10.999Z</time></trkpt><trkpt lat="43.741361130627965" lon="7.018122721631151"><ele>837.0</ele><time>2026-04-25T17:03:11.999Z</time></trkpt><trkpt lat="43.74127149047955" lon="7.018159590596054"><ele>837.0</ele><time>2026-04-25T17:03:12.999Z</time></trkpt><trkpt lat="43.7411731151262" lon="7.018169108946676"><ele>837.0</ele><time>2026-04-25T17:03:13.999Z</time></trkpt><trkpt lat="43.74106758655496" lon="7.018161144279647"><ele>837.0</ele><time>2026-04-25T17:03:14.999Z</time></trkpt><trkpt lat="43.740974097872744" lon="7.01815909680502"><ele>836.6</ele><time>2026-04-25T17:03:15.999Z</time></trkpt><trkpt lat="43.74088803415872" lon="7.018128275033138"><ele>836.2</ele><time>2026-04-25T17:03:16.999Z</time></trkpt><trkpt lat="43.7407890791103" lon="7.018080637123521"><ele>835.8</ele><time>2026-04-25T17:03:17.999Z</time></trkpt><trkpt lat="43.74069048689936" lon="7.018038058342688"><ele>835.4</ele><time>2026-04-25T17:03:18.999Z</time></trkpt><trkpt lat="43.740599441904855" lon="7.018035379309259"><ele>835.0</ele><time>2026-04-25T17:03:19.999Z</time></trkpt><trkpt lat="43.74050448190163" lon="7.018007745577783"><ele>834.9999999999999</ele><time>2026-04-25T17:03:20.999Z</time></trkpt><trkpt lat="43.740417562035354" lon="7.017971985030038"><ele>835.0</ele><time>2026-04-25T17:03:21.999Z</time></trkpt><trkpt lat="43.74034558232909" lon="7.017944373235617"><ele>835.0</ele><time>2026-04-25T17:03:22.999Z</time></trkpt><trkpt lat="43.74027482148103" lon="7.017883999304151"><ele>835.0</ele><time>2026-04-25T17:03:23.999Z</time></trkpt><trkpt lat="43.74019857094634" lon="7.017861672566459"><ele>834.9999999999999</ele><time>2026-04-25T17:03:24.999Z</time></trkpt><trkpt lat="43.740109850448064" lon="7.017867524486449"><ele>835.0</ele><time>2026-04-25T17:03:25.999Z</time></trkpt><trkpt lat="43.73999725476051" lon="7.017844013866477"><ele>836.25</ele><time>2026-04-25T17:03:26.999Z</time></trkpt><trkpt lat="43.73988102481922" lon="7.017802227963827"><ele>837.5</ele><time>2026-04-25T17:03:27.999Z</time></trkpt><trkpt lat="43.739759668696266" lon="7.017745166980614"><ele>838.75</ele><time>2026-04-25T17:03:28.999Z</time></trkpt><trkpt lat="43.73963829115603" lon="7.017701108784555"><ele>840.0</ele><time>2026-04-25T17:03:29.999Z</time></trkpt><trkpt lat="43.73953562649843" lon="7.017664976366119"><ele>840.0</ele><time>2026-04-25T17:03:30.999Z</time></trkpt><trkpt lat="43.739432941565056" lon="7.017656674825825"><ele>840.0</ele><time>2026-04-25T17:03:31.999Z</time></trkpt><trkpt lat="43.739318490703454" lon="7.0176733188235945"><ele>840.0</ele><time>2026-04-25T17:03:32.999Z</time></trkpt><trkpt lat="43.73922271687655" lon="7.017686808387676"><ele>840.0</ele><time>2026-04-25T17:03:33.999Z</time></trkpt><trkpt lat="43.739156094245565" lon="7.017715926920476"><ele>840.0</ele><time>2026-04-25T17:03:34.999Z</time></trkpt><trkpt lat="43.73905886190156" lon="7.017749628731472"><ele>839.4</ele><time>2026-04-25T17:03:36.999Z</time></trkpt><trkpt lat="43.73895896100105" lon="7.0177721556005075"><ele>838.8</ele><time>2026-04-25T17:03:38.999Z</time></trkpt><trkpt lat="43.73884255948964" lon="7.0178098214435325"><ele>838.2</ele><time>2026-04-25T17:03:40.999Z</time></trkpt><trkpt lat="43.73874525484114" lon="7.0178412787835045"><ele>837.6</ele><time>2026-04-25T17:03:41.999Z</time></trkpt><trkpt lat="43.738650196720826" lon="7.017834871429181"><ele>837.0</ele><time>2026-04-25T17:03:42.999Z</time></trkpt><trkpt lat="43.738564681762604" lon="7.017791685523907"><ele>835.8333333333334</ele><time>2026-04-25T17:03:43.999Z</time></trkpt><trkpt lat="43.738491622899964" lon="7.0177939135516825"><ele>834.6666666666667</ele><time>2026-04-25T17:03:44.999Z</time></trkpt><trkpt lat="43.73840685226623" lon="7.017815182073846"><ele>833.5</ele><time>2026-04-25T17:03:45.999Z</time></trkpt><trkpt lat="43.738312771216826" lon="7.017805743507291"><ele>832.3333333333334</ele><time>2026-04-25T17:03:46.999Z</time></trkpt><trkpt lat="43.73823877531338" lon="7.017804374283758"><ele>831.1666666666667</ele><time>2026-04-25T17:03:47.999Z</time></trkpt><trkpt lat="43.738147886097664" lon="7.017829801669069"><ele>830.0</ele><time>2026-04-25T17:03:50.999Z</time></trkpt><trkpt lat="43.73805024539257" lon="7.017878408221465"><ele>830.0</ele><time>2026-04-25T17:03:53.998Z</time></trkpt><trkpt lat="43.73795755832647" lon="7.017873389765408"><ele>830.0</ele><time>2026-04-25T17:03:54.998Z</time></trkpt><trkpt lat="43.737841575969426" lon="7.017877154338848"><ele>830.0</ele><time>2026-04-25T17:03:55.998Z</time></trkpt><trkpt lat="43.73774565644579" lon="7.017870299768367"><ele>830.0</ele><time>2026-04-25T17:03:56.998Z</time></trkpt><trkpt lat="43.73767551514949" lon="7.017879072496036"><ele>830.0</ele><time>2026-04-25T17:03:57.998Z</time></trkpt><trkpt lat="43.73759299473835" lon="7.01789002972254"><ele>830.0000000000001</ele><time>2026-04-25T17:03:58.998Z</time></trkpt><trkpt lat="43.73751343928312" lon="7.017913813690025"><ele>830.0</ele><time>2026-04-25T17:03:59.998Z</time></trkpt><trkpt lat="43.73742149536342" lon="7.017899453300961"><ele>830.0</ele><time>2026-04-25T17:04:00.998Z</time></trkpt><trkpt lat="43.737334075783465" lon="7.017863017821357"><ele>830.0</ele><time>2026-04-25T17:04:01.998Z</time></trkpt><trkpt lat="43.73727012429266" lon="7.017841738317408"><ele>830.0000000000001</ele><time>2026-04-25T17:04:02.998Z</time></trkpt><trkpt lat="43.737161628124454" lon="7.017877143686834"><ele>830.0</ele><time>2026-04-25T17:04:04.998Z</time></trkpt><trkpt lat="43.73709317039387" lon="7.017933981408825"><ele>830.0</ele><time>2026-04-25T17:04:05.998Z</time></trkpt><trkpt lat="43.73699332480698" lon="7.017966728018204"><ele>830.0</ele><time>2026-04-25T17:04:06.998Z</time></trkpt><trkpt lat="43.736858877927396" lon="7.017986311464173"><ele>830.0</ele><time>2026-04-25T17:04:07.998Z</time></trkpt><trkpt lat="43.73673191977399" lon="7.018021489159522"><ele>830.0</ele><time>2026-04-25T17:04:08.998Z</time></trkpt><trkpt lat="43.73661634635027" lon="7.018007376853749"><ele>829.1666666666667</ele><time>2026-04-25T17:04:09.998Z</time></trkpt><trkpt lat="43.73653048241205" lon="7.018000361318283"><ele>828.3333333333334</ele><time>2026-04-25T17:04:10.998Z</time></trkpt><trkpt lat="43.73643925051009" lon="7.017985008120834"><ele>827.5</ele><time>2026-04-25T17:04:11.998Z</time></trkpt><trkpt lat="43.73636207425846" lon="7.017954329418336"><ele>826.6666666666667</ele><time>2026-04-25T17:04:12.998Z</time></trkpt><trkpt lat="43.73630430237525" lon="7.017910724280571"><ele>825.8333333333334</ele><time>2026-04-25T17:04:13.998Z</time></trkpt><trkpt lat="43.73621080876281" lon="7.017807873308975"><ele>825.0</ele><time>2026-04-25T17:04:15.998Z</time></trkpt><trkpt lat="43.73608695706956" lon="7.0177754924242866"><ele>826.3333333333334</ele><time>2026-04-25T17:04:17.998Z</time></trkpt><trkpt lat="43.73601844857788" lon="7.017730125594119"><ele>827.6666666666667</ele><time>2026-04-25T17:04:18.998Z</time></trkpt><trkpt lat="43.73593552865159" lon="7.0176694564699025"><ele>829.0</ele><time>2026-04-25T17:04:20.998Z</time></trkpt><trkpt lat="43.73587273638807" lon="7.017747289958705"><ele>830.3333333333334</ele><time>2026-04-25T17:04:22.998Z</time></trkpt><trkpt lat="43.73583109865516" lon="7.017835468497492"><ele>831.6666666666667</ele><time>2026-04-25T17:04:23.998Z</time></trkpt><trkpt lat="43.735774595923665" lon="7.0179030906818145"><ele>833.0</ele><time>2026-04-25T17:04:24.998Z</time></trkpt><trkpt lat="43.73565833167171" lon="7.017887921120955"><ele>833.0</ele><time>2026-04-25T17:04:26.998Z</time></trkpt><trkpt lat="43.73559347307025" lon="7.017835840164046"><ele>833.0</ele><time>2026-04-25T17:04:27.998Z</time></trkpt><trkpt lat="43.73552041761429" lon="7.01777164685519"><ele>833.0</ele><time>2026-04-25T17:04:28.998Z</time></trkpt><trkpt lat="43.735441063945125" lon="7.0177014364935255"><ele>833.0</ele><time>2026-04-25T17:04:30.998Z</time></trkpt><trkpt lat="43.7354264987519" lon="7.017574746852529"><ele>833.0</ele><time>2026-04-25T17:04:33Z</time></trkpt><trkpt lat="43.73541191341028" lon="7.017393041334619"><ele>834.3333333333334</ele><time>2026-04-25T17:04:35Z</time></trkpt><trkpt lat="43.73540909235571" lon="7.017257819660397"><ele>835.6666666666667</ele><time>2026-04-25T17:04:36Z</time></trkpt><trkpt lat="43.735386887203" lon="7.017151995213763"><ele>837.0</ele><time>2026-04-25T17:04:38Z</time></trkpt><trkpt lat="43.73532913127572" lon="7.017078894254056"><ele>838.3333333333333</ele><time>2026-04-25T17:04:39Z</time></trkpt><trkpt lat="43.735254019933734" lon="7.01701563321268"><ele>839.6666666666666</ele><time>2026-04-25T17:04:40Z</time></trkpt><trkpt lat="43.7351766220625" lon="7.016930436783487"><ele>841.0</ele><time>2026-04-25T17:04:41Z</time></trkpt><trkpt lat="43.73508716241581" lon="7.016812757561725"><ele>841.0</ele><time>2026-04-25T17:04:42Z</time></trkpt><trkpt lat="43.73498752412908" lon="7.016704136405312"><ele>841.0</ele><time>2026-04-25T17:04:43Z</time></trkpt><trkpt lat="43.734916711169156" lon="7.016609631390346"><ele>841.0</ele><time>2026-04-25T17:04:44Z</time></trkpt><trkpt lat="43.734840304778736" lon="7.016517578194379"><ele>841.0</ele><time>2026-04-25T17:04:45Z</time></trkpt><trkpt lat="43.73476407122986" lon="7.016458044687673"><ele>841.0</ele><time>2026-04-25T17:04:46Z</time></trkpt><trkpt lat="43.734682417321466" lon="7.0163982671760605"><ele>840.25</ele><time>2026-04-25T17:04:47Z</time></trkpt><trkpt lat="43.73459146851624" lon="7.016345403277689"><ele>839.5</ele><time>2026-04-25T17:04:48Z</time></trkpt><trkpt lat="43.73446985707681" lon="7.016235766353162"><ele>838.75</ele><time>2026-04-25T17:04:49Z</time></trkpt><trkpt lat="43.73435394811409" lon="7.016141507803919"><ele>838.0</ele><time>2026-04-25T17:04:50Z</time></trkpt><trkpt lat="43.73425666686307" lon="7.0160387800682535"><ele>838.0</ele><time>2026-04-25T17:04:51Z</time></trkpt><trkpt lat="43.73416620221382" lon="7.0159518590724685"><ele>838.0</ele><time>2026-04-25T17:04:52Z</time></trkpt><trkpt lat="43.73407052772795" lon="7.015862150889183"><ele>838.0</ele><time>2026-04-25T17:04:53Z</time></trkpt><trkpt lat="43.73398966666209" lon="7.01578914469441"><ele>838.0</ele><time>2026-04-25T17:04:53.999Z</time></trkpt><trkpt lat="43.73391947262494" lon="7.015742209268312"><ele>838.0</ele><time>2026-04-25T17:04:54.999Z</time></trkpt><trkpt lat="43.73384840263234" lon="7.01568873808607"><ele>838.0</ele><time>2026-04-25T17:04:55.999Z</time></trkpt><trkpt lat="43.73376146872083" lon="7.015617296547732"><ele>838.0</ele><time>2026-04-25T17:04:56.999Z</time></trkpt><trkpt lat="43.733659882660525" lon="7.015535886310084"><ele>838.0</ele><time>2026-04-25T17:04:57.999Z</time></trkpt><trkpt lat="43.73355648361816" lon="7.015446555073717"><ele>838.0</ele><time>2026-04-25T17:04:58.999Z</time></trkpt><trkpt lat="43.73347002612416" lon="7.015358861953941"><ele>838.0</ele><time>2026-04-25T17:04:59.999Z</time></trkpt><trkpt lat="43.73340778829553" lon="7.015239951527118"><ele>838.0</ele><time>2026-04-25T17:05:00.999Z</time></trkpt><trkpt lat="43.73332699191624" lon="7.015110362029765"><ele>838.0</ele><time>2026-04-25T17:05:01.999Z</time></trkpt><trkpt lat="43.73324965715837" lon="7.0149844851204035"><ele>838.0</ele><time>2026-04-25T17:05:02.999Z</time></trkpt><trkpt lat="43.73318431971489" lon="7.014877422894091"><ele>838.0</ele><time>2026-04-25T17:05:03.999Z</time></trkpt><trkpt lat="43.73311260869197" lon="7.014803318622349"><ele>838.0</ele><time>2026-04-25T17:05:04.999Z</time></trkpt><trkpt lat="43.733037253480155" lon="7.014727783198222"><ele>839.4</ele><time>2026-04-25T17:05:05.999Z</time></trkpt><trkpt lat="43.73294852460836" lon="7.01464051065918"><ele>840.8</ele><time>2026-04-25T17:05:06.999Z</time></trkpt><trkpt lat="43.732863776296426" lon="7.014553782267405"><ele>842.2</ele><time>2026-04-25T17:05:07.999Z</time></trkpt><trkpt lat="43.732774816041946" lon="7.014467136223649"><ele>843.6</ele><time>2026-04-25T17:05:08.999Z</time></trkpt><trkpt lat="43.732682240972224" lon="7.014399602651014"><ele>845.0</ele><time>2026-04-25T17:05:09.999Z</time></trkpt><trkpt lat="43.73260341433139" lon="7.01433946258121"><ele>845.0000000000001</ele><time>2026-04-25T17:05:10.999Z</time></trkpt><trkpt lat="43.732526091086505" lon="7.014276254498243"><ele>845.0</ele><time>2026-04-25T17:05:11.999Z</time></trkpt><trkpt lat="43.732464735070955" lon="7.014222340114537"><ele>845.0</ele><time>2026-04-25T17:05:12.999Z</time></trkpt><trkpt lat="43.732401223596305" lon="7.014173766683637"><ele>845.0</ele><time>2026-04-25T17:05:13.999Z</time></trkpt><trkpt lat="43.73231937180368" lon="7.014112606891464"><ele>845.0000000000001</ele><time>2026-04-25T17:05:15.999Z</time></trkpt><trkpt lat="43.73234230911373" lon="7.013991871526365"><ele>845.0</ele><time>2026-04-25T17:05:42.999Z</time></trkpt><trkpt lat="43.73241813718994" lon="7.013933021093184"><ele>843.8</ele><time>2026-04-25T17:05:45.999Z</time></trkpt><trkpt lat="43.73243746105342" lon="7.013798404474286"><ele>842.6</ele><time>2026-04-25T17:05:48.999Z</time></trkpt><trkpt lat="43.7324438145128" lon="7.013704835929916"><ele>841.4000000000001</ele><time>2026-04-25T17:05:49.999Z</time></trkpt><trkpt lat="43.73246194116845" lon="7.013593063669202"><ele>840.2</ele><time>2026-04-25T17:05:50.999Z</time></trkpt><trkpt lat="43.73246662391273" lon="7.0134234259829284"><ele>839.0</ele><time>2026-04-25T17:05:52.999Z</time></trkpt><trkpt lat="43.7324990406558" lon="7.013316990935918"><ele>839.0000000000001</ele><time>2026-04-25T17:05:54.999Z</time></trkpt><trkpt lat="43.7325549054927" lon="7.013256271267499"><ele>839.0</ele><time>2026-04-25T17:05:55.999Z</time></trkpt><trkpt lat="43.732625388687815" lon="7.013239582198656"><ele>839.0</ele><time>2026-04-25T17:05:56.999Z</time></trkpt><trkpt lat="43.73273684588103" lon="7.013228576430863"><ele>839.0</ele><time>2026-04-25T17:05:57.999Z</time></trkpt><trkpt lat="43.732808290656116" lon="7.013244778785188"><ele>839.0000000000001</ele><time>2026-04-25T17:05:58.999Z</time></trkpt><trkpt lat="43.732888445836856" lon="7.0132220390289675"><ele>839.0</ele><time>2026-04-25T17:06:00.999Z</time></trkpt><trkpt lat="43.73290692660143" lon="7.013079797631064"><ele>837.1666666666667</ele><time>2026-04-25T17:06:03.998Z</time></trkpt><trkpt lat="43.73295178423156" lon="7.012992364251752"><ele>835.3333333333334</ele><time>2026-04-25T17:06:05.998Z</time></trkpt><trkpt lat="43.73302003761381" lon="7.012972990895372"><ele>833.5</ele><time>2026-04-25T17:06:06.998Z</time></trkpt><trkpt lat="43.73311616192472" lon="7.01288519250557"><ele>831.6666666666667</ele><time>2026-04-25T17:06:08.998Z</time></trkpt><trkpt lat="43.73318120847312" lon="7.012817821303306"><ele>829.8333333333334</ele><time>2026-04-25T17:06:09.998Z</time></trkpt><trkpt lat="43.733251055904645" lon="7.0127454347509675"><ele>828.0</ele><time>2026-04-25T17:06:10.998Z</time></trkpt><trkpt lat="43.733324806855954" lon="7.012696357282596"><ele>828.0</ele><time>2026-04-25T17:06:11.998Z</time></trkpt><trkpt lat="43.73341841002587" lon="7.012639957638368"><ele>828.0</ele><time>2026-04-25T17:06:12.998Z</time></trkpt><trkpt lat="43.73350553374046" lon="7.012583248668411"><ele>828.0</ele><time>2026-04-25T17:06:13.998Z</time></trkpt><trkpt lat="43.733562531420795" lon="7.012482428496922"><ele>828.0</ele><time>2026-04-25T17:06:15.998Z</time></trkpt><trkpt lat="43.73357413298985" lon="7.0123902497062565"><ele>828.0</ele><time>2026-04-25T17:06:16.998Z</time></trkpt><trkpt lat="43.73356512767591" lon="7.012235320110447"><ele>828.4</ele><time>2026-04-25T17:06:18.998Z</time></trkpt><trkpt lat="43.733503014758426" lon="7.012150578630047"><ele>828.8</ele><time>2026-04-25T17:06:20.998Z</time></trkpt><trkpt lat="43.733488413097504" lon="7.012017714204147"><ele>829.2</ele><time>2026-04-25T17:06:22.998Z</time></trkpt><trkpt lat="43.73349327319143" lon="7.0118698852937085"><ele>829.6</ele><time>2026-04-25T17:06:24.998Z</time></trkpt><trkpt lat="43.733574883214466" lon="7.0117969461657905"><ele>830.0</ele><time>2026-04-25T17:06:26.998Z</time></trkpt><trkpt lat="43.733657877552574" lon="7.011800057952096"><ele>827.8333333333334</ele><time>2026-04-25T17:06:27.998Z</time></trkpt><trkpt lat="43.733742225332186" lon="7.011781635653554"><ele>825.6666666666667</ele><time>2026-04-25T17:06:28.998Z</time></trkpt><trkpt lat="43.73380910537969" lon="7.011738906997116"><ele>823.5</ele><time>2026-04-25T17:06:29.998Z</time></trkpt><trkpt lat="43.733873222153434" lon="7.0116405486099245"><ele>821.3333333333333</ele><time>2026-04-25T17:06:31.998Z</time></trkpt><trkpt lat="43.733911347169716" lon="7.011563681477176"><ele>819.1666666666666</ele><time>2026-04-25T17:06:33.998Z</time></trkpt><trkpt lat="43.733935076482105" lon="7.011475129034714"><ele>817.0</ele><time>2026-04-25T17:06:45Z</time></trkpt><trkpt lat="43.73399364318298" lon="7.01136026424496"><ele>816.9999999999999</ele><time>2026-04-25T17:06:48Z</time></trkpt><trkpt lat="43.73406683600047" lon="7.0113440204873445"><ele>817.0</ele><time>2026-04-25T17:06:50Z</time></trkpt><trkpt lat="43.734147902616144" lon="7.011365967088067"><ele>817.0</ele><time>2026-04-25T17:06:52Z</time></trkpt><trkpt lat="43.734237285389725" lon="7.011384196897982"><ele>817.0</ele><time>2026-04-25T17:06:54Z</time></trkpt><trkpt lat="43.73429404245803" lon="7.011440124666993"><ele>816.9999999999999</ele><time>2026-04-25T17:06:56Z</time></trkpt><trkpt lat="43.73431583394385" lon="7.011617025109285"><ele>817.0</ele><time>2026-04-25T17:06:58Z</time></trkpt><trkpt lat="43.734382182698" lon="7.0117165761431055"><ele>813.8</ele><time>2026-04-25T17:07:00Z</time></trkpt><trkpt lat="43.73443161828006" lon="7.011833106863232"><ele>810.6</ele><time>2026-04-25T17:07:01.999Z</time></trkpt><trkpt lat="43.734487215233045" lon="7.011979124490351"><ele>807.4</ele><time>2026-04-25T17:07:03.999Z</time></trkpt><trkpt lat="43.73453224164219" lon="7.012046108333753"><ele>804.1999999999999</ele><time>2026-04-25T17:07:04.999Z</time></trkpt><trkpt lat="43.73458949530533" lon="7.012124651160644"><ele>801.0</ele><time>2026-04-25T17:07:05.999Z</time></trkpt><trkpt lat="43.7346534469483" lon="7.012207146175263"><ele>801.0</ele><time>2026-04-25T17:07:06.999Z</time></trkpt><trkpt lat="43.734703299836255" lon="7.012302784414514"><ele>801.0</ele><time>2026-04-25T17:07:07.999Z</time></trkpt><trkpt lat="43.73475959265139" lon="7.012389757434264"><ele>801.0</ele><time>2026-04-25T17:07:08.999Z</time></trkpt><trkpt lat="43.73480151072582" lon="7.012502543954002"><ele>801.0</ele><time>2026-04-25T17:07:09.999Z</time></trkpt><trkpt lat="43.73484778908276" lon="7.012594664142169"><ele>801.0</ele><time>2026-04-25T17:07:10.999Z</time></trkpt><trkpt lat="43.73490485036098" lon="7.012653216737799"><ele>801.0</ele><time>2026-04-25T17:07:11.999Z</time></trkpt><trkpt lat="43.734951657123254" lon="7.012717783508718"><ele>802.1999999999999</ele><time>2026-04-25T17:07:12.999Z</time></trkpt><trkpt lat="43.7350308131937" lon="7.0128047568631375"><ele>803.4</ele><time>2026-04-25T17:07:14.999Z</time></trkpt><trkpt lat="43.735140106274606" lon="7.012811284574327"><ele>804.6</ele><time>2026-04-25T17:07:16.999Z</time></trkpt><trkpt lat="43.73520309165644" lon="7.012834821709683"><ele>805.8</ele><time>2026-04-25T17:07:17.999Z</time></trkpt><trkpt lat="43.73527743085958" lon="7.012899351238105"><ele>807.0</ele><time>2026-04-25T17:07:19.999Z</time></trkpt><trkpt lat="43.73531044057335" lon="7.013014238804718"><ele>807.0</ele><time>2026-04-25T17:07:21.999Z</time></trkpt><trkpt lat="43.73526927765825" lon="7.0131405114151"><ele>807.0</ele><time>2026-04-25T17:07:23.999Z</time></trkpt><trkpt lat="43.73515650295266" lon="7.01323759117666"><ele>807.0</ele><time>2026-04-25T17:07:25.999Z</time></trkpt><trkpt lat="43.73507317265022" lon="7.0133036995771185"><ele>807.0</ele><time>2026-04-25T17:07:26.999Z</time></trkpt><trkpt lat="43.734995505367" lon="7.013362496362692"><ele>807.0</ele><time>2026-04-25T17:07:27.999Z</time></trkpt><trkpt lat="43.73488574815897" lon="7.013442907140923"><ele>806.6</ele><time>2026-04-25T17:07:29.999Z</time></trkpt><trkpt lat="43.73483582180831" lon="7.013513194348694"><ele>806.2</ele><time>2026-04-25T17:07:30.999Z</time></trkpt><trkpt lat="43.73473259342383" lon="7.01355773272717"><ele>805.8</ele><time>2026-04-25T17:07:32.999Z</time></trkpt><trkpt lat="43.73467390947888" lon="7.013678584184677"><ele>805.4</ele><time>2026-04-25T17:07:34.999Z</time></trkpt><trkpt lat="43.73464992726987" lon="7.013764212261642"><ele>805.0</ele><time>2026-04-25T17:07:35.999Z</time></trkpt><trkpt lat="43.73462633347895" lon="7.013910999818669"><ele>804.9999999999999</ele><time>2026-04-25T17:07:36.999Z</time></trkpt><trkpt lat="43.73460952699675" lon="7.014027301356671"><ele>805.0</ele><time>2026-04-25T17:07:37.999Z</time></trkpt><trkpt lat="43.73457222106011" lon="7.014141789981458"><ele>805.0</ele><time>2026-04-25T17:07:38.999Z</time></trkpt><trkpt lat="43.73454717359686" lon="7.014229359912991"><ele>805.0</ele><time>2026-04-25T17:07:39.999Z</time></trkpt><trkpt lat="43.734549736907056" lon="7.014368018401892"><ele>804.9999999999999</ele><time>2026-04-25T17:07:41.999Z</time></trkpt><trkpt lat="43.73453295565031" lon="7.014470713596994"><ele>805.0</ele><time>2026-04-25T17:07:45.999Z</time></trkpt><trkpt lat="43.73457089311036" lon="7.014558392708703"><ele>803.8</ele><time>2026-04-25T17:07:48.999Z</time></trkpt><trkpt lat="43.734671437193896" lon="7.014602984730365"><ele>802.6</ele><time>2026-04-25T17:07:50.999Z</time></trkpt><trkpt lat="43.73478316083807" lon="7.014714434621005"><ele>801.4000000000001</ele><time>2026-04-25T17:07:52.999Z</time></trkpt><trkpt lat="43.734830572679016" lon="7.014777681736455"><ele>800.2</ele><time>2026-04-25T17:07:53.999Z</time></trkpt><trkpt lat="43.73490513752037" lon="7.01480652316384"><ele>799.0</ele><time>2026-04-25T17:07:56.999Z</time></trkpt><trkpt lat="43.73499435972507" lon="7.014761970276728"><ele>799.0</ele><time>2026-04-25T17:07:59.999Z</time></trkpt><trkpt lat="43.735128101966076" lon="7.014739411569314"><ele>799.0</ele><time>2026-04-25T17:08:02.999Z</time></trkpt><trkpt lat="43.73520493757092" lon="7.014692526269228"><ele>799.0</ele><time>2026-04-25T17:08:04.999Z</time></trkpt><trkpt lat="43.73526196122055" lon="7.014649837752006"><ele>799.0</ele><time>2026-04-25T17:08:06.999Z</time></trkpt><trkpt lat="43.7353363901754" lon="7.014596614547477"><ele>799.0</ele><time>2026-04-25T17:08:09.998Z</time></trkpt><trkpt lat="43.735441233258875" lon="7.014568313686025"><ele>797.1666666666666</ele><time>2026-04-25T17:08:12.998Z</time></trkpt><trkpt lat="43.735551267706654" lon="7.014580297939492"><ele>795.3333333333333</ele><time>2026-04-25T17:08:14.998Z</time></trkpt><trkpt lat="43.735627782095804" lon="7.014628023470268"><ele>793.5</ele><time>2026-04-25T17:08:16.998Z</time></trkpt><trkpt lat="43.73569167098033" lon="7.014665823577894"><ele>791.6666666666667</ele><time>2026-04-25T17:08:18.998Z</time></trkpt><trkpt lat="43.73576663187359" lon="7.014710953063562"><ele>789.8333333333334</ele><time>2026-04-25T17:08:20.998Z</time></trkpt><trkpt lat="43.73569508616086" lon="7.014678748607893"><ele>788.0</ele><time>2026-04-25T17:08:57Z</time></trkpt><trkpt lat="43.73560336639903" lon="7.014629535727199"><ele>788.0000000000001</ele><time>2026-04-25T17:09:00Z</time></trkpt><trkpt lat="43.73551567113969" lon="7.014611885651369"><ele>788.0</ele><time>2026-04-25T17:09:02Z</time></trkpt><trkpt lat="43.735403651319345" lon="7.014611216925757"><ele>788.0</ele><time>2026-04-25T17:09:04Z</time></trkpt><trkpt lat="43.73534145441712" lon="7.014635344496544"><ele>788.0</ele><time>2026-04-25T17:09:05Z</time></trkpt><trkpt lat="43.73525455999643" lon="7.014719505481848"><ele>788.0000000000001</ele><time>2026-04-25T17:09:07Z</time></trkpt><trkpt lat="43.73519775477425" lon="7.014774857773284"><ele>788.0</ele><time>2026-04-25T17:09:07.999Z</time></trkpt><trkpt lat="43.735126282332594" lon="7.014808921214601"><ele>790.2</ele><time>2026-04-25T17:09:08.999Z</time></trkpt><trkpt lat="43.73500641779379" lon="7.014841567266608"><ele>792.4</ele><time>2026-04-25T17:09:10.999Z</time></trkpt><trkpt lat="43.73494143659581" lon="7.014849185558961"><ele>794.6</ele><time>2026-04-25T17:09:11.999Z</time></trkpt><trkpt lat="43.734836733202926" lon="7.014833260815481"><ele>796.8000000000001</ele><time>2026-04-25T17:09:13.999Z</time></trkpt><trkpt lat="43.73472897519415" lon="7.014734419196766"><ele>799.0</ele><time>2026-04-25T17:09:15.999Z</time></trkpt><trkpt lat="43.73466019146776" lon="7.0146569286564056"><ele>798.9999999999999</ele><time>2026-04-25T17:09:16.999Z</time></trkpt><trkpt lat="43.73460223284134" lon="7.014608299742753"><ele>799.0</ele><time>2026-04-25T17:09:17.999Z</time></trkpt><trkpt lat="43.73451668842963" lon="7.014592041108664"><ele>799.0</ele><time>2026-04-25T17:09:19.999Z</time></trkpt><trkpt lat="43.7345102777689" lon="7.014465510593934"><ele>799.0</ele><time>2026-04-25T17:09:21.999Z</time></trkpt><trkpt lat="43.734532660685346" lon="7.014376688968397"><ele>798.9999999999999</ele><time>2026-04-25T17:09:22.999Z</time></trkpt><trkpt lat="43.734539328634554" lon="7.014287852070228"><ele>799.0</ele><time>2026-04-25T17:09:23.999Z</time></trkpt><trkpt lat="43.734544693622134" lon="7.014122465128257"><ele>800.2</ele><time>2026-04-25T17:09:25.999Z</time></trkpt><trkpt lat="43.734600393078104" lon="7.013968096195045"><ele>801.4000000000001</ele><time>2026-04-25T17:09:27.999Z</time></trkpt><trkpt lat="43.734622775530475" lon="7.013856138503806"><ele>802.6</ele><time>2026-04-25T17:09:28.999Z</time></trkpt><trkpt lat="43.73464877087699" lon="7.013748095088321"><ele>803.8</ele><time>2026-04-25T17:09:29.999Z</time></trkpt><trkpt lat="43.73470876368109" lon="7.013607100958109"><ele>805.0</ele><time>2026-04-25T17:09:31.999Z</time></trkpt><trkpt lat="43.73481445360057" lon="7.013526253571943"><ele>805.0</ele><time>2026-04-25T17:09:33.999Z</time></trkpt><trkpt lat="43.73489049931567" lon="7.01349416881839"><ele>805.0</ele><time>2026-04-25T17:09:34.999Z</time></trkpt><trkpt lat="43.73494614154781" lon="7.013431855857946"><ele>805.0</ele><time>2026-04-25T17:09:35.999Z</time></trkpt><trkpt lat="43.735059111692614" lon="7.0133263905388645"><ele>805.0</ele><time>2026-04-25T17:09:37.999Z</time></trkpt><trkpt lat="43.735120436318404" lon="7.013289252135514"><ele>805.0</ele><time>2026-04-25T17:09:38.999Z</time></trkpt><trkpt lat="43.73522057693934" lon="7.013209198506585"><ele>805.4</ele><time>2026-04-25T17:09:40.999Z</time></trkpt><trkpt lat="43.735294180503494" lon="7.013102516560907"><ele>805.8</ele><time>2026-04-25T17:09:42.999Z</time></trkpt><trkpt lat="43.735270526637684" lon="7.0129474121063025"><ele>806.2</ele><time>2026-04-25T17:09:44.999Z</time></trkpt><trkpt lat="43.735208508788524" lon="7.0128797808894205"><ele>806.6</ele><time>2026-04-25T17:09:46.999Z</time></trkpt><trkpt lat="43.73510075345367" lon="7.012815519953481"><ele>807.0</ele><time>2026-04-25T17:09:48.999Z</time></trkpt><trkpt lat="43.73502699087876" lon="7.012788947910183"><ele>807.0</ele><time>2026-04-25T17:09:49.999Z</time></trkpt><trkpt lat="43.73494939693797" lon="7.012730574804663"><ele>807.0</ele><time>2026-04-25T17:09:50.999Z</time></trkpt><trkpt lat="43.73486292631168" lon="7.01262886734701"><ele>807.0</ele><time>2026-04-25T17:09:51.999Z</time></trkpt><trkpt lat="43.73479730448947" lon="7.012523493451826"><ele>807.0</ele><time>2026-04-25T17:09:52.999Z</time></trkpt><trkpt lat="43.73475223486069" lon="7.012436690094271"><ele>807.0</ele><time>2026-04-25T17:09:53.999Z</time></trkpt><trkpt lat="43.73472557816537" lon="7.012328319524192"><ele>806.0</ele><time>2026-04-25T17:09:54.999Z</time></trkpt><trkpt lat="43.73468167958534" lon="7.01225274783763"><ele>805.0</ele><time>2026-04-25T17:09:55.999Z</time></trkpt><trkpt lat="43.73463716188456" lon="7.01218778126623"><ele>804.0</ele><time>2026-04-25T17:09:56.999Z</time></trkpt><trkpt lat="43.73458637682789" lon="7.012106135669503"><ele>803.0</ele><time>2026-04-25T17:09:57.999Z</time></trkpt><trkpt lat="43.73451585128362" lon="7.0120000542091825"><ele>802.0</ele><time>2026-04-25T17:09:58.999Z</time></trkpt><trkpt lat="43.734446688638826" lon="7.011905829490367"><ele>801.0</ele><time>2026-04-25T17:09:59.999Z</time></trkpt><trkpt lat="43.73440167449822" lon="7.011748971175011"><ele>802.5</ele><time>2026-04-25T17:10:01.999Z</time></trkpt><trkpt lat="43.73431014153296" lon="7.011639855371228"><ele>804.0</ele><time>2026-04-25T17:10:03.999Z</time></trkpt><trkpt lat="43.73427415447444" lon="7.011548373344991"><ele>805.5</ele><time>2026-04-25T17:10:04.999Z</time></trkpt><trkpt lat="43.73426847143005" lon="7.011422122370927"><ele>807.0</ele><time>2026-04-25T17:10:05.999Z</time></trkpt><trkpt lat="43.734218463905094" lon="7.01136360867804"><ele>808.5</ele><time>2026-04-25T17:10:07.999Z</time></trkpt><trkpt lat="43.734152677183744" lon="7.011373546403317"><ele>810.0</ele><time>2026-04-25T17:10:09.999Z</time></trkpt><trkpt lat="43.73402239235689" lon="7.0113602758775855"><ele>810.0</ele><time>2026-04-25T17:10:11.999Z</time></trkpt><trkpt lat="43.73394300999605" lon="7.011409859874662"><ele>810.0</ele><time>2026-04-25T17:10:13.999Z</time></trkpt><trkpt lat="43.73393636321666" lon="7.011512451315837"><ele>810.0</ele><time>2026-04-25T17:10:15.998Z</time></trkpt><trkpt lat="43.73390053110983" lon="7.011601721257109"><ele>810.0</ele><time>2026-04-25T17:10:32.998Z</time></trkpt><trkpt lat="43.73383902724391" lon="7.011696617934375"><ele>810.0</ele><time>2026-04-25T17:10:34.998Z</time></trkpt><trkpt lat="43.73377769447834" lon="7.011756972698108"><ele>810.0</ele><time>2026-04-25T17:10:35.998Z</time></trkpt><trkpt lat="43.7337026851859" lon="7.011801833219015"><ele>811.1666666666666</ele><time>2026-04-25T17:10:36.998Z</time></trkpt><trkpt lat="43.733608888990865" lon="7.011815005248156"><ele>812.3333333333333</ele><time>2026-04-25T17:10:37.998Z</time></trkpt><trkpt lat="43.73353071064419" lon="7.011813161315947"><ele>813.5</ele><time>2026-04-25T17:10:38.998Z</time></trkpt><trkpt lat="43.73350478561665" lon="7.011948293288332"><ele>814.6666666666666</ele><time>2026-04-25T17:10:40.998Z</time></trkpt><trkpt lat="43.733519826712" lon="7.01204941445859"><ele>815.8333333333333</ele><time>2026-04-25T17:10:41.998Z</time></trkpt><trkpt lat="43.73353245314411" lon="7.0121415576607955"><ele>817.0</ele><time>2026-04-25T17:10:42.998Z</time></trkpt><trkpt lat="43.73358044093079" lon="7.012281212438681"><ele>816.9999999999999</ele><time>2026-04-25T17:10:44.998Z</time></trkpt><trkpt lat="43.7336104943597" lon="7.01242084659643"><ele>817.0</ele><time>2026-04-25T17:10:46.998Z</time></trkpt><trkpt lat="43.733581918498814" lon="7.01251185688945"><ele>817.0</ele><time>2026-04-25T17:10:47.998Z</time></trkpt><trkpt lat="43.73353506959221" lon="7.012596925944079"><ele>817.0</ele><time>2026-04-25T17:10:48.998Z</time></trkpt><trkpt lat="43.733481522154996" lon="7.012649281328544"><ele>816.9999999999999</ele><time>2026-04-25T17:10:50Z</time></trkpt><trkpt lat="43.733399134276844" lon="7.012678385115868"><ele>817.0</ele><time>2026-04-25T17:10:51Z</time></trkpt><trkpt lat="43.73330183572187" lon="7.012728735973382"><ele>818.8333333333333</ele><time>2026-04-25T17:10:52Z</time></trkpt><trkpt lat="43.73321902366181" lon="7.0127835665673794"><ele>820.6666666666666</ele><time>2026-04-25T17:10:53Z</time></trkpt><trkpt lat="43.7331510567952" lon="7.012857533346386"><ele>822.5</ele><time>2026-04-25T17:10:54Z</time></trkpt><trkpt lat="43.73308147886982" lon="7.012948732818711"><ele>824.3333333333333</ele><time>2026-04-25T17:10:55Z</time></trkpt><trkpt lat="43.733005899932294" lon="7.01302862723828"><ele>826.1666666666666</ele><time>2026-04-25T17:10:56Z</time></trkpt><trkpt lat="43.732938028602454" lon="7.013051331547353"><ele>828.0</ele><time>2026-04-25T17:10:57Z</time></trkpt><trkpt lat="43.73289586611331" lon="7.013121518875804"><ele>828.0</ele><time>2026-04-25T17:10:59Z</time></trkpt><trkpt lat="43.73287863667909" lon="7.013243959059704"><ele>828.0</ele><time>2026-04-25T17:11:01Z</time></trkpt><trkpt lat="43.732804170286066" lon="7.013261062501766"><ele>828.0</ele><time>2026-04-25T17:11:03Z</time></trkpt><trkpt lat="43.7326961294261" lon="7.013247920314149"><ele>828.0</ele><time>2026-04-25T17:11:05Z</time></trkpt><trkpt lat="43.73262936570962" lon="7.0132874056839505"><ele>828.0</ele><time>2026-04-25T17:11:06Z</time></trkpt><trkpt lat="43.73256220367694" lon="7.013345205973931"><ele>828.0</ele><time>2026-04-25T17:11:07Z</time></trkpt><trkpt lat="43.73252555628973" lon="7.013437186350819"><ele>830.2</ele><time>2026-04-25T17:11:09Z</time></trkpt><trkpt lat="43.73250097211343" lon="7.01364524617425"><ele>832.4</ele><time>2026-04-25T17:11:11Z</time></trkpt><trkpt lat="43.73248730169783" lon="7.0137772356408465"><ele>834.6</ele><time>2026-04-25T17:11:12Z</time></trkpt><trkpt lat="43.732485521712405" lon="7.013894762837074"><ele>836.8000000000001</ele><time>2026-04-25T17:11:13Z</time></trkpt><trkpt lat="43.73249132651929" lon="7.014020403656462"><ele>839.0</ele><time>2026-04-25T17:11:14Z</time></trkpt><trkpt lat="43.73252718336298" lon="7.014141066623046"><ele>839.0000000000001</ele><time>2026-04-25T17:11:14.999Z</time></trkpt><trkpt lat="43.73256483086134" lon="7.014228871676221"><ele>839.0</ele><time>2026-04-25T17:11:15.999Z</time></trkpt><trkpt lat="43.73262720966045" lon="7.0143027280407315"><ele>839.0</ele><time>2026-04-25T17:11:17.999Z</time></trkpt><trkpt lat="43.73255492585403" lon="7.0142801569045155"><ele>839.0</ele><time>2026-04-25T17:11:25.999Z</time></trkpt><trkpt lat="43.73249477722731" lon="7.01421307776351"><ele>839.0000000000001</ele><time>2026-04-25T17:11:42.999Z</time></trkpt><trkpt lat="43.7323895701816" lon="7.014137587406107"><ele>839.0</ele><time>2026-04-25T17:11:44.999Z</time></trkpt><trkpt lat="43.732328932157074" lon="7.014090060441633"><ele>839.0000000000001</ele><time>2026-04-25T17:11:45.999Z</time></trkpt><trkpt lat="43.73227354153724" lon="7.014018190819668"><ele>839.0</ele><time>2026-04-25T17:11:46.999Z</time></trkpt><trkpt lat="43.732223006148246" lon="7.013932180820793"><ele>839.0</ele><time>2026-04-25T17:11:47.999Z</time></trkpt><trkpt lat="43.732180191943854" lon="7.013840294423483"><ele>839.0</ele><time>2026-04-25T17:11:48.999Z</time></trkpt><trkpt lat="43.732128670529185" lon="7.013768366417761"><ele>839.0000000000001</ele><time>2026-04-25T17:11:49.999Z</time></trkpt><trkpt lat="43.732076351302354" lon="7.013692598719934"><ele>839.0</ele><time>2026-04-25T17:11:50.999Z</time></trkpt><trkpt lat="43.73202842519509" lon="7.013609681540033"><ele>839.0</ele><time>2026-04-25T17:11:51.999Z</time></trkpt><trkpt lat="43.73197848978626" lon="7.0135277237768685"><ele>839.0</ele><time>2026-04-25T17:11:52.999Z</time></trkpt><trkpt lat="43.731931605466094" lon="7.013459367123763"><ele>839.0</ele><time>2026-04-25T17:11:53.999Z</time></trkpt><trkpt lat="43.731878193434085" lon="7.013391431341166"><ele>839.0</ele><time>2026-04-25T17:11:54.999Z</time></trkpt><trkpt lat="43.73182094919169" lon="7.013329034533146"><ele>839.0</ele><time>2026-04-25T17:11:55.999Z</time></trkpt><trkpt lat="43.731765293311206" lon="7.0132635198863085"><ele>839.0</ele><time>2026-04-25T17:11:56.999Z</time></trkpt><trkpt lat="43.731699676348214" lon="7.013187821199917"><ele>839.0</ele><time>2026-04-25T17:11:57.999Z</time></trkpt><trkpt lat="43.73163258486808" lon="7.013124408275011"><ele>840.0000000000001</ele><time>2026-04-25T17:11:58.999Z</time></trkpt><trkpt lat="43.73155853692072" lon="7.013071314395493"><ele>841.0</ele><time>2026-04-25T17:11:59.999Z</time></trkpt><trkpt lat="43.7314836995463" lon="7.0130301875634125"><ele>842.0</ele><time>2026-04-25T17:12:00.999Z</time></trkpt><trkpt lat="43.73142016415322" lon="7.013012614723418"><ele>843.0</ele><time>2026-04-25T17:12:01.999Z</time></trkpt><trkpt lat="43.731348021985184" lon="7.013019156992837"><ele>844.0000000000001</ele><time>2026-04-25T17:12:02.999Z</time></trkpt><trkpt lat="43.73126143560563" lon="7.013030610387288"><ele>845.0</ele><time>2026-04-25T17:12:03.999Z</time></trkpt><trkpt lat="43.73116181708548" lon="7.013043109326269"><ele>845.0000000000001</ele><time>2026-04-25T17:12:04.999Z</time></trkpt><trkpt lat="43.73107010018482" lon="7.01304452760901"><ele>845.0</ele><time>2026-04-25T17:12:05.999Z</time></trkpt><trkpt lat="43.730994875977835" lon="7.013046098023843"><ele>845.0</ele><time>2026-04-25T17:12:06.999Z</time></trkpt><trkpt lat="43.73092148710171" lon="7.012984763623597"><ele>845.0</ele><time>2026-04-25T17:12:08.999Z</time></trkpt><trkpt lat="43.73090318238328" lon="7.012898028489763"><ele>845.0000000000001</ele><time>2026-04-25T17:12:09.999Z</time></trkpt><trkpt lat="43.73086690263065" lon="7.0127807457158235"><ele>845.0</ele><time>2026-04-25T17:12:10.999Z</time></trkpt><trkpt lat="43.73083101546849" lon="7.012631933702013"><ele>848.2</ele><time>2026-04-25T17:12:11.999Z</time></trkpt><trkpt lat="43.73079537390105" lon="7.012477996895027"><ele>851.4</ele><time>2026-04-25T17:12:12.999Z</time></trkpt><trkpt lat="43.73075000879676" lon="7.012355277783854"><ele>854.5999999999999</ele><time>2026-04-25T17:12:13.999Z</time></trkpt><trkpt lat="43.73071917325505" lon="7.012237743159615"><ele>857.8</ele><time>2026-04-25T17:12:14.999Z</time></trkpt><trkpt lat="43.73065571153659" lon="7.012133538753801"><ele>861.0</ele><time>2026-04-25T17:12:15.999Z</time></trkpt><trkpt lat="43.73060071417808" lon="7.012053038348687"><ele>861.0</ele><time>2026-04-25T17:12:16.999Z</time></trkpt><trkpt lat="43.73052538636402" lon="7.012005874672841"><ele>861.0</ele><time>2026-04-25T17:12:17.999Z</time></trkpt><trkpt lat="43.73044373527096" lon="7.0119878354087115"><ele>861.0</ele><time>2026-04-25T17:12:18.999Z</time></trkpt><trkpt lat="43.730362575566126" lon="7.01195008495337"><ele>861.0</ele><time>2026-04-25T17:12:19.999Z</time></trkpt><trkpt lat="43.730261763702146" lon="7.011917187178164"><ele>861.0</ele><time>2026-04-25T17:12:20.999Z</time></trkpt><trkpt lat="43.73017027851507" lon="7.011892464095313"><ele>861.0</ele><time>2026-04-25T17:12:21.999Z</time></trkpt><trkpt lat="43.730094922838084" lon="7.011842990840508"><ele>863.0</ele><time>2026-04-25T17:12:22.998Z</time></trkpt><trkpt lat="43.730041165051254" lon="7.011717929166108"><ele>864.9999999999999</ele><time>2026-04-25T17:12:24.998Z</time></trkpt><trkpt lat="43.73001263442514" lon="7.0116340774644"><ele>866.9999999999999</ele><time>2026-04-25T17:12:25.998Z</time></trkpt><trkpt lat="43.72997478916578" lon="7.011521567221957"><ele>869.0</ele><time>2026-04-25T17:12:27.998Z</time></trkpt><trkpt lat="43.73006216927886" lon="7.011395300052183"><ele>871.0</ele><time>2026-04-25T17:12:29.998Z</time></trkpt><trkpt lat="43.73009298156937" lon="7.011317154442636"><ele>871.0</ele><time>2026-04-25T17:12:30.998Z</time></trkpt><trkpt lat="43.73013114497806" lon="7.011240687076439"><ele>870.9999999999999</ele><time>2026-04-25T17:12:31.998Z</time></trkpt><trkpt lat="43.730209612886625" lon="7.0111248070859"><ele>870.9999999999999</ele><time>2026-04-25T17:12:33.998Z</time></trkpt><trkpt lat="43.730264239096705" lon="7.010985217941642"><ele>871.0</ele><time>2026-04-25T17:12:35.998Z</time></trkpt><trkpt lat="43.73024323666663" lon="7.01086272105226"><ele>871.0</ele><time>2026-04-25T17:12:38.998Z</time></trkpt><trkpt lat="43.730195320404874" lon="7.010734414114827"><ele>871.4999999999999</ele><time>2026-04-25T17:12:40.998Z</time></trkpt><trkpt lat="43.730162999430966" lon="7.010654101705262"><ele>872.0</ele><time>2026-04-25T17:12:41.998Z</time></trkpt><trkpt lat="43.73012158306445" lon="7.010517390987378"><ele>872.5</ele><time>2026-04-25T17:12:43.998Z</time></trkpt><trkpt lat="43.7301084180242" lon="7.010422381962849"><ele>873.0</ele><time>2026-04-25T17:12:46.998Z</time></trkpt><trkpt lat="43.730069817256044" lon="7.010272305397809"><ele>873.4999999999999</ele><time>2026-04-25T17:12:56Z</time></trkpt><trkpt lat="43.730051345420804" lon="7.010185632166374"><ele>874.0</ele><time>2026-04-25T17:12:57Z</time></trkpt><trkpt lat="43.730018391339755" lon="7.010058852225078"><ele>874.4000000000001</ele><time>2026-04-25T17:12:59Z</time></trkpt><trkpt lat="43.73000016941232" lon="7.009932087194168"><ele>874.8000000000001</ele><time>2026-04-25T17:13:01Z</time></trkpt><trkpt lat="43.72994032321235" lon="7.0098082749963275"><ele>875.1999999999999</ele><time>2026-04-25T17:13:03Z</time></trkpt><trkpt lat="43.72985940363926" lon="7.009725441092521"><ele>875.5999999999999</ele><time>2026-04-25T17:13:05Z</time></trkpt><trkpt lat="43.7298157318277" lon="7.009623979920848"><ele>876.0</ele><time>2026-04-25T17:13:07Z</time></trkpt><trkpt lat="43.72976881095011" lon="7.009562169888553"><ele>876.0</ele><time>2026-04-25T17:13:08Z</time></trkpt><trkpt lat="43.72970256815876" lon="7.009504395176266"><ele>876.0</ele><time>2026-04-25T17:13:09Z</time></trkpt><trkpt lat="43.72962919605881" lon="7.009478314243142"><ele>876.0</ele><time>2026-04-25T17:13:11Z</time></trkpt><trkpt lat="43.7295786239114" lon="7.00956270906334"><ele>876.0</ele><time>2026-04-25T17:13:17Z</time></trkpt><trkpt lat="43.729566436217475" lon="7.0096522472282246"><ele>876.0</ele><time>2026-04-25T17:13:49.999Z</time></trkpt><trkpt lat="43.72952838732276" lon="7.009723930214398"><ele>876.0</ele><time>2026-04-25T17:13:50.999Z</time></trkpt><trkpt lat="43.729481346419526" lon="7.009798384149931"><ele>876.0</ele><time>2026-04-25T17:13:51.999Z</time></trkpt><trkpt lat="43.7294266124184" lon="7.009887054907137"><ele>877.75</ele><time>2026-04-25T17:13:52.999Z</time></trkpt><trkpt lat="43.72935888195179" lon="7.009997957898709"><ele>879.5</ele><time>2026-04-25T17:13:53.999Z</time></trkpt><trkpt lat="43.7292849502234" lon="7.010129499749917"><ele>881.25</ele><time>2026-04-25T17:13:54.999Z</time></trkpt><trkpt lat="43.72921446694631" lon="7.010275080498148"><ele>883.0</ele><time>2026-04-25T17:13:55.999Z</time></trkpt><trkpt lat="43.72914827336456" lon="7.010422428637451"><ele>883.0</ele><time>2026-04-25T17:13:56.999Z</time></trkpt><trkpt lat="43.729086602371794" lon="7.010591989517457"><ele>883.0</ele><time>2026-04-25T17:13:57.999Z</time></trkpt><trkpt lat="43.729025811500435" lon="7.010762845660895"><ele>883.0</ele><time>2026-04-25T17:13:58.999Z</time></trkpt><trkpt lat="43.728971297792505" lon="7.01093693965456"><ele>883.0</ele><time>2026-04-25T17:13:59.999Z</time></trkpt><trkpt lat="43.728921470693884" lon="7.01111465474809"><ele>884.0</ele><time>2026-04-25T17:14:00.999Z</time></trkpt><trkpt lat="43.72886737313799" lon="7.011265892951333"><ele>885.0</ele><time>2026-04-25T17:14:01.999Z</time></trkpt><trkpt lat="43.728782393789" lon="7.011399623488515"><ele>886.0</ele><time>2026-04-25T17:14:02.999Z</time></trkpt><trkpt lat="43.72867973311184" lon="7.011528921243926"><ele>887.0</ele><time>2026-04-25T17:14:03.999Z</time></trkpt><trkpt lat="43.72857191826823" lon="7.011644357000215"><ele>890.2</ele><time>2026-04-25T17:14:04.999Z</time></trkpt><trkpt lat="43.72848392472194" lon="7.0117593249060866"><ele>893.4000000000001</ele><time>2026-04-25T17:14:05.999Z</time></trkpt><trkpt lat="43.728417402205814" lon="7.011867883723253"><ele>896.5999999999999</ele><time>2026-04-25T17:14:06.999Z</time></trkpt><trkpt lat="43.728375179902145" lon="7.011987736155698"><ele>899.8</ele><time>2026-04-25T17:14:07.999Z</time></trkpt><trkpt lat="43.728356169798936" lon="7.012126601264475"><ele>903.0</ele><time>2026-04-25T17:14:08.999Z</time></trkpt><trkpt lat="43.728341486107425" lon="7.01224646148133"><ele>903.0</ele><time>2026-04-25T17:14:09.999Z</time></trkpt><trkpt lat="43.72834869460517" lon="7.012346381209031"><ele>903.0</ele><time>2026-04-25T17:14:10.999Z</time></trkpt><trkpt lat="43.728389292787696" lon="7.012431974797448"><ele>903.0</ele><time>2026-04-25T17:14:11.999Z</time></trkpt><trkpt lat="43.72843763215341" lon="7.012515792588625"><ele>903.0</ele><time>2026-04-25T17:14:12.999Z</time></trkpt><trkpt lat="43.728493801528465" lon="7.01261607208931"><ele>903.0</ele><time>2026-04-25T17:14:13.999Z</time></trkpt><trkpt lat="43.728526799477386" lon="7.012737240831232"><ele>903.0</ele><time>2026-04-25T17:14:14.999Z</time></trkpt><trkpt lat="43.7285350311921" lon="7.012857959402421"><ele>903.8</ele><time>2026-04-25T17:14:15.999Z</time></trkpt><trkpt lat="43.7285382700319" lon="7.013005586257556"><ele>904.5999999999999</ele><time>2026-04-25T17:14:16.999Z</time></trkpt><trkpt lat="43.72854131082254" lon="7.013152540925878"><ele>905.4000000000001</ele><time>2026-04-25T17:14:17.999Z</time></trkpt><trkpt lat="43.728515737066026" lon="7.013283690415748"><ele>906.2</ele><time>2026-04-25T17:14:18.999Z</time></trkpt><trkpt lat="43.72846838622837" lon="7.013412798509337"><ele>907.0</ele><time>2026-04-25T17:14:19.999Z</time></trkpt><trkpt lat="43.72843614890422" lon="7.013542789871968"><ele>908.3333333333333</ele><time>2026-04-25T17:14:20.999Z</time></trkpt><trkpt lat="43.72842372989721" lon="7.01363887196423"><ele>909.6666666666666</ele><time>2026-04-25T17:14:21.999Z</time></trkpt><trkpt lat="43.72843627732332" lon="7.013744353302832"><ele>911.0</ele><time>2026-04-25T17:14:22.999Z</time></trkpt><trkpt lat="43.728452471998864" lon="7.013840364421949"><ele>912.3333333333333</ele><time>2026-04-25T17:14:23.999Z</time></trkpt><trkpt lat="43.7283500485857" lon="7.013846233043339"><ele>913.6666666666666</ele><time>2026-04-25T17:14:26.999Z</time></trkpt><trkpt lat="43.72829852966478" lon="7.013790824083365"><ele>915.0</ele><time>2026-04-25T17:14:27.998Z</time></trkpt><trkpt lat="43.7282698886429" lon="7.013701578539046"><ele>915.0</ele><time>2026-04-25T17:14:28.998Z</time></trkpt><trkpt lat="43.728238005800506" lon="7.013617740709892"><ele>915.0</ele><time>2026-04-25T17:14:29.998Z</time></trkpt><trkpt lat="43.72817607794725" lon="7.013599094043155"><ele>915.0</ele><time>2026-04-25T17:14:30.998Z</time></trkpt><trkpt lat="43.72812078227082" lon="7.013549999310164"><ele>915.0</ele><time>2026-04-25T17:14:31.998Z</time></trkpt><trkpt lat="43.72802283149785" lon="7.0135082307132395"><ele>915.0</ele><time>2026-04-25T17:14:32.998Z</time></trkpt><trkpt lat="43.72792394398539" lon="7.013438318893364"><ele>915.0</ele><time>2026-04-25T17:14:33.998Z</time></trkpt><trkpt lat="43.7278362700485" lon="7.013354370512979"><ele>913.0</ele><time>2026-04-25T17:14:34.998Z</time></trkpt><trkpt lat="43.727747821342" lon="7.013275722527475"><ele>911.0</ele><time>2026-04-25T17:14:35.998Z</time></trkpt><trkpt lat="43.72769784575549" lon="7.013146010618822"><ele>909.0</ele><time>2026-04-25T17:14:36.998Z</time></trkpt><trkpt lat="43.727627358892036" lon="7.013003391792846"><ele>907.0</ele><time>2026-04-25T17:14:37.998Z</time></trkpt><trkpt lat="43.7275368248743" lon="7.012861539978118"><ele>909.75</ele><time>2026-04-25T17:14:38.998Z</time></trkpt><trkpt lat="43.72746789478784" lon="7.012715413564325"><ele>912.5</ele><time>2026-04-25T17:14:39.998Z</time></trkpt><trkpt lat="43.72738024418322" lon="7.012600812447119"><ele>915.25</ele><time>2026-04-25T17:14:40.998Z</time></trkpt><trkpt lat="43.72729449247393" lon="7.012492919184442"><ele>918.0</ele><time>2026-04-25T17:14:41.998Z</time></trkpt><trkpt lat="43.72719340313191" lon="7.012380369039502"><ele>918.0</ele><time>2026-04-25T17:14:42.998Z</time></trkpt><trkpt lat="43.72708541616515" lon="7.012250417807843"><ele>918.0</ele><time>2026-04-25T17:14:43.998Z</time></trkpt><trkpt lat="43.726984326183775" lon="7.012112661478604"><ele>918.0</ele><time>2026-04-25T17:14:44.998Z</time></trkpt><trkpt lat="43.72689489936971" lon="7.012013293072273"><ele>918.0</ele><time>2026-04-25T17:14:45.998Z</time></trkpt><trkpt lat="43.726816009951385" lon="7.011973274712608"><ele>918.1666666666666</ele><time>2026-04-25T17:14:46.998Z</time></trkpt><trkpt lat="43.72674172772996" lon="7.011967444052285"><ele>918.3333333333333</ele><time>2026-04-25T17:14:47.998Z</time></trkpt><trkpt lat="43.7266301930123" lon="7.011973463904983"><ele>918.5</ele><time>2026-04-25T17:14:49.998Z</time></trkpt><trkpt lat="43.72656242681794" lon="7.011928875296945"><ele>918.6666666666666</ele><time>2026-04-25T17:14:51.998Z</time></trkpt><trkpt lat="43.72649555342209" lon="7.0119760880649755"><ele>918.8333333333333</ele><time>2026-04-25T17:14:54.998Z</time></trkpt><trkpt lat="43.72643275730224" lon="7.01200548093874"><ele>919.0</ele><time>2026-04-25T17:14:57.998Z</time></trkpt><trkpt lat="43.72634666228588" lon="7.012084929578986"><ele>919.0</ele><time>2026-04-25T17:14:59.998Z</time></trkpt><trkpt lat="43.72628875165379" lon="7.012129171791653"><ele>919.0000000000001</ele><time>2026-04-25T17:15:00.998Z</time></trkpt><trkpt lat="43.72622335332272" lon="7.0121863625128915"><ele>919.0000000000001</ele><time>2026-04-25T17:15:02Z</time></trkpt><trkpt lat="43.726142621762605" lon="7.012240720261731"><ele>919.0</ele><time>2026-04-25T17:15:03Z</time></trkpt><trkpt lat="43.72603683207305" lon="7.012300799414801"><ele>919.0</ele><time>2026-04-25T17:15:04Z</time></trkpt><trkpt lat="43.72591819551083" lon="7.012356803630523"><ele>916.0</ele><time>2026-04-25T17:15:05Z</time></trkpt><trkpt lat="43.7258022836067" lon="7.012405652254362"><ele>913.0000000000001</ele><time>2026-04-25T17:15:06Z</time></trkpt><trkpt lat="43.725712797590326" lon="7.01245342777072"><ele>910.0000000000001</ele><time>2026-04-25T17:15:07Z</time></trkpt><trkpt lat="43.72563144369053" lon="7.012506733319949"><ele>907.0</ele><time>2026-04-25T17:15:08Z</time></trkpt><trkpt lat="43.72556440993644" lon="7.0125800145511175"><ele>904.0</ele><time>2026-04-25T17:15:09Z</time></trkpt><trkpt lat="43.72549164614407" lon="7.012673961158243"><ele>907.0</ele><time>2026-04-25T17:15:10Z</time></trkpt><trkpt lat="43.725397080507335" lon="7.0127702748043115"><ele>910.0</ele><time>2026-04-25T17:15:11Z</time></trkpt><trkpt lat="43.72529797892951" lon="7.0128634685472875"><ele>913.0</ele><time>2026-04-25T17:15:12Z</time></trkpt><trkpt lat="43.72519421482531" lon="7.012963796562519"><ele>916.0</ele><time>2026-04-25T17:15:13Z</time></trkpt><trkpt lat="43.725080329691885" lon="7.013052636032993"><ele>916.0</ele><time>2026-04-25T17:15:14Z</time></trkpt><trkpt lat="43.724956276608516" lon="7.01313652310553"><ele>916.0</ele><time>2026-04-25T17:15:15Z</time></trkpt><trkpt lat="43.72481951281884" lon="7.013233163953179"><ele>916.0</ele><time>2026-04-25T17:15:16Z</time></trkpt><trkpt lat="43.72467168038425" lon="7.0133199603911205"><ele>916.25</ele><time>2026-04-25T17:15:17Z</time></trkpt><trkpt lat="43.72454619373889" lon="7.013406244121873"><ele>916.5</ele><time>2026-04-25T17:15:18Z</time></trkpt><trkpt lat="43.72441623971736" lon="7.01349021711986"><ele>916.75</ele><time>2026-04-25T17:15:19Z</time></trkpt><trkpt lat="43.72428780261377" lon="7.013579222522495"><ele>917.0</ele><time>2026-04-25T17:15:20Z</time></trkpt><trkpt lat="43.72416868885203" lon="7.013659217523382"><ele>917.0</ele><time>2026-04-25T17:15:21Z</time></trkpt><trkpt lat="43.72406042897371" lon="7.013730928887043"><ele>917.0</ele><time>2026-04-25T17:15:22Z</time></trkpt><trkpt lat="43.723954201396204" lon="7.013793069321259"><ele>917.0</ele><time>2026-04-25T17:15:23Z</time></trkpt><trkpt lat="43.723848878022935" lon="7.013833418093721"><ele>917.0</ele><time>2026-04-25T17:15:24Z</time></trkpt><trkpt lat="43.72374486361985" lon="7.013869321957751"><ele>917.0</ele><time>2026-04-25T17:15:25Z</time></trkpt><trkpt lat="43.723645663007055" lon="7.013914284053141"><ele>917.0</ele><time>2026-04-25T17:15:26Z</time></trkpt><trkpt lat="43.72353658750153" lon="7.0139624709437465"><ele>917.0</ele><time>2026-04-25T17:15:27Z</time></trkpt><trkpt lat="43.72340796227791" lon="7.013982479839485"><ele>917.0</ele><time>2026-04-25T17:15:28Z</time></trkpt><trkpt lat="43.72327425974607" lon="7.013989675113135"><ele>914.5</ele><time>2026-04-25T17:15:28.999Z</time></trkpt><trkpt lat="43.723134402230265" lon="7.013989289080841"><ele>912.0</ele><time>2026-04-25T17:15:29.999Z</time></trkpt><trkpt lat="43.7230082258975" lon="7.014005162952225"><ele>909.5</ele><time>2026-04-25T17:15:30.999Z</time></trkpt><trkpt lat="43.72289575412007" lon="7.014026386052756"><ele>907.0</ele><time>2026-04-25T17:15:31.999Z</time></trkpt><trkpt lat="43.72278244376158" lon="7.014056198654225"><ele>907.2</ele><time>2026-04-25T17:15:32.999Z</time></trkpt><trkpt lat="43.72267908431914" lon="7.014115248384762"><ele>907.4000000000001</ele><time>2026-04-25T17:15:33.999Z</time></trkpt><trkpt lat="43.722579784703704" lon="7.014194559527785"><ele>907.5999999999999</ele><time>2026-04-25T17:15:34.999Z</time></trkpt><trkpt lat="43.722485335315156" lon="7.014272053067057"><ele>907.8</ele><time>2026-04-25T17:15:35.999Z</time></trkpt><trkpt lat="43.722406650199275" lon="7.014333370607164"><ele>908.0</ele><time>2026-04-25T17:15:36.999Z</time></trkpt><trkpt lat="43.722363425661186" lon="7.0144254978416924"><ele>908.0</ele><time>2026-04-25T17:15:37.999Z</time></trkpt><trkpt lat="43.7223358002822" lon="7.014527067743701"><ele>908.0</ele><time>2026-04-25T17:15:38.999Z</time></trkpt><trkpt lat="43.72230911041395" lon="7.014622065369711"><ele>908.0</ele><time>2026-04-25T17:15:39.999Z</time></trkpt><trkpt lat="43.72221446300153" lon="7.014700833293491"><ele>908.0</ele><time>2026-04-25T17:15:41.999Z</time></trkpt><trkpt lat="43.722174002807165" lon="7.0145728047320555"><ele>908.0</ele><time>2026-04-25T17:15:43.999Z</time></trkpt><trkpt lat="43.72215739031573" lon="7.014454871440377"><ele>908.0</ele><time>2026-04-25T17:15:44.999Z</time></trkpt><trkpt lat="43.72214790404786" lon="7.014285677972902"><ele>908.0</ele><time>2026-04-25T17:15:45.999Z</time></trkpt><trkpt lat="43.722130788483454" lon="7.014146967630899"><ele>908.0</ele><time>2026-04-25T17:15:46.999Z</time></trkpt><trkpt lat="43.722099883168035" lon="7.0140222789138305"><ele>908.0</ele><time>2026-04-25T17:15:47.999Z</time></trkpt><trkpt lat="43.72210509483804" lon="7.0138743126419"><ele>908.0</ele><time>2026-04-25T17:15:48.999Z</time></trkpt><trkpt lat="43.72212894042048" lon="7.013702341279773"><ele>905.75</ele><time>2026-04-25T17:15:49.999Z</time></trkpt><trkpt lat="43.72214787865542" lon="7.013528959000244"><ele>903.5</ele><time>2026-04-25T17:15:50.999Z</time></trkpt><trkpt lat="43.72214441579061" lon="7.013353414085362"><ele>901.25</ele><time>2026-04-25T17:15:51.999Z</time></trkpt><trkpt lat="43.72215894589463" lon="7.013172786848828"><ele>899.0</ele><time>2026-04-25T17:15:52.999Z</time></trkpt><trkpt lat="43.722182879471845" lon="7.013004838986825"><ele>896.8000000000001</ele><time>2026-04-25T17:15:53.999Z</time></trkpt><trkpt lat="43.7222022119351" lon="7.012841878088595"><ele>894.6000000000001</ele><time>2026-04-25T17:15:54.999Z</time></trkpt><trkpt lat="43.72221605518336" lon="7.012688735238227"><ele>892.4</ele><time>2026-04-25T17:15:55.999Z</time></trkpt><trkpt lat="43.72223640662606" lon="7.012531379567818"><ele>890.2</ele><time>2026-04-25T17:15:56.999Z</time></trkpt><trkpt lat="43.72225162102043" lon="7.012405197864907"><ele>888.0</ele><time>2026-04-25T17:15:57.999Z</time></trkpt><trkpt lat="43.72226194363103" lon="7.012288852198977"><ele>886.4</ele><time>2026-04-25T17:15:58.999Z</time></trkpt><trkpt lat="43.72221027921744" lon="7.012142749242429"><ele>884.8</ele><time>2026-04-25T17:16:00.999Z</time></trkpt><trkpt lat="43.7221484885171" lon="7.012101784642904"><ele>883.2</ele><time>2026-04-25T17:16:01.999Z</time></trkpt><trkpt lat="43.72206552048119" lon="7.012104681744924"><ele>881.6</ele><time>2026-04-25T17:16:02.999Z</time></trkpt><trkpt lat="43.721961581572295" lon="7.012125258662342"><ele>880.0</ele><time>2026-04-25T17:16:03.999Z</time></trkpt><trkpt lat="43.72183267187243" lon="7.012139601044571"><ele>880.0</ele><time>2026-04-25T17:16:04.999Z</time></trkpt><trkpt lat="43.7216976837298" lon="7.01216983268382"><ele>880.0</ele><time>2026-04-25T17:16:05.999Z</time></trkpt><trkpt lat="43.72156159878158" lon="7.012205377982065"><ele>880.0</ele><time>2026-04-25T17:16:06.999Z</time></trkpt><trkpt lat="43.7214315288455" lon="7.012221314929524"><ele>880.0</ele><time>2026-04-25T17:16:07.999Z</time></trkpt><trkpt lat="43.721344003030794" lon="7.012230467901958"><ele>880.0</ele><time>2026-04-25T17:16:08.999Z</time></trkpt><trkpt lat="43.72125833229591" lon="7.01217525876999"><ele>880.0</ele><time>2026-04-25T17:16:09.999Z</time></trkpt><trkpt lat="43.72117240660861" lon="7.012100424399638"><ele>880.0</ele><time>2026-04-25T17:16:10.999Z</time></trkpt><trkpt lat="43.72110058193639" lon="7.0120105567995425"><ele>880.0</ele><time>2026-04-25T17:16:11.999Z</time></trkpt><trkpt lat="43.721020187416855" lon="7.011924749740909"><ele>880.0</ele><time>2026-04-25T17:16:12.999Z</time></trkpt><trkpt lat="43.72092664296812" lon="7.011821389623507"><ele>879.0</ele><time>2026-04-25T17:16:13.999Z</time></trkpt><trkpt lat="43.72083862773768" lon="7.0117252053488475"><ele>878.0</ele><time>2026-04-25T17:16:14.999Z</time></trkpt><trkpt lat="43.72076886471142" lon="7.01161751574923"><ele>877.0</ele><time>2026-04-25T17:16:15.999Z</time></trkpt><trkpt lat="43.72069903291537" lon="7.011494994914266"><ele>876.0</ele><time>2026-04-25T17:16:16.999Z</time></trkpt><trkpt lat="43.72063157367627" lon="7.011392143997884"><ele>875.0</ele><time>2026-04-25T17:16:17.999Z</time></trkpt><trkpt lat="43.72058574076187" lon="7.011296641634879"><ele>874.0</ele><time>2026-04-25T17:16:18.999Z</time></trkpt><trkpt lat="43.720554969483736" lon="7.011173058964007"><ele>873.0</ele><time>2026-04-25T17:16:19.999Z</time></trkpt><trkpt lat="43.72054696441455" lon="7.011034802448634"><ele>872.0</ele><time>2026-04-25T17:16:20.999Z</time></trkpt><trkpt lat="43.72051690137827" lon="7.010886404948566"><ele>871.0</ele><time>2026-04-25T17:16:21.999Z</time></trkpt><trkpt lat="43.720480492617796" lon="7.010774882940872"><ele>870.0</ele><time>2026-04-25T17:16:22.999Z</time></trkpt><trkpt lat="43.7204338853555" lon="7.0106987997148895"><ele>870.3333333333334</ele><time>2026-04-25T17:16:23.999Z</time></trkpt><trkpt lat="43.72036882289661" lon="7.010676245926123"><ele>870.6666666666667</ele><time>2026-04-25T17:16:24.999Z</time></trkpt><trkpt lat="43.72029759483786" lon="7.010720251842517"><ele>871.0</ele><time>2026-04-25T17:16:25.999Z</time></trkpt><trkpt lat="43.72024265578303" lon="7.01082186718264"><ele>871.3333333333334</ele><time>2026-04-25T17:16:26.999Z</time></trkpt><trkpt lat="43.72021071553087" lon="7.01093256691428"><ele>871.6666666666667</ele><time>2026-04-25T17:16:27.999Z</time></trkpt><trkpt lat="43.72018119056736" lon="7.011083295220811"><ele>872.0</ele><time>2026-04-25T17:16:28.999Z</time></trkpt><trkpt lat="43.720152431397075" lon="7.011268527311259"><ele>872.0</ele><time>2026-04-25T17:16:29.999Z</time></trkpt><trkpt lat="43.72010521977478" lon="7.011471297476022"><ele>872.0</ele><time>2026-04-25T17:16:30.999Z</time></trkpt><trkpt lat="43.72004969385985" lon="7.011690719478473"><ele>872.0</ele><time>2026-04-25T17:16:31.999Z</time></trkpt><trkpt lat="43.719995416727926" lon="7.01188962709799"><ele>872.5</ele><time>2026-04-25T17:16:32.999Z</time></trkpt><trkpt lat="43.71994600215345" lon="7.01208511227504"><ele>873.0</ele><time>2026-04-25T17:16:33.999Z</time></trkpt><trkpt lat="43.719877752627994" lon="7.012268198550221"><ele>873.5</ele><time>2026-04-25T17:16:34.999Z</time></trkpt><trkpt lat="43.71980323987024" lon="7.012444820789372"><ele>874.0</ele><time>2026-04-25T17:16:35.999Z</time></trkpt><trkpt lat="43.71974019475848" lon="7.01260565118411"><ele>873.3333333333333</ele><time>2026-04-25T17:16:36.998Z</time></trkpt><trkpt lat="43.71969375987157" lon="7.012740423251757"><ele>872.6666666666666</ele><time>2026-04-25T17:16:37.998Z</time></trkpt><trkpt lat="43.71967230704588" lon="7.0128593047341194"><ele>872.0</ele><time>2026-04-25T17:16:38.998Z</time></trkpt><trkpt lat="43.71967438771819" lon="7.012959956627577"><ele>871.3333333333333</ele><time>2026-04-25T17:16:39.998Z</time></trkpt><trkpt lat="43.71970610722959" lon="7.013042414352895"><ele>870.6666666666666</ele><time>2026-04-25T17:16:40.998Z</time></trkpt><trkpt lat="43.71976430646845" lon="7.013135341367028"><ele>870.0</ele><time>2026-04-25T17:16:41.998Z</time></trkpt><trkpt lat="43.71981637774536" lon="7.013261969542058"><ele>869.25</ele><time>2026-04-25T17:16:42.998Z</time></trkpt><trkpt lat="43.719864940410496" lon="7.013417298751493"><ele>868.5</ele><time>2026-04-25T17:16:43.998Z</time></trkpt><trkpt lat="43.71988298921941" lon="7.013597755172458"><ele>867.75</ele><time>2026-04-25T17:16:44.998Z</time></trkpt><trkpt lat="43.71990140291182" lon="7.013801504112838"><ele>867.0</ele><time>2026-04-25T17:16:45.998Z</time></trkpt><trkpt lat="43.719914762605725" lon="7.013990224623147"><ele>867.0</ele><time>2026-04-25T17:16:46.998Z</time></trkpt><trkpt lat="43.71991688437362" lon="7.014157592157568"><ele>867.0</ele><time>2026-04-25T17:16:47.998Z</time></trkpt><trkpt lat="43.7198977743958" lon="7.01432101021436"><ele>867.0</ele><time>2026-04-25T17:16:48.998Z</time></trkpt><trkpt lat="43.71985246796414" lon="7.014489520311712"><ele>867.0</ele><time>2026-04-25T17:16:49.998Z</time></trkpt><trkpt lat="43.719797872137725" lon="7.014657052728152"><ele>867.0</ele><time>2026-04-25T17:16:50.998Z</time></trkpt><trkpt lat="43.71974703806356" lon="7.014803072351857"><ele>867.0</ele><time>2026-04-25T17:16:51.998Z</time></trkpt><trkpt lat="43.71970217793686" lon="7.014931890397073"><ele>867.0</ele><time>2026-04-25T17:16:52.998Z</time></trkpt><trkpt lat="43.71965807536375" lon="7.015036510714964"><ele>867.0</ele><time>2026-04-25T17:16:53.998Z</time></trkpt><trkpt lat="43.719601464555" lon="7.0151185713784106"><ele>867.0</ele><time>2026-04-25T17:16:54.998Z</time></trkpt><trkpt lat="43.71954852970534" lon="7.015175070320417"><ele>867.0</ele><time>2026-04-25T17:16:55.998Z</time></trkpt><trkpt lat="43.71943904816668" lon="7.015157836516356"><ele>867.0</ele><time>2026-04-25T17:16:57.998Z</time></trkpt><trkpt lat="43.71937350028754" lon="7.0151354161436315"><ele>867.0</ele><time>2026-04-25T17:16:58.998Z</time></trkpt><trkpt lat="43.71930797003354" lon="7.015127249069625"><ele>867.0</ele><time>2026-04-25T17:16:59.998Z</time></trkpt><trkpt lat="43.719226579454386" lon="7.015202977473369"><ele>867.0</ele><time>2026-04-25T17:17:01.998Z</time></trkpt><trkpt lat="43.7192026899137" lon="7.0153268157147295"><ele>867.0</ele><time>2026-04-25T17:17:03.998Z</time></trkpt><trkpt lat="43.71923288822757" lon="7.015427003711488"><ele>866.2857142857142</ele><time>2026-04-25T17:17:05.998Z</time></trkpt><trkpt lat="43.71925402544521" lon="7.015511472067957"><ele>865.5714285714287</ele><time>2026-04-25T17:17:08Z</time></trkpt><trkpt lat="43.71927131613654" lon="7.015639378214584"><ele>864.8571428571429</ele><time>2026-04-25T17:17:10Z</time></trkpt><trkpt lat="43.719285947370665" lon="7.015725985475107"><ele>864.1428571428571</ele><time>2026-04-25T17:17:11Z</time></trkpt><trkpt lat="43.71929584088449" lon="7.015813078702082"><ele>863.4285714285713</ele><time>2026-04-25T17:17:12Z</time></trkpt><trkpt lat="43.71932222824903" lon="7.0159153630149556"><ele>862.7142857142858</ele><time>2026-04-25T17:17:13Z</time></trkpt><trkpt lat="43.71934313370998" lon="7.016024391590916"><ele>862.0</ele><time>2026-04-25T17:17:14Z</time></trkpt><trkpt lat="43.71934548315668" lon="7.0161520515295095"><ele>860.6</ele><time>2026-04-25T17:17:15Z</time></trkpt><trkpt lat="43.71933625513739" lon="7.016286134970197"><ele>859.2</ele><time>2026-04-25T17:17:16Z</time></trkpt><trkpt lat="43.71933473180577" lon="7.0164027586373745"><ele>857.8</ele><time>2026-04-25T17:17:17Z</time></trkpt><trkpt lat="43.719333483352905" lon="7.016563991804328"><ele>856.4</ele><time>2026-04-25T17:17:19Z</time></trkpt><trkpt lat="43.719293370839125" lon="7.016680616420658"><ele>855.0</ele><time>2026-04-25T17:17:21Z</time></trkpt><trkpt lat="43.71918679176179" lon="7.016700216593237"><ele>853.6666666666666</ele><time>2026-04-25T17:17:23Z</time></trkpt><trkpt lat="43.719095773975084" lon="7.016725360852276"><ele>852.3333333333333</ele><time>2026-04-25T17:17:25Z</time></trkpt><trkpt lat="43.71905663805299" lon="7.016794960293887"><ele>851.0</ele><time>2026-04-25T17:17:27Z</time></trkpt><trkpt lat="43.71907273281056" lon="7.01688971709321"><ele>849.6666666666666</ele><time>2026-04-25T17:17:29Z</time></trkpt><trkpt lat="43.7191032871922" lon="7.017004011553452"><ele>848.3333333333333</ele><time>2026-04-25T17:17:31Z</time></trkpt><trkpt lat="43.71913244021021" lon="7.0171451774349345"><ele>847.0</ele><time>2026-04-25T17:17:32.999Z</time></trkpt><trkpt lat="43.719189303680665" lon="7.01728777266053"><ele>846.9999999999999</ele><time>2026-04-25T17:17:34.999Z</time></trkpt><trkpt lat="43.71922623756933" lon="7.017362968809068"><ele>847.0</ele><time>2026-04-25T17:17:35.999Z</time></trkpt><trkpt lat="43.71926565517886" lon="7.017437523865002"><ele>847.0</ele><time>2026-04-25T17:17:36.999Z</time></trkpt><trkpt lat="43.71928305352747" lon="7.017524322466355"><ele>847.0</ele><time>2026-04-25T17:17:37.999Z</time></trkpt><trkpt lat="43.71926553773777" lon="7.017627855262246"><ele>846.9999999999999</ele><time>2026-04-25T17:17:38.999Z</time></trkpt><trkpt lat="43.71922251289095" lon="7.0177463069773935"><ele>847.0</ele><time>2026-04-25T17:17:39.999Z</time></trkpt><trkpt lat="43.7191541122006" lon="7.017887930144166"><ele>846.4999999999999</ele><time>2026-04-25T17:17:40.999Z</time></trkpt><trkpt lat="43.719106512129585" lon="7.018019392191604"><ele>846.0</ele><time>2026-04-25T17:17:41.999Z</time></trkpt><trkpt lat="43.71906782731462" lon="7.018110850165546"><ele>845.5</ele><time>2026-04-25T17:17:42.999Z</time></trkpt><trkpt lat="43.71901474792543" lon="7.0181878186613895"><ele>845.0</ele><time>2026-04-25T17:17:44.999Z</time></trkpt><trkpt lat="43.71895096887929" lon="7.018197156246789"><ele>844.4999999999999</ele><time>2026-04-25T17:17:46.999Z</time></trkpt><trkpt lat="43.71888481026214" lon="7.018147907506082"><ele>844.0</ele><time>2026-04-25T17:17:48.999Z</time></trkpt><trkpt lat="43.71882301428013" lon="7.018119237846175"><ele>844.0</ele><time>2026-04-25T17:17:50.999Z</time></trkpt><trkpt lat="43.71875401050243" lon="7.018099171718237"><ele>844.0</ele><time>2026-04-25T17:17:52.999Z</time></trkpt><trkpt lat="43.71869450087406" lon="7.01806482602174"><ele>844.0</ele><time>2026-04-25T17:17:54.999Z</time></trkpt><trkpt lat="43.71862596597065" lon="7.018020592235467"><ele>844.0</ele><time>2026-04-25T17:18:03.999Z</time></trkpt><trkpt lat="43.71855964310276" lon="7.018034909463975"><ele>844.0</ele><time>2026-04-25T17:18:08.999Z</time></trkpt><trkpt lat="43.718530314406806" lon="7.0181430439779255"><ele>844.0</ele><time>2026-04-25T17:18:10.999Z</time></trkpt><trkpt lat="43.71853055794299" lon="7.018259483428689"><ele>844.0</ele><time>2026-04-25T17:18:12.999Z</time></trkpt><trkpt lat="43.71852564316019" lon="7.018384199690511"><ele>842.3333333333333</ele><time>2026-04-25T17:18:14.999Z</time></trkpt><trkpt lat="43.71852408580087" lon="7.018491059163265"><ele>840.6666666666666</ele><time>2026-04-25T17:18:16.999Z</time></trkpt><trkpt lat="43.718522627655915" lon="7.018593442828593"><ele>839.0</ele><time>2026-04-25T17:18:18.999Z</time></trkpt><trkpt lat="43.71851107026175" lon="7.018687395654272"><ele>837.3333333333333</ele><time>2026-04-25T17:18:20.999Z</time></trkpt><trkpt lat="43.71846914218698" lon="7.018806230962363"><ele>835.6666666666666</ele><time>2026-04-25T17:18:22.999Z</time></trkpt><trkpt lat="43.718434912378825" lon="7.018889737571658"><ele>834.0</ele><time>2026-04-25T17:18:24.999Z</time></trkpt><trkpt lat="43.71842521721249" lon="7.019035099271964"><ele>834.3333333333334</ele><time>2026-04-25T17:18:27.999Z</time></trkpt><trkpt lat="43.71839544906765" lon="7.019171178021343"><ele>834.6666666666667</ele><time>2026-04-25T17:18:29.999Z</time></trkpt><trkpt lat="43.71838159197121" lon="7.019263001162224"><ele>835.0</ele><time>2026-04-25T17:18:30.999Z</time></trkpt><trkpt lat="43.71833452952769" lon="7.019359604565811"><ele>835.3333333333334</ele><time>2026-04-25T17:18:31.999Z</time></trkpt><trkpt lat="43.71831962332525" lon="7.0194885774088585"><ele>835.6666666666667</ele><time>2026-04-25T17:18:32.999Z</time></trkpt><trkpt lat="43.71828411296263" lon="7.019608121234974"><ele>836.0</ele><time>2026-04-25T17:18:33.999Z</time></trkpt><trkpt lat="43.71823323940849" lon="7.019715929426812"><ele>836.0000000000001</ele><time>2026-04-25T17:18:34.999Z</time></trkpt><trkpt lat="43.71820572554955" lon="7.019805282260204"><ele>836.0</ele><time>2026-04-25T17:18:35.999Z</time></trkpt><trkpt lat="43.71816562510708" lon="7.019940340142965"><ele>836.0</ele><time>2026-04-25T17:18:37.999Z</time></trkpt><trkpt lat="43.7181410709884" lon="7.020037249128068"><ele>836.0</ele><time>2026-04-25T17:18:40.999Z</time></trkpt><trkpt lat="43.71809260233742" lon="7.020093849283409"><ele>836.0000000000001</ele><time>2026-04-25T17:18:49.998Z</time></trkpt><trkpt lat="43.71802377311095" lon="7.020092983428652"><ele>836.0</ele><time>2026-04-25T17:18:54.998Z</time></trkpt><trkpt lat="43.717944698037776" lon="7.020096298696309"><ele>836.0000000000001</ele><time>2026-04-25T17:18:57.998Z</time></trkpt><trkpt lat="43.71787901987732" lon="7.020088448398154"><ele>836.0</ele><time>2026-04-25T17:19:02.998Z</time></trkpt><trkpt lat="43.71784163324635" lon="7.020011077731071"><ele>836.0</ele><time>2026-04-25T17:19:07.998Z</time></trkpt><trkpt lat="43.717790584028265" lon="7.019931411847388"><ele>836.0</ele><time>2026-04-25T17:19:10.998Z</time></trkpt><trkpt lat="43.71769370151076" lon="7.01992825614591"><ele>836.0000000000001</ele><time>2026-04-25T17:19:12.998Z</time></trkpt><trkpt lat="43.71762529881243" lon="7.020037873430252"><ele>836.0</ele><time>2026-04-25T17:19:15Z</time></trkpt><trkpt lat="43.71750885827019" lon="7.0201332265523995"><ele>834.1666666666667</ele><time>2026-04-25T17:19:17Z</time></trkpt><trkpt lat="43.71741924287604" lon="7.020164737116935"><ele>832.3333333333334</ele><time>2026-04-25T17:19:18Z</time></trkpt><trkpt lat="43.71734617679094" lon="7.020204809214054"><ele>830.5</ele><time>2026-04-25T17:19:19Z</time></trkpt><trkpt lat="43.71728482438727" lon="7.020246439680253"><ele>828.6666666666667</ele><time>2026-04-25T17:19:20Z</time></trkpt><trkpt lat="43.71722079705843" lon="7.020343580662117"><ele>826.8333333333334</ele><time>2026-04-25T17:19:22Z</time></trkpt><trkpt lat="43.7172129689868" lon="7.02043134861206"><ele>825.0</ele><time>2026-04-25T17:19:23Z</time></trkpt><trkpt lat="43.7171826358368" lon="7.020543657574585"><ele>825.0</ele><time>2026-04-25T17:19:24Z</time></trkpt><trkpt lat="43.717135288109134" lon="7.020674256857748"><ele>825.0</ele><time>2026-04-25T17:19:25Z</time></trkpt><trkpt lat="43.717105854735095" lon="7.020805175486198"><ele>825.0</ele><time>2026-04-25T17:19:26Z</time></trkpt><trkpt lat="43.71708620678263" lon="7.020933583038393"><ele>825.0</ele><time>2026-04-25T17:19:27Z</time></trkpt><trkpt lat="43.71707839379963" lon="7.021050862166916"><ele>825.0</ele><time>2026-04-25T17:19:28Z</time></trkpt><trkpt lat="43.71707242483986" lon="7.02118497707441"><ele>825.8</ele><time>2026-04-25T17:19:29Z</time></trkpt><trkpt lat="43.7170332060368" lon="7.021333713748371"><ele>826.6</ele><time>2026-04-25T17:19:30Z</time></trkpt><trkpt lat="43.717033125663505" lon="7.021492891967054"><ele>827.4000000000001</ele><time>2026-04-25T17:19:31Z</time></trkpt><trkpt lat="43.71703638376218" lon="7.021631309851103"><ele>828.2</ele><time>2026-04-25T17:19:32Z</time></trkpt><trkpt lat="43.71704140227016" lon="7.021773070698756"><ele>829.0</ele><time>2026-04-25T17:19:33Z</time></trkpt><trkpt lat="43.717057642911136" lon="7.021927971599666"><ele>830.0</ele><time>2026-04-25T17:19:34Z</time></trkpt><trkpt lat="43.71708924782719" lon="7.022100797238137"><ele>831.0</ele><time>2026-04-25T17:19:35Z</time></trkpt><trkpt lat="43.717127334692506" lon="7.022272741882832"><ele>832.0</ele><time>2026-04-25T17:19:36Z</time></trkpt><trkpt lat="43.71716977138358" lon="7.022453700002869"><ele>833.0</ele><time>2026-04-25T17:19:37Z</time></trkpt><trkpt lat="43.717238035560484" lon="7.022634478914142"><ele>832.75</ele><time>2026-04-25T17:19:38Z</time></trkpt><trkpt lat="43.71728326871834" lon="7.022838395488477"><ele>832.5</ele><time>2026-04-25T17:19:39Z</time></trkpt><trkpt lat="43.71732927323233" lon="7.023030487302038"><ele>832.25</ele><time>2026-04-25T17:19:39.999Z</time></trkpt><trkpt lat="43.717371264473314" lon="7.023214732130578"><ele>832.0</ele><time>2026-04-25T17:19:40.999Z</time></trkpt><trkpt lat="43.71740483180712" lon="7.023383227424488"><ele>831.9999999999999</ele><time>2026-04-25T17:19:41.999Z</time></trkpt><trkpt lat="43.717432369507776" lon="7.0235175866899535"><ele>832.0</ele><time>2026-04-25T17:19:42.999Z</time></trkpt><trkpt lat="43.71748070977338" lon="7.02362532951119"><ele>832.0</ele><time>2026-04-25T17:19:43.999Z</time></trkpt><trkpt lat="43.717530795703496" lon="7.023706784029137"><ele>832.0</ele><time>2026-04-25T17:19:44.999Z</time></trkpt><trkpt lat="43.717589003890744" lon="7.023756896343329"><ele>831.9999999999999</ele><time>2026-04-25T17:19:45.999Z</time></trkpt><trkpt lat="43.71767458012963" lon="7.023711557455585"><ele>832.0</ele><time>2026-04-25T17:19:47.999Z</time></trkpt><trkpt lat="43.71770834732685" lon="7.023530242066677"><ele>832.0</ele><time>2026-04-25T17:19:49.999Z</time></trkpt><trkpt lat="43.717704196586986" lon="7.023424883268389"><ele>832.0</ele><time>2026-04-25T17:19:50.999Z</time></trkpt><trkpt lat="43.717706274537655" lon="7.023297536370109"><ele>832.0</ele><time>2026-04-25T17:19:51.999Z</time></trkpt><trkpt lat="43.71773265737148" lon="7.023177571598539"><ele>832.0</ele><time>2026-04-25T17:19:52.999Z</time></trkpt><trkpt lat="43.71779663138145" lon="7.023070492283499"><ele>832.0</ele><time>2026-04-25T17:19:53.999Z</time></trkpt><trkpt lat="43.717869050434174" lon="7.022986983801802"><ele>834.6</ele><time>2026-04-25T17:19:54.999Z</time></trkpt><trkpt lat="43.717952857360345" lon="7.022953848705335"><ele>837.2</ele><time>2026-04-25T17:19:55.999Z</time></trkpt><trkpt lat="43.71803142527325" lon="7.022969683871225"><ele>839.8</ele><time>2026-04-25T17:19:57.999Z</time></trkpt><trkpt lat="43.71806492294055" lon="7.023146616933083"><ele>842.4</ele><time>2026-04-25T17:19:59.999Z</time></trkpt><trkpt lat="43.718061282176585" lon="7.023291778256361"><ele>845.0</ele><time>2026-04-25T17:20:00.999Z</time></trkpt><trkpt lat="43.718071877139735" lon="7.0234640288434145"><ele>845.0</ele><time>2026-04-25T17:20:01.999Z</time></trkpt><trkpt lat="43.71809587622928" lon="7.023664940145522"><ele>845.0</ele><time>2026-04-25T17:20:02.999Z</time></trkpt><trkpt lat="43.718118978460765" lon="7.023877952085326"><ele>845.0</ele><time>2026-04-25T17:20:03.999Z</time></trkpt><trkpt lat="43.718136829766536" lon="7.024085921237834"><ele>844.3333333333334</ele><time>2026-04-25T17:20:04.999Z</time></trkpt><trkpt lat="43.718147336241636" lon="7.024322739455034"><ele>843.6666666666667</ele><time>2026-04-25T17:20:05.999Z</time></trkpt><trkpt lat="43.71814738033549" lon="7.024546101390376"><ele>843.0</ele><time>2026-04-25T17:20:06.999Z</time></trkpt><trkpt lat="43.71815272174421" lon="7.024715570611609"><ele>843.0</ele><time>2026-04-25T17:20:07.999Z</time></trkpt><trkpt lat="43.71812371990089" lon="7.024865621791258"><ele>843.0</ele><time>2026-04-25T17:20:08.999Z</time></trkpt><trkpt lat="43.718065021545236" lon="7.025041704523959"><ele>843.0</ele><time>2026-04-25T17:20:09.999Z</time></trkpt><trkpt lat="43.718026782644046" lon="7.025214354286055"><ele>843.0</ele><time>2026-04-25T17:20:10.999Z</time></trkpt><trkpt lat="43.717991955763964" lon="7.025369957919326"><ele>843.5</ele><time>2026-04-25T17:20:11.999Z</time></trkpt><trkpt lat="43.71795234638547" lon="7.025535640865395"><ele>844.0</ele><time>2026-04-25T17:20:12.999Z</time></trkpt><trkpt lat="43.71791738198728" lon="7.025686274225861"><ele>844.5</ele><time>2026-04-25T17:20:13.999Z</time></trkpt><trkpt lat="43.717872015258045" lon="7.025823703281038"><ele>845.0</ele><time>2026-04-25T17:20:14.999Z</time></trkpt><trkpt lat="43.7177948236503" lon="7.025952708191332"><ele>843.75</ele><time>2026-04-25T17:20:15.999Z</time></trkpt><trkpt lat="43.717704343101964" lon="7.026041426039064"><ele>842.5</ele><time>2026-04-25T17:20:16.999Z</time></trkpt><trkpt lat="43.71759992559993" lon="7.02612365046191"><ele>841.25</ele><time>2026-04-25T17:20:17.999Z</time></trkpt><trkpt lat="43.717470158538866" lon="7.02618554312897"><ele>840.0</ele><time>2026-04-25T17:20:18.999Z</time></trkpt><trkpt lat="43.71733680537129" lon="7.02624402080478"><ele>840.0</ele><time>2026-04-25T17:20:19.999Z</time></trkpt><trkpt lat="43.71718944035798" lon="7.0262805601581615"><ele>840.0</ele><time>2026-04-25T17:20:20.999Z</time></trkpt><trkpt lat="43.71705898007953" lon="7.02630428961077"><ele>840.0</ele><time>2026-04-25T17:20:21.999Z</time></trkpt><trkpt lat="43.71695683351681" lon="7.0263523755764465"><ele>840.0</ele><time>2026-04-25T17:20:22.999Z</time></trkpt><trkpt lat="43.71687028536736" lon="7.026415090431955"><ele>840.0</ele><time>2026-04-25T17:20:23.999Z</time></trkpt><trkpt lat="43.71680493740532" lon="7.02648317897218"><ele>840.0</ele><time>2026-04-25T17:20:24.999Z</time></trkpt><trkpt lat="43.716746682804754" lon="7.026554762239398"><ele>840.0</ele><time>2026-04-25T17:20:25.999Z</time></trkpt><trkpt lat="43.71670150043269" lon="7.026700045183058"><ele>840.0</ele><time>2026-04-25T17:20:27.999Z</time></trkpt><trkpt lat="43.71668963671972" lon="7.026879421951005"><ele>840.0</ele><time>2026-04-25T17:20:29.999Z</time></trkpt><trkpt lat="43.71669187713484" lon="7.027003398714578"><ele>840.8333333333334</ele><time>2026-04-25T17:20:30.999Z</time></trkpt><trkpt lat="43.71670411024379" lon="7.027118786018139"><ele>841.6666666666667</ele><time>2026-04-25T17:20:31.999Z</time></trkpt><trkpt lat="43.716729862073535" lon="7.027226419616371"><ele>842.5</ele><time>2026-04-25T17:20:32.999Z</time></trkpt><trkpt lat="43.71677109378901" lon="7.02732711420831"><ele>843.3333333333334</ele><time>2026-04-25T17:20:33.999Z</time></trkpt><trkpt lat="43.716819520234665" lon="7.027425663959949"><ele>844.1666666666667</ele><time>2026-04-25T17:20:34.999Z</time></trkpt><trkpt lat="43.7168908613132" lon="7.027534108953689"><ele>845.0</ele><time>2026-04-25T17:20:35.999Z</time></trkpt><trkpt lat="43.716983202256564" lon="7.027640440327611"><ele>847.5</ele><time>2026-04-25T17:20:36.999Z</time></trkpt><trkpt lat="43.717083706195055" lon="7.027758479109569"><ele>850.0</ele><time>2026-04-25T17:20:37.999Z</time></trkpt><trkpt lat="43.717188322519014" lon="7.027898340846184"><ele>852.5</ele><time>2026-04-25T17:20:38.999Z</time></trkpt><trkpt lat="43.717309447652134" lon="7.0280484413837945"><ele>855.0</ele><time>2026-04-25T17:20:39.999Z</time></trkpt><trkpt lat="43.717430276727015" lon="7.028199667507944"><ele>852.6666666666667</ele><time>2026-04-25T17:20:40.999Z</time></trkpt><trkpt lat="43.717549813782426" lon="7.02836657424786"><ele>850.3333333333334</ele><time>2026-04-25T17:20:41.999Z</time></trkpt><trkpt lat="43.717671683526035" lon="7.028555136994183"><ele>848.0</ele><time>2026-04-25T17:20:42.999Z</time></trkpt><trkpt lat="43.71779139107333" lon="7.028733086248645"><ele>848.75</ele><time>2026-04-25T17:20:43.999Z</time></trkpt><trkpt lat="43.7178992344836" lon="7.028895292340863"><ele>849.5</ele><time>2026-04-25T17:20:44.999Z</time></trkpt><trkpt lat="43.7180003375011" lon="7.029042275808549"><ele>850.25</ele><time>2026-04-25T17:20:45.998Z</time></trkpt><trkpt lat="43.718093407260234" lon="7.029184433516485"><ele>851.0</ele><time>2026-04-25T17:20:46.998Z</time></trkpt><trkpt lat="43.71818455604862" lon="7.029310412604441"><ele>851.0</ele><time>2026-04-25T17:20:47.998Z</time></trkpt><trkpt lat="43.718266425211546" lon="7.029426478013192"><ele>851.0</ele><time>2026-04-25T17:20:48.998Z</time></trkpt><trkpt lat="43.71834383626187" lon="7.029536092948482"><ele>851.0</ele><time>2026-04-25T17:20:49.998Z</time></trkpt><trkpt lat="43.71841874906952" lon="7.029637624511678"><ele>851.0</ele><time>2026-04-25T17:20:50.998Z</time></trkpt><trkpt lat="43.71849652133932" lon="7.029718108545327"><ele>851.0</ele><time>2026-04-25T17:20:51.998Z</time></trkpt><trkpt lat="43.718575816842424" lon="7.029806898629862"><ele>851.8</ele><time>2026-04-25T17:20:52.998Z</time></trkpt><trkpt lat="43.71865046500204" lon="7.029909078713115"><ele>852.5999999999999</ele><time>2026-04-25T17:20:53.998Z</time></trkpt><trkpt lat="43.71872063145971" lon="7.030028887942276"><ele>853.4</ele><time>2026-04-25T17:20:54.998Z</time></trkpt><trkpt lat="43.71879185128813" lon="7.030148374037822"><ele>854.2</ele><time>2026-04-25T17:20:55.998Z</time></trkpt><trkpt lat="43.71885110462569" lon="7.030272653689845"><ele>855.0</ele><time>2026-04-25T17:20:56.998Z</time></trkpt><trkpt lat="43.71890970489676" lon="7.030376797226954"><ele>855.0</ele><time>2026-04-25T17:20:57.998Z</time></trkpt><trkpt lat="43.71896636357266" lon="7.030483049899782"><ele>855.0</ele><time>2026-04-25T17:20:58.998Z</time></trkpt><trkpt lat="43.719018559410934" lon="7.030576109502886"><ele>855.0</ele><time>2026-04-25T17:20:59.998Z</time></trkpt><trkpt lat="43.719072365815066" lon="7.030697535062813"><ele>855.0</ele><time>2026-04-25T17:21:00.998Z</time></trkpt><trkpt lat="43.71910591236275" lon="7.030818217433905"><ele>855.0</ele><time>2026-04-25T17:21:01.998Z</time></trkpt><trkpt lat="43.719131827876154" lon="7.030950682872756"><ele>851.75</ele><time>2026-04-25T17:21:02.998Z</time></trkpt><trkpt lat="43.71915801128549" lon="7.031117990559903"><ele>848.5</ele><time>2026-04-25T17:21:03.998Z</time></trkpt><trkpt lat="43.71919665564092" lon="7.031291634835592"><ele>845.25</ele><time>2026-04-25T17:21:04.998Z</time></trkpt><trkpt lat="43.71920585406164" lon="7.031443998587464"><ele>842.0</ele><time>2026-04-25T17:21:05.998Z</time></trkpt><trkpt lat="43.71921072713169" lon="7.031581001411918"><ele>840.6</ele><time>2026-04-25T17:21:06.998Z</time></trkpt><trkpt lat="43.719196044272735" lon="7.031722548758938"><ele>839.2</ele><time>2026-04-25T17:21:07.998Z</time></trkpt><trkpt lat="43.719185490413075" lon="7.031872746991872"><ele>837.8</ele><time>2026-04-25T17:21:08.998Z</time></trkpt><trkpt lat="43.71917905910128" lon="7.032016177507228"><ele>836.4</ele><time>2026-04-25T17:21:09.998Z</time></trkpt><trkpt lat="43.71919469420616" lon="7.03212812319166"><ele>835.0</ele><time>2026-04-25T17:21:10.998Z</time></trkpt><trkpt lat="43.719230789060504" lon="7.032252870669069"><ele>835.0</ele><time>2026-04-25T17:21:11.998Z</time></trkpt><trkpt lat="43.71927254483691" lon="7.032356437945942"><ele>835.0</ele><time>2026-04-25T17:21:12.998Z</time></trkpt><trkpt lat="43.71933019378845" lon="7.032428871896202"><ele>835.0</ele><time>2026-04-25T17:21:13.998Z</time></trkpt><trkpt lat="43.71940497116283" lon="7.032497041381733"><ele>835.0</ele><time>2026-04-25T17:21:14.998Z</time></trkpt><trkpt lat="43.719485334038225" lon="7.032589145931391"><ele>835.0</ele><time>2026-04-25T17:21:15.998Z</time></trkpt><trkpt lat="43.71957987259352" lon="7.032695935426427"><ele>840.25</ele><time>2026-04-25T17:21:16.998Z</time></trkpt><trkpt lat="43.71968278515527" lon="7.032819692307028"><ele>845.5</ele><time>2026-04-25T17:21:17.998Z</time></trkpt><trkpt lat="43.71976130254551" lon="7.032918052966138"><ele>850.75</ele><time>2026-04-25T17:21:18.998Z</time></trkpt><trkpt lat="43.719814644259266" lon="7.033033996649749"><ele>856.0</ele><time>2026-04-25T17:21:20Z</time></trkpt><trkpt lat="43.71986866453188" lon="7.033179858637657"><ele>851.25</ele><time>2026-04-25T17:21:21Z</time></trkpt><trkpt lat="43.719931462125594" lon="7.033335325613843"><ele>846.5</ele><time>2026-04-25T17:21:22Z</time></trkpt><trkpt lat="43.720003268116805" lon="7.033495576126861"><ele>841.75</ele><time>2026-04-25T17:21:23Z</time></trkpt><trkpt lat="43.72006972514885" lon="7.033646379726576"><ele>837.0</ele><time>2026-04-25T17:21:24Z</time></trkpt><trkpt lat="43.72014726237065" lon="7.033780423852936"><ele>837.0</ele><time>2026-04-25T17:21:25Z</time></trkpt><trkpt lat="43.72022275484792" lon="7.0338861304225455"><ele>837.0</ele><time>2026-04-25T17:21:26Z</time></trkpt><trkpt lat="43.72028395457507" lon="7.034001576856496"><ele>837.0</ele><time>2026-04-25T17:21:27Z</time></trkpt><trkpt lat="43.72032315603945" lon="7.034131061835691"><ele>837.0</ele><time>2026-04-25T17:21:28Z</time></trkpt><trkpt lat="43.720367596385955" lon="7.0342600774558806"><ele>837.0</ele><time>2026-04-25T17:21:29Z</time></trkpt><trkpt lat="43.72038275395877" lon="7.034377073604367"><ele>835.8</ele><time>2026-04-25T17:21:30Z</time></trkpt><trkpt lat="43.72039841002745" lon="7.034514750182298"><ele>834.6</ele><time>2026-04-25T17:21:31Z</time></trkpt><trkpt lat="43.72039709533524" lon="7.0346573638338254"><ele>833.4</ele><time>2026-04-25T17:21:32Z</time></trkpt><trkpt lat="43.72040322552326" lon="7.034790621085714"><ele>832.1999999999999</ele><time>2026-04-25T17:21:33Z</time></trkpt><trkpt lat="43.72042078040184" lon="7.034916813803979"><ele>831.0</ele><time>2026-04-25T17:21:34Z</time></trkpt><trkpt lat="43.720460467458835" lon="7.035009774951397"><ele>831.0</ele><time>2026-04-25T17:21:35Z</time></trkpt><trkpt lat="43.72052021590439" lon="7.035104815363761"><ele>831.0</ele><time>2026-04-25T17:21:36Z</time></trkpt><trkpt lat="43.72059613290538" lon="7.035183983189798"><ele>831.0</ele><time>2026-04-25T17:21:37Z</time></trkpt><trkpt lat="43.72067615620117" lon="7.035252846943496"><ele>831.0</ele><time>2026-04-25T17:21:38Z</time></trkpt><trkpt lat="43.72077003000903" lon="7.035336977851148"><ele>831.0</ele><time>2026-04-25T17:21:39Z</time></trkpt><trkpt lat="43.72086576662241" lon="7.035454478773833"><ele>831.0</ele><time>2026-04-25T17:21:40Z</time></trkpt><trkpt lat="43.720974499995265" lon="7.035595695066363"><ele>831.0</ele><time>2026-04-25T17:21:41Z</time></trkpt><trkpt lat="43.721081558537996" lon="7.035723840742758"><ele>831.0</ele><time>2026-04-25T17:21:42Z</time></trkpt><trkpt lat="43.72115616078771" lon="7.035838979735066"><ele>831.0</ele><time>2026-04-25T17:21:43Z</time></trkpt><trkpt lat="43.7212512067704" lon="7.035955324992916"><ele>831.4</ele><time>2026-04-25T17:21:44Z</time></trkpt><trkpt lat="43.72133337912842" lon="7.036064861622049"><ele>831.8</ele><time>2026-04-25T17:21:45Z</time></trkpt><trkpt lat="43.721406455849895" lon="7.03616041721156"><ele>832.1999999999999</ele><time>2026-04-25T17:21:46Z</time></trkpt><trkpt lat="43.7214725638915" lon="7.036244102732806"><ele>832.5999999999999</ele><time>2026-04-25T17:21:47Z</time></trkpt><trkpt lat="43.72151593948347" lon="7.036341679884821"><ele>833.0</ele><time>2026-04-25T17:21:47.999Z</time></trkpt><trkpt lat="43.721555298975936" lon="7.0364480698043375"><ele>833.0000000000001</ele><time>2026-04-25T17:21:48.999Z</time></trkpt><trkpt lat="43.72158158547413" lon="7.036535710935666"><ele>833.0</ele><time>2026-04-25T17:21:49.999Z</time></trkpt><trkpt lat="43.7215716145568" lon="7.036632629876215"><ele>833.0</ele><time>2026-04-25T17:21:50.999Z</time></trkpt><trkpt lat="43.72154033199563" lon="7.036751552425783"><ele>833.0</ele><time>2026-04-25T17:21:51.999Z</time></trkpt><trkpt lat="43.72150563315108" lon="7.036880440731635"><ele>833.0000000000001</ele><time>2026-04-25T17:21:52.999Z</time></trkpt><trkpt lat="43.72145306426033" lon="7.03699551069104"><ele>833.0</ele><time>2026-04-25T17:21:53.999Z</time></trkpt><trkpt lat="43.7214113837562" lon="7.037081555836504"><ele>831.7142857142857</ele><time>2026-04-25T17:21:54.999Z</time></trkpt><trkpt lat="43.72138370446978" lon="7.037171533244233"><ele>830.4285714285714</ele><time>2026-04-25T17:21:55.999Z</time></trkpt><trkpt lat="43.721346374596045" lon="7.0372564368080095"><ele>829.1428571428571</ele><time>2026-04-25T17:21:56.999Z</time></trkpt><trkpt lat="43.72133421880336" lon="7.037355566632689"><ele>827.8571428571429</ele><time>2026-04-25T17:21:57.999Z</time></trkpt><trkpt lat="43.72131517649321" lon="7.037459700855403"><ele>826.5714285714286</ele><time>2026-04-25T17:21:58.999Z</time></trkpt><trkpt lat="43.721312090933296" lon="7.037552757614272"><ele>825.2857142857142</ele><time>2026-04-25T17:21:59.999Z</time></trkpt><trkpt lat="43.72130038840444" lon="7.037653550974863"><ele>824.0</ele><time>2026-04-25T17:22:00.999Z</time></trkpt><trkpt lat="43.721292965985974" lon="7.03778107899743"><ele>824.0</ele><time>2026-04-25T17:22:01.999Z</time></trkpt><trkpt lat="43.72128003441867" lon="7.037926202744086"><ele>824.0</ele><time>2026-04-25T17:22:02.999Z</time></trkpt><trkpt lat="43.72128179500902" lon="7.038037360403987"><ele>824.0</ele><time>2026-04-25T17:22:03.999Z</time></trkpt><trkpt lat="43.721276658977466" lon="7.038153771616561"><ele>824.0</ele><time>2026-04-25T17:22:04.999Z</time></trkpt><trkpt lat="43.72129032585643" lon="7.038286373404391"><ele>824.0</ele><time>2026-04-25T17:22:05.999Z</time></trkpt><trkpt lat="43.721310264190066" lon="7.038418901722821"><ele>823.8000000000001</ele><time>2026-04-25T17:22:06.999Z</time></trkpt><trkpt lat="43.72133657422499" lon="7.03853635111266"><ele>823.6</ele><time>2026-04-25T17:22:07.999Z</time></trkpt><trkpt lat="43.72137437488424" lon="7.038649558023769"><ele>823.4</ele><time>2026-04-25T17:22:08.999Z</time></trkpt><trkpt lat="43.7214193929026" lon="7.038766621980597"><ele>823.2</ele><time>2026-04-25T17:22:09.999Z</time></trkpt><trkpt lat="43.721479232600586" lon="7.038889907732578"><ele>823.0</ele><time>2026-04-25T17:22:10.999Z</time></trkpt><trkpt lat="43.72155155733739" lon="7.03904444451686"><ele>824.75</ele><time>2026-04-25T17:22:11.999Z</time></trkpt><trkpt lat="43.72162760300727" lon="7.03919426724426"><ele>826.5</ele><time>2026-04-25T17:22:12.999Z</time></trkpt><trkpt lat="43.72170453988665" lon="7.0392944987086175"><ele>828.25</ele><time>2026-04-25T17:22:13.999Z</time></trkpt><trkpt lat="43.72180645134393" lon="7.039383418673232"><ele>830.0</ele><time>2026-04-25T17:22:14.999Z</time></trkpt><trkpt lat="43.72193641635785" lon="7.039490659228008"><ele>830.0</ele><time>2026-04-25T17:22:15.999Z</time></trkpt><trkpt lat="43.72205941974924" lon="7.039583379700582"><ele>830.0</ele><time>2026-04-25T17:22:16.999Z</time></trkpt><trkpt lat="43.722182795942366" lon="7.0396590622592505"><ele>830.0</ele><time>2026-04-25T17:22:17.999Z</time></trkpt><trkpt lat="43.722301387762016" lon="7.039715467264267"><ele>830.0</ele><time>2026-04-25T17:22:18.999Z</time></trkpt><trkpt lat="43.72241401431552" lon="7.039753889501227"><ele>830.0</ele><time>2026-04-25T17:22:19.999Z</time></trkpt><trkpt lat="43.7225224950862" lon="7.039776914949765"><ele>830.0</ele><time>2026-04-25T17:22:20.999Z</time></trkpt><trkpt lat="43.72264909170153" lon="7.0398151226418735"><ele>830.0</ele><time>2026-04-25T17:22:21.999Z</time></trkpt><trkpt lat="43.722777902776535" lon="7.0398616238460745"><ele>830.0</ele><time>2026-04-25T17:22:22.999Z</time></trkpt><trkpt lat="43.72290453761227" lon="7.039907823280464"><ele>830.6</ele><time>2026-04-25T17:22:23.999Z</time></trkpt><trkpt lat="43.72302148005445" lon="7.0399275228582585"><ele>831.2</ele><time>2026-04-25T17:22:24.999Z</time></trkpt><trkpt lat="43.72313023518141" lon="7.039924505574256"><ele>831.8</ele><time>2026-04-25T17:22:25.999Z</time></trkpt><trkpt lat="43.72323522446977" lon="7.039930747802942"><ele>832.4</ele><time>2026-04-25T17:22:26.999Z</time></trkpt><trkpt lat="43.72332835547844" lon="7.03993521211203"><ele>833.0</ele><time>2026-04-25T17:22:27.999Z</time></trkpt><trkpt lat="43.723423897593094" lon="7.039932302148575"><ele>833.0</ele><time>2026-04-25T17:22:28.999Z</time></trkpt><trkpt lat="43.723511584694016" lon="7.039895120794529"><ele>833.0</ele><time>2026-04-25T17:22:29.999Z</time></trkpt><trkpt lat="43.723616222281265" lon="7.039799662634912"><ele>833.0</ele><time>2026-04-25T17:22:30.999Z</time></trkpt><trkpt lat="43.72372832655302" lon="7.039690999531875"><ele>833.0</ele><time>2026-04-25T17:22:31.999Z</time></trkpt><trkpt lat="43.72383670577498" lon="7.039595626296153"><ele>832.3333333333334</ele><time>2026-04-25T17:22:32.999Z</time></trkpt><trkpt lat="43.723928839820715" lon="7.039513586951862"><ele>831.6666666666667</ele><time>2026-04-25T17:22:33.999Z</time></trkpt><trkpt lat="43.72401208846755" lon="7.03945220255244"><ele>831.0</ele><time>2026-04-25T17:22:34.999Z</time></trkpt><trkpt lat="43.724090218605724" lon="7.039387593086966"><ele>830.3333333333333</ele><time>2026-04-25T17:22:35.999Z</time></trkpt><trkpt lat="43.72415942899494" lon="7.039373697754399"><ele>829.6666666666666</ele><time>2026-04-25T17:22:36.999Z</time></trkpt><trkpt lat="43.72422645926217" lon="7.0393981205451395"><ele>829.0</ele><time>2026-04-25T17:22:37.999Z</time></trkpt><trkpt lat="43.72425417384331" lon="7.039477776123997"><ele>829.0</ele><time>2026-04-25T17:22:38.999Z</time></trkpt><trkpt lat="43.72428068364479" lon="7.039615365454493"><ele>829.0</ele><time>2026-04-25T17:22:39.999Z</time></trkpt><trkpt lat="43.72433314986057" lon="7.039775186088323"><ele>829.0</ele><time>2026-04-25T17:22:40.999Z</time></trkpt><trkpt lat="43.72441030413284" lon="7.039912958472859"><ele>829.0</ele><time>2026-04-25T17:22:41.999Z</time></trkpt><trkpt lat="43.724507403410854" lon="7.0400157396373"><ele>828.6</ele><time>2026-04-25T17:22:42.999Z</time></trkpt><trkpt lat="43.724583325526986" lon="7.040130344452215"><ele>828.2</ele><time>2026-04-25T17:22:43.999Z</time></trkpt><trkpt lat="43.72466683976039" lon="7.040203733788724"><ele>827.8000000000001</ele><time>2026-04-25T17:22:44.999Z</time></trkpt><trkpt lat="43.724753928324226" lon="7.040275518809236"><ele>827.4000000000001</ele><time>2026-04-25T17:22:45.999Z</time></trkpt><trkpt lat="43.72485124126207" lon="7.0403158698450925"><ele>827.0</ele><time>2026-04-25T17:22:46.999Z</time></trkpt><trkpt lat="43.724946869222926" lon="7.040374837226383"><ele>827.0</ele><time>2026-04-25T17:22:47.999Z</time></trkpt><trkpt lat="43.72505809926174" lon="7.0404167000798585"><ele>827.0</ele><time>2026-04-25T17:22:48.999Z</time></trkpt><trkpt lat="43.725173939506355" lon="7.040439289141317"><ele>827.0</ele><time>2026-04-25T17:22:49.999Z</time></trkpt><trkpt lat="43.72527521402149" lon="7.040481649231964"><ele>827.0</ele><time>2026-04-25T17:22:50.999Z</time></trkpt><trkpt lat="43.72535515372671" lon="7.0405596630667295"><ele>827.0</ele><time>2026-04-25T17:22:51.999Z</time></trkpt><trkpt lat="43.72543400524981" lon="7.040614750561151"><ele>828.8333333333334</ele><time>2026-04-25T17:22:52.999Z</time></trkpt><trkpt lat="43.72550766449968" lon="7.040660492727564"><ele>830.6666666666667</ele><time>2026-04-25T17:22:53.999Z</time></trkpt><trkpt lat="43.725583741617456" lon="7.040688205467421"><ele>832.5</ele><time>2026-04-25T17:22:54.999Z</time></trkpt><trkpt lat="43.72566116283658" lon="7.04070987058865"><ele>834.3333333333333</ele><time>2026-04-25T17:22:55.998Z</time></trkpt><trkpt lat="43.7257378092001" lon="7.040712293834575"><ele>836.1666666666666</ele><time>2026-04-25T17:22:56.998Z</time></trkpt><trkpt lat="43.7258144569423" lon="7.040713478282948"><ele>838.0</ele><time>2026-04-25T17:22:57.998Z</time></trkpt><trkpt lat="43.72588469149587" lon="7.040721824269226"><ele>837.9999999999999</ele><time>2026-04-25T17:22:58.998Z</time></trkpt><trkpt lat="43.72594927357705" lon="7.040787287186816"><ele>838.0</ele><time>2026-04-25T17:22:59.998Z</time></trkpt><trkpt lat="43.72601654852069" lon="7.040874899352838"><ele>838.0</ele><time>2026-04-25T17:23:00.998Z</time></trkpt><trkpt lat="43.72607872948818" lon="7.040945186487083"><ele>838.0</ele><time>2026-04-25T17:23:01.998Z</time></trkpt><trkpt lat="43.72615783196837" lon="7.040980186991309"><ele>837.9999999999999</ele><time>2026-04-25T17:23:02.998Z</time></trkpt><trkpt lat="43.72623791444082" lon="7.040997908028273"><ele>838.0</ele><time>2026-04-25T17:23:03.998Z</time></trkpt><trkpt lat="43.726312892786076" lon="7.040989291034861"><ele>835.4</ele><time>2026-04-25T17:23:04.998Z</time></trkpt><trkpt lat="43.72639344159693" lon="7.04098860125048"><ele>832.8</ele><time>2026-04-25T17:23:05.998Z</time></trkpt><trkpt lat="43.72648562030671" lon="7.0410260749545115"><ele>830.2</ele><time>2026-04-25T17:23:06.998Z</time></trkpt><trkpt lat="43.72658258419359" lon="7.0410748599030955"><ele>827.6</ele><time>2026-04-25T17:23:07.998Z</time></trkpt><trkpt lat="43.72671157385414" lon="7.041162404956455"><ele>825.0</ele><time>2026-04-25T17:23:08.998Z</time></trkpt><trkpt lat="43.726836506839476" lon="7.0412635505789085"><ele>826.3333333333334</ele><time>2026-04-25T17:23:09.998Z</time></trkpt><trkpt lat="43.726928087218006" lon="7.041318925936084"><ele>827.6666666666667</ele><time>2026-04-25T17:23:10.998Z</time></trkpt><trkpt lat="43.72700502556059" lon="7.04137207385885"><ele>829.0</ele><time>2026-04-25T17:23:11.998Z</time></trkpt><trkpt lat="43.727090013357774" lon="7.041396688277619"><ele>830.3333333333334</ele><time>2026-04-25T17:23:12.998Z</time></trkpt><trkpt lat="43.72717202304907" lon="7.041404879315858"><ele>831.6666666666667</ele><time>2026-04-25T17:23:13.998Z</time></trkpt><trkpt lat="43.72726331882313" lon="7.041400289273396"><ele>833.0</ele><time>2026-04-25T17:23:14.998Z</time></trkpt><trkpt lat="43.727374397000155" lon="7.041386614175961"><ele>833.0</ele><time>2026-04-25T17:23:15.998Z</time></trkpt><trkpt lat="43.727490978022956" lon="7.041379825562336"><ele>833.0</ele><time>2026-04-25T17:23:16.998Z</time></trkpt><trkpt lat="43.7275906411588" lon="7.041362564185579"><ele>833.0</ele><time>2026-04-25T17:23:17.998Z</time></trkpt><trkpt lat="43.72767633988291" lon="7.041335987234863"><ele>833.0</ele><time>2026-04-25T17:23:18.998Z</time></trkpt><trkpt lat="43.72774333276005" lon="7.041292011779971"><ele>833.0</ele><time>2026-04-25T17:23:19.998Z</time></trkpt><trkpt lat="43.72781262802253" lon="7.041251931164025"><ele>834.2</ele><time>2026-04-25T17:23:20.998Z</time></trkpt><trkpt lat="43.72789976595126" lon="7.041214303200766"><ele>835.4</ele><time>2026-04-25T17:23:21.998Z</time></trkpt><trkpt lat="43.72797931617275" lon="7.04117280890708"><ele>836.6</ele><time>2026-04-25T17:23:22.998Z</time></trkpt><trkpt lat="43.7280497601841" lon="7.0411353566483985"><ele>837.8000000000001</ele><time>2026-04-25T17:23:23.998Z</time></trkpt><trkpt lat="43.72819262663444" lon="7.041179489033241"><ele>839.0</ele><time>2026-04-25T17:23:26Z</time></trkpt><trkpt lat="43.72830246406407" lon="7.041236555412318"><ele>839.0000000000001</ele><time>2026-04-25T17:23:27Z</time></trkpt><trkpt lat="43.72839277313003" lon="7.041283901938739"><ele>839.0</ele><time>2026-04-25T17:23:28Z</time></trkpt><trkpt lat="43.72845865622094" lon="7.041302195462398"><ele>839.0</ele><time>2026-04-25T17:23:29Z</time></trkpt><trkpt lat="43.72852649200234" lon="7.041308310931526"><ele>839.0</ele><time>2026-04-25T17:23:30Z</time></trkpt><trkpt lat="43.7286097402075" lon="7.041324457834057"><ele>839.0000000000001</ele><time>2026-04-25T17:23:31Z</time></trkpt><trkpt lat="43.72868475254771" lon="7.04133793636976"><ele>839.0</ele><time>2026-04-25T17:23:32Z</time></trkpt><trkpt lat="43.72876386053491" lon="7.041339274769481"><ele>840.6</ele><time>2026-04-25T17:23:33Z</time></trkpt><trkpt lat="43.72885083351485" lon="7.04133587953302"><ele>842.2</ele><time>2026-04-25T17:23:34Z</time></trkpt><trkpt lat="43.728943575903294" lon="7.041331261646716"><ele>843.8000000000001</ele><time>2026-04-25T17:23:35Z</time></trkpt><trkpt lat="43.729045769886035" lon="7.041329797633458"><ele>845.4000000000001</ele><time>2026-04-25T17:23:36Z</time></trkpt><trkpt lat="43.72913127198315" lon="7.041329872034834"><ele>847.0</ele><time>2026-04-25T17:23:37Z</time></trkpt><trkpt lat="43.72922413685254" lon="7.041355646246635"><ele>846.9999999999999</ele><time>2026-04-25T17:23:38Z</time></trkpt><trkpt lat="43.72931581290715" lon="7.041341276890982"><ele>847.0</ele><time>2026-04-25T17:23:39Z</time></trkpt><trkpt lat="43.729408594401995" lon="7.04134771944811"><ele>847.0</ele><time>2026-04-25T17:23:40Z</time></trkpt><trkpt lat="43.72947503430972" lon="7.0413647875341825"><ele>847.0</ele><time>2026-04-25T17:23:41Z</time></trkpt><trkpt lat="43.72953246138704" lon="7.0414050306941425"><ele>846.9999999999999</ele><time>2026-04-25T17:23:42Z</time></trkpt><trkpt lat="43.72954667910267" lon="7.041524830785562"><ele>847.0</ele><time>2026-04-25T17:23:44Z</time></trkpt><trkpt lat="43.729539528121535" lon="7.041667626786085"><ele>847.6666666666666</ele><time>2026-04-25T17:23:46Z</time></trkpt><trkpt lat="43.729519684042934" lon="7.041760734308871"><ele>848.3333333333333</ele><time>2026-04-25T17:23:47Z</time></trkpt><trkpt lat="43.729491030523086" lon="7.041866734874387"><ele>849.0</ele><time>2026-04-25T17:23:47.999Z</time></trkpt><trkpt lat="43.72947026260029" lon="7.041986139849415"><ele>849.6666666666667</ele><time>2026-04-25T17:23:48.999Z</time></trkpt><trkpt lat="43.72946391503785" lon="7.042119279267493"><ele>850.3333333333334</ele><time>2026-04-25T17:23:49.999Z</time></trkpt><trkpt lat="43.72946676004716" lon="7.042256522659644"><ele>851.0</ele><time>2026-04-25T17:23:50.999Z</time></trkpt><trkpt lat="43.72946281584742" lon="7.04240702609127"><ele>852.0</ele><time>2026-04-25T17:23:51.999Z</time></trkpt><trkpt lat="43.72946635247692" lon="7.042556939750853"><ele>853.0</ele><time>2026-04-25T17:23:52.999Z</time></trkpt><trkpt lat="43.72946753097467" lon="7.042685166414245"><ele>853.9999999999999</ele><time>2026-04-25T17:23:53.999Z</time></trkpt><trkpt lat="43.72945376209875" lon="7.042806646657319"><ele>855.0</ele><time>2026-04-25T17:23:54.999Z</time></trkpt><trkpt lat="43.72944379131982" lon="7.042919874635712"><ele>856.0</ele><time>2026-04-25T17:23:55.999Z</time></trkpt><trkpt lat="43.729438118531974" lon="7.043033054757715"><ele>856.0</ele><time>2026-04-25T17:23:56.999Z</time></trkpt><trkpt lat="43.7294368165486" lon="7.043144535382404"><ele>855.9999999999999</ele><time>2026-04-25T17:23:57.999Z</time></trkpt><trkpt lat="43.729429730629555" lon="7.0432469586125785"><ele>855.9999999999999</ele><time>2026-04-25T17:23:58.999Z</time></trkpt><trkpt lat="43.72941941048617" lon="7.0433773879495"><ele>856.0</ele><time>2026-04-25T17:24:00.999Z</time></trkpt><trkpt lat="43.72943439060171" lon="7.04346906988341"><ele>856.0</ele><time>2026-04-25T17:24:03.999Z</time></trkpt><trkpt lat="43.72943024322988" lon="7.043653902416625"><ele>856.3333333333333</ele><time>2026-04-25T17:24:21.999Z</time></trkpt><trkpt lat="43.729430067946225" lon="7.043775283163316"><ele>856.6666666666666</ele><time>2026-04-25T17:24:22.999Z</time></trkpt><trkpt lat="43.72943105660934" lon="7.0439042024673215"><ele>857.0</ele><time>2026-04-25T17:24:23.999Z</time></trkpt><trkpt lat="43.72942484028423" lon="7.044036288430165"><ele>857.3333333333333</ele><time>2026-04-25T17:24:24.999Z</time></trkpt><trkpt lat="43.72942176551476" lon="7.044156031584716"><ele>857.6666666666666</ele><time>2026-04-25T17:24:25.999Z</time></trkpt><trkpt lat="43.72942212502155" lon="7.044267381471508"><ele>858.0</ele><time>2026-04-25T17:24:26.999Z</time></trkpt><trkpt lat="43.72942711784974" lon="7.044389201288623"><ele>858.75</ele><time>2026-04-25T17:24:27.999Z</time></trkpt><trkpt lat="43.72939329874369" lon="7.044525142764312"><ele>859.5</ele><time>2026-04-25T17:24:28.999Z</time></trkpt><trkpt lat="43.729396182896416" lon="7.04468273094424"><ele>860.25</ele><time>2026-04-25T17:24:29.999Z</time></trkpt><trkpt lat="43.729346185597336" lon="7.044852498414098"><ele>861.0</ele><time>2026-04-25T17:24:30.999Z</time></trkpt><trkpt lat="43.72930233597528" lon="7.044999863679124"><ele>860.1666666666666</ele><time>2026-04-25T17:24:31.999Z</time></trkpt><trkpt lat="43.72928663291327" lon="7.045106794955994"><ele>859.3333333333333</ele><time>2026-04-25T17:24:32.999Z</time></trkpt><trkpt lat="43.72933728631099" lon="7.045251078277806"><ele>858.5</ele><time>2026-04-25T17:24:34.999Z</time></trkpt><trkpt lat="43.72940468557951" lon="7.0453034829159"><ele>857.6666666666666</ele><time>2026-04-25T17:24:35.999Z</time></trkpt><trkpt lat="43.72947025622175" lon="7.045336879400782"><ele>856.8333333333333</ele><time>2026-04-25T17:24:36.999Z</time></trkpt><trkpt lat="43.72953432511238" lon="7.0453947974763285"><ele>856.0</ele><time>2026-04-25T17:24:37.999Z</time></trkpt><trkpt lat="43.729594952970736" lon="7.045449961488631"><ele>856.0000000000001</ele><time>2026-04-25T17:24:38.999Z</time></trkpt><trkpt lat="43.729658023786165" lon="7.0455120484326335"><ele>856.0</ele><time>2026-04-25T17:24:39.999Z</time></trkpt><trkpt lat="43.72971615848439" lon="7.045561996405694"><ele>856.0</ele><time>2026-04-25T17:24:40.999Z</time></trkpt><trkpt lat="43.72977677900826" lon="7.045629819210626"><ele>856.0</ele><time>2026-04-25T17:24:41.999Z</time></trkpt><trkpt lat="43.7298388593912" lon="7.045690636543507"><ele>856.0</ele><time>2026-04-25T17:24:42.999Z</time></trkpt><trkpt lat="43.7299040930614" lon="7.045750390559876"><ele>856.0000000000001</ele><time>2026-04-25T17:24:43.999Z</time></trkpt><trkpt lat="43.729960858456295" lon="7.045808122062306"><ele>856.0</ele><time>2026-04-25T17:24:44.999Z</time></trkpt><trkpt lat="43.730018894352554" lon="7.045862054862049"><ele>856.1999999999999</ele><time>2026-04-25T17:24:45.999Z</time></trkpt><trkpt lat="43.730081847935466" lon="7.045917746064212"><ele>856.3999999999999</ele><time>2026-04-25T17:24:46.999Z</time></trkpt><trkpt lat="43.730145202012885" lon="7.045968189012122"><ele>856.6</ele><time>2026-04-25T17:24:47.999Z</time></trkpt><trkpt lat="43.730242618463194" lon="7.046080420988742"><ele>856.8</ele><time>2026-04-25T17:24:49.999Z</time></trkpt><trkpt lat="43.73029473225836" lon="7.046137771684948"><ele>857.0</ele><time>2026-04-25T17:24:50.999Z</time></trkpt><trkpt lat="43.73039352157476" lon="7.046253979449215"><ele>857.0</ele><time>2026-04-25T17:24:52.999Z</time></trkpt><trkpt lat="43.73044453612976" lon="7.046320485857439"><ele>857.0</ele><time>2026-04-25T17:24:53.999Z</time></trkpt><trkpt lat="43.73048973730852" lon="7.0463870096906485"><ele>857.0</ele><time>2026-04-25T17:24:54.999Z</time></trkpt><trkpt lat="43.73053467149098" lon="7.046450335708028"><ele>857.0</ele><time>2026-04-25T17:24:55.999Z</time></trkpt><trkpt lat="43.730585461693536" lon="7.046524491968536"><ele>857.0</ele><time>2026-04-25T17:24:56.999Z</time></trkpt><trkpt lat="43.730631513762454" lon="7.046586764433351"><ele>857.0</ele><time>2026-04-25T17:24:57.998Z</time></trkpt><trkpt lat="43.730678813277876" lon="7.046645293733346"><ele>857.0</ele><time>2026-04-25T17:24:58.998Z</time></trkpt><trkpt lat="43.7307263687386" lon="7.0467059744316085"><ele>856.3333333333334</ele><time>2026-04-25T17:24:59.998Z</time></trkpt><trkpt lat="43.73081483667621" lon="7.04683989347775"><ele>855.6666666666667</ele><time>2026-04-25T17:25:01.998Z</time></trkpt><trkpt lat="43.73087247905748" lon="7.046898550270823"><ele>855.0</ele><time>2026-04-25T17:25:02.998Z</time></trkpt><trkpt lat="43.730924781234584" lon="7.046958431648677"><ele>854.3333333333333</ele><time>2026-04-25T17:25:03.998Z</time></trkpt><trkpt lat="43.73097528121034" lon="7.047024428482006"><ele>853.6666666666666</ele><time>2026-04-25T17:25:04.998Z</time></trkpt><trkpt lat="43.73102729453128" lon="7.047091442708266"><ele>853.0</ele><time>2026-04-25T17:25:05.998Z</time></trkpt><trkpt lat="43.73108208941106" lon="7.047153714751309"><ele>852.9999999999999</ele><time>2026-04-25T17:25:06.998Z</time></trkpt><trkpt lat="43.73112936856065" lon="7.047216204188411"><ele>853.0</ele><time>2026-04-25T17:25:07.998Z</time></trkpt><trkpt lat="43.731182026127506" lon="7.047274444455173"><ele>853.0</ele><time>2026-04-25T17:25:08.998Z</time></trkpt><trkpt lat="43.73128526734434" lon="7.047349652818961"><ele>853.0</ele><time>2026-04-25T17:25:10.998Z</time></trkpt><trkpt lat="43.731339478146104" lon="7.047395863983849"><ele>852.9999999999999</ele><time>2026-04-25T17:25:12.998Z</time></trkpt><trkpt lat="43.73145793642327" lon="7.047440741362257"><ele>853.0</ele><time>2026-04-25T17:26:12.999Z</time></trkpt><trkpt lat="43.731535041168385" lon="7.047459778515204"><ele>850.5999999999999</ele><time>2026-04-25T17:26:13.999Z</time></trkpt><trkpt lat="43.73162130998671" lon="7.04746182588197"><ele>848.1999999999999</ele><time>2026-04-25T17:26:14.999Z</time></trkpt><trkpt lat="43.73171577889199" lon="7.04747558422172"><ele>845.8</ele><time>2026-04-25T17:26:15.999Z</time></trkpt><trkpt lat="43.73181417694453" lon="7.047488680009156"><ele>843.4</ele><time>2026-04-25T17:26:16.999Z</time></trkpt><trkpt lat="43.73190538593075" lon="7.047510043454438"><ele>841.0</ele><time>2026-04-25T17:26:17.999Z</time></trkpt><trkpt lat="43.731987313113734" lon="7.047549338892872"><ele>841.0</ele><time>2026-04-25T17:26:18.999Z</time></trkpt><trkpt lat="43.732078867902196" lon="7.047618414600198"><ele>841.0</ele><time>2026-04-25T17:26:19.999Z</time></trkpt><trkpt lat="43.73217661592344" lon="7.047684443230838"><ele>841.0</ele><time>2026-04-25T17:26:20.999Z</time></trkpt><trkpt lat="43.7322745339211" lon="7.047733347364479"><ele>841.0</ele><time>2026-04-25T17:26:21.999Z</time></trkpt><trkpt lat="43.73236302588001" lon="7.04777223952515"><ele>841.0</ele><time>2026-04-25T17:26:22.999Z</time></trkpt><trkpt lat="43.73243714755412" lon="7.047816957151319"><ele>840.9999999999999</ele><time>2026-04-25T17:26:23.999Z</time></trkpt><trkpt lat="43.73250366329889" lon="7.047873621219694"><ele>841.0</ele><time>2026-04-25T17:26:24.999Z</time></trkpt><trkpt lat="43.732542665607205" lon="7.04794779803828"><ele>841.0</ele><time>2026-04-25T17:26:25.999Z</time></trkpt><trkpt lat="43.73254897758295" lon="7.048035804766969"><ele>841.0</ele><time>2026-04-25T17:26:26.999Z</time></trkpt><trkpt lat="43.73256374769906" lon="7.048156156083036"><ele>840.9999999999999</ele><time>2026-04-25T17:26:27.999Z</time></trkpt><trkpt lat="43.73259914017282" lon="7.048290368598563"><ele>841.0</ele><time>2026-04-25T17:26:28.999Z</time></trkpt><trkpt lat="43.732651481173534" lon="7.048453400106274"><ele>842.5</ele><time>2026-04-25T17:26:29.999Z</time></trkpt><trkpt lat="43.7327082184316" lon="7.048621461547988"><ele>844.0</ele><time>2026-04-25T17:26:30.999Z</time></trkpt><trkpt lat="43.732761142004904" lon="7.048759579485479"><ele>845.5</ele><time>2026-04-25T17:26:31.999Z</time></trkpt><trkpt lat="43.732805650529926" lon="7.048886939255639"><ele>847.0</ele><time>2026-04-25T17:26:32.999Z</time></trkpt><trkpt lat="43.73284811580297" lon="7.04901270723748"><ele>844.8333333333333</ele><time>2026-04-25T17:26:33.999Z</time></trkpt><trkpt lat="43.73289267530228" lon="7.049130673487741"><ele>842.6666666666666</ele><time>2026-04-25T17:26:34.999Z</time></trkpt><trkpt lat="43.732939333384685" lon="7.049234814121407"><ele>840.5</ele><time>2026-04-25T17:26:35.999Z</time></trkpt><trkpt lat="43.7329836204411" lon="7.049340152310754"><ele>838.3333333333333</ele><time>2026-04-25T17:26:36.999Z</time></trkpt><trkpt lat="43.733030633567736" lon="7.0494254449891605"><ele>836.1666666666666</ele><time>2026-04-25T17:26:37.999Z</time></trkpt><trkpt lat="43.73308781469315" lon="7.049490012843662"><ele>834.0</ele><time>2026-04-25T17:26:38.999Z</time></trkpt><trkpt lat="43.73314789442912" lon="7.049533920933456"><ele>834.0</ele><time>2026-04-25T17:26:39.999Z</time></trkpt><trkpt lat="43.73325453116639" lon="7.049607303902742"><ele>834.0</ele><time>2026-04-25T17:26:41.999Z</time></trkpt><trkpt lat="43.733348073209136" lon="7.049698245074203"><ele>834.0</ele><time>2026-04-25T17:26:43.999Z</time></trkpt><trkpt lat="43.73341759400762" lon="7.049798107042923"><ele>834.0</ele><time>2026-04-25T17:26:45.999Z</time></trkpt><trkpt lat="43.73348437127344" lon="7.049862144906266"><ele>834.0</ele><time>2026-04-25T17:26:47.999Z</time></trkpt><trkpt lat="43.73355909616613" lon="7.049898911719817"><ele>834.0</ele><time>2026-04-25T17:26:49.999Z</time></trkpt><trkpt lat="43.73365083770979" lon="7.049944178296029"><ele>834.0</ele><time>2026-04-25T17:26:51.999Z</time></trkpt><trkpt lat="43.73375666873841" lon="7.050021583379808"><ele>834.0</ele><time>2026-04-25T17:26:53.999Z</time></trkpt><trkpt lat="43.733820727538394" lon="7.050071818105378"><ele>834.0</ele><time>2026-04-25T17:26:54.999Z</time></trkpt><trkpt lat="43.733877407672054" lon="7.050122555916418"><ele>834.0</ele><time>2026-04-25T17:26:55.999Z</time></trkpt><trkpt lat="43.733936568209586" lon="7.050176978405393"><ele>834.0</ele><time>2026-04-25T17:26:56.999Z</time></trkpt><trkpt lat="43.73398987344743" lon="7.0502400955466635"><ele>834.0</ele><time>2026-04-25T17:26:57.998Z</time></trkpt><trkpt lat="43.73404461704118" lon="7.0503047616270464"><ele>834.0</ele><time>2026-04-25T17:26:58.998Z</time></trkpt><trkpt lat="43.73409340350168" lon="7.050370399777226"><ele>834.0</ele><time>2026-04-25T17:26:59.998Z</time></trkpt><trkpt lat="43.73417369633858" lon="7.050510598623229"><ele>834.0</ele><time>2026-04-25T17:27:01.998Z</time></trkpt><trkpt lat="43.734165955705514" lon="7.050663115684042"><ele>834.0</ele><time>2026-04-25T17:27:03.998Z</time></trkpt><trkpt lat="43.734165891014264" lon="7.050752104286828"><ele>834.0</ele><time>2026-04-25T17:27:04.998Z</time></trkpt><trkpt lat="43.73417600595246" lon="7.0508533413529415"><ele>831.4000000000001</ele><time>2026-04-25T17:27:05.998Z</time></trkpt><trkpt lat="43.73420421697749" lon="7.050974192568368"><ele>828.8</ele><time>2026-04-25T17:27:06.998Z</time></trkpt><trkpt lat="43.73422511670296" lon="7.051100864932235"><ele>826.2</ele><time>2026-04-25T17:27:07.998Z</time></trkpt><trkpt lat="43.73424013244503" lon="7.051249007640937"><ele>823.5999999999999</ele><time>2026-04-25T17:27:08.998Z</time></trkpt><trkpt lat="43.734266005385045" lon="7.051390529774852"><ele>821.0</ele><time>2026-04-25T17:27:09.998Z</time></trkpt><trkpt lat="43.73428715757786" lon="7.051532850492194"><ele>819.5999999999999</ele><time>2026-04-25T17:27:10.998Z</time></trkpt><trkpt lat="43.734308673301854" lon="7.0517071812116"><ele>818.2</ele><time>2026-04-25T17:27:11.998Z</time></trkpt><trkpt lat="43.734331090378426" lon="7.051872795034561"><ele>816.8</ele><time>2026-04-25T17:27:12.998Z</time></trkpt><trkpt lat="43.73434083514928" lon="7.0520122516457935"><ele>815.4000000000001</ele><time>2026-04-25T17:27:13.998Z</time></trkpt><trkpt lat="43.73435916037942" lon="7.0521336387965725"><ele>814.0</ele><time>2026-04-25T17:27:14.998Z</time></trkpt><trkpt lat="43.7343780074539" lon="7.052252211230948"><ele>817.2</ele><time>2026-04-25T17:27:15.998Z</time></trkpt><trkpt lat="43.73440162338114" lon="7.052370275947891"><ele>820.4000000000001</ele><time>2026-04-25T17:27:16.998Z</time></trkpt><trkpt lat="43.734430086941245" lon="7.0524722774081985"><ele>823.6</ele><time>2026-04-25T17:27:17.998Z</time></trkpt><trkpt lat="43.73446534357353" lon="7.0525764518154626"><ele>826.8</ele><time>2026-04-25T17:27:18.998Z</time></trkpt><trkpt lat="43.73450588864544" lon="7.052700183793378"><ele>830.0</ele><time>2026-04-25T17:27:19.998Z</time></trkpt><trkpt lat="43.73454527172718" lon="7.052851789556981"><ele>830.0</ele><time>2026-04-25T17:27:20.998Z</time></trkpt><trkpt lat="43.7345811827749" lon="7.052991978182879"><ele>830.0</ele><time>2026-04-25T17:27:21.998Z</time></trkpt><trkpt lat="43.734600326217276" lon="7.053112761816939"><ele>830.0</ele><time>2026-04-25T17:27:22.998Z</time></trkpt><trkpt lat="43.734607359869074" lon="7.053241845896847"><ele>830.0</ele><time>2026-04-25T17:27:23.998Z</time></trkpt><trkpt lat="43.734619419800524" lon="7.053339254450854"><ele>830.0</ele><time>2026-04-25T17:27:24.998Z</time></trkpt><trkpt lat="43.73462977507431" lon="7.053486049161252"><ele>829.2</ele><time>2026-04-25T17:27:26.998Z</time></trkpt><trkpt lat="43.73466331412967" lon="7.053620495544703"><ele>828.4</ele><time>2026-04-25T17:27:28.998Z</time></trkpt><trkpt lat="43.734665985403716" lon="7.053789441733455"><ele>827.5999999999999</ele><time>2026-04-25T17:27:30.998Z</time></trkpt><trkpt lat="43.73470136308863" lon="7.053949730265083"><ele>826.8</ele><time>2026-04-25T17:27:32.998Z</time></trkpt><trkpt lat="43.734722354233895" lon="7.0540373244743595"><ele>826.0</ele><time>2026-04-25T17:27:33.998Z</time></trkpt><trkpt lat="43.734762232534884" lon="7.054174046501716"><ele>825.3333333333333</ele><time>2026-04-25T17:27:35.998Z</time></trkpt><trkpt lat="43.7347965871571" lon="7.054297836369222"><ele>824.6666666666666</ele><time>2026-04-25T17:27:38Z</time></trkpt><trkpt lat="43.73481526883831" lon="7.05439412935925"><ele>824.0</ele><time>2026-04-25T17:27:42Z</time></trkpt><trkpt lat="43.73474436765346" lon="7.0544482915871995"><ele>823.3333333333333</ele><time>2026-04-25T17:28:02Z</time></trkpt><trkpt lat="43.734666199845314" lon="7.054474578105318"><ele>822.6666666666666</ele><time>2026-04-25T17:28:03.999Z</time></trkpt><trkpt lat="43.73459561994798" lon="7.054497627397553"><ele>822.0</ele><time>2026-04-25T17:28:05.999Z</time></trkpt><trkpt lat="43.73444601853941" lon="7.054607515901305"><ele>818.8</ele><time>2026-04-25T17:41:45.998Z</time></trkpt><trkpt lat="43.734355450692135" lon="7.054700611585638"><ele>815.6</ele><time>2026-04-25T17:41:47.998Z</time></trkpt><trkpt lat="43.73427370799423" lon="7.0547969415328415"><ele>812.4</ele><time>2026-04-25T17:41:49.998Z</time></trkpt><trkpt lat="43.73420599380455" lon="7.054917997562956"><ele>809.1999999999999</ele><time>2026-04-25T17:41:51.998Z</time></trkpt><trkpt lat="43.73417586959297" lon="7.0549980892325745"><ele>806.0</ele><time>2026-04-25T17:41:52.998Z</time></trkpt><trkpt lat="43.73411735828432" lon="7.055128426773846"><ele>805.1999999999999</ele><time>2026-04-25T17:41:54.998Z</time></trkpt><trkpt lat="43.734065547187996" lon="7.055246934624432"><ele>804.4</ele><time>2026-04-25T17:41:56.998Z</time></trkpt><trkpt lat="43.73399910458305" lon="7.055364664289505"><ele>803.6</ele><time>2026-04-25T17:41:58.998Z</time></trkpt><trkpt lat="43.7339395122553" lon="7.055459380379935"><ele>802.8</ele><time>2026-04-25T17:42:00.998Z</time></trkpt><trkpt lat="43.73385946018123" lon="7.0555057817767715"><ele>802.0</ele><time>2026-04-25T17:42:02.998Z</time></trkpt><trkpt lat="43.73377174130153" lon="7.055507176323342"><ele>802.0</ele><time>2026-04-25T17:42:04.998Z</time></trkpt><trkpt lat="43.73367654673206" lon="7.05543837834153"><ele>802.0</ele><time>2026-04-25T17:42:06.998Z</time></trkpt><trkpt lat="43.733641455674196" lon="7.055306910669517"><ele>802.0</ele><time>2026-04-25T17:42:08.998Z</time></trkpt><trkpt lat="43.73361462968478" lon="7.05516928190675"><ele>802.0</ele><time>2026-04-25T17:42:10.998Z</time></trkpt><trkpt lat="43.733581773451256" lon="7.055043803569139"><ele>802.0</ele><time>2026-04-25T17:42:12.998Z</time></trkpt><trkpt lat="43.73347937390532" lon="7.055011096046915"><ele>800.3333333333333</ele><time>2026-04-25T17:42:14.998Z</time></trkpt><trkpt lat="43.73342515765222" lon="7.05506422459849"><ele>798.6666666666666</ele><time>2026-04-25T17:42:15.998Z</time></trkpt><trkpt lat="43.73337079926739" lon="7.055116664833643"><ele>797.0</ele><time>2026-04-25T17:42:16.998Z</time></trkpt><trkpt lat="43.733259390429104" lon="7.055172331835973"><ele>795.3333333333333</ele><time>2026-04-25T17:42:19Z</time></trkpt><trkpt lat="43.73318859698964" lon="7.055175940530871"><ele>793.6666666666666</ele><time>2026-04-25T17:42:20Z</time></trkpt><trkpt lat="43.73311918425173" lon="7.055170325737479"><ele>792.0</ele><time>2026-04-25T17:42:21Z</time></trkpt><trkpt lat="43.733055889199676" lon="7.055159196462658"><ele>792.0</ele><time>2026-04-25T17:42:22Z</time></trkpt><trkpt lat="43.73293932418074" lon="7.055162402667106"><ele>792.0</ele><time>2026-04-25T17:42:24Z</time></trkpt><trkpt lat="43.732876644128176" lon="7.055171218909969"><ele>792.0</ele><time>2026-04-25T17:42:25Z</time></trkpt><trkpt lat="43.73281251853028" lon="7.055175509237179"><ele>792.0</ele><time>2026-04-25T17:42:26Z</time></trkpt><trkpt lat="43.73268841324162" lon="7.055222376863022"><ele>792.0</ele><time>2026-04-25T17:42:28Z</time></trkpt><trkpt lat="43.73261712108351" lon="7.055247635319416"><ele>792.0</ele><time>2026-04-25T17:42:29Z</time></trkpt><trkpt lat="43.7325513090571" lon="7.055290454136978"><ele>790.3333333333334</ele><time>2026-04-25T17:42:30Z</time></trkpt><trkpt lat="43.732492208551236" lon="7.055349722388745"><ele>788.6666666666667</ele><time>2026-04-25T17:42:31Z</time></trkpt><trkpt lat="43.732438638547464" lon="7.055428270920675"><ele>787.0</ele><time>2026-04-25T17:42:32Z</time></trkpt><trkpt lat="43.73238478918673" lon="7.055514671928246"><ele>785.3333333333334</ele><time>2026-04-25T17:42:33Z</time></trkpt><trkpt lat="43.73233320023382" lon="7.0556105538905785"><ele>783.6666666666667</ele><time>2026-04-25T17:42:34Z</time></trkpt><trkpt lat="43.73228325404738" lon="7.055711272211638"><ele>782.0</ele><time>2026-04-25T17:42:35Z</time></trkpt><trkpt lat="43.73224342988777" lon="7.055819731726155"><ele>782.0000000000001</ele><time>2026-04-25T17:42:36Z</time></trkpt><trkpt lat="43.73218410176719" lon="7.0559160611127885"><ele>782.0</ele><time>2026-04-25T17:42:37Z</time></trkpt><trkpt lat="43.73213749463362" lon="7.056017434168476"><ele>782.0</ele><time>2026-04-25T17:42:38Z</time></trkpt><trkpt lat="43.73208827273108" lon="7.056110749780533"><ele>782.0</ele><time>2026-04-25T17:42:39Z</time></trkpt><trkpt lat="43.73203715983609" lon="7.0561977601249675"><ele>782.0000000000001</ele><time>2026-04-25T17:42:40Z</time></trkpt><trkpt lat="43.73197712512875" lon="7.056280985926946"><ele>782.0</ele><time>2026-04-25T17:42:41Z</time></trkpt><trkpt lat="43.7319152311795" lon="7.056362169177665"><ele>774.8</ele><time>2026-04-25T17:42:42Z</time></trkpt><trkpt lat="43.73183436314635" lon="7.056413675133232"><ele>767.6</ele><time>2026-04-25T17:42:43Z</time></trkpt><trkpt lat="43.73174720854386" lon="7.056456133614916"><ele>760.4</ele><time>2026-04-25T17:42:44Z</time></trkpt><trkpt lat="43.73165506336831" lon="7.056500962556916"><ele>753.1999999999999</ele><time>2026-04-25T17:42:45Z</time></trkpt><trkpt lat="43.73156925152798" lon="7.056552767285629"><ele>746.0</ele><time>2026-04-25T17:42:45.999Z</time></trkpt><trkpt lat="43.731490318324965" lon="7.056612221116579"><ele>749.8</ele><time>2026-04-25T17:42:46.999Z</time></trkpt><trkpt lat="43.731418612051876" lon="7.0566851709686365"><ele>753.5999999999999</ele><time>2026-04-25T17:42:47.999Z</time></trkpt><trkpt lat="43.73134652127225" lon="7.056765463694894"><ele>757.4</ele><time>2026-04-25T17:42:48.999Z</time></trkpt><trkpt lat="43.73127673776337" lon="7.056850706467459"><ele>761.2</ele><time>2026-04-25T17:42:49.999Z</time></trkpt><trkpt lat="43.73120743258776" lon="7.056935829804243"><ele>765.0</ele><time>2026-04-25T17:42:50.999Z</time></trkpt><trkpt lat="43.73115010232571" lon="7.057022768459889"><ele>765.0</ele><time>2026-04-25T17:42:51.999Z</time></trkpt><trkpt lat="43.731089193715476" lon="7.05711114063838"><ele>765.0</ele><time>2026-04-25T17:42:52.999Z</time></trkpt><trkpt lat="43.73101907885728" lon="7.057194931801294"><ele>765.0</ele><time>2026-04-25T17:42:53.999Z</time></trkpt><trkpt lat="43.73095593621571" lon="7.057282135468775"><ele>765.0</ele><time>2026-04-25T17:42:54.999Z</time></trkpt><trkpt lat="43.73088772292355" lon="7.057365959199452"><ele>765.0</ele><time>2026-04-25T17:42:55.999Z</time></trkpt><trkpt lat="43.73082144334457" lon="7.057443784005958"><ele>765.0</ele><time>2026-04-25T17:42:56.999Z</time></trkpt><trkpt lat="43.73075218462062" lon="7.057497389682685"><ele>762.0</ele><time>2026-04-25T17:42:57.999Z</time></trkpt><trkpt lat="43.73066632684181" lon="7.057569622706694"><ele>759.0</ele><time>2026-04-25T17:42:59.999Z</time></trkpt><trkpt lat="43.73065155794451" lon="7.057395485284418"><ele>756.0</ele><time>2026-04-25T17:43:01.999Z</time></trkpt><trkpt lat="43.73073380018189" lon="7.05730288700989"><ele>753.0</ele><time>2026-04-25T17:43:03.999Z</time></trkpt><trkpt lat="43.73078029949539" lon="7.05718437762"><ele>750.0</ele><time>2026-04-25T17:43:06.999Z</time></trkpt><trkpt lat="43.73078498980704" lon="7.057058777871345"><ele>750.0</ele><time>2026-04-25T17:43:08.999Z</time></trkpt><trkpt lat="43.73069234512449" lon="7.057070252073026"><ele>750.0</ele><time>2026-04-25T17:43:10.999Z</time></trkpt><trkpt lat="43.73062856513477" lon="7.057199352999124"><ele>750.0</ele><time>2026-04-25T17:43:12.999Z</time></trkpt><trkpt lat="43.73056314080053" lon="7.057305667151721"><ele>750.0</ele><time>2026-04-25T17:43:14.999Z</time></trkpt><trkpt lat="43.730486411934315" lon="7.057397854532116"><ele>750.0</ele><time>2026-04-25T17:43:16.999Z</time></trkpt><trkpt lat="43.73041580984514" lon="7.057488332206395"><ele>750.0</ele><time>2026-04-25T17:43:18.999Z</time></trkpt><trkpt lat="43.73032585016761" lon="7.057540837032402"><ele>750.0</ele><time>2026-04-25T17:43:20.999Z</time></trkpt><trkpt lat="43.73026816161169" lon="7.057422731329499"><ele>750.0</ele><time>2026-04-25T17:43:22.999Z</time></trkpt><trkpt lat="43.73028364842239" lon="7.057301655791681"><ele>750.0</ele><time>2026-04-25T17:43:24.999Z</time></trkpt><trkpt lat="43.730315922194" lon="7.057188399718797"><ele>750.0</ele><time>2026-04-25T17:43:26.999Z</time></trkpt><trkpt lat="43.730385889764044" lon="7.057062612551334"><ele>745.75</ele><time>2026-04-25T17:43:28.999Z</time></trkpt><trkpt lat="43.730405383161155" lon="7.056899511916993"><ele>741.5</ele><time>2026-04-25T17:43:30.999Z</time></trkpt><trkpt lat="43.73043844536366" lon="7.056758577356649"><ele>737.25</ele><time>2026-04-25T17:43:32.999Z</time></trkpt><trkpt lat="43.730458860401946" lon="7.05660109607932"><ele>733.0</ele><time>2026-04-25T17:43:34.999Z</time></trkpt><trkpt lat="43.730565430597984" lon="7.056531140579254"><ele>728.2</ele><time>2026-04-25T17:43:36.999Z</time></trkpt><trkpt lat="43.73065659124021" lon="7.056443997949609"><ele>723.4</ele><time>2026-04-25T17:43:38.999Z</time></trkpt><trkpt lat="43.73076310393345" lon="7.056367411389326"><ele>718.6</ele><time>2026-04-25T17:43:40.999Z</time></trkpt><trkpt lat="43.73081657733701" lon="7.056308750966827"><ele>713.8000000000001</ele><time>2026-04-25T17:43:41.999Z</time></trkpt><trkpt lat="43.730871006896024" lon="7.05623485912846"><ele>709.0</ele><time>2026-04-25T17:43:42.999Z</time></trkpt><trkpt lat="43.73094084501396" lon="7.056167326659933"><ele>709.0</ele><time>2026-04-25T17:43:43.999Z</time></trkpt><trkpt lat="43.73099499439463" lon="7.056069004354961"><ele>709.0</ele><time>2026-04-25T17:43:44.999Z</time></trkpt><trkpt lat="43.73104790730494" lon="7.055987727996605"><ele>709.0</ele><time>2026-04-25T17:43:45.999Z</time></trkpt><trkpt lat="43.731108349580566" lon="7.055901286720055"><ele>709.0</ele><time>2026-04-25T17:43:46.999Z</time></trkpt><trkpt lat="43.731171510650924" lon="7.055810649703256"><ele>709.0</ele><time>2026-04-25T17:43:47.999Z</time></trkpt><trkpt lat="43.73122567690287" lon="7.055729212730701"><ele>709.0</ele><time>2026-04-25T17:43:48.999Z</time></trkpt><trkpt lat="43.73127463361619" lon="7.055647292001028"><ele>711.7142857142858</ele><time>2026-04-25T17:43:49.998Z</time></trkpt><trkpt lat="43.73131154961372" lon="7.055556961668105"><ele>714.4285714285714</ele><time>2026-04-25T17:43:50.998Z</time></trkpt><trkpt lat="43.73131925922069" lon="7.055450032060426"><ele>717.1428571428571</ele><time>2026-04-25T17:43:51.998Z</time></trkpt><trkpt lat="43.731345442634975" lon="7.055358587167943"><ele>719.8571428571429</ele><time>2026-04-25T17:43:52.998Z</time></trkpt><trkpt lat="43.73136339507555" lon="7.055261058427082"><ele>722.5714285714286</ele><time>2026-04-25T17:43:53.998Z</time></trkpt><trkpt lat="43.731387533755324" lon="7.055162827344003"><ele>725.2857142857143</ele><time>2026-04-25T17:43:54.998Z</time></trkpt><trkpt lat="43.73141606827391" lon="7.055064429085982"><ele>728.0</ele><time>2026-04-25T17:43:55.998Z</time></trkpt><trkpt lat="43.73144983112196" lon="7.054968458848208"><ele>728.0</ele><time>2026-04-25T17:43:56.998Z</time></trkpt><trkpt lat="43.73149124348934" lon="7.054877105503925"><ele>728.0</ele><time>2026-04-25T17:43:57.998Z</time></trkpt><trkpt lat="43.7314931337963" lon="7.054750994352013"><ele>728.0</ele><time>2026-04-25T17:43:59.998Z</time></trkpt><trkpt lat="43.731397916342694" lon="7.054723409599455"><ele>728.0</ele><time>2026-04-25T17:44:00.998Z</time></trkpt><trkpt lat="43.73130831442109" lon="7.0548902663379165"><ele>728.0</ele><time>2026-04-25T17:44:02.998Z</time></trkpt><trkpt lat="43.73123313808233" lon="7.054987977794447"><ele>728.0</ele><time>2026-04-25T17:44:04.998Z</time></trkpt><trkpt lat="43.73114367515016" lon="7.055073159663726"><ele>728.0</ele><time>2026-04-25T17:44:06.998Z</time></trkpt><trkpt lat="43.73104917455628" lon="7.055142014779464"><ele>728.0</ele><time>2026-04-25T17:44:08.998Z</time></trkpt><trkpt lat="43.73095979500014" lon="7.0552610046892275"><ele>728.0</ele><time>2026-04-25T17:44:10.998Z</time></trkpt><trkpt lat="43.73088749197529" lon="7.055265507658868"><ele>728.0</ele><time>2026-04-25T17:44:12.998Z</time></trkpt><trkpt lat="43.73095646666632" lon="7.055103116343513"><ele>724.8333333333333</ele><time>2026-04-25T17:44:15.998Z</time></trkpt><trkpt lat="43.73098912271033" lon="7.055016239116638"><ele>721.6666666666666</ele><time>2026-04-25T17:44:17.998Z</time></trkpt><trkpt lat="43.731019469879946" lon="7.054922629875813"><ele>718.5</ele><time>2026-04-25T17:44:19.998Z</time></trkpt><trkpt lat="43.73104637898112" lon="7.05479657927708"><ele>715.3333333333334</ele><time>2026-04-25T17:44:21.998Z</time></trkpt><trkpt lat="43.73106636775682" lon="7.054682557326996"><ele>712.1666666666667</ele><time>2026-04-25T17:44:23.998Z</time></trkpt><trkpt lat="43.731103166058034" lon="7.054572741346878"><ele>709.0</ele><time>2026-04-25T17:44:26Z</time></trkpt><trkpt lat="43.73113596124093" lon="7.054459559370378"><ele>709.0</ele><time>2026-04-25T17:44:28Z</time></trkpt><trkpt lat="43.73116517175642" lon="7.054344265890566"><ele>709.0</ele><time>2026-04-25T17:44:30Z</time></trkpt><trkpt lat="43.73118977156844" lon="7.0542226699986905"><ele>709.0</ele><time>2026-04-25T17:44:32Z</time></trkpt><trkpt lat="43.7310759717997" lon="7.054195121004561"><ele>709.0</ele><time>2026-04-25T17:44:34Z</time></trkpt><trkpt lat="43.731022593711344" lon="7.054284415926704"><ele>709.0</ele><time>2026-04-25T17:44:35Z</time></trkpt><trkpt lat="43.73095896316321" lon="7.054330232010442"><ele>703.5</ele><time>2026-04-25T17:44:36Z</time></trkpt><trkpt lat="43.730867607297434" lon="7.0544409685648075"><ele>698.0</ele><time>2026-04-25T17:44:38Z</time></trkpt><trkpt lat="43.73076184799452" lon="7.0545112479138"><ele>692.5</ele><time>2026-04-25T17:44:40Z</time></trkpt><trkpt lat="43.7306998467435" lon="7.054543304365834"><ele>687.0</ele><time>2026-04-25T17:44:41Z</time></trkpt><trkpt lat="43.73063470988252" lon="7.054574828210035"><ele>681.5</ele><time>2026-04-25T17:44:42Z</time></trkpt><trkpt lat="43.73056839212363" lon="7.054602778152866"><ele>676.0</ele><time>2026-04-25T17:44:43Z</time></trkpt><trkpt lat="43.73050194344873" lon="7.054631296594566"><ele>676.0</ele><time>2026-04-25T17:44:44Z</time></trkpt><trkpt lat="43.73043546908318" lon="7.054669411154714"><ele>676.0</ele><time>2026-04-25T17:44:45Z</time></trkpt><trkpt lat="43.730370890703725" lon="7.054719052344521"><ele>676.0</ele><time>2026-04-25T17:44:46Z</time></trkpt><trkpt lat="43.730311677268034" lon="7.054795782672166"><ele>676.0</ele><time>2026-04-25T17:44:47Z</time></trkpt><trkpt lat="43.73024709417374" lon="7.0548321155643166"><ele>676.0</ele><time>2026-04-25T17:44:47.999Z</time></trkpt><trkpt lat="43.73019552692594" lon="7.0549098123675185"><ele>676.0</ele><time>2026-04-25T17:44:48.999Z</time></trkpt><trkpt lat="43.73013371389429" lon="7.0549628293749675"><ele>676.0</ele><time>2026-04-25T17:44:49.999Z</time></trkpt><trkpt lat="43.73004568233991" lon="7.055043476239464"><ele>672.1999999999999</ele><time>2026-04-25T17:44:51.999Z</time></trkpt><trkpt lat="43.73002942220348" lon="7.054889477781882"><ele>668.4</ele><time>2026-04-25T17:44:53.999Z</time></trkpt><trkpt lat="43.730102324200665" lon="7.054878932136522"><ele>664.6</ele><time>2026-04-25T17:44:54.999Z</time></trkpt><trkpt lat="43.73013917939764" lon="7.054796704832415"><ele>660.8</ele><time>2026-04-25T17:44:56.999Z</time></trkpt><trkpt lat="43.73009990610742" lon="7.054624198950386"><ele>657.0</ele><time>2026-04-25T17:44:58.999Z</time></trkpt><trkpt lat="43.73001047860713" lon="7.054656424993885"><ele>657.0</ele><time>2026-04-25T17:44:59.999Z</time></trkpt><trkpt lat="43.72994666113404" lon="7.054721696913375"><ele>657.0</ele><time>2026-04-25T17:45:00.999Z</time></trkpt><trkpt lat="43.729837493817634" lon="7.0547990937826475"><ele>657.0</ele><time>2026-04-25T17:45:02.999Z</time></trkpt><trkpt lat="43.72975891902894" lon="7.054815083494947"><ele>657.0</ele><time>2026-04-25T17:45:03.999Z</time></trkpt><trkpt lat="43.729694229758714" lon="7.054869074327215"><ele>657.0</ele><time>2026-04-25T17:45:04.999Z</time></trkpt><trkpt lat="43.72961789971335" lon="7.054898378796653"><ele>657.0</ele><time>2026-04-25T17:45:05.999Z</time></trkpt><trkpt lat="43.72954157243104" lon="7.054935601741577"><ele>658.5</ele><time>2026-04-25T17:45:06.999Z</time></trkpt><trkpt lat="43.7294619794391" lon="7.054972785882721"><ele>660.0</ele><time>2026-04-25T17:45:07.999Z</time></trkpt><trkpt lat="43.72939266095261" lon="7.054990405781236"><ele>661.5</ele><time>2026-04-25T17:45:08.999Z</time></trkpt><trkpt lat="43.72931870257992" lon="7.055008610165099"><ele>663.0</ele><time>2026-04-25T17:45:09.999Z</time></trkpt><trkpt lat="43.72923951840355" lon="7.055020584513444"><ele>664.5</ele><time>2026-04-25T17:45:10.999Z</time></trkpt><trkpt lat="43.72916208874951" lon="7.055029941511434"><ele>666.0</ele><time>2026-04-25T17:45:11.999Z</time></trkpt><trkpt lat="43.7290801027835" lon="7.055036374120227"><ele>662.8333333333334</ele><time>2026-04-25T17:45:12.999Z</time></trkpt><trkpt lat="43.728998181652834" lon="7.055049579877489"><ele>659.6666666666666</ele><time>2026-04-25T17:45:13.999Z</time></trkpt><trkpt lat="43.72892101179759" lon="7.055062583973975"><ele>656.5</ele><time>2026-04-25T17:45:14.999Z</time></trkpt><trkpt lat="43.72884258490227" lon="7.0550853323413945"><ele>653.3333333333333</ele><time>2026-04-25T17:45:15.999Z</time></trkpt><trkpt lat="43.728772556122934" lon="7.055108058459376"><ele>650.1666666666666</ele><time>2026-04-25T17:45:16.999Z</time></trkpt><trkpt lat="43.72870504555734" lon="7.05513586844216"><ele>647.0</ele><time>2026-04-25T17:45:17.999Z</time></trkpt><trkpt lat="43.72863266862739" lon="7.055194112868798"><ele>647.0</ele><time>2026-04-25T17:45:18.999Z</time></trkpt><trkpt lat="43.72857117359416" lon="7.055269505535485"><ele>647.0</ele><time>2026-04-25T17:45:19.999Z</time></trkpt><trkpt lat="43.728507230310704" lon="7.055345269441586"><ele>647.0</ele><time>2026-04-25T17:45:20.999Z</time></trkpt><trkpt lat="43.72844483465861" lon="7.0554192697138225"><ele>647.0</ele><time>2026-04-25T17:45:21.999Z</time></trkpt><trkpt lat="43.72837173685606" lon="7.055472270837212"><ele>647.0</ele><time>2026-04-25T17:45:22.999Z</time></trkpt><trkpt lat="43.72831472489069" lon="7.055529378664353"><ele>647.0</ele><time>2026-04-25T17:45:23.999Z</time></trkpt><trkpt lat="43.728253583308515" lon="7.0555895465460345"><ele>644.6666666666666</ele><time>2026-04-25T17:45:24.999Z</time></trkpt><trkpt lat="43.72819814510895" lon="7.055666295340958"><ele>642.3333333333333</ele><time>2026-04-25T17:45:25.999Z</time></trkpt><trkpt lat="43.72817811825881" lon="7.055753598614536"><ele>640.0</ele><time>2026-04-25T17:45:26.999Z</time></trkpt><trkpt lat="43.728105708506654" lon="7.055647312160309"><ele>637.6666666666666</ele><time>2026-04-25T17:45:29.999Z</time></trkpt><trkpt lat="43.72815360454854" lon="7.055540993336144"><ele>635.3333333333334</ele><time>2026-04-25T17:45:31.999Z</time></trkpt><trkpt lat="43.728167464920205" lon="7.055424728372218"><ele>633.0</ele><time>2026-04-25T17:45:33.999Z</time></trkpt><trkpt lat="43.728182068592375" lon="7.055257965169923"><ele>633.0</ele><time>2026-04-25T17:45:35.999Z</time></trkpt><trkpt lat="43.728192828948096" lon="7.0551356867192245"><ele>633.0</ele><time>2026-04-25T17:45:37.999Z</time></trkpt><trkpt lat="43.72818068154026" lon="7.055023717700204"><ele>633.0</ele><time>2026-04-25T17:45:39.999Z</time></trkpt><trkpt lat="43.72803123536421" lon="7.05507795396368"><ele>633.0</ele><time>2026-04-25T17:45:40.999Z</time></trkpt><trkpt lat="43.72796276751235" lon="7.0551107286905"><ele>633.0</ele><time>2026-04-25T17:45:41.999Z</time></trkpt><trkpt lat="43.72789431063363" lon="7.055137000910769"><ele>633.0</ele><time>2026-04-25T17:45:42.999Z</time></trkpt><trkpt lat="43.727817908135535" lon="7.055164538547386"><ele>633.0</ele><time>2026-04-25T17:45:43.999Z</time></trkpt><trkpt lat="43.72774427105192" lon="7.055191147017136"><ele>633.0</ele><time>2026-04-25T17:45:44.999Z</time></trkpt><trkpt lat="43.727673340099905" lon="7.055214892243182"><ele>633.0</ele><time>2026-04-25T17:45:45.999Z</time></trkpt><trkpt lat="43.727598752334565" lon="7.055219962506762"><ele>633.0</ele><time>2026-04-25T17:45:46.999Z</time></trkpt><trkpt lat="43.72753522578635" lon="7.05528339020789"><ele>633.0</ele><time>2026-04-25T17:45:47.999Z</time></trkpt><trkpt lat="43.72746841583942" lon="7.055324985079024"><ele>630.6</ele><time>2026-04-25T17:45:48.999Z</time></trkpt><trkpt lat="43.727365313119314" lon="7.055294841790862"><ele>628.1999999999999</ele><time>2026-04-25T17:45:50.998Z</time></trkpt><trkpt lat="43.72732685279985" lon="7.055222238510965"><ele>625.8</ele><time>2026-04-25T17:45:51.998Z</time></trkpt><trkpt lat="43.72722648231203" lon="7.0551457261246036"><ele>623.4</ele><time>2026-04-25T17:45:53.998Z</time></trkpt><trkpt lat="43.72715467533685" lon="7.05520921788597"><ele>621.0</ele><time>2026-04-25T17:45:54.998Z</time></trkpt><trkpt lat="43.7270424177034" lon="7.05528736096327"><ele>621.0</ele><time>2026-04-25T17:45:56.998Z</time></trkpt><trkpt lat="43.726982089606516" lon="7.055331441299398"><ele>621.0</ele><time>2026-04-25T17:45:57.998Z</time></trkpt><trkpt lat="43.72691543502603" lon="7.055375744760429"><ele>621.0</ele><time>2026-04-25T17:45:58.998Z</time></trkpt><trkpt lat="43.72685304879553" lon="7.055405597924096"><ele>621.0</ele><time>2026-04-25T17:45:59.998Z</time></trkpt><trkpt lat="43.726786788011566" lon="7.055430832189348"><ele>621.0</ele><time>2026-04-25T17:46:00.998Z</time></trkpt><trkpt lat="43.72671466223028" lon="7.055446637120809"><ele>621.0</ele><time>2026-04-25T17:46:01.998Z</time></trkpt><trkpt lat="43.72660052903025" lon="7.055485706560701"><ele>621.1428571428571</ele><time>2026-04-25T17:46:03.998Z</time></trkpt><trkpt lat="43.72653196344268" lon="7.055532775164128"><ele>621.2857142857142</ele><time>2026-04-25T17:46:04.998Z</time></trkpt><trkpt lat="43.72646802114028" lon="7.055555156398487"><ele>621.4285714285713</ele><time>2026-04-25T17:46:05.998Z</time></trkpt><trkpt lat="43.72640797051695" lon="7.055598574015377"><ele>621.5714285714286</ele><time>2026-04-25T17:46:06.998Z</time></trkpt><trkpt lat="43.72634552077354" lon="7.055645564511812"><ele>621.7142857142858</ele><time>2026-04-25T17:46:07.998Z</time></trkpt><trkpt lat="43.72628597843354" lon="7.055690367223736"><ele>621.8571428571428</ele><time>2026-04-25T17:46:08.998Z</time></trkpt><trkpt lat="43.726227328641755" lon="7.055734498237352"><ele>622.0</ele><time>2026-04-25T17:46:09.998Z</time></trkpt><trkpt lat="43.72617021745553" lon="7.055776192837439"><ele>620.0</ele><time>2026-04-25T17:46:10.998Z</time></trkpt><trkpt lat="43.72611594683583" lon="7.055838732383304"><ele>618.0</ele><time>2026-04-25T17:46:11.998Z</time></trkpt><trkpt lat="43.7260570847193" lon="7.055877842091488"><ele>616.0</ele><time>2026-04-25T17:46:12.998Z</time></trkpt><trkpt lat="43.725946215450335" lon="7.055942733252358"><ele>614.0</ele><time>2026-04-25T17:46:14.998Z</time></trkpt><trkpt lat="43.72584272472336" lon="7.056000782719501"><ele>612.0</ele><time>2026-04-25T17:46:16.998Z</time></trkpt><trkpt lat="43.725740667797155" lon="7.0560383574405146"><ele>611.4</ele><time>2026-04-25T17:46:18.998Z</time></trkpt><trkpt lat="43.72564959006645" lon="7.05613438778884"><ele>610.8000000000001</ele><time>2026-04-25T17:46:20.998Z</time></trkpt><trkpt lat="43.72557557450802" lon="7.056245572811524"><ele>610.2</ele><time>2026-04-25T17:46:22.998Z</time></trkpt><trkpt lat="43.725513363992434" lon="7.056346609019818"><ele>609.6</ele><time>2026-04-25T17:46:24.998Z</time></trkpt><trkpt lat="43.72546001219931" lon="7.056394551185362"><ele>609.0</ele><time>2026-04-25T17:46:26.998Z</time></trkpt><trkpt lat="43.725436211658234" lon="7.056269433505709"><ele>609.0</ele><time>2026-04-25T17:46:28.998Z</time></trkpt><trkpt lat="43.7253811750337" lon="7.056222261311823"><ele>609.0</ele><time>2026-04-25T17:46:29.998Z</time></trkpt><trkpt lat="43.725308806222415" lon="7.056211004570573"><ele>609.0</ele><time>2026-04-25T17:46:31Z</time></trkpt><trkpt lat="43.725230515669274" lon="7.056268448103643"><ele>609.0</ele><time>2026-04-25T17:46:32Z</time></trkpt><trkpt lat="43.72517537442222" lon="7.056316993864635"><ele>609.0</ele><time>2026-04-25T17:46:33Z</time></trkpt><trkpt lat="43.725122231838114" lon="7.056372014396528"><ele>609.0</ele><time>2026-04-25T17:46:34Z</time></trkpt><trkpt lat="43.72505354895244" lon="7.056435052568216"><ele>609.0</ele><time>2026-04-25T17:46:35Z</time></trkpt><trkpt lat="43.7249867631766" lon="7.0564888033910975"><ele>610.0</ele><time>2026-04-25T17:46:36Z</time></trkpt><trkpt lat="43.724913959040954" lon="7.056549589807408"><ele>611.0</ele><time>2026-04-25T17:46:37Z</time></trkpt><trkpt lat="43.724874752966876" lon="7.056645164438432"><ele>612.0</ele><time>2026-04-25T17:46:38Z</time></trkpt><trkpt lat="43.724815538658234" lon="7.056700197541286"><ele>613.0</ele><time>2026-04-25T17:46:39Z</time></trkpt><trkpt lat="43.72475809639251" lon="7.056753755938545"><ele>614.0</ele><time>2026-04-25T17:46:40Z</time></trkpt><trkpt lat="43.72469624905335" lon="7.056809141150916"><ele>615.0</ele><time>2026-04-25T17:46:41Z</time></trkpt><trkpt lat="43.72463342556489" lon="7.056841140936682"><ele>616.0</ele><time>2026-04-25T17:46:42Z</time></trkpt><trkpt lat="43.724589785345565" lon="7.05690633053091"><ele>614.0</ele><time>2026-04-25T17:46:43Z</time></trkpt><trkpt lat="43.72454092541309" lon="7.05697977279725"><ele>612.0</ele><time>2026-04-25T17:46:44Z</time></trkpt><trkpt lat="43.72450920605115" lon="7.057061213973734"><ele>610.0</ele><time>2026-04-25T17:46:45Z</time></trkpt><trkpt lat="43.724457296177945" lon="7.057119065091714"><ele>608.0</ele><time>2026-04-25T17:46:46Z</time></trkpt><trkpt lat="43.724403734870705" lon="7.057190383136455"><ele>606.0</ele><time>2026-04-25T17:46:47Z</time></trkpt><trkpt lat="43.724348831494574" lon="7.057255677057093"><ele>604.0</ele><time>2026-04-25T17:46:48Z</time></trkpt><trkpt lat="43.72428899006249" lon="7.057327273419229"><ele>602.0</ele><time>2026-04-25T17:46:49Z</time></trkpt><trkpt lat="43.72420667753888" lon="7.057362846278197"><ele>602.0</ele><time>2026-04-25T17:46:50Z</time></trkpt><trkpt lat="43.724136618366344" lon="7.0574190409482345"><ele>602.0</ele><time>2026-04-25T17:46:50.999Z</time></trkpt><trkpt lat="43.72403918853113" lon="7.05750294520878"><ele>602.0</ele><time>2026-04-25T17:46:52.999Z</time></trkpt><trkpt lat="43.72412583859727" lon="7.057626708787169"><ele>602.0</ele><time>2026-04-25T17:46:55.999Z</time></trkpt><trkpt lat="43.724229284745626" lon="7.057580234953055"><ele>602.0</ele><time>2026-04-25T17:46:57.999Z</time></trkpt><trkpt lat="43.72433026409363" lon="7.057551240414102"><ele>596.5</ele><time>2026-04-25T17:46:59.999Z</time></trkpt><trkpt lat="43.72440212372286" lon="7.057568159089289"><ele>591.0</ele><time>2026-04-25T17:47:01.999Z</time></trkpt><trkpt lat="43.724362653589324" lon="7.057639534096103"><ele>585.5</ele><time>2026-04-25T17:47:02.999Z</time></trkpt><trkpt lat="43.72428286459828" lon="7.057675823066797"><ele>580.0</ele><time>2026-04-25T17:47:04.999Z</time></trkpt><trkpt lat="43.724190317598335" lon="7.057763576197948"><ele>574.5</ele><time>2026-04-25T17:47:06.999Z</time></trkpt><trkpt lat="43.72413916169411" lon="7.05781662461079"><ele>569.0</ele><time>2026-04-25T17:47:07.999Z</time></trkpt><trkpt lat="43.72408839962115" lon="7.057888674332861"><ele>569.0</ele><time>2026-04-25T17:47:08.999Z</time></trkpt><trkpt lat="43.7240173122427" lon="7.057940488028936"><ele>569.0</ele><time>2026-04-25T17:47:09.999Z</time></trkpt><trkpt lat="43.723947708604896" lon="7.057991709920355"><ele>569.0</ele><time>2026-04-25T17:47:10.999Z</time></trkpt><trkpt lat="43.723867761727625" lon="7.058039861143611"><ele>569.0</ele><time>2026-04-25T17:47:11.999Z</time></trkpt><trkpt lat="43.723788179058275" lon="7.058092328411449"><ele>569.0</ele><time>2026-04-25T17:47:12.999Z</time></trkpt><trkpt lat="43.723700074264755" lon="7.058140302631644"><ele>569.0</ele><time>2026-04-25T17:47:13.999Z</time></trkpt><trkpt lat="43.723607646092866" lon="7.058178389284701"><ele>568.2</ele><time>2026-04-25T17:47:14.999Z</time></trkpt><trkpt lat="43.72350209830998" lon="7.058197871553871"><ele>567.4</ele><time>2026-04-25T17:47:15.999Z</time></trkpt><trkpt lat="43.72340727931899" lon="7.0581926099449745"><ele>566.6</ele><time>2026-04-25T17:47:16.999Z</time></trkpt><trkpt lat="43.72331789524653" lon="7.058186140571439"><ele>565.8</ele><time>2026-04-25T17:47:17.999Z</time></trkpt><trkpt lat="43.72322318162839" lon="7.058177588043667"><ele>565.0</ele><time>2026-04-25T17:47:18.999Z</time></trkpt><trkpt lat="43.72312512642585" lon="7.058155279443619"><ele>565.0</ele><time>2026-04-25T17:47:19.999Z</time></trkpt><trkpt lat="43.7230383656681" lon="7.058147129170141"><ele>565.0</ele><time>2026-04-25T17:47:20.999Z</time></trkpt><trkpt lat="43.72296194770484" lon="7.058094446346383"><ele>565.0</ele><time>2026-04-25T17:47:21.999Z</time></trkpt><trkpt lat="43.7228901353468" lon="7.058094350640925"><ele>565.0</ele><time>2026-04-25T17:47:22.999Z</time></trkpt><trkpt lat="43.72282762353282" lon="7.05805931182038"><ele>565.0</ele><time>2026-04-25T17:47:23.999Z</time></trkpt><trkpt lat="43.72272210686527" lon="7.058032574861651"><ele>565.0</ele><time>2026-04-25T17:47:25.999Z</time></trkpt><trkpt lat="43.72265890703223" lon="7.057989384158239"><ele>561.4285714285713</ele><time>2026-04-25T17:47:26.999Z</time></trkpt><trkpt lat="43.722601521775196" lon="7.057946317472016"><ele>557.8571428571429</ele><time>2026-04-25T17:47:27.999Z</time></trkpt><trkpt lat="43.722543757045095" lon="7.057911562988885"><ele>554.2857142857142</ele><time>2026-04-25T17:47:28.999Z</time></trkpt><trkpt lat="43.722484826537574" lon="7.057878907079236"><ele>550.7142857142857</ele><time>2026-04-25T17:47:29.999Z</time></trkpt><trkpt lat="43.7224237688816" lon="7.057854911639182"><ele>547.1428571428571</ele><time>2026-04-25T17:47:30.999Z</time></trkpt><trkpt lat="43.72235550998198" lon="7.057832880893669"><ele>543.5714285714286</ele><time>2026-04-25T17:47:31.999Z</time></trkpt><trkpt lat="43.722242521384175" lon="7.0577760995509085"><ele>540.0</ele><time>2026-04-25T17:47:33.999Z</time></trkpt><trkpt lat="43.72212245274811" lon="7.057737514943771"><ele>540.0</ele><time>2026-04-25T17:47:35.999Z</time></trkpt><trkpt lat="43.72199552231878" lon="7.057732029193472"><ele>540.0</ele><time>2026-04-25T17:47:37.999Z</time></trkpt><trkpt lat="43.72193352380138" lon="7.057707672977212"><ele>540.0</ele><time>2026-04-25T17:47:38.999Z</time></trkpt><trkpt lat="43.721869680357116" lon="7.05768333236793"><ele>540.0</ele><time>2026-04-25T17:47:39.999Z</time></trkpt><trkpt lat="43.72180393428541" lon="7.057667994677294"><ele>540.0</ele><time>2026-04-25T17:47:40.999Z</time></trkpt><trkpt lat="43.72173079700403" lon="7.057655191838511"><ele>540.0</ele><time>2026-04-25T17:47:41.999Z</time></trkpt><trkpt lat="43.721660317259875" lon="7.057634811060621"><ele>534.6666666666666</ele><time>2026-04-25T17:47:42.999Z</time></trkpt><trkpt lat="43.721589216800695" lon="7.057606575460571"><ele>529.3333333333334</ele><time>2026-04-25T17:47:43.999Z</time></trkpt><trkpt lat="43.721511296002014" lon="7.057570963078551"><ele>524.0</ele><time>2026-04-25T17:47:44.999Z</time></trkpt><trkpt lat="43.72142318636593" lon="7.057573805095798"><ele>518.6666666666667</ele><time>2026-04-25T17:47:45.998Z</time></trkpt><trkpt lat="43.72133915493883" lon="7.0575865928077555"><ele>513.3333333333334</ele><time>2026-04-25T17:47:46.998Z</time></trkpt><trkpt lat="43.7212463681169" lon="7.057598859920773"><ele>508.0</ele><time>2026-04-25T17:47:47.998Z</time></trkpt><trkpt lat="43.72114908235542" lon="7.057615090252312"><ele>503.0</ele><time>2026-04-25T17:47:48.998Z</time></trkpt><trkpt lat="43.72104688365625" lon="7.057649738601755"><ele>497.99999999999994</ele><time>2026-04-25T17:47:49.998Z</time></trkpt><trkpt lat="43.72094651926461" lon="7.05770325892252"><ele>492.99999999999994</ele><time>2026-04-25T17:47:50.998Z</time></trkpt><trkpt lat="43.72084811389823" lon="7.057743230312837"><ele>488.0</ele><time>2026-04-25T17:47:51.998Z</time></trkpt><trkpt lat="43.720755022805065" lon="7.057753463815944"><ele>483.0</ele><time>2026-04-25T17:47:52.998Z</time></trkpt><trkpt lat="43.720651956395706" lon="7.057736424326864"><ele>483.0</ele><time>2026-04-25T17:47:53.998Z</time></trkpt><trkpt lat="43.72054334968117" lon="7.057714630386897"><ele>482.99999999999994</ele><time>2026-04-25T17:47:54.998Z</time></trkpt><trkpt lat="43.720438607387635" lon="7.057696359110668"><ele>482.99999999999994</ele><time>2026-04-25T17:47:55.998Z</time></trkpt><trkpt lat="43.720335145746105" lon="7.057674491508053"><ele>483.0</ele><time>2026-04-25T17:47:56.998Z</time></trkpt><trkpt lat="43.720227492125595" lon="7.057644773975701"><ele>483.0</ele><time>2026-04-25T17:47:57.998Z</time></trkpt><trkpt lat="43.72012228526693" lon="7.0576039473871965"><ele>480.59999999999997</ele><time>2026-04-25T17:47:58.998Z</time></trkpt><trkpt lat="43.720018790404716" lon="7.0575506063274425"><ele>478.19999999999993</ele><time>2026-04-25T17:47:59.998Z</time></trkpt><trkpt lat="43.71992236721184" lon="7.057508729918325"><ele>475.8</ele><time>2026-04-25T17:48:00.998Z</time></trkpt><trkpt lat="43.719830301144896" lon="7.057470410212241"><ele>473.4</ele><time>2026-04-25T17:48:01.998Z</time></trkpt><trkpt lat="43.71973559851083" lon="7.057421775844829"><ele>471.0</ele><time>2026-04-25T17:48:02.998Z</time></trkpt><trkpt lat="43.71962428144337" lon="7.057384051036477"><ele>471.0</ele><time>2026-04-25T17:48:03.998Z</time></trkpt><trkpt lat="43.719508572849286" lon="7.057337748239983"><ele>471.0</ele><time>2026-04-25T17:48:04.998Z</time></trkpt><trkpt lat="43.719415530953455" lon="7.057321842386047"><ele>471.0</ele><time>2026-04-25T17:48:05.998Z</time></trkpt><trkpt lat="43.71934166214522" lon="7.057301607060126"><ele>471.0</ele><time>2026-04-25T17:48:06.998Z</time></trkpt><trkpt lat="43.719262401208745" lon="7.05728806801883"><ele>471.0</ele><time>2026-04-25T17:48:07.998Z</time></trkpt><trkpt lat="43.71917937360315" lon="7.057289439816466"><ele>467.3333333333333</ele><time>2026-04-25T17:48:08.998Z</time></trkpt><trkpt lat="43.71910240193722" lon="7.057339079333541"><ele>463.66666666666663</ele><time>2026-04-25T17:48:09.998Z</time></trkpt><trkpt lat="43.71902334570686" lon="7.05738067587083"><ele>460.0</ele><time>2026-04-25T17:48:10.998Z</time></trkpt><trkpt lat="43.7189406795514" lon="7.057380428406713"><ele>456.3333333333333</ele><time>2026-04-25T17:48:11.998Z</time></trkpt><trkpt lat="43.71884770663125" lon="7.057359776039768"><ele>452.66666666666663</ele><time>2026-04-25T17:48:12.998Z</time></trkpt><trkpt lat="43.718760840514385" lon="7.057348119842782"><ele>449.0</ele><time>2026-04-25T17:48:13.998Z</time></trkpt><trkpt lat="43.718674845800685" lon="7.057346584547324"><ele>448.99999999999994</ele><time>2026-04-25T17:48:14.998Z</time></trkpt><trkpt lat="43.71858785240781" lon="7.057339030993392"><ele>449.0</ele><time>2026-04-25T17:48:15.998Z</time></trkpt><trkpt lat="43.71850003743933" lon="7.05733472778041"><ele>449.0</ele><time>2026-04-25T17:48:16.998Z</time></trkpt><trkpt lat="43.718415558022386" lon="7.057343072787333"><ele>449.0</ele><time>2026-04-25T17:48:17.998Z</time></trkpt><trkpt lat="43.718332614155" lon="7.0573568185477304"><ele>448.99999999999994</ele><time>2026-04-25T17:48:18.998Z</time></trkpt><trkpt lat="43.71826060061171" lon="7.057334347359124"><ele>449.0</ele><time>2026-04-25T17:48:19.998Z</time></trkpt><trkpt lat="43.718204313475034" lon="7.057251117194001"><ele>446.2857142857143</ele><time>2026-04-25T17:48:20.998Z</time></trkpt><trkpt lat="43.7181631831602" lon="7.057151330717159"><ele>443.57142857142856</ele><time>2026-04-25T17:48:21.998Z</time></trkpt><trkpt lat="43.7181247899048" lon="7.057060774893338"><ele>440.85714285714283</ele><time>2026-04-25T17:48:22.998Z</time></trkpt><trkpt lat="43.71809285779093" lon="7.05696897971816"><ele>438.1428571428571</ele><time>2026-04-25T17:48:23.998Z</time></trkpt><trkpt lat="43.71806036497084" lon="7.056886382976978"><ele>435.42857142857144</ele><time>2026-04-25T17:48:24.998Z</time></trkpt><trkpt lat="43.71801658102794" lon="7.056822834957896"><ele>432.71428571428567</ele><time>2026-04-25T17:48:25.998Z</time></trkpt><trkpt lat="43.717959087643926" lon="7.05677534900994"><ele>430.0</ele><time>2026-04-25T17:48:26.998Z</time></trkpt><trkpt lat="43.717891991845114" lon="7.056737425571752"><ele>430.00000000000006</ele><time>2026-04-25T17:48:27.998Z</time></trkpt><trkpt lat="43.71782707254796" lon="7.056723536738029"><ele>430.0</ele><time>2026-04-25T17:48:28.998Z</time></trkpt><trkpt lat="43.717762639825686" lon="7.056721261441307"><ele>430.0</ele><time>2026-04-25T17:48:29.998Z</time></trkpt><trkpt lat="43.71765523374447" lon="7.056692273490478"><ele>430.0</ele><time>2026-04-25T17:48:31.998Z</time></trkpt><trkpt lat="43.717577064547044" lon="7.056648131928852"><ele>430.00000000000006</ele><time>2026-04-25T17:48:33.998Z</time></trkpt><trkpt lat="43.717516090538524" lon="7.056615846406611"><ele>430.0</ele><time>2026-04-25T17:48:35.999Z</time></trkpt><trkpt lat="43.717449166501936" lon="7.056704370642661"><ele>427.50000000000006</ele><time>2026-04-25T17:48:37.999Z</time></trkpt><trkpt lat="43.71742958922087" lon="7.05680295273258"><ele>425.0</ele><time>2026-04-25T17:48:38.999Z</time></trkpt><trkpt lat="43.717432830314664" lon="7.056896501994695"><ele>422.5</ele><time>2026-04-25T17:48:39.999Z</time></trkpt><trkpt lat="43.71741256756201" lon="7.057013735431329"><ele>420.0</ele><time>2026-04-25T17:48:41.999Z</time></trkpt><trkpt lat="43.71738726590347" lon="7.057118368600334"><ele>417.50000000000006</ele><time>2026-04-25T17:48:43.999Z</time></trkpt><trkpt lat="43.717326611109065" lon="7.05721613653359"><ele>415.0</ele><time>2026-04-25T17:48:46Z</time></trkpt><trkpt lat="43.71727745797093" lon="7.057281089816581"><ele>415.0</ele><time>2026-04-25T17:48:47Z</time></trkpt><trkpt lat="43.71722890110262" lon="7.05735942946004"><ele>415.0</ele><time>2026-04-25T17:48:48Z</time></trkpt><trkpt lat="43.71717322407668" lon="7.057441619387442"><ele>415.0</ele><time>2026-04-25T17:48:49Z</time></trkpt><trkpt lat="43.717125656494865" lon="7.057523467634433"><ele>415.0</ele><time>2026-04-25T17:48:50Z</time></trkpt><trkpt lat="43.71707190711209" lon="7.057593795302007"><ele>415.0</ele><time>2026-04-25T17:48:51Z</time></trkpt><trkpt lat="43.71705408218424" lon="7.057693836997562"><ele>415.0</ele><time>2026-04-25T17:48:52Z</time></trkpt><trkpt lat="43.7170260075877" lon="7.0577731638125485"><ele>415.0</ele><time>2026-04-25T17:48:53Z</time></trkpt><trkpt lat="43.71695957336348" lon="7.057915443140872"><ele>415.6</ele><time>2026-04-25T17:48:55Z</time></trkpt><trkpt lat="43.71692437034164" lon="7.05804697003954"><ele>416.2</ele><time>2026-04-25T17:48:56.999Z</time></trkpt><trkpt lat="43.71687698475161" lon="7.0581116629875"><ele>416.79999999999995</ele><time>2026-04-25T17:48:58.999Z</time></trkpt><trkpt lat="43.71683094918536" lon="7.058274166374378"><ele>417.4</ele><time>2026-04-25T17:49:01.999Z</time></trkpt><trkpt lat="43.716854414933714" lon="7.0583845222362465"><ele>418.0</ele><time>2026-04-25T17:49:02.999Z</time></trkpt><trkpt lat="43.716861624398994" lon="7.058509842002144"><ele>418.42857142857144</ele><time>2026-04-25T17:49:03.999Z</time></trkpt><trkpt lat="43.71685833228569" lon="7.058630623751218"><ele>418.85714285714283</ele><time>2026-04-25T17:49:04.999Z</time></trkpt><trkpt lat="43.71686829318113" lon="7.0587197861039135"><ele>419.28571428571433</ele><time>2026-04-25T17:49:05.999Z</time></trkpt><trkpt lat="43.71688507844734" lon="7.058810060115993"><ele>419.7142857142857</ele><time>2026-04-25T17:49:06.999Z</time></trkpt><trkpt lat="43.7169042332507" lon="7.058909537487171"><ele>420.14285714285717</ele><time>2026-04-25T17:49:07.999Z</time></trkpt><trkpt lat="43.71692684676692" lon="7.059014394872876"><ele>420.5714285714286</ele><time>2026-04-25T17:49:08.999Z</time></trkpt><trkpt lat="43.71694395678904" lon="7.059101746196021"><ele>421.0</ele><time>2026-04-25T17:49:09.999Z</time></trkpt><trkpt lat="43.71697895351774" lon="7.0592326654336315"><ele>421.0</ele><time>2026-04-25T17:49:11.999Z</time></trkpt><trkpt lat="43.71699994629572" lon="7.059383591558692"><ele>421.0</ele><time>2026-04-25T17:49:13.999Z</time></trkpt><trkpt lat="43.71703203911431" lon="7.059541488239365"><ele>421.0</ele><time>2026-04-25T17:49:15.999Z</time></trkpt><trkpt lat="43.71707263920477" lon="7.0597069002922614"><ele>421.0</ele><time>2026-04-25T17:49:17.999Z</time></trkpt><trkpt lat="43.71711598339656" lon="7.059853446453155"><ele>421.0</ele><time>2026-04-25T17:49:19.999Z</time></trkpt><trkpt lat="43.71716463833551" lon="7.059909306971723"><ele>421.0</ele><time>2026-04-25T17:49:20.999Z</time></trkpt><trkpt lat="43.71720871403547" lon="7.060064322456397"><ele>421.0</ele><time>2026-04-25T17:49:22.999Z</time></trkpt><trkpt lat="43.71725157535104" lon="7.060213866304898"><ele>421.0</ele><time>2026-04-25T17:49:24.999Z</time></trkpt><trkpt lat="43.71731579191137" lon="7.060364657012182"><ele>421.0</ele><time>2026-04-25T17:49:26.999Z</time></trkpt><trkpt lat="43.717354491228036" lon="7.060444358755879"><ele>420.0</ele><time>2026-04-25T17:49:27.999Z</time></trkpt><trkpt lat="43.71739277731869" lon="7.0605237229808715"><ele>419.0</ele><time>2026-04-25T17:49:28.999Z</time></trkpt><trkpt lat="43.717429318495675" lon="7.060595129631058"><ele>418.0</ele><time>2026-04-25T17:49:29.999Z</time></trkpt><trkpt lat="43.717497071613465" lon="7.060737503249403"><ele>417.0</ele><time>2026-04-25T17:49:31.999Z</time></trkpt><trkpt lat="43.717565850569045" lon="7.0608754317469336"><ele>416.0</ele><time>2026-04-25T17:49:33.999Z</time></trkpt><trkpt lat="43.71762363777071" lon="7.061025314699012"><ele>416.99999999999994</ele><time>2026-04-25T17:49:35.999Z</time></trkpt><trkpt lat="43.7176573658308" lon="7.061105562462748"><ele>418.0</ele><time>2026-04-25T17:49:36.999Z</time></trkpt><trkpt lat="43.717720892670386" lon="7.061255882151853"><ele>419.0</ele><time>2026-04-25T17:49:38.999Z</time></trkpt><trkpt lat="43.71775571275153" lon="7.061338633273405"><ele>420.0</ele><time>2026-04-25T17:49:39.999Z</time></trkpt><trkpt lat="43.71779054168531" lon="7.061423047304587"><ele>420.99999999999994</ele><time>2026-04-25T17:49:40.999Z</time></trkpt><trkpt lat="43.71782642264873" lon="7.0615080661729985"><ele>422.0</ele><time>2026-04-25T17:49:41.999Z</time></trkpt><trkpt lat="43.71786038396437" lon="7.061591834076427"><ele>421.0</ele><time>2026-04-25T17:49:42.999Z</time></trkpt><trkpt lat="43.71789537622368" lon="7.061677258165628"><ele>420.0</ele><time>2026-04-25T17:49:43.999Z</time></trkpt><trkpt lat="43.717932099759494" lon="7.061761608833075"><ele>419.0</ele><time>2026-04-25T17:49:44.999Z</time></trkpt><trkpt lat="43.71797667433247" lon="7.0618472865163"><ele>418.0</ele><time>2026-04-25T17:49:45.999Z</time></trkpt><trkpt lat="43.718021195175766" lon="7.06193174494978"><ele>417.0</ele><time>2026-04-25T17:49:46.999Z</time></trkpt><trkpt lat="43.71805854846912" lon="7.062017371315793"><ele>416.0</ele><time>2026-04-25T17:49:47.999Z</time></trkpt><trkpt lat="43.718097915073855" lon="7.062112530961024"><ele>415.0</ele><time>2026-04-25T17:49:48.999Z</time></trkpt><trkpt lat="43.718142715385945" lon="7.062202603402214"><ele>415.0</ele><time>2026-04-25T17:49:49.999Z</time></trkpt><trkpt lat="43.71819110861451" lon="7.062290732023661"><ele>415.0</ele><time>2026-04-25T17:49:50.999Z</time></trkpt><trkpt lat="43.71822879370757" lon="7.062408267021235"><ele>415.0</ele><time>2026-04-25T17:49:51.999Z</time></trkpt><trkpt lat="43.71828980986298" lon="7.062520067538825"><ele>415.0</ele><time>2026-04-25T17:49:52.999Z</time></trkpt><trkpt lat="43.71834349287682" lon="7.062650428886315"><ele>415.0</ele><time>2026-04-25T17:49:53.999Z</time></trkpt><trkpt lat="43.71837942263403" lon="7.062778419251897"><ele>413.33333333333337</ele><time>2026-04-25T17:49:54.999Z</time></trkpt><trkpt lat="43.71838039993328" lon="7.062898833102007"><ele>411.6666666666667</ele><time>2026-04-25T17:49:55.999Z</time></trkpt><trkpt lat="43.71834441579174" lon="7.063014837379227"><ele>410.0</ele><time>2026-04-25T17:49:56.999Z</time></trkpt><trkpt lat="43.71829596887751" lon="7.063118707632469"><ele>408.33333333333337</ele><time>2026-04-25T17:49:57.999Z</time></trkpt><trkpt lat="43.71822468864964" lon="7.063172668894636"><ele>406.6666666666667</ele><time>2026-04-25T17:49:58.999Z</time></trkpt><trkpt lat="43.71814592642179" lon="7.0631987585413984"><ele>405.0</ele><time>2026-04-25T17:49:59.999Z</time></trkpt><trkpt lat="43.71804813407241" lon="7.063199432886622"><ele>405.0</ele><time>2026-04-25T17:50:00.999Z</time></trkpt><trkpt lat="43.71795006837251" lon="7.063217095138465"><ele>405.0</ele><time>2026-04-25T17:50:01.999Z</time></trkpt><trkpt lat="43.71785172150254" lon="7.06325268589225"><ele>405.0</ele><time>2026-04-25T17:50:02.999Z</time></trkpt><trkpt lat="43.71777133480588" lon="7.0633059336930675"><ele>405.0</ele><time>2026-04-25T17:50:03.999Z</time></trkpt><trkpt lat="43.717698650891194" lon="7.06338651727628"><ele>405.0</ele><time>2026-04-25T17:50:04.999Z</time></trkpt><trkpt lat="43.71763136819893" lon="7.063472833788976"><ele>404.0</ele><time>2026-04-25T17:50:05.998Z</time></trkpt><trkpt lat="43.717558796606745" lon="7.063584802275268"><ele>403.0</ele><time>2026-04-25T17:50:06.998Z</time></trkpt><trkpt lat="43.71749379166422" lon="7.063698965635774"><ele>402.0</ele><time>2026-04-25T17:50:07.998Z</time></trkpt><trkpt lat="43.717436711167814" lon="7.063803379049768"><ele>401.0</ele><time>2026-04-25T17:50:08.998Z</time></trkpt><trkpt lat="43.717379302416674" lon="7.063906976376197"><ele>400.0</ele><time>2026-04-25T17:50:09.998Z</time></trkpt><trkpt lat="43.717318666769685" lon="7.064008810272282"><ele>400.33333333333337</ele><time>2026-04-25T17:50:10.998Z</time></trkpt><trkpt lat="43.717262049244965" lon="7.064117228823812"><ele>400.6666666666667</ele><time>2026-04-25T17:50:11.998Z</time></trkpt><trkpt lat="43.717211251546516" lon="7.0642186500578985"><ele>401.0</ele><time>2026-04-25T17:50:12.998Z</time></trkpt><trkpt lat="43.717168446155135" lon="7.064310959942819"><ele>401.33333333333337</ele><time>2026-04-25T17:50:13.998Z</time></trkpt><trkpt lat="43.71712874694795" lon="7.064387702623523"><ele>401.6666666666667</ele><time>2026-04-25T17:50:14.998Z</time></trkpt><trkpt lat="43.717100855183546" lon="7.064473830630513"><ele>402.0</ele><time>2026-04-25T17:50:15.998Z</time></trkpt><trkpt lat="43.71705855277428" lon="7.064639665066977"><ele>402.0</ele><time>2026-04-25T17:50:17.998Z</time></trkpt><trkpt lat="43.71702075743738" lon="7.064715293274295"><ele>402.0</ele><time>2026-04-25T17:50:18.998Z</time></trkpt><trkpt lat="43.716947409418125" lon="7.064764397789379"><ele>402.0</ele><time>2026-04-25T17:50:19.998Z</time></trkpt><trkpt lat="43.71687499961138" lon="7.064814240887781"><ele>402.0</ele><time>2026-04-25T17:50:20.998Z</time></trkpt><trkpt lat="43.716797655930904" lon="7.064874713263478"><ele>402.0</ele><time>2026-04-25T17:50:21.998Z</time></trkpt><trkpt lat="43.716715436780945" lon="7.064937820421711"><ele>402.0</ele><time>2026-04-25T17:50:22.998Z</time></trkpt><trkpt lat="43.716642849874745" lon="7.064997799878095"><ele>400.0</ele><time>2026-04-25T17:50:23.998Z</time></trkpt><trkpt lat="43.71657772804798" lon="7.065045753616171"><ele>398.0</ele><time>2026-04-25T17:50:24.998Z</time></trkpt><trkpt lat="43.71651882700024" lon="7.065089946152511"><ele>396.0</ele><time>2026-04-25T17:50:25.998Z</time></trkpt><trkpt lat="43.71642137258126" lon="7.06518348003774"><ele>394.0</ele><time>2026-04-25T17:50:27.998Z</time></trkpt><trkpt lat="43.71639790225899" lon="7.065374923314932"><ele>392.0</ele><time>2026-04-25T17:50:29.998Z</time></trkpt><trkpt lat="43.716422132893264" lon="7.065497804217648"><ele>391.99999999999994</ele><time>2026-04-25T17:50:30.998Z</time></trkpt><trkpt lat="43.71644028689051" lon="7.06561153259838"><ele>392.0</ele><time>2026-04-25T17:50:31.998Z</time></trkpt><trkpt lat="43.71644596579897" lon="7.065726111591228"><ele>392.0</ele><time>2026-04-25T17:50:32.998Z</time></trkpt><trkpt lat="43.716477925498914" lon="7.065841285126067"><ele>392.0</ele><time>2026-04-25T17:50:33.998Z</time></trkpt><trkpt lat="43.71647849132811" lon="7.065967230029889"><ele>391.99999999999994</ele><time>2026-04-25T17:50:34.998Z</time></trkpt><trkpt lat="43.71649834682629" lon="7.06608953409713"><ele>392.0</ele><time>2026-04-25T17:50:35.998Z</time></trkpt><trkpt lat="43.71652211093205" lon="7.066214013794494"><ele>390.6</ele><time>2026-04-25T17:50:36.998Z</time></trkpt><trkpt lat="43.716546965868616" lon="7.066340982803983"><ele>389.20000000000005</ele><time>2026-04-25T17:50:37.998Z</time></trkpt><trkpt lat="43.71657745754166" lon="7.0664714738226975"><ele>387.8</ele><time>2026-04-25T17:50:38.998Z</time></trkpt><trkpt lat="43.71658236589802" lon="7.066622225778471"><ele>386.4</ele><time>2026-04-25T17:50:39.998Z</time></trkpt><trkpt lat="43.716604105933364" lon="7.0667708495012995"><ele>385.0</ele><time>2026-04-25T17:50:40.998Z</time></trkpt><trkpt lat="43.71661878830651" lon="7.066909193493137"><ele>383.2</ele><time>2026-04-25T17:50:42Z</time></trkpt><trkpt lat="43.716641542422245" lon="7.067034901544626"><ele>381.4</ele><time>2026-04-25T17:50:43Z</time></trkpt><trkpt lat="43.71664265030544" lon="7.067155682524276"><ele>379.6</ele><time>2026-04-25T17:50:44Z</time></trkpt><trkpt lat="43.716520508437824" lon="7.067253249180418"><ele>377.8</ele><time>2026-04-25T17:50:45Z</time></trkpt><trkpt lat="43.716485477072496" lon="7.067359758182358"><ele>376.0</ele><time>2026-04-25T17:50:46Z</time></trkpt><trkpt lat="43.71644350408875" lon="7.067456909241198"><ele>375.5</ele><time>2026-04-25T17:50:47Z</time></trkpt><trkpt lat="43.71640227550934" lon="7.067567145584566"><ele>375.0</ele><time>2026-04-25T17:50:48Z</time></trkpt><trkpt lat="43.71636726651994" lon="7.067686903992451"><ele>374.5</ele><time>2026-04-25T17:50:49Z</time></trkpt><trkpt lat="43.71632938260304" lon="7.067796358801379"><ele>374.0</ele><time>2026-04-25T17:50:50Z</time></trkpt><trkpt lat="43.71627021482017" lon="7.067876307960006"><ele>373.5</ele><time>2026-04-25T17:50:51Z</time></trkpt><trkpt lat="43.71622748261447" lon="7.067975275837082"><ele>373.0</ele><time>2026-04-25T17:50:52Z</time></trkpt><trkpt lat="43.71612781311381" lon="7.068037939792298"><ele>370.0</ele><time>2026-04-25T17:50:53Z</time></trkpt><trkpt lat="43.71605790145052" lon="7.0680860760926345"><ele>367.0</ele><time>2026-04-25T17:50:54Z</time></trkpt><trkpt lat="43.715995876454414" lon="7.068166948094901"><ele>364.0</ele><time>2026-04-25T17:50:55Z</time></trkpt><trkpt lat="43.71592725380827" lon="7.068253678052086"><ele>361.0</ele><time>2026-04-25T17:50:56Z</time></trkpt><trkpt lat="43.71590553651159" lon="7.068384784441018"><ele>358.0</ele><time>2026-04-25T17:50:57Z</time></trkpt><trkpt lat="43.71587041836776" lon="7.068533859810338"><ele>358.0</ele><time>2026-04-25T17:50:58Z</time></trkpt><trkpt lat="43.715844105914854" lon="7.068679155809489"><ele>358.0</ele><time>2026-04-25T17:50:59Z</time></trkpt><trkpt lat="43.71581733139828" lon="7.0688051762312"><ele>358.0</ele><time>2026-04-25T17:51:00Z</time></trkpt><trkpt lat="43.7157947493094" lon="7.068927682079876"><ele>358.0</ele><time>2026-04-25T17:51:01Z</time></trkpt><trkpt lat="43.71575859776963" lon="7.069052478428867"><ele>358.0</ele><time>2026-04-25T17:51:02Z</time></trkpt><trkpt lat="43.71572611544935" lon="7.069185850211818"><ele>357.79999999999995</ele><time>2026-04-25T17:51:03Z</time></trkpt><trkpt lat="43.7156941998441" lon="7.069324875984052"><ele>357.6</ele><time>2026-04-25T17:51:04Z</time></trkpt><trkpt lat="43.71567172583225" lon="7.069477377089576"><ele>357.4</ele><time>2026-04-25T17:51:05Z</time></trkpt><trkpt lat="43.715660186413096" lon="7.069619294281062"><ele>357.20000000000005</ele><time>2026-04-25T17:51:06Z</time></trkpt><trkpt lat="43.71565783212522" lon="7.06975048307286"><ele>357.0</ele><time>2026-04-25T17:51:06.999Z</time></trkpt><trkpt lat="43.71565633967376" lon="7.069874153335361"><ele>356.6666666666667</ele><time>2026-04-25T17:51:07.999Z</time></trkpt><trkpt lat="43.71566083621973" lon="7.0699937834060504"><ele>356.3333333333333</ele><time>2026-04-25T17:51:08.999Z</time></trkpt><trkpt lat="43.71566851382366" lon="7.0701026131089035"><ele>356.0</ele><time>2026-04-25T17:51:09.999Z</time></trkpt><trkpt lat="43.71567557556617" lon="7.070194767889962"><ele>355.66666666666663</ele><time>2026-04-25T17:51:10.999Z</time></trkpt><trkpt lat="43.71561478882324" lon="7.0703186940691864"><ele>355.3333333333333</ele><time>2026-04-25T17:51:12.999Z</time></trkpt><trkpt lat="43.71554907532303" lon="7.070365884588627"><ele>355.0</ele><time>2026-04-25T17:51:13.999Z</time></trkpt><trkpt lat="43.71548681480729" lon="7.070428244724154"><ele>355.0</ele><time>2026-04-25T17:51:14.999Z</time></trkpt><trkpt lat="43.71542921116167" lon="7.070483362939303"><ele>355.0</ele><time>2026-04-25T17:51:15.999Z</time></trkpt><trkpt lat="43.71537253511676" lon="7.070533791915277"><ele>355.0</ele><time>2026-04-25T17:51:16.999Z</time></trkpt><trkpt lat="43.71531569974078" lon="7.070582792863986"><ele>355.0</ele><time>2026-04-25T17:51:17.999Z</time></trkpt><trkpt lat="43.715212275671334" lon="7.0706808513776265"><ele>355.0</ele><time>2026-04-25T17:51:19.999Z</time></trkpt><trkpt lat="43.71509875038268" lon="7.070746452069558"><ele>353.0</ele><time>2026-04-25T17:51:21.999Z</time></trkpt><trkpt lat="43.71504000987699" lon="7.070784471780853"><ele>351.0</ele><time>2026-04-25T17:51:22.999Z</time></trkpt><trkpt lat="43.714929917557264" lon="7.070868287279344"><ele>349.0</ele><time>2026-04-25T17:51:24.999Z</time></trkpt><trkpt lat="43.71486416551886" lon="7.0709034854731625"><ele>347.0</ele><time>2026-04-25T17:51:25.999Z</time></trkpt><trkpt lat="43.71479369347536" lon="7.07092896416874"><ele>345.0</ele><time>2026-04-25T17:51:26.999Z</time></trkpt><trkpt lat="43.714717199594084" lon="7.070932982379762"><ele>343.0</ele><time>2026-04-25T17:51:27.999Z</time></trkpt><trkpt lat="43.7146324161805" lon="7.070920005738873"><ele>343.0</ele><time>2026-04-25T17:51:28.999Z</time></trkpt><trkpt lat="43.714546663238586" lon="7.070915400943022"><ele>343.0</ele><time>2026-04-25T17:51:29.999Z</time></trkpt><trkpt lat="43.71446361577582" lon="7.070903933067812"><ele>343.0</ele><time>2026-04-25T17:51:30.999Z</time></trkpt><trkpt lat="43.71438388661073" lon="7.070883645118548"><ele>343.0</ele><time>2026-04-25T17:51:31.999Z</time></trkpt><trkpt lat="43.71429597600726" lon="7.070862892125219"><ele>343.0</ele><time>2026-04-25T17:51:32.999Z</time></trkpt><trkpt lat="43.71421611285528" lon="7.070845514991602"><ele>343.0</ele><time>2026-04-25T17:51:33.999Z</time></trkpt><trkpt lat="43.71413404324577" lon="7.070822054988033"><ele>341.0</ele><time>2026-04-25T17:51:34.999Z</time></trkpt><trkpt lat="43.71405171781993" lon="7.070801308114394"><ele>339.0</ele><time>2026-04-25T17:51:35.999Z</time></trkpt><trkpt lat="43.713967913868764" lon="7.070786365266641"><ele>337.0</ele><time>2026-04-25T17:51:36.999Z</time></trkpt><trkpt lat="43.713893220272894" lon="7.070769413318131"><ele>335.0</ele><time>2026-04-25T17:51:37.999Z</time></trkpt><trkpt lat="43.71381551716235" lon="7.070765652886307"><ele>333.0</ele><time>2026-04-25T17:51:39.999Z</time></trkpt><trkpt lat="43.713754276850345" lon="7.070951993386715"><ele>333.0</ele><time>2026-04-25T17:51:43.999Z</time></trkpt><trkpt lat="43.713757281590844" lon="7.071046682415031"><ele>333.0</ele><time>2026-04-25T17:51:44.999Z</time></trkpt><trkpt lat="43.71375816416729" lon="7.071147472868232"><ele>333.0</ele><time>2026-04-25T17:51:45.999Z</time></trkpt><trkpt lat="43.713758112922086" lon="7.07125592809902"><ele>333.0</ele><time>2026-04-25T17:51:46.999Z</time></trkpt><trkpt lat="43.71376464053939" lon="7.071366200665441"><ele>333.0</ele><time>2026-04-25T17:51:47.999Z</time></trkpt><trkpt lat="43.71377922706491" lon="7.071480624510353"><ele>333.0</ele><time>2026-04-25T17:51:48.999Z</time></trkpt><trkpt lat="43.713797769695695" lon="7.071598586117669"><ele>332.8333333333333</ele><time>2026-04-25T17:51:49.999Z</time></trkpt><trkpt lat="43.71381393515208" lon="7.071708936964038"><ele>332.6666666666667</ele><time>2026-04-25T17:51:50.999Z</time></trkpt><trkpt lat="43.713836048473325" lon="7.071803818858915"><ele>332.5</ele><time>2026-04-25T17:51:51.999Z</time></trkpt><trkpt lat="43.71386445869916" lon="7.071896505297603"><ele>332.33333333333337</ele><time>2026-04-25T17:51:52.999Z</time></trkpt><trkpt lat="43.7138808558417" lon="7.072010963976411"><ele>332.1666666666667</ele><time>2026-04-25T17:51:53.999Z</time></trkpt><trkpt lat="43.71393287090768" lon="7.072125712498061"><ele>332.0</ele><time>2026-04-25T17:51:54.999Z</time></trkpt><trkpt lat="43.713970826986426" lon="7.0722606932233365"><ele>332.0</ele><time>2026-04-25T17:51:55.999Z</time></trkpt><trkpt lat="43.71402691199963" lon="7.072404079766934"><ele>332.0</ele><time>2026-04-25T17:51:56.999Z</time></trkpt><trkpt lat="43.71408944089788" lon="7.07252622613458"><ele>332.0</ele><time>2026-04-25T17:51:57.999Z</time></trkpt><trkpt lat="43.71412822966831" lon="7.072627052693404"><ele>332.0</ele><time>2026-04-25T17:51:58.999Z</time></trkpt><trkpt lat="43.71415255421568" lon="7.07272044760126"><ele>332.0</ele><time>2026-04-25T17:51:59.999Z</time></trkpt><trkpt lat="43.71419539793827" lon="7.072790990778287"><ele>332.0</ele><time>2026-04-25T17:52:00.999Z</time></trkpt><trkpt lat="43.7142356561235" lon="7.072871931207833"><ele>332.0</ele><time>2026-04-25T17:52:01.999Z</time></trkpt><trkpt lat="43.714188622305066" lon="7.07298548520337"><ele>332.0</ele><time>2026-04-25T17:52:02.999Z</time></trkpt><trkpt lat="43.71411499391041" lon="7.073046176881032"><ele>332.0</ele><time>2026-04-25T17:52:03.999Z</time></trkpt><trkpt lat="43.71404715564738" lon="7.073125794654065"><ele>332.0</ele><time>2026-04-25T17:52:04.999Z</time></trkpt><trkpt lat="43.7139706803953" lon="7.073209464821022"><ele>332.0</ele><time>2026-04-25T17:52:05.999Z</time></trkpt><trkpt lat="43.713874054804435" lon="7.073277591089664"><ele>331.40000000000003</ele><time>2026-04-25T17:52:06.999Z</time></trkpt><trkpt lat="43.713793718229624" lon="7.073355061695574"><ele>330.8</ele><time>2026-04-25T17:52:07.999Z</time></trkpt><trkpt lat="43.71372209470798" lon="7.073443681020983"><ele>330.2</ele><time>2026-04-25T17:52:08.999Z</time></trkpt><trkpt lat="43.71363406908137" lon="7.073517140221217"><ele>329.6</ele><time>2026-04-25T17:52:09.999Z</time></trkpt><trkpt lat="43.71355177397827" lon="7.073593238152577"><ele>329.0</ele><time>2026-04-25T17:52:10.998Z</time></trkpt><trkpt lat="43.71346642601365" lon="7.073675899320257"><ele>326.59999999999997</ele><time>2026-04-25T17:52:11.998Z</time></trkpt><trkpt lat="43.71338053570039" lon="7.073761172403653"><ele>324.2</ele><time>2026-04-25T17:52:12.998Z</time></trkpt><trkpt lat="43.71329759637267" lon="7.073855740855691"><ele>321.79999999999995</ele><time>2026-04-25T17:52:13.998Z</time></trkpt><trkpt lat="43.71322022235448" lon="7.07394742944739"><ele>319.4</ele><time>2026-04-25T17:52:14.998Z</time></trkpt><trkpt lat="43.71313741671746" lon="7.074036251682745"><ele>317.0</ele><time>2026-04-25T17:52:15.998Z</time></trkpt><trkpt lat="43.71308840833295" lon="7.074153667221007"><ele>317.0</ele><time>2026-04-25T17:52:16.998Z</time></trkpt><trkpt lat="43.713039174821695" lon="7.0742533167459305"><ele>317.0</ele><time>2026-04-25T17:52:17.998Z</time></trkpt><trkpt lat="43.71301279623503" lon="7.074342387265584"><ele>317.0</ele><time>2026-04-25T17:52:18.998Z</time></trkpt><trkpt lat="43.71296410099307" lon="7.074432413780696"><ele>317.0</ele><time>2026-04-25T17:52:20.998Z</time></trkpt><trkpt lat="43.71303064051512" lon="7.0744904050790565"><ele>317.0</ele><time>2026-04-25T17:52:35.998Z</time></trkpt><trkpt lat="43.71306733519648" lon="7.074584558260369"><ele>317.0</ele><time>2026-04-25T17:52:40.998Z</time></trkpt><trkpt lat="43.713081486745985" lon="7.074701324949817"><ele>317.0</ele><time>2026-04-25T17:52:42.998Z</time></trkpt><trkpt lat="43.71306534766376" lon="7.074792605655415"><ele>317.0</ele><time>2026-04-25T17:53:48.999Z</time></trkpt><trkpt lat="43.712997893858834" lon="7.074843704730125"><ele>317.0</ele><time>2026-04-25T17:53:51.999Z</time></trkpt><trkpt lat="43.712912256572544" lon="7.074864928819526"><ele>317.0</ele><time>2026-04-25T17:53:53.999Z</time></trkpt><trkpt lat="43.712840313531814" lon="7.074950136096682"><ele>317.0</ele><time>2026-04-25T17:53:55.999Z</time></trkpt><trkpt lat="43.712813696169604" lon="7.075044383537792"><ele>317.0</ele><time>2026-04-25T17:53:57.999Z</time></trkpt><trkpt lat="43.71285527483822" lon="7.0749783820696495"><ele>313.0</ele><time>2026-04-25T17:54:21.998Z</time></trkpt></trkseg></trk></gpx>